<?xml version="1.0" encoding="UTF-8" standalone="no" ?>
<gpx xmlns="http://www.topografix.com/GPX/1/1" xmlns:xsi="http://www.w3.org/2001/XMLSchema-instance" xsi:schemaLocation="http://www.topografix.com/GPX/1/1 http://www.topografix.com/GPX/1/1/gpx.xsd" version="1.1" creator="VisuGPX - https://www.visugpx.com">
  <metadata>
    <name>VAE Vallée du lot 3 étapes-16298984</name>
  </metadata>
  <trk>
    <name><![CDATA[VAE Vallée du lot 3 étapes-16298984]]></name>
    <trkseg>
      <trkpt lat="44.03103" lon="0.37382">
        <ele>106</ele>
        <time>2023-03-03T18:03:24Z</time>
      </trkpt>
      <trkpt lat="44.03097" lon="0.373">
        <ele>109</ele>
        <time>2023-03-03T18:03:35Z</time>
      </trkpt>
      <trkpt lat="44.03162" lon="0.37292">
        <ele>107</ele>
        <time>2023-03-03T18:03:46Z</time>
      </trkpt>
      <trkpt lat="44.03199" lon="0.37289">
        <ele>106</ele>
        <time>2023-03-03T18:03:53Z</time>
      </trkpt>
      <trkpt lat="44.03239" lon="0.37296">
        <ele>105</ele>
        <time>2023-03-03T18:04:00Z</time>
      </trkpt>
      <trkpt lat="44.03254" lon="0.37297">
        <ele>105</ele>
        <time>2023-03-03T18:04:03Z</time>
      </trkpt>
      <trkpt lat="44.03268" lon="0.37296">
        <ele>105</ele>
        <time>2023-03-03T18:04:05Z</time>
      </trkpt>
      <trkpt lat="44.03309" lon="0.37286">
        <ele>104</ele>
        <time>2023-03-03T18:04:12Z</time>
      </trkpt>
      <trkpt lat="44.03329" lon="0.37285">
        <ele>104</ele>
        <time>2023-03-03T18:04:16Z</time>
      </trkpt>
      <trkpt lat="44.03396" lon="0.37316">
        <ele>99</ele>
        <time>2023-03-03T18:04:29Z</time>
      </trkpt>
      <trkpt lat="44.0341" lon="0.37329">
        <ele>98</ele>
        <time>2023-03-03T18:04:32Z</time>
      </trkpt>
      <trkpt lat="44.03483" lon="0.37214">
        <ele>95</ele>
        <time>2023-03-03T18:04:51Z</time>
      </trkpt>
      <trkpt lat="44.03488" lon="0.37205">
        <ele>95</ele>
        <time>2023-03-03T18:04:53Z</time>
      </trkpt>
      <trkpt lat="44.03535" lon="0.37132">
        <ele>94</ele>
        <time>2023-03-03T18:05:05Z</time>
      </trkpt>
      <trkpt lat="44.03556" lon="0.37092">
        <ele>93</ele>
        <time>2023-03-03T18:05:12Z</time>
      </trkpt>
      <trkpt lat="44.03583" lon="0.37026">
        <ele>87</ele>
        <time>2023-03-03T18:05:21Z</time>
      </trkpt>
      <trkpt lat="44.03583" lon="0.37017">
        <ele>86</ele>
        <time>2023-03-03T18:05:22Z</time>
      </trkpt>
      <trkpt lat="44.03582" lon="0.37004">
        <ele>84</ele>
        <time>2023-03-03T18:05:24Z</time>
      </trkpt>
      <trkpt lat="44.03579" lon="0.36997">
        <ele>84</ele>
        <time>2023-03-03T18:05:25Z</time>
      </trkpt>
      <trkpt lat="44.03601" lon="0.3698">
        <ele>80</ele>
        <time>2023-03-03T18:05:30Z</time>
      </trkpt>
      <trkpt lat="44.03617" lon="0.36973">
        <ele>79</ele>
        <time>2023-03-03T18:05:33Z</time>
      </trkpt>
      <trkpt lat="44.03635" lon="0.36971">
        <ele>79</ele>
        <time>2023-03-03T18:05:36Z</time>
      </trkpt>
      <trkpt lat="44.03651" lon="0.36974">
        <ele>79</ele>
        <time>2023-03-03T18:05:39Z</time>
      </trkpt>
      <trkpt lat="44.03797" lon="0.3703">
        <ele>73</ele>
        <time>2023-03-03T18:06:06Z</time>
      </trkpt>
      <trkpt lat="44.03811" lon="0.37037">
        <ele>72</ele>
        <time>2023-03-03T18:06:08Z</time>
      </trkpt>
      <trkpt lat="44.03823" lon="0.37046">
        <ele>71</ele>
        <time>2023-03-03T18:06:11Z</time>
      </trkpt>
      <trkpt lat="44.03834" lon="0.37057">
        <ele>70</ele>
        <time>2023-03-03T18:06:13Z</time>
      </trkpt>
      <trkpt lat="44.03869" lon="0.37103">
        <ele>68</ele>
        <time>2023-03-03T18:06:22Z</time>
      </trkpt>
      <trkpt lat="44.03888" lon="0.37124">
        <ele>68</ele>
        <time>2023-03-03T18:06:26Z</time>
      </trkpt>
      <trkpt lat="44.03987" lon="0.37211">
        <ele>70</ele>
        <time>2023-03-03T18:06:47Z</time>
      </trkpt>
      <trkpt lat="44.0401" lon="0.37241">
        <ele>69</ele>
        <time>2023-03-03T18:06:52Z</time>
      </trkpt>
      <trkpt lat="44.04089" lon="0.37369">
        <ele>69</ele>
        <time>2023-03-03T18:07:14Z</time>
      </trkpt>
      <trkpt lat="44.04105" lon="0.37387">
        <ele>69</ele>
        <time>2023-03-03T18:07:18Z</time>
      </trkpt>
      <trkpt lat="44.04147" lon="0.37418">
        <ele>67</ele>
        <time>2023-03-03T18:07:26Z</time>
      </trkpt>
      <trkpt lat="44.04171" lon="0.37441">
        <ele>66</ele>
        <time>2023-03-03T18:07:31Z</time>
      </trkpt>
      <trkpt lat="44.04254" lon="0.37552">
        <ele>65</ele>
        <time>2023-03-03T18:07:52Z</time>
      </trkpt>
      <trkpt lat="44.04264" lon="0.37562">
        <ele>66</ele>
        <time>2023-03-03T18:07:54Z</time>
      </trkpt>
      <trkpt lat="44.04314" lon="0.37596">
        <ele>66</ele>
        <time>2023-03-03T18:08:04Z</time>
      </trkpt>
      <trkpt lat="44.04355" lon="0.37631">
        <ele>66</ele>
        <time>2023-03-03T18:08:12Z</time>
      </trkpt>
      <trkpt lat="44.0444" lon="0.3769">
        <ele>65</ele>
        <time>2023-03-03T18:08:29Z</time>
      </trkpt>
      <trkpt lat="44.04459" lon="0.37708">
        <ele>64</ele>
        <time>2023-03-03T18:08:33Z</time>
      </trkpt>
      <trkpt lat="44.045" lon="0.37754">
        <ele>64</ele>
        <time>2023-03-03T18:08:43Z</time>
      </trkpt>
      <trkpt lat="44.04555" lon="0.37833">
        <ele>66</ele>
        <time>2023-03-03T18:08:57Z</time>
      </trkpt>
      <trkpt lat="44.04619" lon="0.37942">
        <ele>64</ele>
        <time>2023-03-03T18:09:15Z</time>
      </trkpt>
      <trkpt lat="44.04633" lon="0.3796">
        <ele>64</ele>
        <time>2023-03-03T18:09:18Z</time>
      </trkpt>
      <trkpt lat="44.04647" lon="0.37974">
        <ele>65</ele>
        <time>2023-03-03T18:09:21Z</time>
      </trkpt>
      <trkpt lat="44.04673" lon="0.37995">
        <ele>66</ele>
        <time>2023-03-03T18:09:27Z</time>
      </trkpt>
      <trkpt lat="44.04785" lon="0.38045">
        <ele>68</ele>
        <time>2023-03-03T18:09:48Z</time>
      </trkpt>
      <trkpt lat="44.05228" lon="0.38285">
        <ele>71</ele>
        <time>2023-03-03T18:11:12Z</time>
      </trkpt>
      <trkpt lat="44.0525" lon="0.38292">
        <ele>71</ele>
        <time>2023-03-03T18:11:16Z</time>
      </trkpt>
      <trkpt lat="44.05334" lon="0.38305">
        <ele>70</ele>
        <time>2023-03-03T18:11:31Z</time>
      </trkpt>
      <trkpt lat="44.0543" lon="0.38352">
        <ele>71</ele>
        <time>2023-03-03T18:11:49Z</time>
      </trkpt>
      <trkpt lat="44.05445" lon="0.38366">
        <ele>70</ele>
        <time>2023-03-03T18:11:53Z</time>
      </trkpt>
      <trkpt lat="44.05483" lon="0.38408">
        <ele>67</ele>
        <time>2023-03-03T18:12:01Z</time>
      </trkpt>
      <trkpt lat="44.05522" lon="0.3846">
        <ele>66</ele>
        <time>2023-03-03T18:12:11Z</time>
      </trkpt>
      <trkpt lat="44.05539" lon="0.38479">
        <ele>66</ele>
        <time>2023-03-03T18:12:15Z</time>
      </trkpt>
      <trkpt lat="44.05551" lon="0.38489">
        <ele>66</ele>
        <time>2023-03-03T18:12:17Z</time>
      </trkpt>
      <trkpt lat="44.05653" lon="0.3856">
        <ele>65</ele>
        <time>2023-03-03T18:12:38Z</time>
      </trkpt>
      <trkpt lat="44.05711" lon="0.38573">
        <ele>64</ele>
        <time>2023-03-03T18:12:48Z</time>
      </trkpt>
      <trkpt lat="44.05725" lon="0.38579">
        <ele>64</ele>
        <time>2023-03-03T18:12:51Z</time>
      </trkpt>
      <trkpt lat="44.05751" lon="0.38596">
        <ele>65</ele>
        <time>2023-03-03T18:12:56Z</time>
      </trkpt>
      <trkpt lat="44.05811" lon="0.38645">
        <ele>68</ele>
        <time>2023-03-03T18:13:08Z</time>
      </trkpt>
      <trkpt lat="44.0582" lon="0.3865">
        <ele>68</ele>
        <time>2023-03-03T18:13:10Z</time>
      </trkpt>
      <trkpt lat="44.05834" lon="0.38654">
        <ele>67</ele>
        <time>2023-03-03T18:13:12Z</time>
      </trkpt>
      <trkpt lat="44.05854" lon="0.38657">
        <ele>67</ele>
        <time>2023-03-03T18:13:16Z</time>
      </trkpt>
      <trkpt lat="44.05868" lon="0.38653">
        <ele>66</ele>
        <time>2023-03-03T18:13:18Z</time>
      </trkpt>
      <trkpt lat="44.05877" lon="0.38645">
        <ele>66</ele>
        <time>2023-03-03T18:13:20Z</time>
      </trkpt>
      <trkpt lat="44.05949" lon="0.38557">
        <ele>61</ele>
        <time>2023-03-03T18:13:37Z</time>
      </trkpt>
      <trkpt lat="44.05966" lon="0.38541">
        <ele>61</ele>
        <time>2023-03-03T18:13:41Z</time>
      </trkpt>
      <trkpt lat="44.05994" lon="0.38525">
        <ele>61</ele>
        <time>2023-03-03T18:13:46Z</time>
      </trkpt>
      <trkpt lat="44.06019" lon="0.38514">
        <ele>62</ele>
        <time>2023-03-03T18:13:51Z</time>
      </trkpt>
      <trkpt lat="44.06094" lon="0.38499">
        <ele>63</ele>
        <time>2023-03-03T18:14:05Z</time>
      </trkpt>
      <trkpt lat="44.06398" lon="0.3845">
        <ele>58</ele>
        <time>2023-03-03T18:14:59Z</time>
      </trkpt>
      <trkpt lat="44.06399" lon="0.38514">
        <ele>60</ele>
        <time>2023-03-03T18:15:07Z</time>
      </trkpt>
      <trkpt lat="44.06397" lon="0.38542">
        <ele>61</ele>
        <time>2023-03-03T18:15:11Z</time>
      </trkpt>
      <trkpt lat="44.06394" lon="0.38566">
        <ele>61</ele>
        <time>2023-03-03T18:15:14Z</time>
      </trkpt>
      <trkpt lat="44.06384" lon="0.38601">
        <ele>63</ele>
        <time>2023-03-03T18:15:19Z</time>
      </trkpt>
      <trkpt lat="44.06374" lon="0.38628">
        <ele>65</ele>
        <time>2023-03-03T18:15:23Z</time>
      </trkpt>
      <trkpt lat="44.06354" lon="0.38662">
        <ele>67</ele>
        <time>2023-03-03T18:15:28Z</time>
      </trkpt>
      <trkpt lat="44.06293" lon="0.38736">
        <ele>74</ele>
        <time>2023-03-03T18:15:43Z</time>
      </trkpt>
      <trkpt lat="44.06268" lon="0.38775">
        <ele>77</ele>
        <time>2023-03-03T18:15:49Z</time>
      </trkpt>
      <trkpt lat="44.06254" lon="0.38808">
        <ele>78</ele>
        <time>2023-03-03T18:15:54Z</time>
      </trkpt>
      <trkpt lat="44.06242" lon="0.38848">
        <ele>80</ele>
        <time>2023-03-03T18:16:00Z</time>
      </trkpt>
      <trkpt lat="44.06232" lon="0.38913">
        <ele>82</ele>
        <time>2023-03-03T18:16:08Z</time>
      </trkpt>
      <trkpt lat="44.06229" lon="0.38952">
        <ele>85</ele>
        <time>2023-03-03T18:16:13Z</time>
      </trkpt>
      <trkpt lat="44.06231" lon="0.39068">
        <ele>92</ele>
        <time>2023-03-03T18:16:28Z</time>
      </trkpt>
      <trkpt lat="44.06237" lon="0.39234">
        <ele>97</ele>
        <time>2023-03-03T18:16:49Z</time>
      </trkpt>
      <trkpt lat="44.06241" lon="0.3927">
        <ele>98</ele>
        <time>2023-03-03T18:16:54Z</time>
      </trkpt>
      <trkpt lat="44.0625" lon="0.39314">
        <ele>100</ele>
        <time>2023-03-03T18:17:00Z</time>
      </trkpt>
      <trkpt lat="44.06258" lon="0.39344">
        <ele>100</ele>
        <time>2023-03-03T18:17:04Z</time>
      </trkpt>
      <trkpt lat="44.06265" lon="0.39363">
        <ele>100</ele>
        <time>2023-03-03T18:17:07Z</time>
      </trkpt>
      <trkpt lat="44.06276" lon="0.39381">
        <ele>101</ele>
        <time>2023-03-03T18:17:10Z</time>
      </trkpt>
      <trkpt lat="44.06312" lon="0.39424">
        <ele>105</ele>
        <time>2023-03-03T18:17:18Z</time>
      </trkpt>
      <trkpt lat="44.06329" lon="0.39453">
        <ele>108</ele>
        <time>2023-03-03T18:17:23Z</time>
      </trkpt>
      <trkpt lat="44.06335" lon="0.39442">
        <ele>109</ele>
        <time>2023-03-03T18:17:25Z</time>
      </trkpt>
      <trkpt lat="44.06336" lon="0.39436">
        <ele>109</ele>
        <time>2023-03-03T18:17:26Z</time>
      </trkpt>
      <trkpt lat="44.06324" lon="0.39371">
        <ele>109</ele>
        <time>2023-03-03T18:17:34Z</time>
      </trkpt>
      <trkpt lat="44.06322" lon="0.39346">
        <ele>109</ele>
        <time>2023-03-03T18:17:37Z</time>
      </trkpt>
      <trkpt lat="44.06326" lon="0.39328">
        <ele>110</ele>
        <time>2023-03-03T18:17:40Z</time>
      </trkpt>
      <trkpt lat="44.06336" lon="0.39318">
        <ele>111</ele>
        <time>2023-03-03T18:17:42Z</time>
      </trkpt>
      <trkpt lat="44.06346" lon="0.39316">
        <ele>112</ele>
        <time>2023-03-03T18:17:44Z</time>
      </trkpt>
      <trkpt lat="44.0643" lon="0.39327">
        <ele>119</ele>
        <time>2023-03-03T18:17:59Z</time>
      </trkpt>
      <trkpt lat="44.06442" lon="0.39327">
        <ele>120</ele>
        <time>2023-03-03T18:18:01Z</time>
      </trkpt>
      <trkpt lat="44.06468" lon="0.39324">
        <ele>120</ele>
        <time>2023-03-03T18:18:05Z</time>
      </trkpt>
      <trkpt lat="44.06524" lon="0.39304">
        <ele>122</ele>
        <time>2023-03-03T18:18:16Z</time>
      </trkpt>
      <trkpt lat="44.06697" lon="0.39258">
        <ele>129</ele>
        <time>2023-03-03T18:18:47Z</time>
      </trkpt>
      <trkpt lat="44.06712" lon="0.39256">
        <ele>130</ele>
        <time>2023-03-03T18:18:50Z</time>
      </trkpt>
      <trkpt lat="44.06798" lon="0.39271">
        <ele>133</ele>
        <time>2023-03-03T18:19:05Z</time>
      </trkpt>
      <trkpt lat="44.06846" lon="0.39293">
        <ele>133</ele>
        <time>2023-03-03T18:19:14Z</time>
      </trkpt>
      <trkpt lat="44.06853" lon="0.39294">
        <ele>133</ele>
        <time>2023-03-03T18:19:15Z</time>
      </trkpt>
      <trkpt lat="44.06866" lon="0.39289">
        <ele>132</ele>
        <time>2023-03-03T18:19:18Z</time>
      </trkpt>
      <trkpt lat="44.06876" lon="0.39277">
        <ele>132</ele>
        <time>2023-03-03T18:19:20Z</time>
      </trkpt>
      <trkpt lat="44.06942" lon="0.39174">
        <ele>128</ele>
        <time>2023-03-03T18:19:38Z</time>
      </trkpt>
      <trkpt lat="44.06956" lon="0.39143">
        <ele>126</ele>
        <time>2023-03-03T18:19:43Z</time>
      </trkpt>
      <trkpt lat="44.06982" lon="0.39071">
        <ele>125</ele>
        <time>2023-03-03T18:19:53Z</time>
      </trkpt>
      <trkpt lat="44.07072" lon="0.38894">
        <ele>123</ele>
        <time>2023-03-03T18:20:21Z</time>
      </trkpt>
      <trkpt lat="44.07118" lon="0.38832">
        <ele>122</ele>
        <time>2023-03-03T18:20:32Z</time>
      </trkpt>
      <trkpt lat="44.07139" lon="0.38798">
        <ele>121</ele>
        <time>2023-03-03T18:20:38Z</time>
      </trkpt>
      <trkpt lat="44.07184" lon="0.3871">
        <ele>119</ele>
        <time>2023-03-03T18:20:51Z</time>
      </trkpt>
      <trkpt lat="44.07196" lon="0.38692">
        <ele>119</ele>
        <time>2023-03-03T18:20:55Z</time>
      </trkpt>
      <trkpt lat="44.07275" lon="0.3859">
        <ele>118</ele>
        <time>2023-03-03T18:21:14Z</time>
      </trkpt>
      <trkpt lat="44.07287" lon="0.38578">
        <ele>118</ele>
        <time>2023-03-03T18:21:16Z</time>
      </trkpt>
      <trkpt lat="44.07304" lon="0.38565">
        <ele>118</ele>
        <time>2023-03-03T18:21:20Z</time>
      </trkpt>
      <trkpt lat="44.07343" lon="0.38546">
        <ele>117</ele>
        <time>2023-03-03T18:21:27Z</time>
      </trkpt>
      <trkpt lat="44.07354" lon="0.38538">
        <ele>117</ele>
        <time>2023-03-03T18:21:29Z</time>
      </trkpt>
      <trkpt lat="44.07362" lon="0.3853">
        <ele>117</ele>
        <time>2023-03-03T18:21:31Z</time>
      </trkpt>
      <trkpt lat="44.07437" lon="0.38442">
        <ele>118</ele>
        <time>2023-03-03T18:21:49Z</time>
      </trkpt>
      <trkpt lat="44.07456" lon="0.38425">
        <ele>119</ele>
        <time>2023-03-03T18:21:53Z</time>
      </trkpt>
      <trkpt lat="44.07555" lon="0.38351">
        <ele>118</ele>
        <time>2023-03-03T18:22:13Z</time>
      </trkpt>
      <trkpt lat="44.0757" lon="0.38345">
        <ele>117</ele>
        <time>2023-03-03T18:22:15Z</time>
      </trkpt>
      <trkpt lat="44.07584" lon="0.38342">
        <ele>117</ele>
        <time>2023-03-03T18:22:18Z</time>
      </trkpt>
      <trkpt lat="44.07644" lon="0.38335">
        <ele>115</ele>
        <time>2023-03-03T18:22:29Z</time>
      </trkpt>
      <trkpt lat="44.07671" lon="0.38329">
        <ele>114</ele>
        <time>2023-03-03T18:22:34Z</time>
      </trkpt>
      <trkpt lat="44.07695" lon="0.38315">
        <ele>114</ele>
        <time>2023-03-03T18:22:38Z</time>
      </trkpt>
      <trkpt lat="44.07794" lon="0.3824">
        <ele>114</ele>
        <time>2023-03-03T18:22:58Z</time>
      </trkpt>
      <trkpt lat="44.07846" lon="0.38195">
        <ele>115</ele>
        <time>2023-03-03T18:23:09Z</time>
      </trkpt>
      <trkpt lat="44.07956" lon="0.38133">
        <ele>113</ele>
        <time>2023-03-03T18:23:30Z</time>
      </trkpt>
      <trkpt lat="44.08003" lon="0.38113">
        <ele>114</ele>
        <time>2023-03-03T18:23:39Z</time>
      </trkpt>
      <trkpt lat="44.08039" lon="0.38105">
        <ele>113</ele>
        <time>2023-03-03T18:23:45Z</time>
      </trkpt>
      <trkpt lat="44.08271" lon="0.38125">
        <ele>112</ele>
        <time>2023-03-03T18:24:27Z</time>
      </trkpt>
      <trkpt lat="44.08392" lon="0.38147">
        <ele>115</ele>
        <time>2023-03-03T18:24:49Z</time>
      </trkpt>
      <trkpt lat="44.08514" lon="0.38148">
        <ele>115</ele>
        <time>2023-03-03T18:25:10Z</time>
      </trkpt>
      <trkpt lat="44.08686" lon="0.38148">
        <ele>112</ele>
        <time>2023-03-03T18:25:41Z</time>
      </trkpt>
      <trkpt lat="44.0871" lon="0.38145">
        <ele>111</ele>
        <time>2023-03-03T18:25:45Z</time>
      </trkpt>
      <trkpt lat="44.08732" lon="0.38136">
        <ele>111</ele>
        <time>2023-03-03T18:25:49Z</time>
      </trkpt>
      <trkpt lat="44.08807" lon="0.38073">
        <ele>108</ele>
        <time>2023-03-03T18:26:05Z</time>
      </trkpt>
      <trkpt lat="44.0885" lon="0.38029">
        <ele>108</ele>
        <time>2023-03-03T18:26:14Z</time>
      </trkpt>
      <trkpt lat="44.08929" lon="0.3794">
        <ele>104</ele>
        <time>2023-03-03T18:26:32Z</time>
      </trkpt>
      <trkpt lat="44.08947" lon="0.37927">
        <ele>102</ele>
        <time>2023-03-03T18:26:36Z</time>
      </trkpt>
      <trkpt lat="44.09056" lon="0.37871">
        <ele>91</ele>
        <time>2023-03-03T18:26:57Z</time>
      </trkpt>
      <trkpt lat="44.09113" lon="0.37839">
        <ele>84</ele>
        <time>2023-03-03T18:27:08Z</time>
      </trkpt>
      <trkpt lat="44.09137" lon="0.3782">
        <ele>81</ele>
        <time>2023-03-03T18:27:12Z</time>
      </trkpt>
      <trkpt lat="44.09176" lon="0.37778">
        <ele>77</ele>
        <time>2023-03-03T18:27:21Z</time>
      </trkpt>
      <trkpt lat="44.09209" lon="0.37753">
        <ele>74</ele>
        <time>2023-03-03T18:27:28Z</time>
      </trkpt>
      <trkpt lat="44.09227" lon="0.37737">
        <ele>72</ele>
        <time>2023-03-03T18:27:32Z</time>
      </trkpt>
      <trkpt lat="44.09236" lon="0.37726">
        <ele>72</ele>
        <time>2023-03-03T18:27:34Z</time>
      </trkpt>
      <trkpt lat="44.09249" lon="0.37702">
        <ele>71</ele>
        <time>2023-03-03T18:27:38Z</time>
      </trkpt>
      <trkpt lat="44.09284" lon="0.37612">
        <ele>66</ele>
        <time>2023-03-03T18:27:51Z</time>
      </trkpt>
      <trkpt lat="44.09299" lon="0.3758">
        <ele>64</ele>
        <time>2023-03-03T18:27:56Z</time>
      </trkpt>
      <trkpt lat="44.09307" lon="0.37565">
        <ele>62</ele>
        <time>2023-03-03T18:27:58Z</time>
      </trkpt>
      <trkpt lat="44.09342" lon="0.37514">
        <ele>58</ele>
        <time>2023-03-03T18:28:07Z</time>
      </trkpt>
      <trkpt lat="44.0935" lon="0.37505">
        <ele>57</ele>
        <time>2023-03-03T18:28:09Z</time>
      </trkpt>
      <trkpt lat="44.09363" lon="0.37495">
        <ele>57</ele>
        <time>2023-03-03T18:28:12Z</time>
      </trkpt>
      <trkpt lat="44.09383" lon="0.37492">
        <ele>56</ele>
        <time>2023-03-03T18:28:15Z</time>
      </trkpt>
      <trkpt lat="44.09399" lon="0.37494">
        <ele>56</ele>
        <time>2023-03-03T18:28:18Z</time>
      </trkpt>
      <trkpt lat="44.09418" lon="0.375">
        <ele>56</ele>
        <time>2023-03-03T18:28:21Z</time>
      </trkpt>
      <trkpt lat="44.09429" lon="0.37504">
        <ele>56</ele>
        <time>2023-03-03T18:28:23Z</time>
      </trkpt>
      <trkpt lat="44.09439" lon="0.37513">
        <ele>56</ele>
        <time>2023-03-03T18:28:26Z</time>
      </trkpt>
      <trkpt lat="44.09532" lon="0.37619">
        <ele>60</ele>
        <time>2023-03-03T18:28:47Z</time>
      </trkpt>
      <trkpt lat="44.09547" lon="0.37627">
        <ele>61</ele>
        <time>2023-03-03T18:28:50Z</time>
      </trkpt>
      <trkpt lat="44.09563" lon="0.37632">
        <ele>62</ele>
        <time>2023-03-03T18:28:53Z</time>
      </trkpt>
      <trkpt lat="44.09583" lon="0.37635">
        <ele>63</ele>
        <time>2023-03-03T18:28:56Z</time>
      </trkpt>
      <trkpt lat="44.09601" lon="0.37632">
        <ele>65</ele>
        <time>2023-03-03T18:29:00Z</time>
      </trkpt>
      <trkpt lat="44.09618" lon="0.37626">
        <ele>66</ele>
        <time>2023-03-03T18:29:03Z</time>
      </trkpt>
      <trkpt lat="44.09656" lon="0.37608">
        <ele>68</ele>
        <time>2023-03-03T18:29:10Z</time>
      </trkpt>
      <trkpt lat="44.09747" lon="0.37581">
        <ele>72</ele>
        <time>2023-03-03T18:29:26Z</time>
      </trkpt>
      <trkpt lat="44.09772" lon="0.37592">
        <ele>73</ele>
        <time>2023-03-03T18:29:31Z</time>
      </trkpt>
      <trkpt lat="44.09778" lon="0.37585">
        <ele>73</ele>
        <time>2023-03-03T18:29:32Z</time>
      </trkpt>
      <trkpt lat="44.09786" lon="0.37581">
        <ele>73</ele>
        <time>2023-03-03T18:29:34Z</time>
      </trkpt>
      <trkpt lat="44.09851" lon="0.37555">
        <ele>73</ele>
        <time>2023-03-03T18:29:46Z</time>
      </trkpt>
      <trkpt lat="44.0987" lon="0.37543">
        <ele>73</ele>
        <time>2023-03-03T18:29:50Z</time>
      </trkpt>
      <trkpt lat="44.09914" lon="0.37499">
        <ele>73</ele>
        <time>2023-03-03T18:29:59Z</time>
      </trkpt>
      <trkpt lat="44.09929" lon="0.37486">
        <ele>73</ele>
        <time>2023-03-03T18:30:02Z</time>
      </trkpt>
      <trkpt lat="44.09974" lon="0.37462">
        <ele>73</ele>
        <time>2023-03-03T18:30:11Z</time>
      </trkpt>
      <trkpt lat="44.10052" lon="0.37437">
        <ele>73</ele>
        <time>2023-03-03T18:30:25Z</time>
      </trkpt>
      <trkpt lat="44.10195" lon="0.37383">
        <ele>72</ele>
        <time>2023-03-03T18:30:52Z</time>
      </trkpt>
      <trkpt lat="44.10259" lon="0.37369">
        <ele>73</ele>
        <time>2023-03-03T18:31:03Z</time>
      </trkpt>
      <trkpt lat="44.10434" lon="0.37343">
        <ele>75</ele>
        <time>2023-03-03T18:31:35Z</time>
      </trkpt>
      <trkpt lat="44.10532" lon="0.37334">
        <ele>73</ele>
        <time>2023-03-03T18:31:52Z</time>
      </trkpt>
      <trkpt lat="44.10554" lon="0.37331">
        <ele>73</ele>
        <time>2023-03-03T18:31:56Z</time>
      </trkpt>
      <trkpt lat="44.10574" lon="0.37324">
        <ele>72</ele>
        <time>2023-03-03T18:32:00Z</time>
      </trkpt>
      <trkpt lat="44.10714" lon="0.37257">
        <ele>71</ele>
        <time>2023-03-03T18:32:26Z</time>
      </trkpt>
      <trkpt lat="44.10737" lon="0.37237">
        <ele>72</ele>
        <time>2023-03-03T18:32:31Z</time>
      </trkpt>
      <trkpt lat="44.10785" lon="0.37184">
        <ele>72</ele>
        <time>2023-03-03T18:32:42Z</time>
      </trkpt>
      <trkpt lat="44.10857" lon="0.37112">
        <ele>73</ele>
        <time>2023-03-03T18:32:57Z</time>
      </trkpt>
      <trkpt lat="44.10914" lon="0.37037">
        <ele>72</ele>
        <time>2023-03-03T18:33:11Z</time>
      </trkpt>
      <trkpt lat="44.10954" lon="0.36991">
        <ele>72</ele>
        <time>2023-03-03T18:33:21Z</time>
      </trkpt>
      <trkpt lat="44.10982" lon="0.36963">
        <ele>72</ele>
        <time>2023-03-03T18:33:27Z</time>
      </trkpt>
      <trkpt lat="44.11001" lon="0.36946">
        <ele>72</ele>
        <time>2023-03-03T18:33:31Z</time>
      </trkpt>
      <trkpt lat="44.11066" lon="0.36896">
        <ele>72</ele>
        <time>2023-03-03T18:33:44Z</time>
      </trkpt>
      <trkpt lat="44.11129" lon="0.36851">
        <ele>71</ele>
        <time>2023-03-03T18:33:57Z</time>
      </trkpt>
      <trkpt lat="44.1122" lon="0.36802">
        <ele>72</ele>
        <time>2023-03-03T18:34:14Z</time>
      </trkpt>
      <trkpt lat="44.11322" lon="0.36715">
        <ele>68</ele>
        <time>2023-03-03T18:34:35Z</time>
      </trkpt>
      <trkpt lat="44.11342" lon="0.3669">
        <ele>67</ele>
        <time>2023-03-03T18:34:40Z</time>
      </trkpt>
      <trkpt lat="44.11361" lon="0.36662">
        <ele>65</ele>
        <time>2023-03-03T18:34:45Z</time>
      </trkpt>
      <trkpt lat="44.11406" lon="0.36616">
        <ele>63</ele>
        <time>2023-03-03T18:34:55Z</time>
      </trkpt>
      <trkpt lat="44.11435" lon="0.36588">
        <ele>62</ele>
        <time>2023-03-03T18:35:01Z</time>
      </trkpt>
      <trkpt lat="44.1146" lon="0.3657">
        <ele>61</ele>
        <time>2023-03-03T18:35:06Z</time>
      </trkpt>
      <trkpt lat="44.11524" lon="0.36538">
        <ele>60</ele>
        <time>2023-03-03T18:35:18Z</time>
      </trkpt>
      <trkpt lat="44.1155" lon="0.36521">
        <ele>60</ele>
        <time>2023-03-03T18:35:23Z</time>
      </trkpt>
      <trkpt lat="44.11576" lon="0.36501">
        <ele>61</ele>
        <time>2023-03-03T18:35:29Z</time>
      </trkpt>
      <trkpt lat="44.11603" lon="0.36477">
        <ele>62</ele>
        <time>2023-03-03T18:35:34Z</time>
      </trkpt>
      <trkpt lat="44.11656" lon="0.36417">
        <ele>64</ele>
        <time>2023-03-03T18:35:46Z</time>
      </trkpt>
      <trkpt lat="44.119" lon="0.36114">
        <ele>63</ele>
        <time>2023-03-03T18:36:45Z</time>
      </trkpt>
      <trkpt lat="44.11911" lon="0.36115">
        <ele>63</ele>
        <time>2023-03-03T18:36:47Z</time>
      </trkpt>
      <trkpt lat="44.11919" lon="0.3612">
        <ele>64</ele>
        <time>2023-03-03T18:36:48Z</time>
      </trkpt>
      <trkpt lat="44.11937" lon="0.36119">
        <ele>64</ele>
        <time>2023-03-03T18:36:51Z</time>
      </trkpt>
      <trkpt lat="44.11953" lon="0.36065">
        <ele>65</ele>
        <time>2023-03-03T18:36:59Z</time>
      </trkpt>
      <trkpt lat="44.11972" lon="0.36027">
        <ele>65</ele>
        <time>2023-03-03T18:37:05Z</time>
      </trkpt>
      <trkpt lat="44.11991" lon="0.36">
        <ele>66</ele>
        <time>2023-03-03T18:37:10Z</time>
      </trkpt>
      <trkpt lat="44.12116" lon="0.35844">
        <ele>64</ele>
        <time>2023-03-03T18:37:39Z</time>
      </trkpt>
      <trkpt lat="44.12125" lon="0.35836">
        <ele>64</ele>
        <time>2023-03-03T18:37:41Z</time>
      </trkpt>
      <trkpt lat="44.12198" lon="0.35746">
        <ele>64</ele>
        <time>2023-03-03T18:37:59Z</time>
      </trkpt>
      <trkpt lat="44.12202" lon="0.35752">
        <ele>64</ele>
        <time>2023-03-03T18:38:00Z</time>
      </trkpt>
      <trkpt lat="44.12512" lon="0.35368">
        <ele>64</ele>
        <time>2023-03-03T18:39:14Z</time>
      </trkpt>
      <trkpt lat="44.12604" lon="0.35253">
        <ele>64</ele>
        <time>2023-03-03T18:39:36Z</time>
      </trkpt>
      <trkpt lat="44.12639" lon="0.35212">
        <ele>64</ele>
        <time>2023-03-03T18:39:44Z</time>
      </trkpt>
      <trkpt lat="44.12736" lon="0.3512">
        <ele>65</ele>
        <time>2023-03-03T18:40:05Z</time>
      </trkpt>
      <trkpt lat="44.12784" lon="0.35079">
        <ele>65</ele>
        <time>2023-03-03T18:40:15Z</time>
      </trkpt>
      <trkpt lat="44.12782" lon="0.35073">
        <ele>65</ele>
        <time>2023-03-03T18:40:15Z</time>
      </trkpt>
      <trkpt lat="44.12816" lon="0.35043">
        <ele>64</ele>
        <time>2023-03-03T18:40:23Z</time>
      </trkpt>
      <trkpt lat="44.12979" lon="0.34894">
        <ele>63</ele>
        <time>2023-03-03T18:40:57Z</time>
      </trkpt>
      <trkpt lat="44.13291" lon="0.34606">
        <ele>61</ele>
        <time>2023-03-03T18:42:04Z</time>
      </trkpt>
      <trkpt lat="44.13356" lon="0.34543">
        <ele>62</ele>
        <time>2023-03-03T18:42:18Z</time>
      </trkpt>
      <trkpt lat="44.13423" lon="0.34493">
        <ele>62</ele>
        <time>2023-03-03T18:42:31Z</time>
      </trkpt>
      <trkpt lat="44.1347" lon="0.34462">
        <ele>61</ele>
        <time>2023-03-03T18:42:41Z</time>
      </trkpt>
      <trkpt lat="44.13477" lon="0.3446">
        <ele>61</ele>
        <time>2023-03-03T18:42:42Z</time>
      </trkpt>
      <trkpt lat="44.13492" lon="0.34461">
        <ele>61</ele>
        <time>2023-03-03T18:42:45Z</time>
      </trkpt>
      <trkpt lat="44.13495" lon="0.34447">
        <ele>62</ele>
        <time>2023-03-03T18:42:47Z</time>
      </trkpt>
      <trkpt lat="44.13521" lon="0.34427">
        <ele>62</ele>
        <time>2023-03-03T18:42:52Z</time>
      </trkpt>
      <trkpt lat="44.13608" lon="0.3437">
        <ele>63</ele>
        <time>2023-03-03T18:43:09Z</time>
      </trkpt>
      <trkpt lat="44.13642" lon="0.34332">
        <ele>62</ele>
        <time>2023-03-03T18:43:17Z</time>
      </trkpt>
      <trkpt lat="44.13651" lon="0.34319">
        <ele>60</ele>
        <time>2023-03-03T18:43:19Z</time>
      </trkpt>
      <trkpt lat="44.13672" lon="0.34309">
        <ele>60</ele>
        <time>2023-03-03T18:43:23Z</time>
      </trkpt>
      <trkpt lat="44.13702" lon="0.34302">
        <ele>61</ele>
        <time>2023-03-03T18:43:28Z</time>
      </trkpt>
      <trkpt lat="44.13721" lon="0.34295">
        <ele>61</ele>
        <time>2023-03-03T18:43:32Z</time>
      </trkpt>
      <trkpt lat="44.13754" lon="0.34264">
        <ele>60</ele>
        <time>2023-03-03T18:43:39Z</time>
      </trkpt>
      <trkpt lat="44.13779" lon="0.34246">
        <ele>60</ele>
        <time>2023-03-03T18:43:44Z</time>
      </trkpt>
      <trkpt lat="44.13785" lon="0.34244">
        <ele>60</ele>
        <time>2023-03-03T18:43:45Z</time>
      </trkpt>
      <trkpt lat="44.13797" lon="0.34247">
        <ele>61</ele>
        <time>2023-03-03T18:43:47Z</time>
      </trkpt>
      <trkpt lat="44.13799" lon="0.34239">
        <ele>60</ele>
        <time>2023-03-03T18:43:48Z</time>
      </trkpt>
      <trkpt lat="44.13807" lon="0.34226">
        <ele>59</ele>
        <time>2023-03-03T18:43:50Z</time>
      </trkpt>
      <trkpt lat="44.13826" lon="0.34207">
        <ele>58</ele>
        <time>2023-03-03T18:43:55Z</time>
      </trkpt>
      <trkpt lat="44.13863" lon="0.34183">
        <ele>58</ele>
        <time>2023-03-03T18:44:02Z</time>
      </trkpt>
      <trkpt lat="44.13939" lon="0.3415">
        <ele>60</ele>
        <time>2023-03-03T18:44:16Z</time>
      </trkpt>
      <trkpt lat="44.13961" lon="0.34117">
        <ele>57</ele>
        <time>2023-03-03T18:44:22Z</time>
      </trkpt>
      <trkpt lat="44.13978" lon="0.341">
        <ele>57</ele>
        <time>2023-03-03T18:44:26Z</time>
      </trkpt>
      <trkpt lat="44.13991" lon="0.34093">
        <ele>57</ele>
        <time>2023-03-03T18:44:28Z</time>
      </trkpt>
      <trkpt lat="44.14149" lon="0.34036">
        <ele>57</ele>
        <time>2023-03-03T18:44:57Z</time>
      </trkpt>
      <trkpt lat="44.14229" lon="0.34016">
        <ele>59</ele>
        <time>2023-03-03T18:45:11Z</time>
      </trkpt>
      <trkpt lat="44.14323" lon="0.33963">
        <ele>57</ele>
        <time>2023-03-03T18:45:30Z</time>
      </trkpt>
      <trkpt lat="44.14364" lon="0.33931">
        <ele>58</ele>
        <time>2023-03-03T18:45:38Z</time>
      </trkpt>
      <trkpt lat="44.14415" lon="0.33894">
        <ele>57</ele>
        <time>2023-03-03T18:45:48Z</time>
      </trkpt>
      <trkpt lat="44.14449" lon="0.3388">
        <ele>57</ele>
        <time>2023-03-03T18:45:54Z</time>
      </trkpt>
      <trkpt lat="44.14561" lon="0.33843">
        <ele>59</ele>
        <time>2023-03-03T18:46:15Z</time>
      </trkpt>
      <trkpt lat="44.14577" lon="0.33841">
        <ele>59</ele>
        <time>2023-03-03T18:46:18Z</time>
      </trkpt>
      <trkpt lat="44.14623" lon="0.33846">
        <ele>63</ele>
        <time>2023-03-03T18:46:26Z</time>
      </trkpt>
      <trkpt lat="44.14646" lon="0.3384">
        <ele>65</ele>
        <time>2023-03-03T18:46:30Z</time>
      </trkpt>
      <trkpt lat="44.1477" lon="0.33768">
        <ele>66</ele>
        <time>2023-03-03T18:46:54Z</time>
      </trkpt>
      <trkpt lat="44.14805" lon="0.33743">
        <ele>66</ele>
        <time>2023-03-03T18:47:01Z</time>
      </trkpt>
      <trkpt lat="44.14819" lon="0.33725">
        <ele>66</ele>
        <time>2023-03-03T18:47:04Z</time>
      </trkpt>
      <trkpt lat="44.14855" lon="0.33656">
        <ele>68</ele>
        <time>2023-03-03T18:47:15Z</time>
      </trkpt>
      <trkpt lat="44.1492" lon="0.3355">
        <ele>67</ele>
        <time>2023-03-03T18:47:33Z</time>
      </trkpt>
      <trkpt lat="44.14997" lon="0.33412">
        <ele>61</ele>
        <time>2023-03-03T18:47:55Z</time>
      </trkpt>
      <trkpt lat="44.1504" lon="0.33349">
        <ele>60</ele>
        <time>2023-03-03T18:48:07Z</time>
      </trkpt>
      <trkpt lat="44.15133" lon="0.33224">
        <ele>57</ele>
        <time>2023-03-03T18:48:30Z</time>
      </trkpt>
      <trkpt lat="44.15178" lon="0.33142">
        <ele>55</ele>
        <time>2023-03-03T18:48:43Z</time>
      </trkpt>
      <trkpt lat="44.1519" lon="0.33124">
        <ele>54</ele>
        <time>2023-03-03T18:48:46Z</time>
      </trkpt>
      <trkpt lat="44.15245" lon="0.33072">
        <ele>53</ele>
        <time>2023-03-03T18:48:58Z</time>
      </trkpt>
      <trkpt lat="44.15262" lon="0.3305">
        <ele>53</ele>
        <time>2023-03-03T18:49:02Z</time>
      </trkpt>
      <trkpt lat="44.15276" lon="0.3303">
        <ele>54</ele>
        <time>2023-03-03T18:49:05Z</time>
      </trkpt>
      <trkpt lat="44.15304" lon="0.32969">
        <ele>55</ele>
        <time>2023-03-03T18:49:15Z</time>
      </trkpt>
      <trkpt lat="44.15329" lon="0.3292">
        <ele>57</ele>
        <time>2023-03-03T18:49:22Z</time>
      </trkpt>
      <trkpt lat="44.15373" lon="0.3286">
        <ele>56</ele>
        <time>2023-03-03T18:49:33Z</time>
      </trkpt>
      <trkpt lat="44.15441" lon="0.32777">
        <ele>57</ele>
        <time>2023-03-03T18:49:49Z</time>
      </trkpt>
      <trkpt lat="44.15456" lon="0.32755">
        <ele>57</ele>
        <time>2023-03-03T18:49:53Z</time>
      </trkpt>
      <trkpt lat="44.1548" lon="0.32714">
        <ele>57</ele>
        <time>2023-03-03T18:50:00Z</time>
      </trkpt>
      <trkpt lat="44.15491" lon="0.32699">
        <ele>57</ele>
        <time>2023-03-03T18:50:03Z</time>
      </trkpt>
      <trkpt lat="44.15508" lon="0.3268">
        <ele>57</ele>
        <time>2023-03-03T18:50:07Z</time>
      </trkpt>
      <trkpt lat="44.15539" lon="0.32652">
        <ele>57</ele>
        <time>2023-03-03T18:50:13Z</time>
      </trkpt>
      <trkpt lat="44.1556" lon="0.32636">
        <ele>57</ele>
        <time>2023-03-03T18:50:17Z</time>
      </trkpt>
      <trkpt lat="44.15692" lon="0.32561">
        <ele>59</ele>
        <time>2023-03-03T18:50:43Z</time>
      </trkpt>
      <trkpt lat="44.1576" lon="0.32536">
        <ele>59</ele>
        <time>2023-03-03T18:50:55Z</time>
      </trkpt>
      <trkpt lat="44.15809" lon="0.3251">
        <ele>60</ele>
        <time>2023-03-03T18:51:05Z</time>
      </trkpt>
      <trkpt lat="44.1583" lon="0.32496">
        <ele>61</ele>
        <time>2023-03-03T18:51:09Z</time>
      </trkpt>
      <trkpt lat="44.15849" lon="0.32479">
        <ele>61</ele>
        <time>2023-03-03T18:51:13Z</time>
      </trkpt>
      <trkpt lat="44.15899" lon="0.32422">
        <ele>61</ele>
        <time>2023-03-03T18:51:24Z</time>
      </trkpt>
      <trkpt lat="44.15917" lon="0.32405">
        <ele>61</ele>
        <time>2023-03-03T18:51:28Z</time>
      </trkpt>
      <trkpt lat="44.15935" lon="0.32392">
        <ele>60</ele>
        <time>2023-03-03T18:51:32Z</time>
      </trkpt>
      <trkpt lat="44.15955" lon="0.32384">
        <ele>60</ele>
        <time>2023-03-03T18:51:35Z</time>
      </trkpt>
      <trkpt lat="44.15974" lon="0.32383">
        <ele>61</ele>
        <time>2023-03-03T18:51:39Z</time>
      </trkpt>
      <trkpt lat="44.16088" lon="0.32396">
        <ele>63</ele>
        <time>2023-03-03T18:51:59Z</time>
      </trkpt>
      <trkpt lat="44.16114" lon="0.32393">
        <ele>63</ele>
        <time>2023-03-03T18:52:04Z</time>
      </trkpt>
      <trkpt lat="44.16135" lon="0.32383">
        <ele>63</ele>
        <time>2023-03-03T18:52:08Z</time>
      </trkpt>
      <trkpt lat="44.16267" lon="0.32267">
        <ele>63</ele>
        <time>2023-03-03T18:52:36Z</time>
      </trkpt>
      <trkpt lat="44.16327" lon="0.32204">
        <ele>66</ele>
        <time>2023-03-03T18:52:49Z</time>
      </trkpt>
      <trkpt lat="44.16363" lon="0.3217">
        <ele>67</ele>
        <time>2023-03-03T18:52:57Z</time>
      </trkpt>
      <trkpt lat="44.16383" lon="0.32154">
        <ele>67</ele>
        <time>2023-03-03T18:53:01Z</time>
      </trkpt>
      <trkpt lat="44.16475" lon="0.32092">
        <ele>70</ele>
        <time>2023-03-03T18:53:19Z</time>
      </trkpt>
      <trkpt lat="44.16509" lon="0.32065">
        <ele>71</ele>
        <time>2023-03-03T18:53:26Z</time>
      </trkpt>
      <trkpt lat="44.16559" lon="0.32021">
        <ele>70</ele>
        <time>2023-03-03T18:53:36Z</time>
      </trkpt>
      <trkpt lat="44.16624" lon="0.31954">
        <ele>68</ele>
        <time>2023-03-03T18:53:51Z</time>
      </trkpt>
      <trkpt lat="44.16656" lon="0.31929">
        <ele>68</ele>
        <time>2023-03-03T18:53:57Z</time>
      </trkpt>
      <trkpt lat="44.16713" lon="0.32055">
        <ele>81</ele>
        <time>2023-03-03T18:54:16Z</time>
      </trkpt>
      <trkpt lat="44.16736" lon="0.32112">
        <ele>86</ele>
        <time>2023-03-03T18:54:25Z</time>
      </trkpt>
      <trkpt lat="44.16783" lon="0.32257">
        <ele>93</ele>
        <time>2023-03-03T18:54:45Z</time>
      </trkpt>
      <trkpt lat="44.16803" lon="0.32311">
        <ele>96</ele>
        <time>2023-03-03T18:54:53Z</time>
      </trkpt>
      <trkpt lat="44.16838" lon="0.32395">
        <ele>104</ele>
        <time>2023-03-03T18:55:05Z</time>
      </trkpt>
      <trkpt lat="44.16855" lon="0.32428">
        <ele>108</ele>
        <time>2023-03-03T18:55:10Z</time>
      </trkpt>
      <trkpt lat="44.16885" lon="0.32479">
        <ele>114</ele>
        <time>2023-03-03T18:55:19Z</time>
      </trkpt>
      <trkpt lat="44.16903" lon="0.32515">
        <ele>118</ele>
        <time>2023-03-03T18:55:24Z</time>
      </trkpt>
      <trkpt lat="44.16913" lon="0.32543">
        <ele>120</ele>
        <time>2023-03-03T18:55:28Z</time>
      </trkpt>
      <trkpt lat="44.16922" lon="0.32557">
        <ele>121</ele>
        <time>2023-03-03T18:55:31Z</time>
      </trkpt>
      <trkpt lat="44.16952" lon="0.32596">
        <ele>123</ele>
        <time>2023-03-03T18:55:38Z</time>
      </trkpt>
      <trkpt lat="44.16957" lon="0.326">
        <ele>124</ele>
        <time>2023-03-03T18:55:39Z</time>
      </trkpt>
      <trkpt lat="44.16996" lon="0.32668">
        <ele>128</ele>
        <time>2023-03-03T18:55:50Z</time>
      </trkpt>
      <trkpt lat="44.17006" lon="0.3268">
        <ele>130</ele>
        <time>2023-03-03T18:55:53Z</time>
      </trkpt>
      <trkpt lat="44.17021" lon="0.32678">
        <ele>130</ele>
        <time>2023-03-03T18:55:55Z</time>
      </trkpt>
      <trkpt lat="44.17054" lon="0.32671">
        <ele>132</ele>
        <time>2023-03-03T18:56:01Z</time>
      </trkpt>
      <trkpt lat="44.17086" lon="0.32672">
        <ele>134</ele>
        <time>2023-03-03T18:56:07Z</time>
      </trkpt>
      <trkpt lat="44.17104" lon="0.32679">
        <ele>135</ele>
        <time>2023-03-03T18:56:10Z</time>
      </trkpt>
      <trkpt lat="44.17156" lon="0.3271">
        <ele>139</ele>
        <time>2023-03-03T18:56:20Z</time>
      </trkpt>
      <trkpt lat="44.17171" lon="0.32713">
        <ele>140</ele>
        <time>2023-03-03T18:56:23Z</time>
      </trkpt>
      <trkpt lat="44.17201" lon="0.32705">
        <ele>141</ele>
        <time>2023-03-03T18:56:28Z</time>
      </trkpt>
      <trkpt lat="44.17218" lon="0.32703">
        <ele>142</ele>
        <time>2023-03-03T18:56:31Z</time>
      </trkpt>
      <trkpt lat="44.1725" lon="0.32707">
        <ele>145</ele>
        <time>2023-03-03T18:56:37Z</time>
      </trkpt>
      <trkpt lat="44.17264" lon="0.32705">
        <ele>145</ele>
        <time>2023-03-03T18:56:40Z</time>
      </trkpt>
      <trkpt lat="44.17296" lon="0.32688">
        <ele>146</ele>
        <time>2023-03-03T18:56:46Z</time>
      </trkpt>
      <trkpt lat="44.17326" lon="0.32676">
        <ele>146</ele>
        <time>2023-03-03T18:56:51Z</time>
      </trkpt>
      <trkpt lat="44.17414" lon="0.32658">
        <ele>150</ele>
        <time>2023-03-03T18:57:07Z</time>
      </trkpt>
      <trkpt lat="44.1746" lon="0.32654">
        <ele>150</ele>
        <time>2023-03-03T18:57:15Z</time>
      </trkpt>
      <trkpt lat="44.17555" lon="0.32667">
        <ele>147</ele>
        <time>2023-03-03T18:57:32Z</time>
      </trkpt>
      <trkpt lat="44.17608" lon="0.32694">
        <ele>143</ele>
        <time>2023-03-03T18:57:42Z</time>
      </trkpt>
      <trkpt lat="44.17617" lon="0.32701">
        <ele>143</ele>
        <time>2023-03-03T18:57:44Z</time>
      </trkpt>
      <trkpt lat="44.17664" lon="0.32748">
        <ele>138</ele>
        <time>2023-03-03T18:57:54Z</time>
      </trkpt>
      <trkpt lat="44.17684" lon="0.32762">
        <ele>138</ele>
        <time>2023-03-03T18:57:58Z</time>
      </trkpt>
      <trkpt lat="44.17699" lon="0.32768">
        <ele>137</ele>
        <time>2023-03-03T18:58:01Z</time>
      </trkpt>
      <trkpt lat="44.17777" lon="0.32786">
        <ele>134</ele>
        <time>2023-03-03T18:58:15Z</time>
      </trkpt>
      <trkpt lat="44.17794" lon="0.32792">
        <ele>134</ele>
        <time>2023-03-03T18:58:18Z</time>
      </trkpt>
      <trkpt lat="44.17823" lon="0.32813">
        <ele>134</ele>
        <time>2023-03-03T18:58:24Z</time>
      </trkpt>
      <trkpt lat="44.17873" lon="0.32867">
        <ele>134</ele>
        <time>2023-03-03T18:58:35Z</time>
      </trkpt>
      <trkpt lat="44.17888" lon="0.32881">
        <ele>134</ele>
        <time>2023-03-03T18:58:39Z</time>
      </trkpt>
      <trkpt lat="44.17906" lon="0.32892">
        <ele>134</ele>
        <time>2023-03-03T18:58:42Z</time>
      </trkpt>
      <trkpt lat="44.17966" lon="0.32915">
        <ele>134</ele>
        <time>2023-03-03T18:58:53Z</time>
      </trkpt>
      <trkpt lat="44.17995" lon="0.3293">
        <ele>134</ele>
        <time>2023-03-03T18:58:59Z</time>
      </trkpt>
      <trkpt lat="44.18091" lon="0.32995">
        <ele>136</ele>
        <time>2023-03-03T18:59:18Z</time>
      </trkpt>
      <trkpt lat="44.18108" lon="0.33007">
        <ele>136</ele>
        <time>2023-03-03T18:59:21Z</time>
      </trkpt>
      <trkpt lat="44.18127" lon="0.33024">
        <ele>135</ele>
        <time>2023-03-03T18:59:25Z</time>
      </trkpt>
      <trkpt lat="44.18167" lon="0.33065">
        <ele>134</ele>
        <time>2023-03-03T18:59:34Z</time>
      </trkpt>
      <trkpt lat="44.18201" lon="0.33115">
        <ele>135</ele>
        <time>2023-03-03T18:59:43Z</time>
      </trkpt>
      <trkpt lat="44.18218" lon="0.33126">
        <ele>135</ele>
        <time>2023-03-03T18:59:46Z</time>
      </trkpt>
      <trkpt lat="44.18228" lon="0.3313">
        <ele>135</ele>
        <time>2023-03-03T18:59:48Z</time>
      </trkpt>
      <trkpt lat="44.1825" lon="0.33131">
        <ele>135</ele>
        <time>2023-03-03T18:59:52Z</time>
      </trkpt>
      <trkpt lat="44.1844" lon="0.33092">
        <ele>130</ele>
        <time>2023-03-03T19:00:26Z</time>
      </trkpt>
      <trkpt lat="44.18564" lon="0.33069">
        <ele>128</ele>
        <time>2023-03-03T19:00:48Z</time>
      </trkpt>
      <trkpt lat="44.18667" lon="0.33056">
        <ele>127</ele>
        <time>2023-03-03T19:01:07Z</time>
      </trkpt>
      <trkpt lat="44.18692" lon="0.33054">
        <ele>126</ele>
        <time>2023-03-03T19:01:11Z</time>
      </trkpt>
      <trkpt lat="44.18703" lon="0.33055">
        <ele>125</ele>
        <time>2023-03-03T19:01:13Z</time>
      </trkpt>
      <trkpt lat="44.18723" lon="0.33064">
        <ele>126</ele>
        <time>2023-03-03T19:01:17Z</time>
      </trkpt>
      <trkpt lat="44.18822" lon="0.33133">
        <ele>125</ele>
        <time>2023-03-03T19:01:37Z</time>
      </trkpt>
      <trkpt lat="44.18845" lon="0.33141">
        <ele>125</ele>
        <time>2023-03-03T19:01:41Z</time>
      </trkpt>
      <trkpt lat="44.18881" lon="0.33148">
        <ele>126</ele>
        <time>2023-03-03T19:01:47Z</time>
      </trkpt>
      <trkpt lat="44.18891" lon="0.33154">
        <ele>127</ele>
        <time>2023-03-03T19:01:49Z</time>
      </trkpt>
      <trkpt lat="44.19095" lon="0.33283">
        <ele>125</ele>
        <time>2023-03-03T19:02:29Z</time>
      </trkpt>
      <trkpt lat="44.19101" lon="0.33291">
        <ele>124</ele>
        <time>2023-03-03T19:02:30Z</time>
      </trkpt>
      <trkpt lat="44.1911" lon="0.33336">
        <ele>124</ele>
        <time>2023-03-03T19:02:36Z</time>
      </trkpt>
      <trkpt lat="44.19113" lon="0.33343">
        <ele>124</ele>
        <time>2023-03-03T19:02:37Z</time>
      </trkpt>
      <trkpt lat="44.19117" lon="0.33348">
        <ele>123</ele>
        <time>2023-03-03T19:02:38Z</time>
      </trkpt>
      <trkpt lat="44.19118" lon="0.33335">
        <ele>123</ele>
        <time>2023-03-03T19:02:40Z</time>
      </trkpt>
      <trkpt lat="44.19117" lon="0.33298">
        <ele>123</ele>
        <time>2023-03-03T19:02:45Z</time>
      </trkpt>
      <trkpt lat="44.19115" lon="0.32851">
        <ele>97</ele>
        <time>2023-03-03T19:03:42Z</time>
      </trkpt>
      <trkpt lat="44.19113" lon="0.32802">
        <ele>95</ele>
        <time>2023-03-03T19:03:48Z</time>
      </trkpt>
      <trkpt lat="44.19088" lon="0.3258">
        <ele>86</ele>
        <time>2023-03-03T19:04:17Z</time>
      </trkpt>
      <trkpt lat="44.19082" lon="0.32551">
        <ele>85</ele>
        <time>2023-03-03T19:04:21Z</time>
      </trkpt>
      <trkpt lat="44.19073" lon="0.32519">
        <ele>83</ele>
        <time>2023-03-03T19:04:25Z</time>
      </trkpt>
      <trkpt lat="44.19071" lon="0.32495">
        <ele>82</ele>
        <time>2023-03-03T19:04:28Z</time>
      </trkpt>
      <trkpt lat="44.19073" lon="0.32468">
        <ele>82</ele>
        <time>2023-03-03T19:04:32Z</time>
      </trkpt>
      <trkpt lat="44.19089" lon="0.32397">
        <ele>79</ele>
        <time>2023-03-03T19:04:41Z</time>
      </trkpt>
      <trkpt lat="44.19096" lon="0.32376">
        <ele>78</ele>
        <time>2023-03-03T19:04:44Z</time>
      </trkpt>
      <trkpt lat="44.19078" lon="0.32353">
        <ele>78</ele>
        <time>2023-03-03T19:04:48Z</time>
      </trkpt>
      <trkpt lat="44.19096" lon="0.32345">
        <ele>77</ele>
        <time>2023-03-03T19:04:52Z</time>
      </trkpt>
      <trkpt lat="44.19128" lon="0.32338">
        <ele>76</ele>
        <time>2023-03-03T19:04:57Z</time>
      </trkpt>
      <trkpt lat="44.1914" lon="0.32332">
        <ele>76</ele>
        <time>2023-03-03T19:05:00Z</time>
      </trkpt>
      <trkpt lat="44.19183" lon="0.32304">
        <ele>73</ele>
        <time>2023-03-03T19:05:08Z</time>
      </trkpt>
      <trkpt lat="44.19208" lon="0.32291">
        <ele>72</ele>
        <time>2023-03-03T19:05:13Z</time>
      </trkpt>
      <trkpt lat="44.19379" lon="0.32235">
        <ele>65</ele>
        <time>2023-03-03T19:05:44Z</time>
      </trkpt>
      <trkpt lat="44.19392" lon="0.32233">
        <ele>64</ele>
        <time>2023-03-03T19:05:47Z</time>
      </trkpt>
      <trkpt lat="44.19411" lon="0.32238">
        <ele>63</ele>
        <time>2023-03-03T19:05:50Z</time>
      </trkpt>
      <trkpt lat="44.19426" lon="0.32249">
        <ele>62</ele>
        <time>2023-03-03T19:05:53Z</time>
      </trkpt>
      <trkpt lat="44.19434" lon="0.32257">
        <ele>62</ele>
        <time>2023-03-03T19:05:55Z</time>
      </trkpt>
      <trkpt lat="44.19453" lon="0.32291">
        <ele>61</ele>
        <time>2023-03-03T19:06:00Z</time>
      </trkpt>
      <trkpt lat="44.19492" lon="0.32384">
        <ele>58</ele>
        <time>2023-03-03T19:06:14Z</time>
      </trkpt>
      <trkpt lat="44.1953" lon="0.32498">
        <ele>60</ele>
        <time>2023-03-03T19:06:30Z</time>
      </trkpt>
      <trkpt lat="44.1954" lon="0.32521">
        <ele>58</ele>
        <time>2023-03-03T19:06:33Z</time>
      </trkpt>
      <trkpt lat="44.19551" lon="0.32537">
        <ele>56</ele>
        <time>2023-03-03T19:06:36Z</time>
      </trkpt>
      <trkpt lat="44.19565" lon="0.3255">
        <ele>54</ele>
        <time>2023-03-03T19:06:39Z</time>
      </trkpt>
      <trkpt lat="44.19579" lon="0.32557">
        <ele>51</ele>
        <time>2023-03-03T19:06:42Z</time>
      </trkpt>
      <trkpt lat="44.19643" lon="0.32566">
        <ele>45</ele>
        <time>2023-03-03T19:06:53Z</time>
      </trkpt>
      <trkpt lat="44.19644" lon="0.32572">
        <ele>45</ele>
        <time>2023-03-03T19:06:54Z</time>
      </trkpt>
      <trkpt lat="44.19649" lon="0.32583">
        <ele>45</ele>
        <time>2023-03-03T19:06:56Z</time>
      </trkpt>
      <trkpt lat="44.19656" lon="0.32592">
        <ele>46</ele>
        <time>2023-03-03T19:06:57Z</time>
      </trkpt>
      <trkpt lat="44.19686" lon="0.32611">
        <ele>47</ele>
        <time>2023-03-03T19:07:03Z</time>
      </trkpt>
      <trkpt lat="44.19857" lon="0.32689">
        <ele>46</ele>
        <time>2023-03-03T19:07:35Z</time>
      </trkpt>
      <trkpt lat="44.19891" lon="0.32711">
        <ele>47</ele>
        <time>2023-03-03T19:07:42Z</time>
      </trkpt>
      <trkpt lat="44.19913" lon="0.3273">
        <ele>48</ele>
        <time>2023-03-03T19:07:47Z</time>
      </trkpt>
      <trkpt lat="44.20173" lon="0.32977">
        <ele>42</ele>
        <time>2023-03-03T19:08:43Z</time>
      </trkpt>
      <trkpt lat="44.20228" lon="0.33023">
        <ele>42</ele>
        <time>2023-03-03T19:08:54Z</time>
      </trkpt>
      <trkpt lat="44.20253" lon="0.3304">
        <ele>43</ele>
        <time>2023-03-03T19:08:59Z</time>
      </trkpt>
      <trkpt lat="44.20291" lon="0.33061">
        <ele>45</ele>
        <time>2023-03-03T19:09:06Z</time>
      </trkpt>
      <trkpt lat="44.20495" lon="0.33157">
        <ele>51</ele>
        <time>2023-03-03T19:09:45Z</time>
      </trkpt>
      <trkpt lat="44.2053" lon="0.33176">
        <ele>50</ele>
        <time>2023-03-03T19:09:51Z</time>
      </trkpt>
      <trkpt lat="44.20555" lon="0.33193">
        <ele>48</ele>
        <time>2023-03-03T19:09:56Z</time>
      </trkpt>
      <trkpt lat="44.20602" lon="0.33232">
        <ele>46</ele>
        <time>2023-03-03T19:10:06Z</time>
      </trkpt>
      <trkpt lat="44.20647" lon="0.33279">
        <ele>45</ele>
        <time>2023-03-03T19:10:16Z</time>
      </trkpt>
      <trkpt lat="44.20674" lon="0.33313">
        <ele>44</ele>
        <time>2023-03-03T19:10:22Z</time>
      </trkpt>
      <trkpt lat="44.207" lon="0.3335">
        <ele>43</ele>
        <time>2023-03-03T19:10:29Z</time>
      </trkpt>
      <trkpt lat="44.20811" lon="0.3352">
        <ele>44</ele>
        <time>2023-03-03T19:10:58Z</time>
      </trkpt>
      <trkpt lat="44.20829" lon="0.3355">
        <ele>43</ele>
        <time>2023-03-03T19:11:03Z</time>
      </trkpt>
      <trkpt lat="44.20849" lon="0.33592">
        <ele>43</ele>
        <time>2023-03-03T19:11:10Z</time>
      </trkpt>
      <trkpt lat="44.20882" lon="0.33685">
        <ele>43</ele>
        <time>2023-03-03T19:11:23Z</time>
      </trkpt>
      <trkpt lat="44.20889" lon="0.33708">
        <ele>43</ele>
        <time>2023-03-03T19:11:26Z</time>
      </trkpt>
      <trkpt lat="44.20926" lon="0.33827">
        <ele>40</ele>
        <time>2023-03-03T19:11:43Z</time>
      </trkpt>
      <trkpt lat="44.20941" lon="0.33859">
        <ele>41</ele>
        <time>2023-03-03T19:11:48Z</time>
      </trkpt>
      <trkpt lat="44.20953" lon="0.33879">
        <ele>42</ele>
        <time>2023-03-03T19:11:51Z</time>
      </trkpt>
      <trkpt lat="44.20967" lon="0.33897">
        <ele>43</ele>
        <time>2023-03-03T19:11:54Z</time>
      </trkpt>
      <trkpt lat="44.21002" lon="0.33934">
        <ele>47</ele>
        <time>2023-03-03T19:12:02Z</time>
      </trkpt>
      <trkpt lat="44.21032" lon="0.3394">
        <ele>47</ele>
        <time>2023-03-03T19:12:08Z</time>
      </trkpt>
      <trkpt lat="44.21087" lon="0.33957">
        <ele>48</ele>
        <time>2023-03-03T19:12:18Z</time>
      </trkpt>
      <trkpt lat="44.2112" lon="0.3397">
        <ele>47</ele>
        <time>2023-03-03T19:12:24Z</time>
      </trkpt>
      <trkpt lat="44.21146" lon="0.33984">
        <ele>46</ele>
        <time>2023-03-03T19:12:29Z</time>
      </trkpt>
      <trkpt lat="44.21961" lon="0.34498">
        <ele>46</ele>
        <time>2023-03-03T19:15:08Z</time>
      </trkpt>
      <trkpt lat="44.22033" lon="0.34553">
        <ele>51</ele>
        <time>2023-03-03T19:15:22Z</time>
      </trkpt>
      <trkpt lat="44.2206" lon="0.34578">
        <ele>55</ele>
        <time>2023-03-03T19:15:28Z</time>
      </trkpt>
      <trkpt lat="44.22186" lon="0.34676">
        <ele>53</ele>
        <time>2023-03-03T19:15:54Z</time>
      </trkpt>
      <trkpt lat="44.22185" lon="0.34688">
        <ele>53</ele>
        <time>2023-03-03T19:15:55Z</time>
      </trkpt>
      <trkpt lat="44.22188" lon="0.34695">
        <ele>52</ele>
        <time>2023-03-03T19:15:56Z</time>
      </trkpt>
      <trkpt lat="44.22192" lon="0.34699">
        <ele>52</ele>
        <time>2023-03-03T19:15:57Z</time>
      </trkpt>
      <trkpt lat="44.22201" lon="0.34698">
        <ele>52</ele>
        <time>2023-03-03T19:15:59Z</time>
      </trkpt>
      <trkpt lat="44.22205" lon="0.34693">
        <ele>52</ele>
        <time>2023-03-03T19:16:00Z</time>
      </trkpt>
      <trkpt lat="44.22206" lon="0.34685">
        <ele>52</ele>
        <time>2023-03-03T19:16:01Z</time>
      </trkpt>
      <trkpt lat="44.22205" lon="0.34678">
        <ele>52</ele>
        <time>2023-03-03T19:16:02Z</time>
      </trkpt>
      <trkpt lat="44.22221" lon="0.34664">
        <ele>52</ele>
        <time>2023-03-03T19:16:05Z</time>
      </trkpt>
      <trkpt lat="44.22555" lon="0.34524">
        <ele>52</ele>
        <time>2023-03-03T19:17:07Z</time>
      </trkpt>
      <trkpt lat="44.22578" lon="0.34529">
        <ele>52</ele>
        <time>2023-03-03T19:17:11Z</time>
      </trkpt>
      <trkpt lat="44.22606" lon="0.3455">
        <ele>51</ele>
        <time>2023-03-03T19:17:17Z</time>
      </trkpt>
      <trkpt lat="44.22622" lon="0.34554">
        <ele>51</ele>
        <time>2023-03-03T19:17:20Z</time>
      </trkpt>
      <trkpt lat="44.22624" lon="0.34496">
        <ele>49</ele>
        <time>2023-03-03T19:17:27Z</time>
      </trkpt>
      <trkpt lat="44.2264" lon="0.34467">
        <ele>47</ele>
        <time>2023-03-03T19:17:32Z</time>
      </trkpt>
      <trkpt lat="44.22651" lon="0.34449">
        <ele>46</ele>
        <time>2023-03-03T19:17:35Z</time>
      </trkpt>
      <trkpt lat="44.22659" lon="0.34438">
        <ele>45</ele>
        <time>2023-03-03T19:17:37Z</time>
      </trkpt>
      <trkpt lat="44.22667" lon="0.3443">
        <ele>44</ele>
        <time>2023-03-03T19:17:39Z</time>
      </trkpt>
      <trkpt lat="44.22672" lon="0.34427">
        <ele>43</ele>
        <time>2023-03-03T19:17:40Z</time>
      </trkpt>
      <trkpt lat="44.22685" lon="0.34423">
        <ele>43</ele>
        <time>2023-03-03T19:17:42Z</time>
      </trkpt>
      <trkpt lat="44.22723" lon="0.34439">
        <ele>42</ele>
        <time>2023-03-03T19:17:49Z</time>
      </trkpt>
      <trkpt lat="44.22742" lon="0.34442">
        <ele>42</ele>
        <time>2023-03-03T19:17:52Z</time>
      </trkpt>
      <trkpt lat="44.22783" lon="0.34426">
        <ele>41</ele>
        <time>2023-03-03T19:18:00Z</time>
      </trkpt>
      <trkpt lat="44.2285" lon="0.34398">
        <ele>40</ele>
        <time>2023-03-03T19:18:12Z</time>
      </trkpt>
      <trkpt lat="44.22873" lon="0.34388">
        <ele>40</ele>
        <time>2023-03-03T19:18:17Z</time>
      </trkpt>
      <trkpt lat="44.22934" lon="0.34362">
        <ele>39</ele>
        <time>2023-03-03T19:18:28Z</time>
      </trkpt>
      <trkpt lat="44.22977" lon="0.34344">
        <ele>38</ele>
        <time>2023-03-03T19:18:36Z</time>
      </trkpt>
      <trkpt lat="44.22966" lon="0.3429">
        <ele>39</ele>
        <time>2023-03-03T19:18:43Z</time>
      </trkpt>
      <trkpt lat="44.22965" lon="0.34282">
        <ele>39</ele>
        <time>2023-03-03T19:18:44Z</time>
      </trkpt>
      <trkpt lat="44.22966" lon="0.34278">
        <ele>39</ele>
        <time>2023-03-03T19:18:45Z</time>
      </trkpt>
      <trkpt lat="44.22961" lon="0.34261">
        <ele>39</ele>
        <time>2023-03-03T19:18:47Z</time>
      </trkpt>
      <trkpt lat="44.22939" lon="0.34156">
        <ele>37</ele>
        <time>2023-03-03T19:19:01Z</time>
      </trkpt>
      <trkpt lat="44.22929" lon="0.34091">
        <ele>37</ele>
        <time>2023-03-03T19:19:10Z</time>
      </trkpt>
      <trkpt lat="44.22922" lon="0.34005">
        <ele>39</ele>
        <time>2023-03-03T19:19:21Z</time>
      </trkpt>
      <trkpt lat="44.22922" lon="0.33954">
        <ele>39</ele>
        <time>2023-03-03T19:19:27Z</time>
      </trkpt>
      <trkpt lat="44.22924" lon="0.33901">
        <ele>39</ele>
        <time>2023-03-03T19:19:34Z</time>
      </trkpt>
      <trkpt lat="44.22929" lon="0.33843">
        <ele>41</ele>
        <time>2023-03-03T19:19:41Z</time>
      </trkpt>
      <trkpt lat="44.22937" lon="0.33789">
        <ele>41</ele>
        <time>2023-03-03T19:19:48Z</time>
      </trkpt>
      <trkpt lat="44.2295" lon="0.3373">
        <ele>42</ele>
        <time>2023-03-03T19:19:56Z</time>
      </trkpt>
      <trkpt lat="44.22968" lon="0.33667">
        <ele>42</ele>
        <time>2023-03-03T19:20:05Z</time>
      </trkpt>
      <trkpt lat="44.23002" lon="0.33581">
        <ele>41</ele>
        <time>2023-03-03T19:20:17Z</time>
      </trkpt>
      <trkpt lat="44.23031" lon="0.33525">
        <ele>40</ele>
        <time>2023-03-03T19:20:26Z</time>
      </trkpt>
      <trkpt lat="44.23074" lon="0.33456">
        <ele>39</ele>
        <time>2023-03-03T19:20:38Z</time>
      </trkpt>
      <trkpt lat="44.23112" lon="0.33401">
        <ele>39</ele>
        <time>2023-03-03T19:20:48Z</time>
      </trkpt>
      <trkpt lat="44.23422" lon="0.32977">
        <ele>37</ele>
        <time>2023-03-03T19:22:05Z</time>
      </trkpt>
      <trkpt lat="44.23437" lon="0.32967">
        <ele>35</ele>
        <time>2023-03-03T19:22:08Z</time>
      </trkpt>
      <trkpt lat="44.23476" lon="0.32915">
        <ele>31</ele>
        <time>2023-03-03T19:22:17Z</time>
      </trkpt>
      <trkpt lat="44.23487" lon="0.3288">
        <ele>32</ele>
        <time>2023-03-03T19:22:22Z</time>
      </trkpt>
      <trkpt lat="44.23499" lon="0.3286">
        <ele>33</ele>
        <time>2023-03-03T19:22:26Z</time>
      </trkpt>
      <trkpt lat="44.23506" lon="0.32852">
        <ele>34</ele>
        <time>2023-03-03T19:22:27Z</time>
      </trkpt>
      <trkpt lat="44.23518" lon="0.32837">
        <ele>35</ele>
        <time>2023-03-03T19:22:30Z</time>
      </trkpt>
      <trkpt lat="44.23532" lon="0.32815">
        <ele>35</ele>
        <time>2023-03-03T19:22:34Z</time>
      </trkpt>
      <trkpt lat="44.23556" lon="0.32772">
        <ele>34</ele>
        <time>2023-03-03T19:22:41Z</time>
      </trkpt>
      <trkpt lat="44.23632" lon="0.32667">
        <ele>34</ele>
        <time>2023-03-03T19:23:00Z</time>
      </trkpt>
      <trkpt lat="44.23654" lon="0.32638">
        <ele>35</ele>
        <time>2023-03-03T19:23:05Z</time>
      </trkpt>
      <trkpt lat="44.23671" lon="0.3262">
        <ele>35</ele>
        <time>2023-03-03T19:23:09Z</time>
      </trkpt>
      <trkpt lat="44.23692" lon="0.32598">
        <ele>35</ele>
        <time>2023-03-03T19:23:14Z</time>
      </trkpt>
      <trkpt lat="44.23697" lon="0.32583">
        <ele>36</ele>
        <time>2023-03-03T19:23:16Z</time>
      </trkpt>
      <trkpt lat="44.23701" lon="0.32583">
        <ele>36</ele>
        <time>2023-03-03T19:23:16Z</time>
      </trkpt>
      <trkpt lat="44.23707" lon="0.32585">
        <ele>35</ele>
        <time>2023-03-03T19:23:18Z</time>
      </trkpt>
      <trkpt lat="44.23723" lon="0.32608">
        <ele>34</ele>
        <time>2023-03-03T19:23:22Z</time>
      </trkpt>
      <trkpt lat="44.23726" lon="0.32611">
        <ele>34</ele>
        <time>2023-03-03T19:23:22Z</time>
      </trkpt>
      <trkpt lat="44.23737" lon="0.326">
        <ele>34</ele>
        <time>2023-03-03T19:23:25Z</time>
      </trkpt>
      <trkpt lat="44.23764" lon="0.32579">
        <ele>34</ele>
        <time>2023-03-03T19:23:30Z</time>
      </trkpt>
      <trkpt lat="44.23778" lon="0.3257">
        <ele>35</ele>
        <time>2023-03-03T19:23:33Z</time>
      </trkpt>
      <trkpt lat="44.23824" lon="0.3255">
        <ele>35</ele>
        <time>2023-03-03T19:23:42Z</time>
      </trkpt>
      <trkpt lat="44.2387" lon="0.3254">
        <ele>36</ele>
        <time>2023-03-03T19:23:50Z</time>
      </trkpt>
      <trkpt lat="44.24212" lon="0.32494">
        <ele>34</ele>
        <time>2023-03-03T19:24:51Z</time>
      </trkpt>
      <trkpt lat="44.24649" lon="0.32434">
        <ele>36</ele>
        <time>2023-03-03T19:26:09Z</time>
      </trkpt>
      <trkpt lat="44.24668" lon="0.3243">
        <ele>36</ele>
        <time>2023-03-03T19:26:13Z</time>
      </trkpt>
      <trkpt lat="44.24698" lon="0.32421">
        <ele>36</ele>
        <time>2023-03-03T19:26:18Z</time>
      </trkpt>
      <trkpt lat="44.2476" lon="0.32399">
        <ele>37</ele>
        <time>2023-03-03T19:26:29Z</time>
      </trkpt>
      <trkpt lat="44.24822" lon="0.32368">
        <ele>36</ele>
        <time>2023-03-03T19:26:41Z</time>
      </trkpt>
      <trkpt lat="44.24868" lon="0.32339">
        <ele>36</ele>
        <time>2023-03-03T19:26:50Z</time>
      </trkpt>
      <trkpt lat="44.24927" lon="0.32287">
        <ele>37</ele>
        <time>2023-03-03T19:27:02Z</time>
      </trkpt>
      <trkpt lat="44.2496" lon="0.32256">
        <ele>37</ele>
        <time>2023-03-03T19:27:10Z</time>
      </trkpt>
      <trkpt lat="44.24976" lon="0.32239">
        <ele>38</ele>
        <time>2023-03-03T19:27:13Z</time>
      </trkpt>
      <trkpt lat="44.25005" lon="0.32202">
        <ele>38</ele>
        <time>2023-03-03T19:27:20Z</time>
      </trkpt>
      <trkpt lat="44.25039" lon="0.3215">
        <ele>38</ele>
        <time>2023-03-03T19:27:29Z</time>
      </trkpt>
      <trkpt lat="44.25075" lon="0.32088">
        <ele>36</ele>
        <time>2023-03-03T19:27:39Z</time>
      </trkpt>
      <trkpt lat="44.25105" lon="0.32027">
        <ele>36</ele>
        <time>2023-03-03T19:27:49Z</time>
      </trkpt>
      <trkpt lat="44.25542" lon="0.30868">
        <ele>39</ele>
        <time>2023-03-03T19:30:36Z</time>
      </trkpt>
      <trkpt lat="44.2555" lon="0.30857">
        <ele>39</ele>
        <time>2023-03-03T19:30:38Z</time>
      </trkpt>
      <trkpt lat="44.25617" lon="0.30817">
        <ele>35</ele>
        <time>2023-03-03T19:30:51Z</time>
      </trkpt>
      <trkpt lat="44.25638" lon="0.308">
        <ele>35</ele>
        <time>2023-03-03T19:30:55Z</time>
      </trkpt>
      <trkpt lat="44.25642" lon="0.30796">
        <ele>35</ele>
        <time>2023-03-03T19:30:56Z</time>
      </trkpt>
      <trkpt lat="44.25645" lon="0.30786">
        <ele>35</ele>
        <time>2023-03-03T19:30:57Z</time>
      </trkpt>
      <trkpt lat="44.25638" lon="0.30764">
        <ele>35</ele>
        <time>2023-03-03T19:31:00Z</time>
      </trkpt>
      <trkpt lat="44.25629" lon="0.30736">
        <ele>36</ele>
        <time>2023-03-03T19:31:04Z</time>
      </trkpt>
      <trkpt lat="44.25634" lon="0.30721">
        <ele>36</ele>
        <time>2023-03-03T19:31:06Z</time>
      </trkpt>
      <trkpt lat="44.25658" lon="0.30689">
        <ele>35</ele>
        <time>2023-03-03T19:31:12Z</time>
      </trkpt>
      <trkpt lat="44.25673" lon="0.30677">
        <ele>34</ele>
        <time>2023-03-03T19:31:15Z</time>
      </trkpt>
      <trkpt lat="44.25719" lon="0.30652">
        <ele>33</ele>
        <time>2023-03-03T19:31:24Z</time>
      </trkpt>
      <trkpt lat="44.25736" lon="0.30638">
        <ele>33</ele>
        <time>2023-03-03T19:31:28Z</time>
      </trkpt>
      <trkpt lat="44.25747" lon="0.30625">
        <ele>33</ele>
        <time>2023-03-03T19:31:30Z</time>
      </trkpt>
      <trkpt lat="44.25786" lon="0.30557">
        <ele>33</ele>
        <time>2023-03-03T19:31:41Z</time>
      </trkpt>
      <trkpt lat="44.2575" lon="0.30478">
        <ele>35</ele>
        <time>2023-03-03T19:31:53Z</time>
      </trkpt>
      <trkpt lat="44.25781" lon="0.30447">
        <ele>35</ele>
        <time>2023-03-03T19:32:00Z</time>
      </trkpt>
      <trkpt lat="44.25795" lon="0.30433">
        <ele>35</ele>
        <time>2023-03-03T19:32:03Z</time>
      </trkpt>
      <trkpt lat="44.25849" lon="0.30393">
        <ele>35</ele>
        <time>2023-03-03T19:32:14Z</time>
      </trkpt>
      <trkpt lat="44.2591" lon="0.30342">
        <ele>37</ele>
        <time>2023-03-03T19:32:26Z</time>
      </trkpt>
      <trkpt lat="44.25989" lon="0.30259">
        <ele>39</ele>
        <time>2023-03-03T19:32:44Z</time>
      </trkpt>
      <trkpt lat="44.26038" lon="0.30198">
        <ele>42</ele>
        <time>2023-03-03T19:32:56Z</time>
      </trkpt>
      <trkpt lat="44.26063" lon="0.30163">
        <ele>43</ele>
        <time>2023-03-03T19:33:02Z</time>
      </trkpt>
      <trkpt lat="44.26075" lon="0.30151">
        <ele>42</ele>
        <time>2023-03-03T19:33:05Z</time>
      </trkpt>
      <trkpt lat="44.26107" lon="0.30128">
        <ele>39</ele>
        <time>2023-03-03T19:33:11Z</time>
      </trkpt>
      <trkpt lat="44.26117" lon="0.30121">
        <ele>39</ele>
        <time>2023-03-03T19:33:13Z</time>
      </trkpt>
      <trkpt lat="44.26121" lon="0.30122">
        <ele>38</ele>
        <time>2023-03-03T19:33:14Z</time>
      </trkpt>
      <trkpt lat="44.26124" lon="0.30127">
        <ele>38</ele>
        <time>2023-03-03T19:33:15Z</time>
      </trkpt>
      <trkpt lat="44.26131" lon="0.30123">
        <ele>38</ele>
        <time>2023-03-03T19:33:16Z</time>
      </trkpt>
      <trkpt lat="44.26188" lon="0.30023">
        <ele>37</ele>
        <time>2023-03-03T19:33:32Z</time>
      </trkpt>
      <trkpt lat="44.26191" lon="0.30014">
        <ele>37</ele>
        <time>2023-03-03T19:33:34Z</time>
      </trkpt>
      <trkpt lat="44.2619" lon="0.29973">
        <ele>39</ele>
        <time>2023-03-03T19:33:39Z</time>
      </trkpt>
      <trkpt lat="44.26194" lon="0.29957">
        <ele>40</ele>
        <time>2023-03-03T19:33:41Z</time>
      </trkpt>
      <trkpt lat="44.26482" lon="0.29467">
        <ele>39</ele>
        <time>2023-03-03T19:35:02Z</time>
      </trkpt>
      <trkpt lat="44.26639" lon="0.29214">
        <ele>38</ele>
        <time>2023-03-03T19:35:44Z</time>
      </trkpt>
      <trkpt lat="44.26687" lon="0.29144">
        <ele>38</ele>
        <time>2023-03-03T19:35:57Z</time>
      </trkpt>
      <trkpt lat="44.26804" lon="0.29">
        <ele>40</ele>
        <time>2023-03-03T19:36:24Z</time>
      </trkpt>
      <trkpt lat="44.26871" lon="0.28932">
        <ele>39</ele>
        <time>2023-03-03T19:36:39Z</time>
      </trkpt>
      <trkpt lat="44.26928" lon="0.28882">
        <ele>38</ele>
        <time>2023-03-03T19:36:51Z</time>
      </trkpt>
      <trkpt lat="44.27025" lon="0.28811">
        <ele>37</ele>
        <time>2023-03-03T19:37:11Z</time>
      </trkpt>
      <trkpt lat="44.27746" lon="0.28449">
        <ele>40</ele>
        <time>2023-03-03T19:39:27Z</time>
      </trkpt>
      <trkpt lat="44.27823" lon="0.28411">
        <ele>40</ele>
        <time>2023-03-03T19:39:42Z</time>
      </trkpt>
      <trkpt lat="44.27928" lon="0.28359">
        <ele>40</ele>
        <time>2023-03-03T19:40:01Z</time>
      </trkpt>
      <trkpt lat="44.2794" lon="0.28396">
        <ele>37</ele>
        <time>2023-03-03T19:40:07Z</time>
      </trkpt>
      <trkpt lat="44.27946" lon="0.28401">
        <ele>36</ele>
        <time>2023-03-03T19:40:08Z</time>
      </trkpt>
      <trkpt lat="44.27952" lon="0.28401">
        <ele>36</ele>
        <time>2023-03-03T19:40:09Z</time>
      </trkpt>
      <trkpt lat="44.28002" lon="0.2838">
        <ele>36</ele>
        <time>2023-03-03T19:40:18Z</time>
      </trkpt>
      <trkpt lat="44.28048" lon="0.28376">
        <ele>35</ele>
        <time>2023-03-03T19:40:26Z</time>
      </trkpt>
      <trkpt lat="44.28059" lon="0.28377">
        <ele>35</ele>
        <time>2023-03-03T19:40:28Z</time>
      </trkpt>
      <trkpt lat="44.28069" lon="0.28381">
        <ele>35</ele>
        <time>2023-03-03T19:40:30Z</time>
      </trkpt>
      <trkpt lat="44.28101" lon="0.28399">
        <ele>34</ele>
        <time>2023-03-03T19:40:36Z</time>
      </trkpt>
      <trkpt lat="44.28111" lon="0.28404">
        <ele>34</ele>
        <time>2023-03-03T19:40:38Z</time>
      </trkpt>
      <trkpt lat="44.28194" lon="0.28475">
        <ele>33</ele>
        <time>2023-03-03T19:40:55Z</time>
      </trkpt>
      <trkpt lat="44.28232" lon="0.28501">
        <ele>33</ele>
        <time>2023-03-03T19:41:03Z</time>
      </trkpt>
      <trkpt lat="44.283" lon="0.28544">
        <ele>32</ele>
        <time>2023-03-03T19:41:16Z</time>
      </trkpt>
      <trkpt lat="44.28202" lon="0.28715">
        <ele>32</ele>
        <time>2023-03-03T19:41:44Z</time>
      </trkpt>
      <trkpt lat="44.28166" lon="0.28793">
        <ele>33</ele>
        <time>2023-03-03T19:41:56Z</time>
      </trkpt>
      <trkpt lat="44.28155" lon="0.28827">
        <ele>33</ele>
        <time>2023-03-03T19:42:01Z</time>
      </trkpt>
      <trkpt lat="44.28123" lon="0.28964">
        <ele>32</ele>
        <time>2023-03-03T19:42:19Z</time>
      </trkpt>
      <trkpt lat="44.28112" lon="0.28989">
        <ele>32</ele>
        <time>2023-03-03T19:42:23Z</time>
      </trkpt>
      <trkpt lat="44.2808" lon="0.29049">
        <ele>32</ele>
        <time>2023-03-03T19:42:32Z</time>
      </trkpt>
      <trkpt lat="44.28091" lon="0.29075">
        <ele>31</ele>
        <time>2023-03-03T19:42:36Z</time>
      </trkpt>
      <trkpt lat="44.28147" lon="0.29159">
        <ele>31</ele>
        <time>2023-03-03T19:42:51Z</time>
      </trkpt>
      <trkpt lat="44.28152" lon="0.29171">
        <ele>31</ele>
        <time>2023-03-03T19:42:53Z</time>
      </trkpt>
      <trkpt lat="44.28154" lon="0.29185">
        <ele>31</ele>
        <time>2023-03-03T19:42:54Z</time>
      </trkpt>
      <trkpt lat="44.28153" lon="0.29223">
        <ele>30</ele>
        <time>2023-03-03T19:42:59Z</time>
      </trkpt>
      <trkpt lat="44.28154" lon="0.29237">
        <ele>30</ele>
        <time>2023-03-03T19:43:01Z</time>
      </trkpt>
      <trkpt lat="44.28157" lon="0.2925">
        <ele>30</ele>
        <time>2023-03-03T19:43:03Z</time>
      </trkpt>
      <trkpt lat="44.28181" lon="0.29307">
        <ele>31</ele>
        <time>2023-03-03T19:43:11Z</time>
      </trkpt>
      <trkpt lat="44.2821" lon="0.29399">
        <ele>32</ele>
        <time>2023-03-03T19:43:24Z</time>
      </trkpt>
      <trkpt lat="44.2823" lon="0.29504">
        <ele>32</ele>
        <time>2023-03-03T19:43:38Z</time>
      </trkpt>
      <trkpt lat="44.28269" lon="0.29645">
        <ele>34</ele>
        <time>2023-03-03T19:43:57Z</time>
      </trkpt>
      <trkpt lat="44.28281" lon="0.29728">
        <ele>34</ele>
        <time>2023-03-03T19:44:08Z</time>
      </trkpt>
      <trkpt lat="44.28281" lon="0.29881">
        <ele>34</ele>
        <time>2023-03-03T19:44:27Z</time>
      </trkpt>
      <trkpt lat="44.28279" lon="0.29892">
        <ele>33</ele>
        <time>2023-03-03T19:44:29Z</time>
      </trkpt>
      <trkpt lat="44.2818" lon="0.30295">
        <ele>32</ele>
        <time>2023-03-03T19:45:23Z</time>
      </trkpt>
      <trkpt lat="44.28163" lon="0.30377">
        <ele>31</ele>
        <time>2023-03-03T19:45:34Z</time>
      </trkpt>
      <trkpt lat="44.28159" lon="0.30393">
        <ele>31</ele>
        <time>2023-03-03T19:45:36Z</time>
      </trkpt>
      <trkpt lat="44.28195" lon="0.3042">
        <ele>31</ele>
        <time>2023-03-03T19:45:43Z</time>
      </trkpt>
      <trkpt lat="44.28218" lon="0.30442">
        <ele>31</ele>
        <time>2023-03-03T19:45:48Z</time>
      </trkpt>
      <trkpt lat="44.28944" lon="0.31175">
        <ele>32</ele>
        <time>2023-03-03T19:48:28Z</time>
      </trkpt>
      <trkpt lat="44.28954" lon="0.31195">
        <ele>32</ele>
        <time>2023-03-03T19:48:31Z</time>
      </trkpt>
      <trkpt lat="44.28964" lon="0.31206">
        <ele>31</ele>
        <time>2023-03-03T19:48:33Z</time>
      </trkpt>
      <trkpt lat="44.28969" lon="0.31207">
        <ele>31</ele>
        <time>2023-03-03T19:48:34Z</time>
      </trkpt>
      <trkpt lat="44.2897" lon="0.31192">
        <ele>31</ele>
        <time>2023-03-03T19:48:36Z</time>
      </trkpt>
      <trkpt lat="44.28956" lon="0.31818">
        <ele>34</ele>
        <time>2023-03-03T19:49:56Z</time>
      </trkpt>
      <trkpt lat="44.28952" lon="0.31918">
        <ele>32</ele>
        <time>2023-03-03T19:50:08Z</time>
      </trkpt>
      <trkpt lat="44.28947" lon="0.3218">
        <ele>32</ele>
        <time>2023-03-03T19:50:42Z</time>
      </trkpt>
      <trkpt lat="44.28944" lon="0.32287">
        <ele>31</ele>
        <time>2023-03-03T19:50:56Z</time>
      </trkpt>
      <trkpt lat="44.28941" lon="0.3234">
        <ele>32</ele>
        <time>2023-03-03T19:51:02Z</time>
      </trkpt>
      <trkpt lat="44.28936" lon="0.32372">
        <ele>32</ele>
        <time>2023-03-03T19:51:06Z</time>
      </trkpt>
      <trkpt lat="44.28922" lon="0.32438">
        <ele>32</ele>
        <time>2023-03-03T19:51:15Z</time>
      </trkpt>
      <trkpt lat="44.28923" lon="0.32461">
        <ele>31</ele>
        <time>2023-03-03T19:51:18Z</time>
      </trkpt>
      <trkpt lat="44.28933" lon="0.32463">
        <ele>31</ele>
        <time>2023-03-03T19:51:20Z</time>
      </trkpt>
      <trkpt lat="44.28949" lon="0.32467">
        <ele>31</ele>
        <time>2023-03-03T19:51:23Z</time>
      </trkpt>
      <trkpt lat="44.28981" lon="0.32487">
        <ele>30</ele>
        <time>2023-03-03T19:51:29Z</time>
      </trkpt>
      <trkpt lat="44.29268" lon="0.32695">
        <ele>31</ele>
        <time>2023-03-03T19:52:27Z</time>
      </trkpt>
      <trkpt lat="44.29308" lon="0.3273">
        <ele>31</ele>
        <time>2023-03-03T19:52:35Z</time>
      </trkpt>
      <trkpt lat="44.29344" lon="0.32771">
        <ele>31</ele>
        <time>2023-03-03T19:52:43Z</time>
      </trkpt>
      <trkpt lat="44.29498" lon="0.32996">
        <ele>30</ele>
        <time>2023-03-03T19:53:23Z</time>
      </trkpt>
      <trkpt lat="44.29584" lon="0.33131">
        <ele>31</ele>
        <time>2023-03-03T19:53:46Z</time>
      </trkpt>
      <trkpt lat="44.29619" lon="0.33189">
        <ele>31</ele>
        <time>2023-03-03T19:53:56Z</time>
      </trkpt>
      <trkpt lat="44.29624" lon="0.33213">
        <ele>30</ele>
        <time>2023-03-03T19:53:59Z</time>
      </trkpt>
      <trkpt lat="44.29625" lon="0.33231">
        <ele>30</ele>
        <time>2023-03-03T19:54:01Z</time>
      </trkpt>
      <trkpt lat="44.29624" lon="0.33252">
        <ele>30</ele>
        <time>2023-03-03T19:54:04Z</time>
      </trkpt>
      <trkpt lat="44.29581" lon="0.33423">
        <ele>31</ele>
        <time>2023-03-03T19:54:27Z</time>
      </trkpt>
      <trkpt lat="44.29579" lon="0.33446">
        <ele>31</ele>
        <time>2023-03-03T19:54:30Z</time>
      </trkpt>
      <trkpt lat="44.29575" lon="0.33621">
        <ele>36</ele>
        <time>2023-03-03T19:54:52Z</time>
      </trkpt>
      <trkpt lat="44.29569" lon="0.33822">
        <ele>46</ele>
        <time>2023-03-03T19:55:18Z</time>
      </trkpt>
      <trkpt lat="44.29543" lon="0.34006">
        <ele>47</ele>
        <time>2023-03-03T19:55:42Z</time>
      </trkpt>
      <trkpt lat="44.296" lon="0.34036">
        <ele>47</ele>
        <time>2023-03-03T19:55:52Z</time>
      </trkpt>
      <trkpt lat="44.2963" lon="0.3404">
        <ele>46</ele>
        <time>2023-03-03T19:55:58Z</time>
      </trkpt>
      <trkpt lat="44.29644" lon="0.34048">
        <ele>46</ele>
        <time>2023-03-03T19:56:00Z</time>
      </trkpt>
      <trkpt lat="44.29767" lon="0.34163">
        <ele>45</ele>
        <time>2023-03-03T19:56:27Z</time>
      </trkpt>
      <trkpt lat="44.29833" lon="0.34232">
        <ele>45</ele>
        <time>2023-03-03T19:56:41Z</time>
      </trkpt>
      <trkpt lat="44.2984" lon="0.34236">
        <ele>45</ele>
        <time>2023-03-03T19:56:43Z</time>
      </trkpt>
      <trkpt lat="44.29857" lon="0.34238">
        <ele>45</ele>
        <time>2023-03-03T19:56:46Z</time>
      </trkpt>
      <trkpt lat="44.29885" lon="0.34235">
        <ele>45</ele>
        <time>2023-03-03T19:56:51Z</time>
      </trkpt>
      <trkpt lat="44.29895" lon="0.34233">
        <ele>45</ele>
        <time>2023-03-03T19:56:53Z</time>
      </trkpt>
      <trkpt lat="44.29898" lon="0.3423">
        <ele>45</ele>
        <time>2023-03-03T19:56:53Z</time>
      </trkpt>
      <trkpt lat="44.29898" lon="0.34244">
        <ele>45</ele>
        <time>2023-03-03T19:56:55Z</time>
      </trkpt>
      <trkpt lat="44.29896" lon="0.34284">
        <ele>45</ele>
        <time>2023-03-03T19:57:00Z</time>
      </trkpt>
      <trkpt lat="44.299" lon="0.34291">
        <ele>45</ele>
        <time>2023-03-03T19:57:01Z</time>
      </trkpt>
      <trkpt lat="44.29907" lon="0.34299">
        <ele>46</ele>
        <time>2023-03-03T19:57:03Z</time>
      </trkpt>
      <trkpt lat="44.29934" lon="0.34318">
        <ele>45</ele>
        <time>2023-03-03T19:57:08Z</time>
      </trkpt>
      <trkpt lat="44.30023" lon="0.34418">
        <ele>39</ele>
        <time>2023-03-03T19:57:29Z</time>
      </trkpt>
      <trkpt lat="44.30026" lon="0.34429">
        <ele>39</ele>
        <time>2023-03-03T19:57:30Z</time>
      </trkpt>
      <trkpt lat="44.30026" lon="0.34438">
        <ele>38</ele>
        <time>2023-03-03T19:57:31Z</time>
      </trkpt>
      <trkpt lat="44.30024" lon="0.34447">
        <ele>38</ele>
        <time>2023-03-03T19:57:32Z</time>
      </trkpt>
      <trkpt lat="44.30004" lon="0.34486">
        <ele>39</ele>
        <time>2023-03-03T19:57:39Z</time>
      </trkpt>
      <trkpt lat="44.30068" lon="0.34535">
        <ele>35</ele>
        <time>2023-03-03T19:57:52Z</time>
      </trkpt>
      <trkpt lat="44.30092" lon="0.34556">
        <ele>35</ele>
        <time>2023-03-03T19:57:57Z</time>
      </trkpt>
      <trkpt lat="44.30244" lon="0.34724">
        <ele>32</ele>
        <time>2023-03-03T19:58:31Z</time>
      </trkpt>
      <trkpt lat="44.30364" lon="0.34862">
        <ele>31</ele>
        <time>2023-03-03T19:58:59Z</time>
      </trkpt>
      <trkpt lat="44.30455" lon="0.34968">
        <ele>30</ele>
        <time>2023-03-03T19:59:20Z</time>
      </trkpt>
      <trkpt lat="44.30505" lon="0.35041">
        <ele>31</ele>
        <time>2023-03-03T19:59:33Z</time>
      </trkpt>
      <trkpt lat="44.30517" lon="0.35049">
        <ele>31</ele>
        <time>2023-03-03T19:59:35Z</time>
      </trkpt>
      <trkpt lat="44.30515" lon="0.35063">
        <ele>31</ele>
        <time>2023-03-03T19:59:37Z</time>
      </trkpt>
      <trkpt lat="44.30517" lon="0.35049">
        <ele>31</ele>
        <time>2023-03-03T19:59:39Z</time>
      </trkpt>
      <trkpt lat="44.30523" lon="0.35049">
        <ele>31</ele>
        <time>2023-03-03T19:59:40Z</time>
      </trkpt>
      <trkpt lat="44.30542" lon="0.35043">
        <ele>31</ele>
        <time>2023-03-03T19:59:43Z</time>
      </trkpt>
      <trkpt lat="44.30557" lon="0.35146">
        <ele>32</ele>
        <time>2023-03-03T19:59:57Z</time>
      </trkpt>
      <trkpt lat="44.30563" lon="0.35181">
        <ele>32</ele>
        <time>2023-03-03T20:00:01Z</time>
      </trkpt>
      <trkpt lat="44.30571" lon="0.35211">
        <ele>32</ele>
        <time>2023-03-03T20:00:05Z</time>
      </trkpt>
      <trkpt lat="44.3058" lon="0.35234">
        <ele>32</ele>
        <time>2023-03-03T20:00:09Z</time>
      </trkpt>
      <trkpt lat="44.30594" lon="0.35261">
        <ele>32</ele>
        <time>2023-03-03T20:00:13Z</time>
      </trkpt>
      <trkpt lat="44.30615" lon="0.35297">
        <ele>33</ele>
        <time>2023-03-03T20:00:19Z</time>
      </trkpt>
      <trkpt lat="44.30653" lon="0.35351">
        <ele>32</ele>
        <time>2023-03-03T20:00:28Z</time>
      </trkpt>
      <trkpt lat="44.30704" lon="0.35426">
        <ele>32</ele>
        <time>2023-03-03T20:00:42Z</time>
      </trkpt>
      <trkpt lat="44.30725" lon="0.35462">
        <ele>32</ele>
        <time>2023-03-03T20:00:48Z</time>
      </trkpt>
      <trkpt lat="44.30879" lon="0.35744">
        <ele>33</ele>
        <time>2023-03-03T20:01:33Z</time>
      </trkpt>
      <trkpt lat="44.30893" lon="0.35775">
        <ele>34</ele>
        <time>2023-03-03T20:01:37Z</time>
      </trkpt>
      <trkpt lat="44.30952" lon="0.35938">
        <ele>35</ele>
        <time>2023-03-03T20:02:01Z</time>
      </trkpt>
      <trkpt lat="44.30966" lon="0.35971">
        <ele>33</ele>
        <time>2023-03-03T20:02:05Z</time>
      </trkpt>
      <trkpt lat="44.30986" lon="0.36012">
        <ele>31</ele>
        <time>2023-03-03T20:02:12Z</time>
      </trkpt>
      <trkpt lat="44.30997" lon="0.3603">
        <ele>31</ele>
        <time>2023-03-03T20:02:15Z</time>
      </trkpt>
      <trkpt lat="44.31025" lon="0.36068">
        <ele>31</ele>
        <time>2023-03-03T20:02:22Z</time>
      </trkpt>
      <trkpt lat="44.31051" lon="0.36093">
        <ele>31</ele>
        <time>2023-03-03T20:02:27Z</time>
      </trkpt>
      <trkpt lat="44.31077" lon="0.36117">
        <ele>31</ele>
        <time>2023-03-03T20:02:33Z</time>
      </trkpt>
      <trkpt lat="44.31134" lon="0.36161">
        <ele>32</ele>
        <time>2023-03-03T20:02:45Z</time>
      </trkpt>
      <trkpt lat="44.31197" lon="0.36202">
        <ele>32</ele>
        <time>2023-03-03T20:02:57Z</time>
      </trkpt>
      <trkpt lat="44.31261" lon="0.36237">
        <ele>32</ele>
        <time>2023-03-03T20:03:09Z</time>
      </trkpt>
      <trkpt lat="44.31374" lon="0.36285">
        <ele>32</ele>
        <time>2023-03-03T20:03:30Z</time>
      </trkpt>
      <trkpt lat="44.31382" lon="0.36288">
        <ele>32</ele>
        <time>2023-03-03T20:03:32Z</time>
      </trkpt>
      <trkpt lat="44.31493" lon="0.36335">
        <ele>32</ele>
        <time>2023-03-03T20:03:52Z</time>
      </trkpt>
      <trkpt lat="44.31547" lon="0.3636">
        <ele>31</ele>
        <time>2023-03-03T20:04:02Z</time>
      </trkpt>
      <trkpt lat="44.31679" lon="0.36445">
        <ele>32</ele>
        <time>2023-03-03T20:04:28Z</time>
      </trkpt>
      <trkpt lat="44.31747" lon="0.36502">
        <ele>32</ele>
        <time>2023-03-03T20:04:42Z</time>
      </trkpt>
      <trkpt lat="44.31735" lon="0.36529">
        <ele>32</ele>
        <time>2023-03-03T20:04:46Z</time>
      </trkpt>
      <trkpt lat="44.31676" lon="0.36618">
        <ele>32</ele>
        <time>2023-03-03T20:05:02Z</time>
      </trkpt>
      <trkpt lat="44.31668" lon="0.36632">
        <ele>32</ele>
        <time>2023-03-03T20:05:04Z</time>
      </trkpt>
      <trkpt lat="44.31648" lon="0.36677">
        <ele>33</ele>
        <time>2023-03-03T20:05:11Z</time>
      </trkpt>
      <trkpt lat="44.31543" lon="0.36929">
        <ele>32</ele>
        <time>2023-03-03T20:05:48Z</time>
      </trkpt>
      <trkpt lat="44.31464" lon="0.37148">
        <ele>34</ele>
        <time>2023-03-03T20:06:19Z</time>
      </trkpt>
      <trkpt lat="44.31459" lon="0.37168">
        <ele>34</ele>
        <time>2023-03-03T20:06:22Z</time>
      </trkpt>
      <trkpt lat="44.31456" lon="0.37186">
        <ele>34</ele>
        <time>2023-03-03T20:06:24Z</time>
      </trkpt>
      <trkpt lat="44.31454" lon="0.37229">
        <ele>34</ele>
        <time>2023-03-03T20:06:30Z</time>
      </trkpt>
      <trkpt lat="44.3145" lon="0.37244">
        <ele>33</ele>
        <time>2023-03-03T20:06:32Z</time>
      </trkpt>
      <trkpt lat="44.31419" lon="0.37339">
        <ele>34</ele>
        <time>2023-03-03T20:06:45Z</time>
      </trkpt>
      <trkpt lat="44.31416" lon="0.37357">
        <ele>34</ele>
        <time>2023-03-03T20:06:47Z</time>
      </trkpt>
      <trkpt lat="44.31415" lon="0.3738">
        <ele>33</ele>
        <time>2023-03-03T20:06:50Z</time>
      </trkpt>
      <trkpt lat="44.31418" lon="0.37402">
        <ele>33</ele>
        <time>2023-03-03T20:06:53Z</time>
      </trkpt>
      <trkpt lat="44.31424" lon="0.37425">
        <ele>33</ele>
        <time>2023-03-03T20:06:56Z</time>
      </trkpt>
      <trkpt lat="44.3146" lon="0.37519">
        <ele>33</ele>
        <time>2023-03-03T20:07:10Z</time>
      </trkpt>
      <trkpt lat="44.31464" lon="0.37539">
        <ele>33</ele>
        <time>2023-03-03T20:07:13Z</time>
      </trkpt>
      <trkpt lat="44.31466" lon="0.37553">
        <ele>33</ele>
        <time>2023-03-03T20:07:14Z</time>
      </trkpt>
      <trkpt lat="44.31465" lon="0.37583">
        <ele>33</ele>
        <time>2023-03-03T20:07:18Z</time>
      </trkpt>
      <trkpt lat="44.31461" lon="0.3761">
        <ele>34</ele>
        <time>2023-03-03T20:07:22Z</time>
      </trkpt>
      <trkpt lat="44.31435" lon="0.37737">
        <ele>34</ele>
        <time>2023-03-03T20:07:38Z</time>
      </trkpt>
      <trkpt lat="44.31404" lon="0.37865">
        <ele>36</ele>
        <time>2023-03-03T20:07:56Z</time>
      </trkpt>
      <trkpt lat="44.31394" lon="0.37944">
        <ele>36</ele>
        <time>2023-03-03T20:08:06Z</time>
      </trkpt>
      <trkpt lat="44.31365" lon="0.38087">
        <ele>36</ele>
        <time>2023-03-03T20:08:25Z</time>
      </trkpt>
      <trkpt lat="44.31357" lon="0.38113">
        <ele>36</ele>
        <time>2023-03-03T20:08:28Z</time>
      </trkpt>
      <trkpt lat="44.31346" lon="0.38137">
        <ele>36</ele>
        <time>2023-03-03T20:08:32Z</time>
      </trkpt>
      <trkpt lat="44.31249" lon="0.38277">
        <ele>42</ele>
        <time>2023-03-03T20:08:57Z</time>
      </trkpt>
      <trkpt lat="44.31265" lon="0.38305">
        <ele>44</ele>
        <time>2023-03-03T20:09:01Z</time>
      </trkpt>
      <trkpt lat="44.31324" lon="0.38443">
        <ele>47</ele>
        <time>2023-03-03T20:09:22Z</time>
      </trkpt>
      <trkpt lat="44.31348" lon="0.38493">
        <ele>50</ele>
        <time>2023-03-03T20:09:30Z</time>
      </trkpt>
      <trkpt lat="44.31366" lon="0.38529">
        <ele>49</ele>
        <time>2023-03-03T20:09:35Z</time>
      </trkpt>
      <trkpt lat="44.31383" lon="0.38556">
        <ele>47</ele>
        <time>2023-03-03T20:09:40Z</time>
      </trkpt>
      <trkpt lat="44.31418" lon="0.38603">
        <ele>45</ele>
        <time>2023-03-03T20:09:48Z</time>
      </trkpt>
      <trkpt lat="44.31442" lon="0.38652">
        <ele>44</ele>
        <time>2023-03-03T20:09:56Z</time>
      </trkpt>
      <trkpt lat="44.31454" lon="0.38682">
        <ele>43</ele>
        <time>2023-03-03T20:10:00Z</time>
      </trkpt>
      <trkpt lat="44.31484" lon="0.38778">
        <ele>41</ele>
        <time>2023-03-03T20:10:14Z</time>
      </trkpt>
      <trkpt lat="44.31549" lon="0.38894">
        <ele>40</ele>
        <time>2023-03-03T20:10:32Z</time>
      </trkpt>
      <trkpt lat="44.3156" lon="0.38918">
        <ele>41</ele>
        <time>2023-03-03T20:10:36Z</time>
      </trkpt>
      <trkpt lat="44.31565" lon="0.38939">
        <ele>41</ele>
        <time>2023-03-03T20:10:39Z</time>
      </trkpt>
      <trkpt lat="44.31569" lon="0.38965">
        <ele>41</ele>
        <time>2023-03-03T20:10:42Z</time>
      </trkpt>
      <trkpt lat="44.31569" lon="0.39038">
        <ele>42</ele>
        <time>2023-03-03T20:10:52Z</time>
      </trkpt>
      <trkpt lat="44.31573" lon="0.39083">
        <ele>44</ele>
        <time>2023-03-03T20:10:57Z</time>
      </trkpt>
      <trkpt lat="44.31577" lon="0.39109">
        <ele>44</ele>
        <time>2023-03-03T20:11:01Z</time>
      </trkpt>
      <trkpt lat="44.31583" lon="0.39126">
        <ele>45</ele>
        <time>2023-03-03T20:11:03Z</time>
      </trkpt>
      <trkpt lat="44.31601" lon="0.3917">
        <ele>45</ele>
        <time>2023-03-03T20:11:10Z</time>
      </trkpt>
      <trkpt lat="44.31607" lon="0.39192">
        <ele>45</ele>
        <time>2023-03-03T20:11:13Z</time>
      </trkpt>
      <trkpt lat="44.31609" lon="0.39214">
        <ele>45</ele>
        <time>2023-03-03T20:11:15Z</time>
      </trkpt>
      <trkpt lat="44.31609" lon="0.39242">
        <ele>46</ele>
        <time>2023-03-03T20:11:19Z</time>
      </trkpt>
      <trkpt lat="44.31612" lon="0.39262">
        <ele>46</ele>
        <time>2023-03-03T20:11:22Z</time>
      </trkpt>
      <trkpt lat="44.3162" lon="0.39286">
        <ele>47</ele>
        <time>2023-03-03T20:11:25Z</time>
      </trkpt>
      <trkpt lat="44.31643" lon="0.39328">
        <ele>47</ele>
        <time>2023-03-03T20:11:32Z</time>
      </trkpt>
      <trkpt lat="44.31651" lon="0.39349">
        <ele>48</ele>
        <time>2023-03-03T20:11:35Z</time>
      </trkpt>
      <trkpt lat="44.3169" lon="0.39467">
        <ele>49</ele>
        <time>2023-03-03T20:11:51Z</time>
      </trkpt>
      <trkpt lat="44.317" lon="0.39494">
        <ele>48</ele>
        <time>2023-03-03T20:11:55Z</time>
      </trkpt>
      <trkpt lat="44.31718" lon="0.39527">
        <ele>48</ele>
        <time>2023-03-03T20:12:00Z</time>
      </trkpt>
      <trkpt lat="44.31754" lon="0.39582">
        <ele>49</ele>
        <time>2023-03-03T20:12:10Z</time>
      </trkpt>
      <trkpt lat="44.31777" lon="0.39621">
        <ele>47</ele>
        <time>2023-03-03T20:12:16Z</time>
      </trkpt>
      <trkpt lat="44.31791" lon="0.39649">
        <ele>46</ele>
        <time>2023-03-03T20:12:21Z</time>
      </trkpt>
      <trkpt lat="44.31806" lon="0.39672">
        <ele>45</ele>
        <time>2023-03-03T20:12:25Z</time>
      </trkpt>
      <trkpt lat="44.3183" lon="0.39714">
        <ele>44</ele>
        <time>2023-03-03T20:12:31Z</time>
      </trkpt>
      <trkpt lat="44.31838" lon="0.39734">
        <ele>43</ele>
        <time>2023-03-03T20:12:34Z</time>
      </trkpt>
      <trkpt lat="44.31848" lon="0.39769">
        <ele>43</ele>
        <time>2023-03-03T20:12:39Z</time>
      </trkpt>
      <trkpt lat="44.31849" lon="0.39788">
        <ele>44</ele>
        <time>2023-03-03T20:12:42Z</time>
      </trkpt>
      <trkpt lat="44.31847" lon="0.39808">
        <ele>44</ele>
        <time>2023-03-03T20:12:44Z</time>
      </trkpt>
      <trkpt lat="44.31819" lon="0.39894">
        <ele>44</ele>
        <time>2023-03-03T20:12:56Z</time>
      </trkpt>
      <trkpt lat="44.31811" lon="0.39925">
        <ele>44</ele>
        <time>2023-03-03T20:13:00Z</time>
      </trkpt>
      <trkpt lat="44.31806" lon="0.39955">
        <ele>45</ele>
        <time>2023-03-03T20:13:04Z</time>
      </trkpt>
      <trkpt lat="44.31805" lon="0.39981">
        <ele>45</ele>
        <time>2023-03-03T20:13:08Z</time>
      </trkpt>
      <trkpt lat="44.31813" lon="0.40033">
        <ele>45</ele>
        <time>2023-03-03T20:13:14Z</time>
      </trkpt>
      <trkpt lat="44.31812" lon="0.40066">
        <ele>45</ele>
        <time>2023-03-03T20:13:19Z</time>
      </trkpt>
      <trkpt lat="44.31809" lon="0.4012">
        <ele>46</ele>
        <time>2023-03-03T20:13:25Z</time>
      </trkpt>
      <trkpt lat="44.31837" lon="0.40106">
        <ele>45</ele>
        <time>2023-03-03T20:13:31Z</time>
      </trkpt>
      <trkpt lat="44.31844" lon="0.40102">
        <ele>45</ele>
        <time>2023-03-03T20:13:32Z</time>
      </trkpt>
      <trkpt lat="44.31861" lon="0.40096">
        <ele>45</ele>
        <time>2023-03-03T20:13:35Z</time>
      </trkpt>
      <trkpt lat="44.31877" lon="0.40091">
        <ele>46</ele>
        <time>2023-03-03T20:13:38Z</time>
      </trkpt>
      <trkpt lat="44.31904" lon="0.40088">
        <ele>46</ele>
        <time>2023-03-03T20:13:43Z</time>
      </trkpt>
      <trkpt lat="44.31937" lon="0.40092">
        <ele>46</ele>
        <time>2023-03-03T20:13:49Z</time>
      </trkpt>
      <trkpt lat="44.31949" lon="0.40097">
        <ele>46</ele>
        <time>2023-03-03T20:13:51Z</time>
      </trkpt>
      <trkpt lat="44.31963" lon="0.40108">
        <ele>46</ele>
        <time>2023-03-03T20:13:54Z</time>
      </trkpt>
      <trkpt lat="44.31977" lon="0.40124">
        <ele>47</ele>
        <time>2023-03-03T20:13:57Z</time>
      </trkpt>
      <trkpt lat="44.32034" lon="0.402">
        <ele>48</ele>
        <time>2023-03-03T20:14:11Z</time>
      </trkpt>
      <trkpt lat="44.32104" lon="0.40309">
        <ele>49</ele>
        <time>2023-03-03T20:14:30Z</time>
      </trkpt>
      <trkpt lat="44.32133" lon="0.40346">
        <ele>48</ele>
        <time>2023-03-03T20:14:37Z</time>
      </trkpt>
      <trkpt lat="44.32154" lon="0.40367">
        <ele>48</ele>
        <time>2023-03-03T20:14:41Z</time>
      </trkpt>
      <trkpt lat="44.32172" lon="0.40379">
        <ele>48</ele>
        <time>2023-03-03T20:14:45Z</time>
      </trkpt>
      <trkpt lat="44.32193" lon="0.40389">
        <ele>49</ele>
        <time>2023-03-03T20:14:49Z</time>
      </trkpt>
      <trkpt lat="44.32235" lon="0.40405">
        <ele>50</ele>
        <time>2023-03-03T20:14:57Z</time>
      </trkpt>
      <trkpt lat="44.32311" lon="0.40443">
        <ele>47</ele>
        <time>2023-03-03T20:15:11Z</time>
      </trkpt>
      <trkpt lat="44.32469" lon="0.40481">
        <ele>46</ele>
        <time>2023-03-03T20:15:40Z</time>
      </trkpt>
      <trkpt lat="44.32523" lon="0.40509">
        <ele>47</ele>
        <time>2023-03-03T20:15:50Z</time>
      </trkpt>
      <trkpt lat="44.32545" lon="0.40516">
        <ele>48</ele>
        <time>2023-03-03T20:15:54Z</time>
      </trkpt>
      <trkpt lat="44.32569" lon="0.40517">
        <ele>48</ele>
        <time>2023-03-03T20:15:58Z</time>
      </trkpt>
      <trkpt lat="44.32745" lon="0.40479">
        <ele>45</ele>
        <time>2023-03-03T20:16:30Z</time>
      </trkpt>
      <trkpt lat="44.32765" lon="0.40477">
        <ele>45</ele>
        <time>2023-03-03T20:16:33Z</time>
      </trkpt>
      <trkpt lat="44.32794" lon="0.40482">
        <ele>46</ele>
        <time>2023-03-03T20:16:39Z</time>
      </trkpt>
      <trkpt lat="44.3283" lon="0.40494">
        <ele>46</ele>
        <time>2023-03-03T20:16:45Z</time>
      </trkpt>
      <trkpt lat="44.32886" lon="0.40518">
        <ele>47</ele>
        <time>2023-03-03T20:16:56Z</time>
      </trkpt>
      <trkpt lat="44.32914" lon="0.40525">
        <ele>48</ele>
        <time>2023-03-03T20:17:01Z</time>
      </trkpt>
      <trkpt lat="44.32939" lon="0.40528">
        <ele>48</ele>
        <time>2023-03-03T20:17:05Z</time>
      </trkpt>
      <trkpt lat="44.32959" lon="0.40527">
        <ele>48</ele>
        <time>2023-03-03T20:17:09Z</time>
      </trkpt>
      <trkpt lat="44.32973" lon="0.40523">
        <ele>48</ele>
        <time>2023-03-03T20:17:11Z</time>
      </trkpt>
      <trkpt lat="44.32992" lon="0.40513">
        <ele>48</ele>
        <time>2023-03-03T20:17:15Z</time>
      </trkpt>
      <trkpt lat="44.3302" lon="0.4051">
        <ele>47</ele>
        <time>2023-03-03T20:17:20Z</time>
      </trkpt>
      <trkpt lat="44.33115" lon="0.40547">
        <ele>43</ele>
        <time>2023-03-03T20:17:37Z</time>
      </trkpt>
      <trkpt lat="44.33115" lon="0.40551">
        <ele>44</ele>
        <time>2023-03-03T20:17:38Z</time>
      </trkpt>
      <trkpt lat="44.33122" lon="0.40564">
        <ele>44</ele>
        <time>2023-03-03T20:17:40Z</time>
      </trkpt>
      <trkpt lat="44.33216" lon="0.40678">
        <ele>43</ele>
        <time>2023-03-03T20:18:02Z</time>
      </trkpt>
      <trkpt lat="44.33281" lon="0.40767">
        <ele>43</ele>
        <time>2023-03-03T20:18:18Z</time>
      </trkpt>
      <trkpt lat="44.33305" lon="0.40805">
        <ele>43</ele>
        <time>2023-03-03T20:18:25Z</time>
      </trkpt>
      <trkpt lat="44.33333" lon="0.40857">
        <ele>42</ele>
        <time>2023-03-03T20:18:33Z</time>
      </trkpt>
      <trkpt lat="44.33391" lon="0.4098">
        <ele>41</ele>
        <time>2023-03-03T20:18:52Z</time>
      </trkpt>
      <trkpt lat="44.33404" lon="0.41002">
        <ele>41</ele>
        <time>2023-03-03T20:18:55Z</time>
      </trkpt>
      <trkpt lat="44.33408" lon="0.41035">
        <ele>40</ele>
        <time>2023-03-03T20:19:00Z</time>
      </trkpt>
      <trkpt lat="44.33414" lon="0.41072">
        <ele>39</ele>
        <time>2023-03-03T20:19:04Z</time>
      </trkpt>
      <trkpt lat="44.33493" lon="0.4131">
        <ele>43</ele>
        <time>2023-03-03T20:19:38Z</time>
      </trkpt>
      <trkpt lat="44.33536" lon="0.41459">
        <ele>42</ele>
        <time>2023-03-03T20:19:58Z</time>
      </trkpt>
      <trkpt lat="44.33555" lon="0.4155">
        <ele>42</ele>
        <time>2023-03-03T20:20:10Z</time>
      </trkpt>
      <trkpt lat="44.33572" lon="0.41644">
        <ele>41</ele>
        <time>2023-03-03T20:20:23Z</time>
      </trkpt>
      <trkpt lat="44.33585" lon="0.41789">
        <ele>44</ele>
        <time>2023-03-03T20:20:41Z</time>
      </trkpt>
      <trkpt lat="44.33595" lon="0.4184">
        <ele>45</ele>
        <time>2023-03-03T20:20:48Z</time>
      </trkpt>
      <trkpt lat="44.33608" lon="0.4189">
        <ele>46</ele>
        <time>2023-03-03T20:20:55Z</time>
      </trkpt>
      <trkpt lat="44.33615" lon="0.41936">
        <ele>46</ele>
        <time>2023-03-03T20:21:01Z</time>
      </trkpt>
      <trkpt lat="44.33661" lon="0.42059">
        <ele>44</ele>
        <time>2023-03-03T20:21:18Z</time>
      </trkpt>
      <trkpt lat="44.33702" lon="0.42191">
        <ele>42</ele>
        <time>2023-03-03T20:21:37Z</time>
      </trkpt>
      <trkpt lat="44.33784" lon="0.42369">
        <ele>39</ele>
        <time>2023-03-03T20:22:04Z</time>
      </trkpt>
      <trkpt lat="44.33812" lon="0.42422">
        <ele>39</ele>
        <time>2023-03-03T20:22:12Z</time>
      </trkpt>
      <trkpt lat="44.33853" lon="0.42488">
        <ele>38</ele>
        <time>2023-03-03T20:22:23Z</time>
      </trkpt>
      <trkpt lat="44.33885" lon="0.42536">
        <ele>38</ele>
        <time>2023-03-03T20:22:32Z</time>
      </trkpt>
      <trkpt lat="44.33908" lon="0.42564">
        <ele>37</ele>
        <time>2023-03-03T20:22:37Z</time>
      </trkpt>
      <trkpt lat="44.34011" lon="0.42614">
        <ele>37</ele>
        <time>2023-03-03T20:22:56Z</time>
      </trkpt>
      <trkpt lat="44.34042" lon="0.42623">
        <ele>37</ele>
        <time>2023-03-03T20:23:02Z</time>
      </trkpt>
      <trkpt lat="44.3423" lon="0.42649">
        <ele>39</ele>
        <time>2023-03-03T20:23:36Z</time>
      </trkpt>
      <trkpt lat="44.34358" lon="0.42662">
        <ele>38</ele>
        <time>2023-03-03T20:23:58Z</time>
      </trkpt>
      <trkpt lat="44.352" lon="0.42761">
        <ele>38</ele>
        <time>2023-03-03T20:26:29Z</time>
      </trkpt>
      <trkpt lat="44.35246" lon="0.42765">
        <ele>38</ele>
        <time>2023-03-03T20:26:37Z</time>
      </trkpt>
      <trkpt lat="44.3525" lon="0.42707">
        <ele>38</ele>
        <time>2023-03-03T20:26:44Z</time>
      </trkpt>
      <trkpt lat="44.3525" lon="0.42666">
        <ele>38</ele>
        <time>2023-03-03T20:26:50Z</time>
      </trkpt>
      <trkpt lat="44.35252" lon="0.42657">
        <ele>38</ele>
        <time>2023-03-03T20:26:51Z</time>
      </trkpt>
      <trkpt lat="44.35259" lon="0.42647">
        <ele>38</ele>
        <time>2023-03-03T20:26:53Z</time>
      </trkpt>
      <trkpt lat="44.35269" lon="0.42644">
        <ele>37</ele>
        <time>2023-03-03T20:26:54Z</time>
      </trkpt>
      <trkpt lat="44.35279" lon="0.42652">
        <ele>37</ele>
        <time>2023-03-03T20:26:56Z</time>
      </trkpt>
      <trkpt lat="44.35304" lon="0.42688">
        <ele>37</ele>
        <time>2023-03-03T20:27:03Z</time>
      </trkpt>
      <trkpt lat="44.35338" lon="0.42762">
        <ele>36</ele>
        <time>2023-03-03T20:27:14Z</time>
      </trkpt>
      <trkpt lat="44.35356" lon="0.4283">
        <ele>35</ele>
        <time>2023-03-03T20:27:23Z</time>
      </trkpt>
      <trkpt lat="44.35368" lon="0.42823">
        <ele>35</ele>
        <time>2023-03-03T20:27:26Z</time>
      </trkpt>
      <trkpt lat="44.3538" lon="0.42819">
        <ele>35</ele>
        <time>2023-03-03T20:27:28Z</time>
      </trkpt>
      <trkpt lat="44.35393" lon="0.42819">
        <ele>35</ele>
        <time>2023-03-03T20:27:30Z</time>
      </trkpt>
      <trkpt lat="44.35434" lon="0.4285">
        <ele>36</ele>
        <time>2023-03-03T20:27:38Z</time>
      </trkpt>
      <trkpt lat="44.35487" lon="0.42908">
        <ele>36</ele>
        <time>2023-03-03T20:27:50Z</time>
      </trkpt>
      <trkpt lat="44.35532" lon="0.42961">
        <ele>35</ele>
        <time>2023-03-03T20:28:01Z</time>
      </trkpt>
      <trkpt lat="44.35567" lon="0.42997">
        <ele>34</ele>
        <time>2023-03-03T20:28:09Z</time>
      </trkpt>
      <trkpt lat="44.35655" lon="0.43093">
        <ele>34</ele>
        <time>2023-03-03T20:28:28Z</time>
      </trkpt>
      <trkpt lat="44.35682" lon="0.43119">
        <ele>35</ele>
        <time>2023-03-03T20:28:34Z</time>
      </trkpt>
      <trkpt lat="44.35711" lon="0.43141">
        <ele>36</ele>
        <time>2023-03-03T20:28:40Z</time>
      </trkpt>
      <trkpt lat="44.35736" lon="0.43159">
        <ele>36</ele>
        <time>2023-03-03T20:28:45Z</time>
      </trkpt>
      <trkpt lat="44.35819" lon="0.43207">
        <ele>35</ele>
        <time>2023-03-03T20:29:01Z</time>
      </trkpt>
      <trkpt lat="44.35974" lon="0.43314">
        <ele>36</ele>
        <time>2023-03-03T20:29:32Z</time>
      </trkpt>
      <trkpt lat="44.36044" lon="0.43368">
        <ele>35</ele>
        <time>2023-03-03T20:29:46Z</time>
      </trkpt>
      <trkpt lat="44.36136" lon="0.43449">
        <ele>36</ele>
        <time>2023-03-03T20:30:05Z</time>
      </trkpt>
      <trkpt lat="44.36238" lon="0.43545">
        <ele>35</ele>
        <time>2023-03-03T20:30:27Z</time>
      </trkpt>
      <trkpt lat="44.36262" lon="0.43572">
        <ele>35</ele>
        <time>2023-03-03T20:30:33Z</time>
      </trkpt>
      <trkpt lat="44.3633" lon="0.43663">
        <ele>34</ele>
        <time>2023-03-03T20:30:50Z</time>
      </trkpt>
      <trkpt lat="44.36392" lon="0.4374">
        <ele>35</ele>
        <time>2023-03-03T20:31:04Z</time>
      </trkpt>
      <trkpt lat="44.36421" lon="0.43768">
        <ele>35</ele>
        <time>2023-03-03T20:31:11Z</time>
      </trkpt>
      <trkpt lat="44.36657" lon="0.43982">
        <ele>34</ele>
        <time>2023-03-03T20:32:01Z</time>
      </trkpt>
      <trkpt lat="44.367" lon="0.44014">
        <ele>35</ele>
        <time>2023-03-03T20:32:09Z</time>
      </trkpt>
      <trkpt lat="44.36725" lon="0.44026">
        <ele>35</ele>
        <time>2023-03-03T20:32:14Z</time>
      </trkpt>
      <trkpt lat="44.36754" lon="0.44033">
        <ele>36</ele>
        <time>2023-03-03T20:32:19Z</time>
      </trkpt>
      <trkpt lat="44.36809" lon="0.44041">
        <ele>36</ele>
        <time>2023-03-03T20:32:29Z</time>
      </trkpt>
      <trkpt lat="44.36934" lon="0.4405">
        <ele>36</ele>
        <time>2023-03-03T20:32:51Z</time>
      </trkpt>
      <trkpt lat="44.36954" lon="0.44048">
        <ele>36</ele>
        <time>2023-03-03T20:32:55Z</time>
      </trkpt>
      <trkpt lat="44.36975" lon="0.44041">
        <ele>36</ele>
        <time>2023-03-03T20:32:59Z</time>
      </trkpt>
      <trkpt lat="44.37004" lon="0.44026">
        <ele>36</ele>
        <time>2023-03-03T20:33:04Z</time>
      </trkpt>
      <trkpt lat="44.37197" lon="0.439">
        <ele>37</ele>
        <time>2023-03-03T20:33:42Z</time>
      </trkpt>
      <trkpt lat="44.37201" lon="0.43894">
        <ele>36</ele>
        <time>2023-03-03T20:33:43Z</time>
      </trkpt>
      <trkpt lat="44.37339" lon="0.43776">
        <ele>36</ele>
        <time>2023-03-03T20:34:12Z</time>
      </trkpt>
      <trkpt lat="44.37371" lon="0.4375">
        <ele>37</ele>
        <time>2023-03-03T20:34:19Z</time>
      </trkpt>
      <trkpt lat="44.37384" lon="0.43719">
        <ele>38</ele>
        <time>2023-03-03T20:34:23Z</time>
      </trkpt>
      <trkpt lat="44.37397" lon="0.43749">
        <ele>37</ele>
        <time>2023-03-03T20:34:28Z</time>
      </trkpt>
      <trkpt lat="44.37453" lon="0.43958">
        <ele>37</ele>
        <time>2023-03-03T20:34:56Z</time>
      </trkpt>
      <trkpt lat="44.3749" lon="0.44055">
        <ele>36</ele>
        <time>2023-03-03T20:35:10Z</time>
      </trkpt>
      <trkpt lat="44.37527" lon="0.44119">
        <ele>37</ele>
        <time>2023-03-03T20:35:20Z</time>
      </trkpt>
      <trkpt lat="44.37657" lon="0.4429">
        <ele>37</ele>
        <time>2023-03-03T20:35:52Z</time>
      </trkpt>
      <trkpt lat="44.37749" lon="0.44419">
        <ele>35</ele>
        <time>2023-03-03T20:36:15Z</time>
      </trkpt>
      <trkpt lat="44.37791" lon="0.44469">
        <ele>37</ele>
        <time>2023-03-03T20:36:25Z</time>
      </trkpt>
      <trkpt lat="44.37851" lon="0.44525">
        <ele>39</ele>
        <time>2023-03-03T20:36:38Z</time>
      </trkpt>
      <trkpt lat="44.37929" lon="0.44566">
        <ele>43</ele>
        <time>2023-03-03T20:36:53Z</time>
      </trkpt>
      <trkpt lat="44.38052" lon="0.44623">
        <ele>50</ele>
        <time>2023-03-03T20:37:16Z</time>
      </trkpt>
      <trkpt lat="44.38177" lon="0.44677">
        <ele>52</ele>
        <time>2023-03-03T20:37:39Z</time>
      </trkpt>
      <trkpt lat="44.38292" lon="0.44722">
        <ele>57</ele>
        <time>2023-03-03T20:38:00Z</time>
      </trkpt>
      <trkpt lat="44.38355" lon="0.44769">
        <ele>59</ele>
        <time>2023-03-03T20:38:13Z</time>
      </trkpt>
      <trkpt lat="44.38395" lon="0.44832">
        <ele>57</ele>
        <time>2023-03-03T20:38:24Z</time>
      </trkpt>
      <trkpt lat="44.38415" lon="0.44931">
        <ele>54</ele>
        <time>2023-03-03T20:38:37Z</time>
      </trkpt>
      <trkpt lat="44.38435" lon="0.4504">
        <ele>53</ele>
        <time>2023-03-03T20:38:51Z</time>
      </trkpt>
      <trkpt lat="44.38434" lon="0.45075">
        <ele>51</ele>
        <time>2023-03-03T20:38:56Z</time>
      </trkpt>
      <trkpt lat="44.38427" lon="0.4511">
        <ele>48</ele>
        <time>2023-03-03T20:39:00Z</time>
      </trkpt>
      <trkpt lat="44.38413" lon="0.45155">
        <ele>45</ele>
        <time>2023-03-03T20:39:07Z</time>
      </trkpt>
      <trkpt lat="44.38405" lon="0.45203">
        <ele>44</ele>
        <time>2023-03-03T20:39:13Z</time>
      </trkpt>
      <trkpt lat="44.38403" lon="0.45257">
        <ele>42</ele>
        <time>2023-03-03T20:39:20Z</time>
      </trkpt>
      <trkpt lat="44.38411" lon="0.45314">
        <ele>43</ele>
        <time>2023-03-03T20:39:27Z</time>
      </trkpt>
      <trkpt lat="44.38436" lon="0.45401">
        <ele>41</ele>
        <time>2023-03-03T20:39:39Z</time>
      </trkpt>
      <trkpt lat="44.38463" lon="0.45483">
        <ele>38</ele>
        <time>2023-03-03T20:39:50Z</time>
      </trkpt>
      <trkpt lat="44.38579" lon="0.45862">
        <ele>37</ele>
        <time>2023-03-03T20:40:43Z</time>
      </trkpt>
      <trkpt lat="44.38674" lon="0.46182">
        <ele>42</ele>
        <time>2023-03-03T20:41:27Z</time>
      </trkpt>
      <trkpt lat="44.38713" lon="0.46271">
        <ele>40</ele>
        <time>2023-03-03T20:41:40Z</time>
      </trkpt>
      <trkpt lat="44.38797" lon="0.46443">
        <ele>42</ele>
        <time>2023-03-03T20:42:07Z</time>
      </trkpt>
      <trkpt lat="44.38873" lon="0.46589">
        <ele>41</ele>
        <time>2023-03-03T20:42:30Z</time>
      </trkpt>
      <trkpt lat="44.38953" lon="0.46756">
        <ele>41</ele>
        <time>2023-03-03T20:42:55Z</time>
      </trkpt>
      <trkpt lat="44.39001" lon="0.46891">
        <ele>44</ele>
        <time>2023-03-03T20:43:14Z</time>
      </trkpt>
      <trkpt lat="44.39016" lon="0.47052">
        <ele>45</ele>
        <time>2023-03-03T20:43:35Z</time>
      </trkpt>
      <trkpt lat="44.39018" lon="0.4746">
        <ele>46</ele>
        <time>2023-03-03T20:44:27Z</time>
      </trkpt>
      <trkpt lat="44.39027" lon="0.48112">
        <ele>50</ele>
        <time>2023-03-03T20:45:50Z</time>
      </trkpt>
      <trkpt lat="44.39029" lon="0.48148">
        <ele>49</ele>
        <time>2023-03-03T20:45:54Z</time>
      </trkpt>
      <trkpt lat="44.39035" lon="0.4819">
        <ele>48</ele>
        <time>2023-03-03T20:46:00Z</time>
      </trkpt>
      <trkpt lat="44.39074" lon="0.48342">
        <ele>42</ele>
        <time>2023-03-03T20:46:20Z</time>
      </trkpt>
      <trkpt lat="44.39091" lon="0.48424">
        <ele>40</ele>
        <time>2023-03-03T20:46:31Z</time>
      </trkpt>
      <trkpt lat="44.39125" lon="0.48556">
        <ele>39</ele>
        <time>2023-03-03T20:46:49Z</time>
      </trkpt>
      <trkpt lat="44.39147" lon="0.48619">
        <ele>39</ele>
        <time>2023-03-03T20:46:58Z</time>
      </trkpt>
      <trkpt lat="44.39191" lon="0.48686">
        <ele>39</ele>
        <time>2023-03-03T20:47:10Z</time>
      </trkpt>
      <trkpt lat="44.3928" lon="0.48802">
        <ele>41</ele>
        <time>2023-03-03T20:47:31Z</time>
      </trkpt>
      <trkpt lat="44.39403" lon="0.4897">
        <ele>42</ele>
        <time>2023-03-03T20:48:02Z</time>
      </trkpt>
      <trkpt lat="44.39441" lon="0.49013">
        <ele>43</ele>
        <time>2023-03-03T20:48:10Z</time>
      </trkpt>
      <trkpt lat="44.3948" lon="0.49047">
        <ele>44</ele>
        <time>2023-03-03T20:48:19Z</time>
      </trkpt>
      <trkpt lat="44.39628" lon="0.49168">
        <ele>43</ele>
        <time>2023-03-03T20:48:49Z</time>
      </trkpt>
      <trkpt lat="44.39692" lon="0.49222">
        <ele>44</ele>
        <time>2023-03-03T20:49:02Z</time>
      </trkpt>
      <trkpt lat="44.39716" lon="0.49243">
        <ele>44</ele>
        <time>2023-03-03T20:49:08Z</time>
      </trkpt>
      <trkpt lat="44.39724" lon="0.49258">
        <ele>44</ele>
        <time>2023-03-03T20:49:10Z</time>
      </trkpt>
      <trkpt lat="44.39728" lon="0.49267">
        <ele>44</ele>
        <time>2023-03-03T20:49:11Z</time>
      </trkpt>
      <trkpt lat="44.39714" lon="0.49311">
        <ele>42</ele>
        <time>2023-03-03T20:49:17Z</time>
      </trkpt>
      <trkpt lat="44.39665" lon="0.49445">
        <ele>42</ele>
        <time>2023-03-03T20:49:36Z</time>
      </trkpt>
      <trkpt lat="44.39661" lon="0.49463">
        <ele>41</ele>
        <time>2023-03-03T20:49:39Z</time>
      </trkpt>
      <trkpt lat="44.39715" lon="0.49486">
        <ele>42</ele>
        <time>2023-03-03T20:49:49Z</time>
      </trkpt>
      <trkpt lat="44.39697" lon="0.49555">
        <ele>42</ele>
        <time>2023-03-03T20:49:58Z</time>
      </trkpt>
      <trkpt lat="44.39667" lon="0.49539">
        <ele>41</ele>
        <time>2023-03-03T20:50:04Z</time>
      </trkpt>
      <trkpt lat="44.39652" lon="0.4958">
        <ele>41</ele>
        <time>2023-03-03T20:50:10Z</time>
      </trkpt>
      <trkpt lat="44.39632" lon="0.49661">
        <ele>39</ele>
        <time>2023-03-03T20:50:21Z</time>
      </trkpt>
      <trkpt lat="44.39645" lon="0.49665">
        <ele>39</ele>
        <time>2023-03-03T20:50:23Z</time>
      </trkpt>
      <trkpt lat="44.39648" lon="0.49683">
        <ele>39</ele>
        <time>2023-03-03T20:50:25Z</time>
      </trkpt>
      <trkpt lat="44.39636" lon="0.49698">
        <ele>39</ele>
        <time>2023-03-03T20:50:28Z</time>
      </trkpt>
      <trkpt lat="44.39583" lon="0.49726">
        <ele>40</ele>
        <time>2023-03-03T20:50:38Z</time>
      </trkpt>
      <trkpt lat="44.39568" lon="0.49744">
        <ele>40</ele>
        <time>2023-03-03T20:50:42Z</time>
      </trkpt>
      <trkpt lat="44.39527" lon="0.49806">
        <ele>40</ele>
        <time>2023-03-03T20:50:53Z</time>
      </trkpt>
      <trkpt lat="44.39432" lon="0.49972">
        <ele>40</ele>
        <time>2023-03-03T20:51:20Z</time>
      </trkpt>
      <trkpt lat="44.39391" lon="0.50044">
        <ele>39</ele>
        <time>2023-03-03T20:51:31Z</time>
      </trkpt>
      <trkpt lat="44.39309" lon="0.50198">
        <ele>40</ele>
        <time>2023-03-03T20:51:56Z</time>
      </trkpt>
      <trkpt lat="44.39308" lon="0.50211">
        <ele>40</ele>
        <time>2023-03-03T20:51:57Z</time>
      </trkpt>
      <trkpt lat="44.39311" lon="0.50221">
        <ele>40</ele>
        <time>2023-03-03T20:51:59Z</time>
      </trkpt>
      <trkpt lat="44.39319" lon="0.50235">
        <ele>40</ele>
        <time>2023-03-03T20:52:01Z</time>
      </trkpt>
      <trkpt lat="44.3936" lon="0.50275">
        <ele>40</ele>
        <time>2023-03-03T20:52:10Z</time>
      </trkpt>
      <trkpt lat="44.39373" lon="0.50297">
        <ele>39</ele>
        <time>2023-03-03T20:52:14Z</time>
      </trkpt>
      <trkpt lat="44.39379" lon="0.50321">
        <ele>40</ele>
        <time>2023-03-03T20:52:17Z</time>
      </trkpt>
      <trkpt lat="44.39384" lon="0.50376">
        <ele>39</ele>
        <time>2023-03-03T20:52:24Z</time>
      </trkpt>
      <trkpt lat="44.394" lon="0.50482">
        <ele>39</ele>
        <time>2023-03-03T20:52:38Z</time>
      </trkpt>
      <trkpt lat="44.39426" lon="0.50574">
        <ele>38</ele>
        <time>2023-03-03T20:52:50Z</time>
      </trkpt>
      <trkpt lat="44.39462" lon="0.5065">
        <ele>40</ele>
        <time>2023-03-03T20:53:02Z</time>
      </trkpt>
      <trkpt lat="44.39478" lon="0.5071">
        <ele>40</ele>
        <time>2023-03-03T20:53:10Z</time>
      </trkpt>
      <trkpt lat="44.39482" lon="0.50809">
        <ele>40</ele>
        <time>2023-03-03T20:53:23Z</time>
      </trkpt>
      <trkpt lat="44.39476" lon="0.50884">
        <ele>40</ele>
        <time>2023-03-03T20:53:32Z</time>
      </trkpt>
      <trkpt lat="44.39453" lon="0.50954">
        <ele>40</ele>
        <time>2023-03-03T20:53:42Z</time>
      </trkpt>
      <trkpt lat="44.39413" lon="0.51031">
        <ele>40</ele>
        <time>2023-03-03T20:53:54Z</time>
      </trkpt>
      <trkpt lat="44.39344" lon="0.51136">
        <ele>39</ele>
        <time>2023-03-03T20:54:12Z</time>
      </trkpt>
      <trkpt lat="44.39331" lon="0.5116">
        <ele>39</ele>
        <time>2023-03-03T20:54:16Z</time>
      </trkpt>
      <trkpt lat="44.39326" lon="0.51174">
        <ele>39</ele>
        <time>2023-03-03T20:54:18Z</time>
      </trkpt>
      <trkpt lat="44.39323" lon="0.51203">
        <ele>39</ele>
        <time>2023-03-03T20:54:22Z</time>
      </trkpt>
      <trkpt lat="44.39326" lon="0.51241">
        <ele>39</ele>
        <time>2023-03-03T20:54:27Z</time>
      </trkpt>
      <trkpt lat="44.39335" lon="0.51282">
        <ele>39</ele>
        <time>2023-03-03T20:54:32Z</time>
      </trkpt>
      <trkpt lat="44.39367" lon="0.51398">
        <ele>41</ele>
        <time>2023-03-03T20:54:48Z</time>
      </trkpt>
      <trkpt lat="44.39393" lon="0.51467">
        <ele>42</ele>
        <time>2023-03-03T20:54:58Z</time>
      </trkpt>
      <trkpt lat="44.39398" lon="0.515">
        <ele>42</ele>
        <time>2023-03-03T20:55:02Z</time>
      </trkpt>
      <trkpt lat="44.39393" lon="0.51617">
        <ele>41</ele>
        <time>2023-03-03T20:55:17Z</time>
      </trkpt>
      <trkpt lat="44.3939" lon="0.51732">
        <ele>41</ele>
        <time>2023-03-03T20:55:32Z</time>
      </trkpt>
      <trkpt lat="44.39379" lon="0.51961">
        <ele>41</ele>
        <time>2023-03-03T20:56:01Z</time>
      </trkpt>
      <trkpt lat="44.39377" lon="0.5203">
        <ele>42</ele>
        <time>2023-03-03T20:56:10Z</time>
      </trkpt>
      <trkpt lat="44.39383" lon="0.52159">
        <ele>43</ele>
        <time>2023-03-03T20:56:26Z</time>
      </trkpt>
      <trkpt lat="44.39382" lon="0.52311">
        <ele>41</ele>
        <time>2023-03-03T20:56:45Z</time>
      </trkpt>
      <trkpt lat="44.39388" lon="0.52404">
        <ele>41</ele>
        <time>2023-03-03T20:56:57Z</time>
      </trkpt>
      <trkpt lat="44.39397" lon="0.52516">
        <ele>40</ele>
        <time>2023-03-03T20:57:12Z</time>
      </trkpt>
      <trkpt lat="44.39418" lon="0.52657">
        <ele>41</ele>
        <time>2023-03-03T20:57:30Z</time>
      </trkpt>
      <trkpt lat="44.39439" lon="0.5276">
        <ele>41</ele>
        <time>2023-03-03T20:57:44Z</time>
      </trkpt>
      <trkpt lat="44.3945" lon="0.52851">
        <ele>44</ele>
        <time>2023-03-03T20:57:55Z</time>
      </trkpt>
      <trkpt lat="44.39462" lon="0.52912">
        <ele>44</ele>
        <time>2023-03-03T20:58:03Z</time>
      </trkpt>
      <trkpt lat="44.39497" lon="0.53029">
        <ele>43</ele>
        <time>2023-03-03T20:58:19Z</time>
      </trkpt>
      <trkpt lat="44.39528" lon="0.53118">
        <ele>43</ele>
        <time>2023-03-03T20:58:32Z</time>
      </trkpt>
      <trkpt lat="44.39544" lon="0.53171">
        <ele>44</ele>
        <time>2023-03-03T20:58:39Z</time>
      </trkpt>
      <trkpt lat="44.39569" lon="0.53234">
        <ele>44</ele>
        <time>2023-03-03T20:58:48Z</time>
      </trkpt>
      <trkpt lat="44.39589" lon="0.53276">
        <ele>44</ele>
        <time>2023-03-03T20:58:55Z</time>
      </trkpt>
      <trkpt lat="44.39616" lon="0.53327">
        <ele>44</ele>
        <time>2023-03-03T20:59:03Z</time>
      </trkpt>
      <trkpt lat="44.3964" lon="0.53387">
        <ele>45</ele>
        <time>2023-03-03T20:59:12Z</time>
      </trkpt>
      <trkpt lat="44.39674" lon="0.53408">
        <ele>45</ele>
        <time>2023-03-03T20:59:18Z</time>
      </trkpt>
      <trkpt lat="44.39727" lon="0.53525">
        <ele>44</ele>
        <time>2023-03-03T20:59:36Z</time>
      </trkpt>
      <trkpt lat="44.39811" lon="0.53638">
        <ele>43</ele>
        <time>2023-03-03T20:59:57Z</time>
      </trkpt>
      <trkpt lat="44.39846" lon="0.53716">
        <ele>44</ele>
        <time>2023-03-03T21:00:08Z</time>
      </trkpt>
      <trkpt lat="44.39895" lon="0.53843">
        <ele>43</ele>
        <time>2023-03-03T21:00:27Z</time>
      </trkpt>
      <trkpt lat="44.39907" lon="0.53896">
        <ele>44</ele>
        <time>2023-03-03T21:00:34Z</time>
      </trkpt>
      <trkpt lat="44.39918" lon="0.5396">
        <ele>43</ele>
        <time>2023-03-03T21:00:42Z</time>
      </trkpt>
      <trkpt lat="44.39923" lon="0.53973">
        <ele>43</ele>
        <time>2023-03-03T21:00:44Z</time>
      </trkpt>
      <trkpt lat="44.39938" lon="0.54004">
        <ele>43</ele>
        <time>2023-03-03T21:00:49Z</time>
      </trkpt>
      <trkpt lat="44.39998" lon="0.54104">
        <ele>43</ele>
        <time>2023-03-03T21:01:05Z</time>
      </trkpt>
      <trkpt lat="44.40041" lon="0.5419">
        <ele>44</ele>
        <time>2023-03-03T21:01:19Z</time>
      </trkpt>
      <trkpt lat="44.40079" lon="0.54276">
        <ele>45</ele>
        <time>2023-03-03T21:01:32Z</time>
      </trkpt>
      <trkpt lat="44.40121" lon="0.5442">
        <ele>44</ele>
        <time>2023-03-03T21:01:51Z</time>
      </trkpt>
      <trkpt lat="44.40154" lon="0.5458">
        <ele>44</ele>
        <time>2023-03-03T21:02:13Z</time>
      </trkpt>
      <trkpt lat="44.40165" lon="0.54706">
        <ele>45</ele>
        <time>2023-03-03T21:02:29Z</time>
      </trkpt>
      <trkpt lat="44.40166" lon="0.54789">
        <ele>45</ele>
        <time>2023-03-03T21:02:39Z</time>
      </trkpt>
      <trkpt lat="44.40153" lon="0.54855">
        <ele>44</ele>
        <time>2023-03-03T21:02:48Z</time>
      </trkpt>
      <trkpt lat="44.40124" lon="0.54946">
        <ele>45</ele>
        <time>2023-03-03T21:03:01Z</time>
      </trkpt>
      <trkpt lat="44.401" lon="0.55044">
        <ele>45</ele>
        <time>2023-03-03T21:03:14Z</time>
      </trkpt>
      <trkpt lat="44.40076" lon="0.55179">
        <ele>44</ele>
        <time>2023-03-03T21:03:31Z</time>
      </trkpt>
      <trkpt lat="44.40055" lon="0.55258">
        <ele>45</ele>
        <time>2023-03-03T21:03:42Z</time>
      </trkpt>
      <trkpt lat="44.40036" lon="0.55303">
        <ele>45</ele>
        <time>2023-03-03T21:03:49Z</time>
      </trkpt>
      <trkpt lat="44.40001" lon="0.55376">
        <ele>46</ele>
        <time>2023-03-03T21:04:00Z</time>
      </trkpt>
      <trkpt lat="44.39979" lon="0.55436">
        <ele>46</ele>
        <time>2023-03-03T21:04:09Z</time>
      </trkpt>
      <trkpt lat="44.39947" lon="0.55586">
        <ele>46</ele>
        <time>2023-03-03T21:04:28Z</time>
      </trkpt>
      <trkpt lat="44.39932" lon="0.55636">
        <ele>46</ele>
        <time>2023-03-03T21:04:35Z</time>
      </trkpt>
      <trkpt lat="44.39933" lon="0.55678">
        <ele>46</ele>
        <time>2023-03-03T21:04:41Z</time>
      </trkpt>
      <trkpt lat="44.39954" lon="0.55759">
        <ele>46</ele>
        <time>2023-03-03T21:04:52Z</time>
      </trkpt>
      <trkpt lat="44.39986" lon="0.5585">
        <ele>47</ele>
        <time>2023-03-03T21:05:05Z</time>
      </trkpt>
      <trkpt lat="44.40011" lon="0.56001">
        <ele>45</ele>
        <time>2023-03-03T21:05:24Z</time>
      </trkpt>
      <trkpt lat="44.40023" lon="0.56164">
        <ele>45</ele>
        <time>2023-03-03T21:05:45Z</time>
      </trkpt>
      <trkpt lat="44.40025" lon="0.56329">
        <ele>46</ele>
        <time>2023-03-03T21:06:06Z</time>
      </trkpt>
      <trkpt lat="44.40029" lon="0.56465">
        <ele>45</ele>
        <time>2023-03-03T21:06:23Z</time>
      </trkpt>
      <trkpt lat="44.40006" lon="0.56689">
        <ele>45</ele>
        <time>2023-03-03T21:06:52Z</time>
      </trkpt>
      <trkpt lat="44.39984" lon="0.56852">
        <ele>46</ele>
        <time>2023-03-03T21:07:13Z</time>
      </trkpt>
      <trkpt lat="44.3997" lon="0.5698">
        <ele>46</ele>
        <time>2023-03-03T21:07:30Z</time>
      </trkpt>
      <trkpt lat="44.39978" lon="0.57248">
        <ele>44</ele>
        <time>2023-03-03T21:08:04Z</time>
      </trkpt>
      <trkpt lat="44.3997" lon="0.57281">
        <ele>44</ele>
        <time>2023-03-03T21:08:08Z</time>
      </trkpt>
      <trkpt lat="44.39961" lon="0.5731">
        <ele>44</ele>
        <time>2023-03-03T21:08:12Z</time>
      </trkpt>
      <trkpt lat="44.39914" lon="0.57439">
        <ele>45</ele>
        <time>2023-03-03T21:08:31Z</time>
      </trkpt>
      <trkpt lat="44.39911" lon="0.57457">
        <ele>45</ele>
        <time>2023-03-03T21:08:33Z</time>
      </trkpt>
      <trkpt lat="44.3991" lon="0.57477">
        <ele>45</ele>
        <time>2023-03-03T21:08:36Z</time>
      </trkpt>
      <trkpt lat="44.39912" lon="0.57504">
        <ele>45</ele>
        <time>2023-03-03T21:08:39Z</time>
      </trkpt>
      <trkpt lat="44.39969" lon="0.57815">
        <ele>43</ele>
        <time>2023-03-03T21:09:20Z</time>
      </trkpt>
      <trkpt lat="44.39982" lon="0.57872">
        <ele>44</ele>
        <time>2023-03-03T21:09:27Z</time>
      </trkpt>
      <trkpt lat="44.39999" lon="0.57922">
        <ele>45</ele>
        <time>2023-03-03T21:09:34Z</time>
      </trkpt>
      <trkpt lat="44.40019" lon="0.57964">
        <ele>44</ele>
        <time>2023-03-03T21:09:41Z</time>
      </trkpt>
      <trkpt lat="44.4015" lon="0.58196">
        <ele>45</ele>
        <time>2023-03-03T21:10:18Z</time>
      </trkpt>
      <trkpt lat="44.40178" lon="0.58256">
        <ele>45</ele>
        <time>2023-03-03T21:10:28Z</time>
      </trkpt>
      <trkpt lat="44.4019" lon="0.58278">
        <ele>45</ele>
        <time>2023-03-03T21:10:31Z</time>
      </trkpt>
      <trkpt lat="44.40223" lon="0.58324">
        <ele>45</ele>
        <time>2023-03-03T21:10:39Z</time>
      </trkpt>
      <trkpt lat="44.40257" lon="0.58367">
        <ele>45</ele>
        <time>2023-03-03T21:10:48Z</time>
      </trkpt>
      <trkpt lat="44.4034" lon="0.58462">
        <ele>46</ele>
        <time>2023-03-03T21:11:07Z</time>
      </trkpt>
      <trkpt lat="44.40353" lon="0.5848">
        <ele>46</ele>
        <time>2023-03-03T21:11:10Z</time>
      </trkpt>
      <trkpt lat="44.40357" lon="0.58481">
        <ele>46</ele>
        <time>2023-03-03T21:11:11Z</time>
      </trkpt>
      <trkpt lat="44.40327" lon="0.58527">
        <ele>46</ele>
        <time>2023-03-03T21:11:19Z</time>
      </trkpt>
      <trkpt lat="44.40278" lon="0.58587">
        <ele>44</ele>
        <time>2023-03-03T21:11:30Z</time>
      </trkpt>
      <trkpt lat="44.40152" lon="0.58732">
        <ele>48</ele>
        <time>2023-03-03T21:11:59Z</time>
      </trkpt>
      <trkpt lat="44.40119" lon="0.58769">
        <ele>49</ele>
        <time>2023-03-03T21:12:07Z</time>
      </trkpt>
      <trkpt lat="44.40101" lon="0.58785">
        <ele>49</ele>
        <time>2023-03-03T21:12:10Z</time>
      </trkpt>
      <trkpt lat="44.40065" lon="0.58813">
        <ele>49</ele>
        <time>2023-03-03T21:12:18Z</time>
      </trkpt>
      <trkpt lat="44.40049" lon="0.58821">
        <ele>49</ele>
        <time>2023-03-03T21:12:21Z</time>
      </trkpt>
      <trkpt lat="44.40031" lon="0.58825">
        <ele>49</ele>
        <time>2023-03-03T21:12:24Z</time>
      </trkpt>
      <trkpt lat="44.40026" lon="0.58823">
        <ele>49</ele>
        <time>2023-03-03T21:12:25Z</time>
      </trkpt>
      <trkpt lat="44.40022" lon="0.58824">
        <ele>49</ele>
        <time>2023-03-03T21:12:26Z</time>
      </trkpt>
      <trkpt lat="44.40019" lon="0.58829">
        <ele>49</ele>
        <time>2023-03-03T21:12:27Z</time>
      </trkpt>
      <trkpt lat="44.40018" lon="0.58836">
        <ele>49</ele>
        <time>2023-03-03T21:12:27Z</time>
      </trkpt>
      <trkpt lat="44.39956" lon="0.58858">
        <ele>51</ele>
        <time>2023-03-03T21:12:39Z</time>
      </trkpt>
      <trkpt lat="44.39946" lon="0.58859">
        <ele>52</ele>
        <time>2023-03-03T21:12:41Z</time>
      </trkpt>
      <trkpt lat="44.3988" lon="0.58879">
        <ele>55</ele>
        <time>2023-03-03T21:12:53Z</time>
      </trkpt>
      <trkpt lat="44.39873" lon="0.58884">
        <ele>56</ele>
        <time>2023-03-03T21:12:54Z</time>
      </trkpt>
      <trkpt lat="44.3986" lon="0.5889">
        <ele>57</ele>
        <time>2023-03-03T21:12:56Z</time>
      </trkpt>
      <trkpt lat="44.3986" lon="0.58917">
        <ele>58</ele>
        <time>2023-03-03T21:13:00Z</time>
      </trkpt>
      <trkpt lat="44.39862" lon="0.58929">
        <ele>57</ele>
        <time>2023-03-03T21:13:01Z</time>
      </trkpt>
      <trkpt lat="44.39902" lon="0.59037">
        <ele>54</ele>
        <time>2023-03-03T21:13:17Z</time>
      </trkpt>
      <trkpt lat="44.39879" lon="0.59051">
        <ele>55</ele>
        <time>2023-03-03T21:13:21Z</time>
      </trkpt>
      <trkpt lat="44.39879" lon="0.59074">
        <ele>55</ele>
        <time>2023-03-03T21:13:24Z</time>
      </trkpt>
      <trkpt lat="44.39884" lon="0.59119">
        <ele>53</ele>
        <time>2023-03-03T21:13:30Z</time>
      </trkpt>
      <trkpt lat="44.39881" lon="0.59139">
        <ele>53</ele>
        <time>2023-03-03T21:13:33Z</time>
      </trkpt>
      <trkpt lat="44.39874" lon="0.59134">
        <ele>53</ele>
        <time>2023-03-03T21:13:34Z</time>
      </trkpt>
      <trkpt lat="44.39869" lon="0.59137">
        <ele>53</ele>
        <time>2023-03-03T21:13:35Z</time>
      </trkpt>
      <trkpt lat="44.39866" lon="0.59144">
        <ele>53</ele>
        <time>2023-03-03T21:13:36Z</time>
      </trkpt>
      <trkpt lat="44.39868" lon="0.59154">
        <ele>53</ele>
        <time>2023-03-03T21:13:37Z</time>
      </trkpt>
      <trkpt lat="44.39875" lon="0.59158">
        <ele>53</ele>
        <time>2023-03-03T21:13:39Z</time>
      </trkpt>
      <trkpt lat="44.39876" lon="0.59188">
        <ele>52</ele>
        <time>2023-03-03T21:13:43Z</time>
      </trkpt>
      <trkpt lat="44.39879" lon="0.59228">
        <ele>52</ele>
        <time>2023-03-03T21:13:48Z</time>
      </trkpt>
      <trkpt lat="44.39883" lon="0.59248">
        <ele>52</ele>
        <time>2023-03-03T21:13:50Z</time>
      </trkpt>
      <trkpt lat="44.39889" lon="0.59375">
        <ele>53</ele>
        <time>2023-03-03T21:14:06Z</time>
      </trkpt>
      <trkpt lat="44.39888" lon="0.59408">
        <ele>53</ele>
        <time>2023-03-03T21:14:11Z</time>
      </trkpt>
      <trkpt lat="44.39891" lon="0.59489">
        <ele>54</ele>
        <time>2023-03-03T21:14:21Z</time>
      </trkpt>
      <trkpt lat="44.39905" lon="0.59703">
        <ele>54</ele>
        <time>2023-03-03T21:14:48Z</time>
      </trkpt>
      <trkpt lat="44.39911" lon="0.59831">
        <ele>57</ele>
        <time>2023-03-03T21:15:05Z</time>
      </trkpt>
      <trkpt lat="44.39918" lon="0.60033">
        <ele>64</ele>
        <time>2023-03-03T21:15:30Z</time>
      </trkpt>
      <trkpt lat="44.39915" lon="0.6004">
        <ele>63</ele>
        <time>2023-03-03T21:15:31Z</time>
      </trkpt>
      <trkpt lat="44.39903" lon="0.60084">
        <ele>63</ele>
        <time>2023-03-03T21:15:37Z</time>
      </trkpt>
      <trkpt lat="44.39877" lon="0.60193">
        <ele>62</ele>
        <time>2023-03-03T21:15:52Z</time>
      </trkpt>
      <trkpt lat="44.39861" lon="0.60267">
        <ele>62</ele>
        <time>2023-03-03T21:16:02Z</time>
      </trkpt>
      <trkpt lat="44.39854" lon="0.6029">
        <ele>61</ele>
        <time>2023-03-03T21:16:05Z</time>
      </trkpt>
      <trkpt lat="44.39843" lon="0.6031">
        <ele>61</ele>
        <time>2023-03-03T21:16:08Z</time>
      </trkpt>
      <trkpt lat="44.39828" lon="0.60329">
        <ele>61</ele>
        <time>2023-03-03T21:16:12Z</time>
      </trkpt>
      <trkpt lat="44.39802" lon="0.60346">
        <ele>61</ele>
        <time>2023-03-03T21:16:17Z</time>
      </trkpt>
      <trkpt lat="44.39775" lon="0.60356">
        <ele>61</ele>
        <time>2023-03-03T21:16:22Z</time>
      </trkpt>
      <trkpt lat="44.39761" lon="0.60365">
        <ele>61</ele>
        <time>2023-03-03T21:16:25Z</time>
      </trkpt>
      <trkpt lat="44.39742" lon="0.60389">
        <ele>60</ele>
        <time>2023-03-03T21:16:29Z</time>
      </trkpt>
      <trkpt lat="44.39727" lon="0.60398">
        <ele>61</ele>
        <time>2023-03-03T21:16:32Z</time>
      </trkpt>
      <trkpt lat="44.39662" lon="0.60407">
        <ele>61</ele>
        <time>2023-03-03T21:16:44Z</time>
      </trkpt>
      <trkpt lat="44.39641" lon="0.6041">
        <ele>61</ele>
        <time>2023-03-03T21:16:47Z</time>
      </trkpt>
      <trkpt lat="44.39632" lon="0.60415">
        <ele>61</ele>
        <time>2023-03-03T21:16:49Z</time>
      </trkpt>
      <trkpt lat="44.39627" lon="0.60421">
        <ele>61</ele>
        <time>2023-03-03T21:16:50Z</time>
      </trkpt>
      <trkpt lat="44.39624" lon="0.60433">
        <ele>61</ele>
        <time>2023-03-03T21:16:52Z</time>
      </trkpt>
      <trkpt lat="44.39623" lon="0.60452">
        <ele>61</ele>
        <time>2023-03-03T21:16:54Z</time>
      </trkpt>
      <trkpt lat="44.39629" lon="0.60511">
        <ele>61</ele>
        <time>2023-03-03T21:17:02Z</time>
      </trkpt>
      <trkpt lat="44.39629" lon="0.60533">
        <ele>61</ele>
        <time>2023-03-03T21:17:05Z</time>
      </trkpt>
      <trkpt lat="44.39621" lon="0.60571">
        <ele>61</ele>
        <time>2023-03-03T21:17:10Z</time>
      </trkpt>
      <trkpt lat="44.39615" lon="0.60592">
        <ele>61</ele>
        <time>2023-03-03T21:17:13Z</time>
      </trkpt>
      <trkpt lat="44.39602" lon="0.6062">
        <ele>61</ele>
        <time>2023-03-03T21:17:17Z</time>
      </trkpt>
      <trkpt lat="44.39599" lon="0.6068">
        <ele>62</ele>
        <time>2023-03-03T21:17:25Z</time>
      </trkpt>
      <trkpt lat="44.39583" lon="0.60782">
        <ele>63</ele>
        <time>2023-03-03T21:17:38Z</time>
      </trkpt>
      <trkpt lat="44.39579" lon="0.6085">
        <ele>63</ele>
        <time>2023-03-03T21:17:46Z</time>
      </trkpt>
      <trkpt lat="44.39569" lon="0.609">
        <ele>63</ele>
        <time>2023-03-03T21:17:53Z</time>
      </trkpt>
      <trkpt lat="44.39531" lon="0.61012">
        <ele>63</ele>
        <time>2023-03-03T21:18:09Z</time>
      </trkpt>
      <trkpt lat="44.39507" lon="0.61107">
        <ele>65</ele>
        <time>2023-03-03T21:18:22Z</time>
      </trkpt>
      <trkpt lat="44.39495" lon="0.6116">
        <ele>65</ele>
        <time>2023-03-03T21:18:29Z</time>
      </trkpt>
      <trkpt lat="44.39498" lon="0.6124">
        <ele>65</ele>
        <time>2023-03-03T21:18:39Z</time>
      </trkpt>
      <trkpt lat="44.39502" lon="0.6131">
        <ele>65</ele>
        <time>2023-03-03T21:18:48Z</time>
      </trkpt>
      <trkpt lat="44.39511" lon="0.6136">
        <ele>65</ele>
        <time>2023-03-03T21:18:54Z</time>
      </trkpt>
      <trkpt lat="44.39528" lon="0.61466">
        <ele>65</ele>
        <time>2023-03-03T21:19:08Z</time>
      </trkpt>
      <trkpt lat="44.39539" lon="0.61553">
        <ele>65</ele>
        <time>2023-03-03T21:19:19Z</time>
      </trkpt>
      <trkpt lat="44.39546" lon="0.6166">
        <ele>65</ele>
        <time>2023-03-03T21:19:33Z</time>
      </trkpt>
      <trkpt lat="44.39527" lon="0.61733">
        <ele>66</ele>
        <time>2023-03-03T21:19:43Z</time>
      </trkpt>
      <trkpt lat="44.39515" lon="0.61797">
        <ele>67</ele>
        <time>2023-03-03T21:19:51Z</time>
      </trkpt>
      <trkpt lat="44.39486" lon="0.61874">
        <ele>68</ele>
        <time>2023-03-03T21:20:02Z</time>
      </trkpt>
      <trkpt lat="44.39472" lon="0.61909">
        <ele>67</ele>
        <time>2023-03-03T21:20:08Z</time>
      </trkpt>
      <trkpt lat="44.39452" lon="0.61943">
        <ele>67</ele>
        <time>2023-03-03T21:20:13Z</time>
      </trkpt>
      <trkpt lat="44.39429" lon="0.61963">
        <ele>67</ele>
        <time>2023-03-03T21:20:18Z</time>
      </trkpt>
      <trkpt lat="44.39371" lon="0.61993">
        <ele>68</ele>
        <time>2023-03-03T21:20:29Z</time>
      </trkpt>
      <trkpt lat="44.39344" lon="0.62021">
        <ele>68</ele>
        <time>2023-03-03T21:20:35Z</time>
      </trkpt>
      <trkpt lat="44.39264" lon="0.62141">
        <ele>71</ele>
        <time>2023-03-03T21:20:56Z</time>
      </trkpt>
      <trkpt lat="44.39254" lon="0.62166">
        <ele>71</ele>
        <time>2023-03-03T21:20:59Z</time>
      </trkpt>
      <trkpt lat="44.39247" lon="0.62196">
        <ele>72</ele>
        <time>2023-03-03T21:21:03Z</time>
      </trkpt>
      <trkpt lat="44.39243" lon="0.62223">
        <ele>72</ele>
        <time>2023-03-03T21:21:07Z</time>
      </trkpt>
      <trkpt lat="44.39241" lon="0.62253">
        <ele>73</ele>
        <time>2023-03-03T21:21:11Z</time>
      </trkpt>
      <trkpt lat="44.39261" lon="0.62381">
        <ele>71</ele>
        <time>2023-03-03T21:21:27Z</time>
      </trkpt>
      <trkpt lat="44.39264" lon="0.62472">
        <ele>72</ele>
        <time>2023-03-03T21:21:39Z</time>
      </trkpt>
      <trkpt lat="44.39257" lon="0.62637">
        <ele>72</ele>
        <time>2023-03-03T21:22:00Z</time>
      </trkpt>
      <trkpt lat="44.39237" lon="0.62928">
        <ele>72</ele>
        <time>2023-03-03T21:22:37Z</time>
      </trkpt>
      <trkpt lat="44.39235" lon="0.63026">
        <ele>73</ele>
        <time>2023-03-03T21:22:50Z</time>
      </trkpt>
      <trkpt lat="44.39228" lon="0.63104">
        <ele>73</ele>
        <time>2023-03-03T21:23:00Z</time>
      </trkpt>
      <trkpt lat="44.39228" lon="0.6313">
        <ele>73</ele>
        <time>2023-03-03T21:23:03Z</time>
      </trkpt>
      <trkpt lat="44.39239" lon="0.63195">
        <ele>72</ele>
        <time>2023-03-03T21:23:11Z</time>
      </trkpt>
      <trkpt lat="44.39253" lon="0.6325">
        <ele>72</ele>
        <time>2023-03-03T21:23:19Z</time>
      </trkpt>
      <trkpt lat="44.39259" lon="0.63277">
        <ele>72</ele>
        <time>2023-03-03T21:23:23Z</time>
      </trkpt>
      <trkpt lat="44.39259" lon="0.63324">
        <ele>73</ele>
        <time>2023-03-03T21:23:28Z</time>
      </trkpt>
      <trkpt lat="44.39255" lon="0.63358">
        <ele>74</ele>
        <time>2023-03-03T21:23:33Z</time>
      </trkpt>
      <trkpt lat="44.39239" lon="0.63407">
        <ele>77</ele>
        <time>2023-03-03T21:23:40Z</time>
      </trkpt>
      <trkpt lat="44.39237" lon="0.63424">
        <ele>78</ele>
        <time>2023-03-03T21:23:42Z</time>
      </trkpt>
      <trkpt lat="44.39241" lon="0.6347">
        <ele>80</ele>
        <time>2023-03-03T21:23:48Z</time>
      </trkpt>
      <trkpt lat="44.39267" lon="0.63643">
        <ele>83</ele>
        <time>2023-03-03T21:24:10Z</time>
      </trkpt>
      <trkpt lat="44.39272" lon="0.63733">
        <ele>83</ele>
        <time>2023-03-03T21:24:22Z</time>
      </trkpt>
      <trkpt lat="44.39275" lon="0.63765">
        <ele>83</ele>
        <time>2023-03-03T21:24:26Z</time>
      </trkpt>
      <trkpt lat="44.39286" lon="0.63819">
        <ele>82</ele>
        <time>2023-03-03T21:24:33Z</time>
      </trkpt>
      <trkpt lat="44.39288" lon="0.63845">
        <ele>82</ele>
        <time>2023-03-03T21:24:36Z</time>
      </trkpt>
      <trkpt lat="44.39281" lon="0.63901">
        <ele>83</ele>
        <time>2023-03-03T21:24:44Z</time>
      </trkpt>
      <trkpt lat="44.39275" lon="0.63978">
        <ele>85</ele>
        <time>2023-03-03T21:24:53Z</time>
      </trkpt>
      <trkpt lat="44.39273" lon="0.64063">
        <ele>86</ele>
        <time>2023-03-03T21:25:04Z</time>
      </trkpt>
      <trkpt lat="44.39265" lon="0.64135">
        <ele>86</ele>
        <time>2023-03-03T21:25:13Z</time>
      </trkpt>
      <trkpt lat="44.39262" lon="0.64187">
        <ele>85</ele>
        <time>2023-03-03T21:25:20Z</time>
      </trkpt>
      <trkpt lat="44.39254" lon="0.64247">
        <ele>83</ele>
        <time>2023-03-03T21:25:28Z</time>
      </trkpt>
      <trkpt lat="44.39221" lon="0.64343">
        <ele>80</ele>
        <time>2023-03-03T21:25:41Z</time>
      </trkpt>
      <trkpt lat="44.39215" lon="0.64355">
        <ele>80</ele>
        <time>2023-03-03T21:25:43Z</time>
      </trkpt>
      <trkpt lat="44.39213" lon="0.64381">
        <ele>79</ele>
        <time>2023-03-03T21:25:47Z</time>
      </trkpt>
      <trkpt lat="44.39213" lon="0.64399">
        <ele>78</ele>
        <time>2023-03-03T21:25:49Z</time>
      </trkpt>
      <trkpt lat="44.39215" lon="0.64418">
        <ele>77</ele>
        <time>2023-03-03T21:25:51Z</time>
      </trkpt>
      <trkpt lat="44.39221" lon="0.6445">
        <ele>76</ele>
        <time>2023-03-03T21:25:56Z</time>
      </trkpt>
      <trkpt lat="44.39222" lon="0.64479">
        <ele>75</ele>
        <time>2023-03-03T21:25:59Z</time>
      </trkpt>
      <trkpt lat="44.39197" lon="0.64656">
        <ele>75</ele>
        <time>2023-03-03T21:26:22Z</time>
      </trkpt>
      <trkpt lat="44.39158" lon="0.64895">
        <ele>76</ele>
        <time>2023-03-03T21:26:53Z</time>
      </trkpt>
      <trkpt lat="44.39155" lon="0.64916">
        <ele>76</ele>
        <time>2023-03-03T21:26:56Z</time>
      </trkpt>
      <trkpt lat="44.39158" lon="0.64957">
        <ele>76</ele>
        <time>2023-03-03T21:27:01Z</time>
      </trkpt>
      <trkpt lat="44.39162" lon="0.64992">
        <ele>76</ele>
        <time>2023-03-03T21:27:06Z</time>
      </trkpt>
      <trkpt lat="44.39166" lon="0.65052">
        <ele>75</ele>
        <time>2023-03-03T21:27:13Z</time>
      </trkpt>
      <trkpt lat="44.39166" lon="0.65087">
        <ele>74</ele>
        <time>2023-03-03T21:27:18Z</time>
      </trkpt>
      <trkpt lat="44.39164" lon="0.65122">
        <ele>74</ele>
        <time>2023-03-03T21:27:22Z</time>
      </trkpt>
      <trkpt lat="44.39124" lon="0.6538">
        <ele>76</ele>
        <time>2023-03-03T21:27:56Z</time>
      </trkpt>
      <trkpt lat="44.3913" lon="0.65437">
        <ele>76</ele>
        <time>2023-03-03T21:28:03Z</time>
      </trkpt>
      <trkpt lat="44.39137" lon="0.65456">
        <ele>77</ele>
        <time>2023-03-03T21:28:06Z</time>
      </trkpt>
      <trkpt lat="44.39229" lon="0.65669">
        <ele>75</ele>
        <time>2023-03-03T21:28:38Z</time>
      </trkpt>
      <trkpt lat="44.39246" lon="0.65718">
        <ele>74</ele>
        <time>2023-03-03T21:28:45Z</time>
      </trkpt>
      <trkpt lat="44.39251" lon="0.65741">
        <ele>74</ele>
        <time>2023-03-03T21:28:48Z</time>
      </trkpt>
      <trkpt lat="44.39256" lon="0.65789">
        <ele>73</ele>
        <time>2023-03-03T21:28:54Z</time>
      </trkpt>
      <trkpt lat="44.39255" lon="0.65831">
        <ele>73</ele>
        <time>2023-03-03T21:28:59Z</time>
      </trkpt>
      <trkpt lat="44.39253" lon="0.65857">
        <ele>73</ele>
        <time>2023-03-03T21:29:02Z</time>
      </trkpt>
      <trkpt lat="44.39243" lon="0.65926">
        <ele>72</ele>
        <time>2023-03-03T21:29:11Z</time>
      </trkpt>
      <trkpt lat="44.3923" lon="0.65986">
        <ele>71</ele>
        <time>2023-03-03T21:29:19Z</time>
      </trkpt>
      <trkpt lat="44.39189" lon="0.66145">
        <ele>70</ele>
        <time>2023-03-03T21:29:41Z</time>
      </trkpt>
      <trkpt lat="44.39186" lon="0.66167">
        <ele>70</ele>
        <time>2023-03-03T21:29:44Z</time>
      </trkpt>
      <trkpt lat="44.39184" lon="0.66246">
        <ele>70</ele>
        <time>2023-03-03T21:29:54Z</time>
      </trkpt>
      <trkpt lat="44.39176" lon="0.66333">
        <ele>70</ele>
        <time>2023-03-03T21:30:05Z</time>
      </trkpt>
      <trkpt lat="44.3918" lon="0.6634">
        <ele>71</ele>
        <time>2023-03-03T21:30:06Z</time>
      </trkpt>
      <trkpt lat="44.39185" lon="0.66346">
        <ele>71</ele>
        <time>2023-03-03T21:30:07Z</time>
      </trkpt>
      <trkpt lat="44.39178" lon="0.6636">
        <ele>72</ele>
        <time>2023-03-03T21:30:09Z</time>
      </trkpt>
      <trkpt lat="44.39135" lon="0.66473">
        <ele>77</ele>
        <time>2023-03-03T21:30:26Z</time>
      </trkpt>
      <trkpt lat="44.39126" lon="0.6649">
        <ele>77</ele>
        <time>2023-03-03T21:30:28Z</time>
      </trkpt>
      <trkpt lat="44.39109" lon="0.66509">
        <ele>77</ele>
        <time>2023-03-03T21:30:32Z</time>
      </trkpt>
      <trkpt lat="44.38999" lon="0.66622">
        <ele>75</ele>
        <time>2023-03-03T21:30:57Z</time>
      </trkpt>
      <trkpt lat="44.38986" lon="0.66641">
        <ele>75</ele>
        <time>2023-03-03T21:31:00Z</time>
      </trkpt>
      <trkpt lat="44.38976" lon="0.66661">
        <ele>75</ele>
        <time>2023-03-03T21:31:03Z</time>
      </trkpt>
      <trkpt lat="44.38957" lon="0.66718">
        <ele>75</ele>
        <time>2023-03-03T21:31:11Z</time>
      </trkpt>
      <trkpt lat="44.38887" lon="0.66957">
        <ele>77</ele>
        <time>2023-03-03T21:31:44Z</time>
      </trkpt>
      <trkpt lat="44.38873" lon="0.67017">
        <ele>78</ele>
        <time>2023-03-03T21:31:52Z</time>
      </trkpt>
      <trkpt lat="44.38825" lon="0.67244">
        <ele>78</ele>
        <time>2023-03-03T21:32:22Z</time>
      </trkpt>
      <trkpt lat="44.38803" lon="0.67319">
        <ele>79</ele>
        <time>2023-03-03T21:32:32Z</time>
      </trkpt>
      <trkpt lat="44.38732" lon="0.67535">
        <ele>89</ele>
        <time>2023-03-03T21:33:02Z</time>
      </trkpt>
      <trkpt lat="44.38692" lon="0.67652">
        <ele>97</ele>
        <time>2023-03-03T21:33:19Z</time>
      </trkpt>
      <trkpt lat="44.38691" lon="0.67661">
        <ele>98</ele>
        <time>2023-03-03T21:33:20Z</time>
      </trkpt>
      <trkpt lat="44.387" lon="0.67668">
        <ele>100</ele>
        <time>2023-03-03T21:33:22Z</time>
      </trkpt>
      <trkpt lat="44.38707" lon="0.67683">
        <ele>101</ele>
        <time>2023-03-03T21:33:24Z</time>
      </trkpt>
      <trkpt lat="44.38712" lon="0.67697">
        <ele>102</ele>
        <time>2023-03-03T21:33:26Z</time>
      </trkpt>
      <trkpt lat="44.38727" lon="0.67797">
        <ele>107</ele>
        <time>2023-03-03T21:33:39Z</time>
      </trkpt>
      <trkpt lat="44.38741" lon="0.67856">
        <ele>112</ele>
        <time>2023-03-03T21:33:47Z</time>
      </trkpt>
      <trkpt lat="44.38745" lon="0.67883">
        <ele>114</ele>
        <time>2023-03-03T21:33:51Z</time>
      </trkpt>
      <trkpt lat="44.38745" lon="0.6791">
        <ele>115</ele>
        <time>2023-03-03T21:33:54Z</time>
      </trkpt>
      <trkpt lat="44.38741" lon="0.67992">
        <ele>119</ele>
        <time>2023-03-03T21:34:05Z</time>
      </trkpt>
      <trkpt lat="44.38742" lon="0.6803">
        <ele>122</ele>
        <time>2023-03-03T21:34:09Z</time>
      </trkpt>
      <trkpt lat="44.38751" lon="0.68096">
        <ele>125</ele>
        <time>2023-03-03T21:34:18Z</time>
      </trkpt>
      <trkpt lat="44.38768" lon="0.68216">
        <ele>122</ele>
        <time>2023-03-03T21:34:33Z</time>
      </trkpt>
      <trkpt lat="44.38785" lon="0.68299">
        <ele>121</ele>
        <time>2023-03-03T21:34:44Z</time>
      </trkpt>
      <trkpt lat="44.38819" lon="0.68449">
        <ele>116</ele>
        <time>2023-03-03T21:35:04Z</time>
      </trkpt>
      <trkpt lat="44.38831" lon="0.68508">
        <ele>116</ele>
        <time>2023-03-03T21:35:12Z</time>
      </trkpt>
      <trkpt lat="44.38839" lon="0.68559">
        <ele>115</ele>
        <time>2023-03-03T21:35:19Z</time>
      </trkpt>
      <trkpt lat="44.38856" lon="0.68744">
        <ele>107</ele>
        <time>2023-03-03T21:35:43Z</time>
      </trkpt>
      <trkpt lat="44.38864" lon="0.68793">
        <ele>104</ele>
        <time>2023-03-03T21:35:49Z</time>
      </trkpt>
      <trkpt lat="44.38871" lon="0.6882">
        <ele>102</ele>
        <time>2023-03-03T21:35:53Z</time>
      </trkpt>
      <trkpt lat="44.38884" lon="0.68855">
        <ele>99</ele>
        <time>2023-03-03T21:35:58Z</time>
      </trkpt>
      <trkpt lat="44.38949" lon="0.69017">
        <ele>92</ele>
        <time>2023-03-03T21:36:21Z</time>
      </trkpt>
      <trkpt lat="44.38965" lon="0.69048">
        <ele>89</ele>
        <time>2023-03-03T21:36:26Z</time>
      </trkpt>
      <trkpt lat="44.38983" lon="0.69068">
        <ele>87</ele>
        <time>2023-03-03T21:36:30Z</time>
      </trkpt>
      <trkpt lat="44.3901" lon="0.69088">
        <ele>84</ele>
        <time>2023-03-03T21:36:36Z</time>
      </trkpt>
      <trkpt lat="44.39029" lon="0.69111">
        <ele>83</ele>
        <time>2023-03-03T21:36:40Z</time>
      </trkpt>
      <trkpt lat="44.39046" lon="0.69122">
        <ele>82</ele>
        <time>2023-03-03T21:36:43Z</time>
      </trkpt>
      <trkpt lat="44.39066" lon="0.69131">
        <ele>80</ele>
        <time>2023-03-03T21:36:47Z</time>
      </trkpt>
      <trkpt lat="44.39317" lon="0.69328">
        <ele>74</ele>
        <time>2023-03-03T21:37:38Z</time>
      </trkpt>
      <trkpt lat="44.39331" lon="0.69331">
        <ele>73</ele>
        <time>2023-03-03T21:37:41Z</time>
      </trkpt>
      <trkpt lat="44.39354" lon="0.69325">
        <ele>72</ele>
        <time>2023-03-03T21:37:45Z</time>
      </trkpt>
      <trkpt lat="44.39366" lon="0.69318">
        <ele>72</ele>
        <time>2023-03-03T21:37:47Z</time>
      </trkpt>
      <trkpt lat="44.39387" lon="0.69315">
        <ele>71</ele>
        <time>2023-03-03T21:37:51Z</time>
      </trkpt>
      <trkpt lat="44.39393" lon="0.69322">
        <ele>70</ele>
        <time>2023-03-03T21:37:53Z</time>
      </trkpt>
      <trkpt lat="44.39399" lon="0.69326">
        <ele>70</ele>
        <time>2023-03-03T21:37:54Z</time>
      </trkpt>
      <trkpt lat="44.3941" lon="0.69326">
        <ele>69</ele>
        <time>2023-03-03T21:37:56Z</time>
      </trkpt>
      <trkpt lat="44.39418" lon="0.6932">
        <ele>69</ele>
        <time>2023-03-03T21:37:57Z</time>
      </trkpt>
      <trkpt lat="44.39422" lon="0.69314">
        <ele>69</ele>
        <time>2023-03-03T21:37:58Z</time>
      </trkpt>
      <trkpt lat="44.39438" lon="0.69314">
        <ele>68</ele>
        <time>2023-03-03T21:38:01Z</time>
      </trkpt>
      <trkpt lat="44.39444" lon="0.6932">
        <ele>68</ele>
        <time>2023-03-03T21:38:03Z</time>
      </trkpt>
      <trkpt lat="44.39451" lon="0.69335">
        <ele>68</ele>
        <time>2023-03-03T21:38:05Z</time>
      </trkpt>
      <trkpt lat="44.39452" lon="0.69351">
        <ele>68</ele>
        <time>2023-03-03T21:38:07Z</time>
      </trkpt>
      <trkpt lat="44.39451" lon="0.69397">
        <ele>69</ele>
        <time>2023-03-03T21:38:13Z</time>
      </trkpt>
      <trkpt lat="44.39455" lon="0.69423">
        <ele>69</ele>
        <time>2023-03-03T21:38:16Z</time>
      </trkpt>
      <trkpt lat="44.39469" lon="0.69449">
        <ele>69</ele>
        <time>2023-03-03T21:38:20Z</time>
      </trkpt>
      <trkpt lat="44.395" lon="0.69469">
        <ele>69</ele>
        <time>2023-03-03T21:38:26Z</time>
      </trkpt>
      <trkpt lat="44.4011" lon="0.69942">
        <ele>60</ele>
        <time>2023-03-03T21:40:30Z</time>
      </trkpt>
      <trkpt lat="44.40132" lon="0.69957">
        <ele>60</ele>
        <time>2023-03-03T21:40:35Z</time>
      </trkpt>
      <trkpt lat="44.40133" lon="0.69965">
        <ele>60</ele>
        <time>2023-03-03T21:40:36Z</time>
      </trkpt>
      <trkpt lat="44.40252" lon="0.70057">
        <ele>60</ele>
        <time>2023-03-03T21:41:00Z</time>
      </trkpt>
      <trkpt lat="44.40194" lon="0.70178">
        <ele>60</ele>
        <time>2023-03-03T21:41:18Z</time>
      </trkpt>
      <trkpt lat="44.40184" lon="0.70193">
        <ele>60</ele>
        <time>2023-03-03T21:41:21Z</time>
      </trkpt>
      <trkpt lat="44.40181" lon="0.70194">
        <ele>60</ele>
        <time>2023-03-03T21:41:22Z</time>
      </trkpt>
      <trkpt lat="44.40178" lon="0.70201">
        <ele>60</ele>
        <time>2023-03-03T21:41:23Z</time>
      </trkpt>
      <trkpt lat="44.40174" lon="0.70232">
        <ele>60</ele>
        <time>2023-03-03T21:41:27Z</time>
      </trkpt>
      <trkpt lat="44.40178" lon="0.70238">
        <ele>60</ele>
        <time>2023-03-03T21:41:28Z</time>
      </trkpt>
      <trkpt lat="44.40182" lon="0.70241">
        <ele>60</ele>
        <time>2023-03-03T21:41:28Z</time>
      </trkpt>
      <trkpt lat="44.40199" lon="0.70258">
        <ele>60</ele>
        <time>2023-03-03T21:41:32Z</time>
      </trkpt>
      <trkpt lat="44.40122" lon="0.70428">
        <ele>61</ele>
        <time>2023-03-03T21:41:58Z</time>
      </trkpt>
      <trkpt lat="44.40064" lon="0.70561">
        <ele>61</ele>
        <time>2023-03-03T21:42:18Z</time>
      </trkpt>
      <trkpt lat="44.40056" lon="0.70581">
        <ele>61</ele>
        <time>2023-03-03T21:42:21Z</time>
      </trkpt>
      <trkpt lat="44.40054" lon="0.70595">
        <ele>61</ele>
        <time>2023-03-03T21:42:22Z</time>
      </trkpt>
      <trkpt lat="44.39999" lon="0.70621">
        <ele>62</ele>
        <time>2023-03-03T21:42:33Z</time>
      </trkpt>
      <trkpt lat="44.39999" lon="0.70631">
        <ele>61</ele>
        <time>2023-03-03T21:42:34Z</time>
      </trkpt>
      <trkpt lat="44.39996" lon="0.7064">
        <ele>61</ele>
        <time>2023-03-03T21:42:35Z</time>
      </trkpt>
      <trkpt lat="44.39977" lon="0.70822">
        <ele>61</ele>
        <time>2023-03-03T21:42:59Z</time>
      </trkpt>
      <trkpt lat="44.39959" lon="0.71015">
        <ele>60</ele>
        <time>2023-03-03T21:43:23Z</time>
      </trkpt>
      <trkpt lat="44.39915" lon="0.71509">
        <ele>55</ele>
        <time>2023-03-03T21:44:27Z</time>
      </trkpt>
      <trkpt lat="44.39917" lon="0.71518">
        <ele>55</ele>
        <time>2023-03-03T21:44:28Z</time>
      </trkpt>
      <trkpt lat="44.39911" lon="0.71574">
        <ele>54</ele>
        <time>2023-03-03T21:44:35Z</time>
      </trkpt>
      <trkpt lat="44.39891" lon="0.71796">
        <ele>61</ele>
        <time>2023-03-03T21:45:03Z</time>
      </trkpt>
      <trkpt lat="44.39859" lon="0.72125">
        <ele>61</ele>
        <time>2023-03-03T21:45:46Z</time>
      </trkpt>
      <trkpt lat="44.39819" lon="0.72545">
        <ele>66</ele>
        <time>2023-03-03T21:46:40Z</time>
      </trkpt>
      <trkpt lat="44.39725" lon="0.73553">
        <ele>67</ele>
        <time>2023-03-03T21:48:49Z</time>
      </trkpt>
      <trkpt lat="44.39716" lon="0.7364">
        <ele>66</ele>
        <time>2023-03-03T21:49:00Z</time>
      </trkpt>
      <trkpt lat="44.39689" lon="0.73752">
        <ele>66</ele>
        <time>2023-03-03T21:49:15Z</time>
      </trkpt>
      <trkpt lat="44.39684" lon="0.73796">
        <ele>66</ele>
        <time>2023-03-03T21:49:21Z</time>
      </trkpt>
      <trkpt lat="44.39679" lon="0.73825">
        <ele>67</ele>
        <time>2023-03-03T21:49:24Z</time>
      </trkpt>
      <trkpt lat="44.39673" lon="0.7384">
        <ele>67</ele>
        <time>2023-03-03T21:49:27Z</time>
      </trkpt>
      <trkpt lat="44.39664" lon="0.73847">
        <ele>67</ele>
        <time>2023-03-03T21:49:28Z</time>
      </trkpt>
      <trkpt lat="44.39658" lon="0.73858">
        <ele>67</ele>
        <time>2023-03-03T21:49:30Z</time>
      </trkpt>
      <trkpt lat="44.39656" lon="0.73875">
        <ele>67</ele>
        <time>2023-03-03T21:49:32Z</time>
      </trkpt>
      <trkpt lat="44.39657" lon="0.73888">
        <ele>67</ele>
        <time>2023-03-03T21:49:34Z</time>
      </trkpt>
      <trkpt lat="44.39662" lon="0.739">
        <ele>67</ele>
        <time>2023-03-03T21:49:36Z</time>
      </trkpt>
      <trkpt lat="44.3967" lon="0.73909">
        <ele>67</ele>
        <time>2023-03-03T21:49:38Z</time>
      </trkpt>
      <trkpt lat="44.39678" lon="0.73913">
        <ele>67</ele>
        <time>2023-03-03T21:49:39Z</time>
      </trkpt>
      <trkpt lat="44.39687" lon="0.73937">
        <ele>67</ele>
        <time>2023-03-03T21:49:43Z</time>
      </trkpt>
      <trkpt lat="44.39688" lon="0.73965">
        <ele>67</ele>
        <time>2023-03-03T21:49:46Z</time>
      </trkpt>
      <trkpt lat="44.39684" lon="0.73987">
        <ele>67</ele>
        <time>2023-03-03T21:49:49Z</time>
      </trkpt>
      <trkpt lat="44.39501" lon="0.75914">
        <ele>66</ele>
        <time>2023-03-03T21:53:56Z</time>
      </trkpt>
      <trkpt lat="44.39464" lon="0.76293">
        <ele>68</ele>
        <time>2023-03-03T21:54:45Z</time>
      </trkpt>
      <trkpt lat="44.39452" lon="0.76411">
        <ele>68</ele>
        <time>2023-03-03T21:55:00Z</time>
      </trkpt>
      <trkpt lat="44.39438" lon="0.76483">
        <ele>67</ele>
        <time>2023-03-03T21:55:09Z</time>
      </trkpt>
      <trkpt lat="44.3943" lon="0.7651">
        <ele>66</ele>
        <time>2023-03-03T21:55:13Z</time>
      </trkpt>
      <trkpt lat="44.39324" lon="0.7682">
        <ele>66</ele>
        <time>2023-03-03T21:55:57Z</time>
      </trkpt>
      <trkpt lat="44.38752" lon="0.78424">
        <ele>82</ele>
        <time>2023-03-03T21:59:45Z</time>
      </trkpt>
      <trkpt lat="44.38741" lon="0.78463">
        <ele>83</ele>
        <time>2023-03-03T21:59:50Z</time>
      </trkpt>
      <trkpt lat="44.38735" lon="0.78492">
        <ele>85</ele>
        <time>2023-03-03T21:59:54Z</time>
      </trkpt>
      <trkpt lat="44.38732" lon="0.78544">
        <ele>84</ele>
        <time>2023-03-03T22:00:01Z</time>
      </trkpt>
      <trkpt lat="44.38734" lon="0.80367">
        <ele>63</ele>
        <time>2023-03-03T22:03:52Z</time>
      </trkpt>
      <trkpt lat="44.38747" lon="0.80373">
        <ele>64</ele>
        <time>2023-03-03T22:03:55Z</time>
      </trkpt>
      <trkpt lat="44.3886" lon="0.80454">
        <ele>81</ele>
        <time>2023-03-03T22:04:17Z</time>
      </trkpt>
      <trkpt lat="44.38868" lon="0.80462">
        <ele>82</ele>
        <time>2023-03-03T22:04:19Z</time>
      </trkpt>
      <trkpt lat="44.38878" lon="0.80474">
        <ele>83</ele>
        <time>2023-03-03T22:04:22Z</time>
      </trkpt>
      <trkpt lat="44.38899" lon="0.80519">
        <ele>87</ele>
        <time>2023-03-03T22:04:28Z</time>
      </trkpt>
      <trkpt lat="44.3891" lon="0.80548">
        <ele>89</ele>
        <time>2023-03-03T22:04:33Z</time>
      </trkpt>
      <trkpt lat="44.38917" lon="0.80573">
        <ele>90</ele>
        <time>2023-03-03T22:04:36Z</time>
      </trkpt>
      <trkpt lat="44.38929" lon="0.80663">
        <ele>93</ele>
        <time>2023-03-03T22:04:48Z</time>
      </trkpt>
      <trkpt lat="44.38938" lon="0.8075">
        <ele>96</ele>
        <time>2023-03-03T22:04:59Z</time>
      </trkpt>
      <trkpt lat="44.38939" lon="0.80774">
        <ele>96</ele>
        <time>2023-03-03T22:05:02Z</time>
      </trkpt>
      <trkpt lat="44.38938" lon="0.80793">
        <ele>97</ele>
        <time>2023-03-03T22:05:04Z</time>
      </trkpt>
      <trkpt lat="44.38935" lon="0.80813">
        <ele>97</ele>
        <time>2023-03-03T22:05:07Z</time>
      </trkpt>
      <trkpt lat="44.38922" lon="0.80868">
        <ele>97</ele>
        <time>2023-03-03T22:05:14Z</time>
      </trkpt>
      <trkpt lat="44.38918" lon="0.80891">
        <ele>97</ele>
        <time>2023-03-03T22:05:17Z</time>
      </trkpt>
      <trkpt lat="44.38918" lon="0.8092">
        <ele>97</ele>
        <time>2023-03-03T22:05:21Z</time>
      </trkpt>
      <trkpt lat="44.38928" lon="0.80998">
        <ele>98</ele>
        <time>2023-03-03T22:05:31Z</time>
      </trkpt>
      <trkpt lat="44.3898" lon="0.8098">
        <ele>95</ele>
        <time>2023-03-03T22:05:41Z</time>
      </trkpt>
      <trkpt lat="44.39013" lon="0.80976">
        <ele>93</ele>
        <time>2023-03-03T22:05:46Z</time>
      </trkpt>
      <trkpt lat="44.39059" lon="0.80985">
        <ele>89</ele>
        <time>2023-03-03T22:05:55Z</time>
      </trkpt>
      <trkpt lat="44.39076" lon="0.80978">
        <ele>87</ele>
        <time>2023-03-03T22:05:58Z</time>
      </trkpt>
      <trkpt lat="44.39099" lon="0.80963">
        <ele>84</ele>
        <time>2023-03-03T22:06:02Z</time>
      </trkpt>
      <trkpt lat="44.39222" lon="0.80904">
        <ele>71</ele>
        <time>2023-03-03T22:06:25Z</time>
      </trkpt>
      <trkpt lat="44.39279" lon="0.80873">
        <ele>66</ele>
        <time>2023-03-03T22:06:36Z</time>
      </trkpt>
      <trkpt lat="44.39322" lon="0.80857">
        <ele>64</ele>
        <time>2023-03-03T22:06:44Z</time>
      </trkpt>
      <trkpt lat="44.39341" lon="0.80845">
        <ele>63</ele>
        <time>2023-03-03T22:06:48Z</time>
      </trkpt>
      <trkpt lat="44.39352" lon="0.80833">
        <ele>62</ele>
        <time>2023-03-03T22:06:50Z</time>
      </trkpt>
      <trkpt lat="44.39354" lon="0.80839">
        <ele>62</ele>
        <time>2023-03-03T22:06:51Z</time>
      </trkpt>
      <trkpt lat="44.39355" lon="0.80879">
        <ele>62</ele>
        <time>2023-03-03T22:06:56Z</time>
      </trkpt>
      <trkpt lat="44.39351" lon="0.8112">
        <ele>61</ele>
        <time>2023-03-03T22:07:27Z</time>
      </trkpt>
      <trkpt lat="44.39352" lon="0.81205">
        <ele>62</ele>
        <time>2023-03-03T22:07:38Z</time>
      </trkpt>
      <trkpt lat="44.39354" lon="0.81249">
        <ele>62</ele>
        <time>2023-03-03T22:07:43Z</time>
      </trkpt>
      <trkpt lat="44.39359" lon="0.81289">
        <ele>64</ele>
        <time>2023-03-03T22:07:49Z</time>
      </trkpt>
      <trkpt lat="44.39364" lon="0.81325">
        <ele>65</ele>
        <time>2023-03-03T22:07:53Z</time>
      </trkpt>
      <trkpt lat="44.39382" lon="0.81389">
        <ele>65</ele>
        <time>2023-03-03T22:08:02Z</time>
      </trkpt>
      <trkpt lat="44.39391" lon="0.81446">
        <ele>65</ele>
        <time>2023-03-03T22:08:09Z</time>
      </trkpt>
      <trkpt lat="44.39405" lon="0.81596">
        <ele>65</ele>
        <time>2023-03-03T22:08:29Z</time>
      </trkpt>
      <trkpt lat="44.39453" lon="0.8184">
        <ele>64</ele>
        <time>2023-03-03T22:09:01Z</time>
      </trkpt>
      <trkpt lat="44.39479" lon="0.81903">
        <ele>62</ele>
        <time>2023-03-03T22:09:10Z</time>
      </trkpt>
      <trkpt lat="44.39651" lon="0.82222">
        <ele>61</ele>
        <time>2023-03-03T22:10:01Z</time>
      </trkpt>
      <trkpt lat="44.39676" lon="0.82259">
        <ele>60</ele>
        <time>2023-03-03T22:10:07Z</time>
      </trkpt>
      <trkpt lat="44.39755" lon="0.82359">
        <ele>60</ele>
        <time>2023-03-03T22:10:26Z</time>
      </trkpt>
      <trkpt lat="44.39771" lon="0.82385">
        <ele>60</ele>
        <time>2023-03-03T22:10:31Z</time>
      </trkpt>
      <trkpt lat="44.39784" lon="0.82415">
        <ele>60</ele>
        <time>2023-03-03T22:10:35Z</time>
      </trkpt>
      <trkpt lat="44.39873" lon="0.82603">
        <ele>59</ele>
        <time>2023-03-03T22:11:04Z</time>
      </trkpt>
      <trkpt lat="44.39891" lon="0.82667">
        <ele>60</ele>
        <time>2023-03-03T22:11:13Z</time>
      </trkpt>
      <trkpt lat="44.39916" lon="0.8282">
        <ele>60</ele>
        <time>2023-03-03T22:11:33Z</time>
      </trkpt>
      <trkpt lat="44.39949" lon="0.83">
        <ele>62</ele>
        <time>2023-03-03T22:11:56Z</time>
      </trkpt>
      <trkpt lat="44.39952" lon="0.83047">
        <ele>63</ele>
        <time>2023-03-03T22:12:02Z</time>
      </trkpt>
      <trkpt lat="44.3995" lon="0.83067">
        <ele>64</ele>
        <time>2023-03-03T22:12:05Z</time>
      </trkpt>
      <trkpt lat="44.39946" lon="0.83083">
        <ele>65</ele>
        <time>2023-03-03T22:12:07Z</time>
      </trkpt>
      <trkpt lat="44.3994" lon="0.83097">
        <ele>65</ele>
        <time>2023-03-03T22:12:09Z</time>
      </trkpt>
      <trkpt lat="44.39928" lon="0.83117">
        <ele>66</ele>
        <time>2023-03-03T22:12:12Z</time>
      </trkpt>
      <trkpt lat="44.3988" lon="0.83199">
        <ele>71</ele>
        <time>2023-03-03T22:12:26Z</time>
      </trkpt>
      <trkpt lat="44.39877" lon="0.83209">
        <ele>71</ele>
        <time>2023-03-03T22:12:27Z</time>
      </trkpt>
      <trkpt lat="44.39875" lon="0.8322">
        <ele>72</ele>
        <time>2023-03-03T22:12:29Z</time>
      </trkpt>
      <trkpt lat="44.39877" lon="0.83232">
        <ele>72</ele>
        <time>2023-03-03T22:12:30Z</time>
      </trkpt>
      <trkpt lat="44.39881" lon="0.83242">
        <ele>73</ele>
        <time>2023-03-03T22:12:32Z</time>
      </trkpt>
      <trkpt lat="44.39922" lon="0.83299">
        <ele>73</ele>
        <time>2023-03-03T22:12:42Z</time>
      </trkpt>
      <trkpt lat="44.39953" lon="0.83338">
        <ele>72</ele>
        <time>2023-03-03T22:12:49Z</time>
      </trkpt>
      <trkpt lat="44.39996" lon="0.83382">
        <ele>72</ele>
        <time>2023-03-03T22:12:59Z</time>
      </trkpt>
      <trkpt lat="44.40008" lon="0.83398">
        <ele>72</ele>
        <time>2023-03-03T22:13:02Z</time>
      </trkpt>
      <trkpt lat="44.40017" lon="0.8342">
        <ele>73</ele>
        <time>2023-03-03T22:13:05Z</time>
      </trkpt>
      <trkpt lat="44.40136" lon="0.83815">
        <ele>72</ele>
        <time>2023-03-03T22:13:59Z</time>
      </trkpt>
      <trkpt lat="44.40144" lon="0.83849">
        <ele>72</ele>
        <time>2023-03-03T22:14:04Z</time>
      </trkpt>
      <trkpt lat="44.40178" lon="0.84032">
        <ele>75</ele>
        <time>2023-03-03T22:14:28Z</time>
      </trkpt>
      <trkpt lat="44.40216" lon="0.84177">
        <ele>76</ele>
        <time>2023-03-03T22:14:48Z</time>
      </trkpt>
      <trkpt lat="44.40241" lon="0.84236">
        <ele>75</ele>
        <time>2023-03-03T22:14:56Z</time>
      </trkpt>
      <trkpt lat="44.40286" lon="0.8433">
        <ele>74</ele>
        <time>2023-03-03T22:15:11Z</time>
      </trkpt>
      <trkpt lat="44.40294" lon="0.84354">
        <ele>74</ele>
        <time>2023-03-03T22:15:14Z</time>
      </trkpt>
      <trkpt lat="44.40322" lon="0.84442">
        <ele>75</ele>
        <time>2023-03-03T22:15:26Z</time>
      </trkpt>
      <trkpt lat="44.40385" lon="0.84649">
        <ele>74</ele>
        <time>2023-03-03T22:15:55Z</time>
      </trkpt>
      <trkpt lat="44.40504" lon="0.85181">
        <ele>79</ele>
        <time>2023-03-03T22:17:06Z</time>
      </trkpt>
      <trkpt lat="44.40516" lon="0.85217">
        <ele>80</ele>
        <time>2023-03-03T22:17:11Z</time>
      </trkpt>
      <trkpt lat="44.40539" lon="0.85267">
        <ele>81</ele>
        <time>2023-03-03T22:17:18Z</time>
      </trkpt>
      <trkpt lat="44.40555" lon="0.85293">
        <ele>82</ele>
        <time>2023-03-03T22:17:23Z</time>
      </trkpt>
      <trkpt lat="44.40743" lon="0.85537">
        <ele>90</ele>
        <time>2023-03-03T22:18:08Z</time>
      </trkpt>
      <trkpt lat="44.4077" lon="0.85578">
        <ele>91</ele>
        <time>2023-03-03T22:18:16Z</time>
      </trkpt>
      <trkpt lat="44.40787" lon="0.85609">
        <ele>92</ele>
        <time>2023-03-03T22:18:20Z</time>
      </trkpt>
      <trkpt lat="44.40807" lon="0.8566">
        <ele>95</ele>
        <time>2023-03-03T22:18:28Z</time>
      </trkpt>
      <trkpt lat="44.40814" lon="0.85702">
        <ele>96</ele>
        <time>2023-03-03T22:18:33Z</time>
      </trkpt>
      <trkpt lat="44.40819" lon="0.8577">
        <ele>96</ele>
        <time>2023-03-03T22:18:42Z</time>
      </trkpt>
      <trkpt lat="44.40824" lon="0.85798">
        <ele>97</ele>
        <time>2023-03-03T22:18:46Z</time>
      </trkpt>
      <trkpt lat="44.40831" lon="0.85823">
        <ele>98</ele>
        <time>2023-03-03T22:18:49Z</time>
      </trkpt>
      <trkpt lat="44.40842" lon="0.85844">
        <ele>99</ele>
        <time>2023-03-03T22:18:52Z</time>
      </trkpt>
      <trkpt lat="44.4086" lon="0.85865">
        <ele>100</ele>
        <time>2023-03-03T22:18:57Z</time>
      </trkpt>
      <trkpt lat="44.40881" lon="0.85885">
        <ele>101</ele>
        <time>2023-03-03T22:19:01Z</time>
      </trkpt>
      <trkpt lat="44.40909" lon="0.85902">
        <ele>102</ele>
        <time>2023-03-03T22:19:07Z</time>
      </trkpt>
      <trkpt lat="44.40967" lon="0.85932">
        <ele>104</ele>
        <time>2023-03-03T22:19:18Z</time>
      </trkpt>
      <trkpt lat="44.40981" lon="0.85942">
        <ele>104</ele>
        <time>2023-03-03T22:19:20Z</time>
      </trkpt>
      <trkpt lat="44.40994" lon="0.85956">
        <ele>104</ele>
        <time>2023-03-03T22:19:23Z</time>
      </trkpt>
      <trkpt lat="44.41005" lon="0.85976">
        <ele>104</ele>
        <time>2023-03-03T22:19:26Z</time>
      </trkpt>
      <trkpt lat="44.41175" lon="0.86478">
        <ele>105</ele>
        <time>2023-03-03T22:20:37Z</time>
      </trkpt>
      <trkpt lat="44.41187" lon="0.86519">
        <ele>106</ele>
        <time>2023-03-03T22:20:43Z</time>
      </trkpt>
      <trkpt lat="44.41193" lon="0.8656">
        <ele>107</ele>
        <time>2023-03-03T22:20:48Z</time>
      </trkpt>
      <trkpt lat="44.41197" lon="0.866">
        <ele>107</ele>
        <time>2023-03-03T22:20:53Z</time>
      </trkpt>
      <trkpt lat="44.41197" lon="0.86634">
        <ele>107</ele>
        <time>2023-03-03T22:20:58Z</time>
      </trkpt>
      <trkpt lat="44.41193" lon="0.86679">
        <ele>107</ele>
        <time>2023-03-03T22:21:03Z</time>
      </trkpt>
      <trkpt lat="44.41184" lon="0.86726">
        <ele>106</ele>
        <time>2023-03-03T22:21:09Z</time>
      </trkpt>
      <trkpt lat="44.41178" lon="0.86749">
        <ele>106</ele>
        <time>2023-03-03T22:21:13Z</time>
      </trkpt>
      <trkpt lat="44.41166" lon="0.86782">
        <ele>106</ele>
        <time>2023-03-03T22:21:17Z</time>
      </trkpt>
      <trkpt lat="44.41149" lon="0.86813">
        <ele>105</ele>
        <time>2023-03-03T22:21:22Z</time>
      </trkpt>
      <trkpt lat="44.41125" lon="0.86849">
        <ele>104</ele>
        <time>2023-03-03T22:21:28Z</time>
      </trkpt>
      <trkpt lat="44.41042" lon="0.86956">
        <ele>100</ele>
        <time>2023-03-03T22:21:49Z</time>
      </trkpt>
      <trkpt lat="44.41028" lon="0.86984">
        <ele>98</ele>
        <time>2023-03-03T22:21:53Z</time>
      </trkpt>
      <trkpt lat="44.41019" lon="0.87007">
        <ele>96</ele>
        <time>2023-03-03T22:21:56Z</time>
      </trkpt>
      <trkpt lat="44.41013" lon="0.87037">
        <ele>94</ele>
        <time>2023-03-03T22:22:00Z</time>
      </trkpt>
      <trkpt lat="44.41008" lon="0.8707">
        <ele>93</ele>
        <time>2023-03-03T22:22:04Z</time>
      </trkpt>
      <trkpt lat="44.41007" lon="0.871">
        <ele>92</ele>
        <time>2023-03-03T22:22:08Z</time>
      </trkpt>
      <trkpt lat="44.41011" lon="0.87147">
        <ele>90</ele>
        <time>2023-03-03T22:22:14Z</time>
      </trkpt>
      <trkpt lat="44.41024" lon="0.87213">
        <ele>92</ele>
        <time>2023-03-03T22:22:23Z</time>
      </trkpt>
      <trkpt lat="44.41026" lon="0.87227">
        <ele>92</ele>
        <time>2023-03-03T22:22:25Z</time>
      </trkpt>
      <trkpt lat="44.41129" lon="0.87756">
        <ele>106</ele>
        <time>2023-03-03T22:23:35Z</time>
      </trkpt>
      <trkpt lat="44.41132" lon="0.8778">
        <ele>106</ele>
        <time>2023-03-03T22:23:38Z</time>
      </trkpt>
      <trkpt lat="44.41132" lon="0.87834">
        <ele>104</ele>
        <time>2023-03-03T22:23:44Z</time>
      </trkpt>
      <trkpt lat="44.4112" lon="0.88006">
        <ele>97</ele>
        <time>2023-03-03T22:24:06Z</time>
      </trkpt>
      <trkpt lat="44.4112" lon="0.88071">
        <ele>97</ele>
        <time>2023-03-03T22:24:15Z</time>
      </trkpt>
      <trkpt lat="44.41127" lon="0.88147">
        <ele>97</ele>
        <time>2023-03-03T22:24:24Z</time>
      </trkpt>
      <trkpt lat="44.41135" lon="0.88209">
        <ele>95</ele>
        <time>2023-03-03T22:24:32Z</time>
      </trkpt>
      <trkpt lat="44.41146" lon="0.8825">
        <ele>93</ele>
        <time>2023-03-03T22:24:38Z</time>
      </trkpt>
      <trkpt lat="44.41163" lon="0.88298">
        <ele>92</ele>
        <time>2023-03-03T22:24:45Z</time>
      </trkpt>
      <trkpt lat="44.41303" lon="0.88609">
        <ele>97</ele>
        <time>2023-03-03T22:25:32Z</time>
      </trkpt>
      <trkpt lat="44.41503" lon="0.89043">
        <ele>111</ele>
        <time>2023-03-03T22:26:37Z</time>
      </trkpt>
      <trkpt lat="44.41988" lon="0.89889">
        <ele>120</ele>
        <time>2023-03-03T22:28:55Z</time>
      </trkpt>
      <trkpt lat="44.42013" lon="0.89929">
        <ele>121</ele>
        <time>2023-03-03T22:29:02Z</time>
      </trkpt>
      <trkpt lat="44.42027" lon="0.89949">
        <ele>121</ele>
        <time>2023-03-03T22:29:05Z</time>
      </trkpt>
      <trkpt lat="44.42042" lon="0.89964">
        <ele>121</ele>
        <time>2023-03-03T22:29:09Z</time>
      </trkpt>
      <trkpt lat="44.42059" lon="0.89978">
        <ele>120</ele>
        <time>2023-03-03T22:29:12Z</time>
      </trkpt>
      <trkpt lat="44.42079" lon="0.89989">
        <ele>120</ele>
        <time>2023-03-03T22:29:16Z</time>
      </trkpt>
      <trkpt lat="44.42109" lon="0.89997">
        <ele>119</ele>
        <time>2023-03-03T22:29:21Z</time>
      </trkpt>
      <trkpt lat="44.42583" lon="0.90022">
        <ele>109</ele>
        <time>2023-03-03T22:30:46Z</time>
      </trkpt>
      <trkpt lat="44.42619" lon="0.90029">
        <ele>109</ele>
        <time>2023-03-03T22:30:52Z</time>
      </trkpt>
      <trkpt lat="44.42634" lon="0.90036">
        <ele>108</ele>
        <time>2023-03-03T22:30:55Z</time>
      </trkpt>
      <trkpt lat="44.4265" lon="0.90048">
        <ele>108</ele>
        <time>2023-03-03T22:30:58Z</time>
      </trkpt>
      <trkpt lat="44.42661" lon="0.9006">
        <ele>108</ele>
        <time>2023-03-03T22:31:01Z</time>
      </trkpt>
      <trkpt lat="44.42679" lon="0.90091">
        <ele>108</ele>
        <time>2023-03-03T22:31:06Z</time>
      </trkpt>
      <trkpt lat="44.42711" lon="0.90149">
        <ele>106</ele>
        <time>2023-03-03T22:31:15Z</time>
      </trkpt>
      <trkpt lat="44.42804" lon="0.90244">
        <ele>105</ele>
        <time>2023-03-03T22:31:36Z</time>
      </trkpt>
      <trkpt lat="44.42842" lon="0.90285">
        <ele>105</ele>
        <time>2023-03-03T22:31:44Z</time>
      </trkpt>
      <trkpt lat="44.4285" lon="0.90297">
        <ele>105</ele>
        <time>2023-03-03T22:31:46Z</time>
      </trkpt>
      <trkpt lat="44.42856" lon="0.90313">
        <ele>105</ele>
        <time>2023-03-03T22:31:49Z</time>
      </trkpt>
      <trkpt lat="44.42861" lon="0.90343">
        <ele>105</ele>
        <time>2023-03-03T22:31:53Z</time>
      </trkpt>
      <trkpt lat="44.42864" lon="0.90446">
        <ele>101</ele>
        <time>2023-03-03T22:32:06Z</time>
      </trkpt>
      <trkpt lat="44.4287" lon="0.90539">
        <ele>94</ele>
        <time>2023-03-03T22:32:17Z</time>
      </trkpt>
      <trkpt lat="44.42873" lon="0.90562">
        <ele>92</ele>
        <time>2023-03-03T22:32:20Z</time>
      </trkpt>
      <trkpt lat="44.42878" lon="0.90577">
        <ele>90</ele>
        <time>2023-03-03T22:32:23Z</time>
      </trkpt>
      <trkpt lat="44.4289" lon="0.90587">
        <ele>89</ele>
        <time>2023-03-03T22:32:25Z</time>
      </trkpt>
      <trkpt lat="44.42902" lon="0.90591">
        <ele>89</ele>
        <time>2023-03-03T22:32:27Z</time>
      </trkpt>
      <trkpt lat="44.42978" lon="0.90573">
        <ele>90</ele>
        <time>2023-03-03T22:32:41Z</time>
      </trkpt>
      <trkpt lat="44.43096" lon="0.90556">
        <ele>86</ele>
        <time>2023-03-03T22:33:02Z</time>
      </trkpt>
      <trkpt lat="44.4312" lon="0.90559">
        <ele>84</ele>
        <time>2023-03-03T22:33:06Z</time>
      </trkpt>
      <trkpt lat="44.43126" lon="0.90565">
        <ele>83</ele>
        <time>2023-03-03T22:33:08Z</time>
      </trkpt>
      <trkpt lat="44.4313" lon="0.90575">
        <ele>81</ele>
        <time>2023-03-03T22:33:09Z</time>
      </trkpt>
      <trkpt lat="44.43132" lon="0.90611">
        <ele>81</ele>
        <time>2023-03-03T22:33:14Z</time>
      </trkpt>
      <trkpt lat="44.43134" lon="0.90621">
        <ele>81</ele>
        <time>2023-03-03T22:33:15Z</time>
      </trkpt>
      <trkpt lat="44.43139" lon="0.9063">
        <ele>82</ele>
        <time>2023-03-03T22:33:16Z</time>
      </trkpt>
      <trkpt lat="44.43149" lon="0.90636">
        <ele>82</ele>
        <time>2023-03-03T22:33:18Z</time>
      </trkpt>
      <trkpt lat="44.43162" lon="0.90635">
        <ele>81</ele>
        <time>2023-03-03T22:33:21Z</time>
      </trkpt>
      <trkpt lat="44.43309" lon="0.90589">
        <ele>84</ele>
        <time>2023-03-03T22:33:48Z</time>
      </trkpt>
      <trkpt lat="44.43359" lon="0.90588">
        <ele>84</ele>
        <time>2023-03-03T22:33:56Z</time>
      </trkpt>
      <trkpt lat="44.43541" lon="0.90597">
        <ele>85</ele>
        <time>2023-03-03T22:34:29Z</time>
      </trkpt>
      <trkpt lat="44.43562" lon="0.9059">
        <ele>86</ele>
        <time>2023-03-03T22:34:33Z</time>
      </trkpt>
      <trkpt lat="44.43576" lon="0.90576">
        <ele>86</ele>
        <time>2023-03-03T22:34:36Z</time>
      </trkpt>
      <trkpt lat="44.43587" lon="0.9056">
        <ele>87</ele>
        <time>2023-03-03T22:34:39Z</time>
      </trkpt>
      <trkpt lat="44.43596" lon="0.90524">
        <ele>87</ele>
        <time>2023-03-03T22:34:43Z</time>
      </trkpt>
      <trkpt lat="44.43603" lon="0.90481">
        <ele>86</ele>
        <time>2023-03-03T22:34:49Z</time>
      </trkpt>
      <trkpt lat="44.43607" lon="0.90465">
        <ele>84</ele>
        <time>2023-03-03T22:34:51Z</time>
      </trkpt>
      <trkpt lat="44.43614" lon="0.90451">
        <ele>84</ele>
        <time>2023-03-03T22:34:53Z</time>
      </trkpt>
      <trkpt lat="44.43623" lon="0.90443">
        <ele>84</ele>
        <time>2023-03-03T22:34:55Z</time>
      </trkpt>
      <trkpt lat="44.43633" lon="0.90437">
        <ele>84</ele>
        <time>2023-03-03T22:34:57Z</time>
      </trkpt>
      <trkpt lat="44.43651" lon="0.90432">
        <ele>85</ele>
        <time>2023-03-03T22:35:00Z</time>
      </trkpt>
      <trkpt lat="44.4372" lon="0.90447">
        <ele>87</ele>
        <time>2023-03-03T22:35:13Z</time>
      </trkpt>
      <trkpt lat="44.43938" lon="0.90528">
        <ele>84</ele>
        <time>2023-03-03T22:35:53Z</time>
      </trkpt>
      <trkpt lat="44.44036" lon="0.90561">
        <ele>82</ele>
        <time>2023-03-03T22:36:11Z</time>
      </trkpt>
      <trkpt lat="44.44071" lon="0.90578">
        <ele>81</ele>
        <time>2023-03-03T22:36:18Z</time>
      </trkpt>
      <trkpt lat="44.44097" lon="0.90597">
        <ele>82</ele>
        <time>2023-03-03T22:36:23Z</time>
      </trkpt>
      <trkpt lat="44.44187" lon="0.90671">
        <ele>81</ele>
        <time>2023-03-03T22:36:41Z</time>
      </trkpt>
      <trkpt lat="44.44267" lon="0.90741">
        <ele>78</ele>
        <time>2023-03-03T22:36:58Z</time>
      </trkpt>
      <trkpt lat="44.44432" lon="0.90875">
        <ele>80</ele>
        <time>2023-03-03T22:37:32Z</time>
      </trkpt>
      <trkpt lat="44.44608" lon="0.91027">
        <ele>79</ele>
        <time>2023-03-03T22:38:09Z</time>
      </trkpt>
      <trkpt lat="44.44626" lon="0.91048">
        <ele>80</ele>
        <time>2023-03-03T22:38:13Z</time>
      </trkpt>
      <trkpt lat="44.44649" lon="0.91083">
        <ele>80</ele>
        <time>2023-03-03T22:38:19Z</time>
      </trkpt>
      <trkpt lat="44.44712" lon="0.91194">
        <ele>79</ele>
        <time>2023-03-03T22:38:37Z</time>
      </trkpt>
      <trkpt lat="44.44732" lon="0.91237">
        <ele>80</ele>
        <time>2023-03-03T22:38:44Z</time>
      </trkpt>
      <trkpt lat="44.44747" lon="0.91284">
        <ele>81</ele>
        <time>2023-03-03T22:38:50Z</time>
      </trkpt>
      <trkpt lat="44.44845" lon="0.91727">
        <ele>83</ele>
        <time>2023-03-03T22:39:49Z</time>
      </trkpt>
      <trkpt lat="44.4485" lon="0.91773">
        <ele>85</ele>
        <time>2023-03-03T22:39:55Z</time>
      </trkpt>
      <trkpt lat="44.44864" lon="0.92031">
        <ele>86</ele>
        <time>2023-03-03T22:40:28Z</time>
      </trkpt>
      <trkpt lat="44.44868" lon="0.92063">
        <ele>85</ele>
        <time>2023-03-03T22:40:32Z</time>
      </trkpt>
      <trkpt lat="44.44875" lon="0.92103">
        <ele>83</ele>
        <time>2023-03-03T22:40:37Z</time>
      </trkpt>
      <trkpt lat="44.44888" lon="0.92154">
        <ele>80</ele>
        <time>2023-03-03T22:40:44Z</time>
      </trkpt>
      <trkpt lat="44.449" lon="0.92187">
        <ele>79</ele>
        <time>2023-03-03T22:40:49Z</time>
      </trkpt>
      <trkpt lat="44.44913" lon="0.92209">
        <ele>77</ele>
        <time>2023-03-03T22:40:52Z</time>
      </trkpt>
      <trkpt lat="44.44927" lon="0.92229">
        <ele>76</ele>
        <time>2023-03-03T22:40:56Z</time>
      </trkpt>
      <trkpt lat="44.44959" lon="0.92266">
        <ele>76</ele>
        <time>2023-03-03T22:41:03Z</time>
      </trkpt>
      <trkpt lat="44.44966" lon="0.92274">
        <ele>77</ele>
        <time>2023-03-03T22:41:05Z</time>
      </trkpt>
      <trkpt lat="44.44984" lon="0.92295">
        <ele>77</ele>
        <time>2023-03-03T22:41:09Z</time>
      </trkpt>
      <trkpt lat="44.44991" lon="0.923">
        <ele>78</ele>
        <time>2023-03-03T22:41:10Z</time>
      </trkpt>
      <trkpt lat="44.45004" lon="0.92305">
        <ele>78</ele>
        <time>2023-03-03T22:41:13Z</time>
      </trkpt>
      <trkpt lat="44.45068" lon="0.92305">
        <ele>78</ele>
        <time>2023-03-03T22:41:24Z</time>
      </trkpt>
      <trkpt lat="44.45084" lon="0.92307">
        <ele>78</ele>
        <time>2023-03-03T22:41:27Z</time>
      </trkpt>
      <trkpt lat="44.45103" lon="0.92314">
        <ele>78</ele>
        <time>2023-03-03T22:41:31Z</time>
      </trkpt>
      <trkpt lat="44.45256" lon="0.92398">
        <ele>76</ele>
        <time>2023-03-03T22:42:00Z</time>
      </trkpt>
      <trkpt lat="44.45329" lon="0.9245">
        <ele>75</ele>
        <time>2023-03-03T22:42:14Z</time>
      </trkpt>
      <trkpt lat="44.45394" lon="0.92502">
        <ele>77</ele>
        <time>2023-03-03T22:42:28Z</time>
      </trkpt>
      <trkpt lat="44.45429" lon="0.92526">
        <ele>77</ele>
        <time>2023-03-03T22:42:35Z</time>
      </trkpt>
      <trkpt lat="44.45538" lon="0.92591">
        <ele>77</ele>
        <time>2023-03-03T22:42:56Z</time>
      </trkpt>
      <trkpt lat="44.45641" lon="0.92637">
        <ele>76</ele>
        <time>2023-03-03T22:43:15Z</time>
      </trkpt>
      <trkpt lat="44.45662" lon="0.92649">
        <ele>75</ele>
        <time>2023-03-03T22:43:19Z</time>
      </trkpt>
      <trkpt lat="44.45729" lon="0.92709">
        <ele>76</ele>
        <time>2023-03-03T22:43:33Z</time>
      </trkpt>
      <trkpt lat="44.45788" lon="0.92753">
        <ele>76</ele>
        <time>2023-03-03T22:43:45Z</time>
      </trkpt>
      <trkpt lat="44.45836" lon="0.92785">
        <ele>76</ele>
        <time>2023-03-03T22:43:54Z</time>
      </trkpt>
      <trkpt lat="44.4586" lon="0.92806">
        <ele>77</ele>
        <time>2023-03-03T22:44:00Z</time>
      </trkpt>
      <trkpt lat="44.45947" lon="0.92893">
        <ele>77</ele>
        <time>2023-03-03T22:44:19Z</time>
      </trkpt>
      <trkpt lat="44.46037" lon="0.92976">
        <ele>77</ele>
        <time>2023-03-03T22:44:38Z</time>
      </trkpt>
      <trkpt lat="44.46172" lon="0.93078">
        <ele>77</ele>
        <time>2023-03-03T22:45:05Z</time>
      </trkpt>
      <trkpt lat="44.46246" lon="0.9316">
        <ele>78</ele>
        <time>2023-03-03T22:45:22Z</time>
      </trkpt>
      <trkpt lat="44.46321" lon="0.93258">
        <ele>77</ele>
        <time>2023-03-03T22:45:40Z</time>
      </trkpt>
      <trkpt lat="44.46333" lon="0.93277">
        <ele>77</ele>
        <time>2023-03-03T22:45:43Z</time>
      </trkpt>
      <trkpt lat="44.46351" lon="0.93336">
        <ele>78</ele>
        <time>2023-03-03T22:45:51Z</time>
      </trkpt>
      <trkpt lat="44.46362" lon="0.9336">
        <ele>77</ele>
        <time>2023-03-03T22:45:55Z</time>
      </trkpt>
      <trkpt lat="44.46373" lon="0.9338">
        <ele>77</ele>
        <time>2023-03-03T22:45:58Z</time>
      </trkpt>
      <trkpt lat="44.46399" lon="0.93419">
        <ele>76</ele>
        <time>2023-03-03T22:46:05Z</time>
      </trkpt>
      <trkpt lat="44.46408" lon="0.9343">
        <ele>76</ele>
        <time>2023-03-03T22:46:07Z</time>
      </trkpt>
      <trkpt lat="44.46423" lon="0.9344">
        <ele>76</ele>
        <time>2023-03-03T22:46:10Z</time>
      </trkpt>
      <trkpt lat="44.4647" lon="0.93451">
        <ele>76</ele>
        <time>2023-03-03T22:46:19Z</time>
      </trkpt>
      <trkpt lat="44.46489" lon="0.93458">
        <ele>77</ele>
        <time>2023-03-03T22:46:22Z</time>
      </trkpt>
      <trkpt lat="44.46549" lon="0.93494">
        <ele>78</ele>
        <time>2023-03-03T22:46:34Z</time>
      </trkpt>
      <trkpt lat="44.46576" lon="0.93506">
        <ele>79</ele>
        <time>2023-03-03T22:46:39Z</time>
      </trkpt>
      <trkpt lat="44.46682" lon="0.93543">
        <ele>76</ele>
        <time>2023-03-03T22:46:58Z</time>
      </trkpt>
      <trkpt lat="44.46766" lon="0.9359">
        <ele>78</ele>
        <time>2023-03-03T22:47:14Z</time>
      </trkpt>
      <trkpt lat="44.46812" lon="0.9361">
        <ele>77</ele>
        <time>2023-03-03T22:47:23Z</time>
      </trkpt>
      <trkpt lat="44.46887" lon="0.93637">
        <ele>77</ele>
        <time>2023-03-03T22:47:37Z</time>
      </trkpt>
      <trkpt lat="44.4698" lon="0.93676">
        <ele>78</ele>
        <time>2023-03-03T22:47:54Z</time>
      </trkpt>
      <trkpt lat="44.47192" lon="0.93789">
        <ele>76</ele>
        <time>2023-03-03T22:48:34Z</time>
      </trkpt>
      <trkpt lat="44.47186" lon="0.93802">
        <ele>76</ele>
        <time>2023-03-03T22:48:36Z</time>
      </trkpt>
      <trkpt lat="44.47176" lon="0.938">
        <ele>76</ele>
        <time>2023-03-03T22:48:38Z</time>
      </trkpt>
      <trkpt lat="44.47186" lon="0.93802">
        <ele>76</ele>
        <time>2023-03-03T22:48:40Z</time>
      </trkpt>
      <trkpt lat="44.47192" lon="0.93789">
        <ele>76</ele>
        <time>2023-03-03T22:48:42Z</time>
      </trkpt>
      <trkpt lat="44.47212" lon="0.93792">
        <ele>76</ele>
        <time>2023-03-03T22:48:45Z</time>
      </trkpt>
      <trkpt lat="44.47213" lon="0.93801">
        <ele>76</ele>
        <time>2023-03-03T22:48:46Z</time>
      </trkpt>
      <trkpt lat="44.47218" lon="0.93808">
        <ele>76</ele>
        <time>2023-03-03T22:48:48Z</time>
      </trkpt>
      <trkpt lat="44.47224" lon="0.93809">
        <ele>76</ele>
        <time>2023-03-03T22:48:49Z</time>
      </trkpt>
      <trkpt lat="44.47231" lon="0.93803">
        <ele>76</ele>
        <time>2023-03-03T22:48:50Z</time>
      </trkpt>
      <trkpt lat="44.47252" lon="0.93835">
        <ele>75</ele>
        <time>2023-03-03T22:48:56Z</time>
      </trkpt>
      <trkpt lat="44.47282" lon="0.93898">
        <ele>75</ele>
        <time>2023-03-03T22:49:05Z</time>
      </trkpt>
      <trkpt lat="44.47338" lon="0.94005">
        <ele>74</ele>
        <time>2023-03-03T22:49:22Z</time>
      </trkpt>
      <trkpt lat="44.47374" lon="0.94066">
        <ele>70</ele>
        <time>2023-03-03T22:49:32Z</time>
      </trkpt>
      <trkpt lat="44.47386" lon="0.94091">
        <ele>70</ele>
        <time>2023-03-03T22:49:36Z</time>
      </trkpt>
      <trkpt lat="44.47396" lon="0.94104">
        <ele>69</ele>
        <time>2023-03-03T22:49:39Z</time>
      </trkpt>
      <trkpt lat="44.47402" lon="0.94116">
        <ele>69</ele>
        <time>2023-03-03T22:49:40Z</time>
      </trkpt>
      <trkpt lat="44.47446" lon="0.94193">
        <ele>70</ele>
        <time>2023-03-03T22:49:53Z</time>
      </trkpt>
      <trkpt lat="44.47468" lon="0.94236">
        <ele>70</ele>
        <time>2023-03-03T22:50:00Z</time>
      </trkpt>
      <trkpt lat="44.47511" lon="0.94338">
        <ele>69</ele>
        <time>2023-03-03T22:50:15Z</time>
      </trkpt>
      <trkpt lat="44.47536" lon="0.94394">
        <ele>69</ele>
        <time>2023-03-03T22:50:23Z</time>
      </trkpt>
      <trkpt lat="44.4761" lon="0.94528">
        <ele>69</ele>
        <time>2023-03-03T22:50:45Z</time>
      </trkpt>
      <trkpt lat="44.47655" lon="0.94601">
        <ele>69</ele>
        <time>2023-03-03T22:50:57Z</time>
      </trkpt>
      <trkpt lat="44.47769" lon="0.94752">
        <ele>72</ele>
        <time>2023-03-03T22:51:25Z</time>
      </trkpt>
      <trkpt lat="44.47893" lon="0.94877">
        <ele>72</ele>
        <time>2023-03-03T22:51:52Z</time>
      </trkpt>
      <trkpt lat="44.47889" lon="0.9488">
        <ele>72</ele>
        <time>2023-03-03T22:51:53Z</time>
      </trkpt>
      <trkpt lat="44.47897" lon="0.94894">
        <ele>72</ele>
        <time>2023-03-03T22:51:55Z</time>
      </trkpt>
      <trkpt lat="44.47906" lon="0.94903">
        <ele>72</ele>
        <time>2023-03-03T22:51:57Z</time>
      </trkpt>
      <trkpt lat="44.48157" lon="0.95365">
        <ele>79</ele>
        <time>2023-03-03T22:53:11Z</time>
      </trkpt>
      <trkpt lat="44.48203" lon="0.95456">
        <ele>79</ele>
        <time>2023-03-03T22:53:25Z</time>
      </trkpt>
      <trkpt lat="44.48278" lon="0.9562">
        <ele>80</ele>
        <time>2023-03-03T22:53:50Z</time>
      </trkpt>
      <trkpt lat="44.48298" lon="0.95667">
        <ele>80</ele>
        <time>2023-03-03T22:53:57Z</time>
      </trkpt>
      <trkpt lat="44.48375" lon="0.95813">
        <ele>80</ele>
        <time>2023-03-03T22:54:20Z</time>
      </trkpt>
      <trkpt lat="44.48389" lon="0.95843">
        <ele>80</ele>
        <time>2023-03-03T22:54:24Z</time>
      </trkpt>
      <trkpt lat="44.48402" lon="0.95874">
        <ele>80</ele>
        <time>2023-03-03T22:54:29Z</time>
      </trkpt>
      <trkpt lat="44.48443" lon="0.96">
        <ele>80</ele>
        <time>2023-03-03T22:54:46Z</time>
      </trkpt>
      <trkpt lat="44.48467" lon="0.96088">
        <ele>81</ele>
        <time>2023-03-03T22:54:58Z</time>
      </trkpt>
      <trkpt lat="44.48515" lon="0.9621">
        <ele>79</ele>
        <time>2023-03-03T22:55:16Z</time>
      </trkpt>
      <trkpt lat="44.48596" lon="0.9635">
        <ele>77</ele>
        <time>2023-03-03T22:55:39Z</time>
      </trkpt>
      <trkpt lat="44.48665" lon="0.96487">
        <ele>79</ele>
        <time>2023-03-03T22:56:00Z</time>
      </trkpt>
      <trkpt lat="44.48684" lon="0.96531">
        <ele>80</ele>
        <time>2023-03-03T22:56:07Z</time>
      </trkpt>
      <trkpt lat="44.48752" lon="0.96765">
        <ele>77</ele>
        <time>2023-03-03T22:56:39Z</time>
      </trkpt>
      <trkpt lat="44.48766" lon="0.96809">
        <ele>78</ele>
        <time>2023-03-03T22:56:45Z</time>
      </trkpt>
      <trkpt lat="44.48799" lon="0.96885">
        <ele>78</ele>
        <time>2023-03-03T22:56:56Z</time>
      </trkpt>
      <trkpt lat="44.48832" lon="0.96946">
        <ele>79</ele>
        <time>2023-03-03T22:57:06Z</time>
      </trkpt>
      <trkpt lat="44.48834" lon="0.96955">
        <ele>79</ele>
        <time>2023-03-03T22:57:07Z</time>
      </trkpt>
      <trkpt lat="44.48835" lon="0.96974">
        <ele>80</ele>
        <time>2023-03-03T22:57:09Z</time>
      </trkpt>
      <trkpt lat="44.48835" lon="0.96988">
        <ele>80</ele>
        <time>2023-03-03T22:57:11Z</time>
      </trkpt>
      <trkpt lat="44.48829" lon="0.97019">
        <ele>80</ele>
        <time>2023-03-03T22:57:15Z</time>
      </trkpt>
      <trkpt lat="44.48815" lon="0.97044">
        <ele>80</ele>
        <time>2023-03-03T22:57:19Z</time>
      </trkpt>
      <trkpt lat="44.48715" lon="0.97239">
        <ele>81</ele>
        <time>2023-03-03T22:57:50Z</time>
      </trkpt>
      <trkpt lat="44.48609" lon="0.97459">
        <ele>82</ele>
        <time>2023-03-03T22:58:24Z</time>
      </trkpt>
      <trkpt lat="44.48584" lon="0.97504">
        <ele>82</ele>
        <time>2023-03-03T22:58:31Z</time>
      </trkpt>
      <trkpt lat="44.4855" lon="0.97551">
        <ele>83</ele>
        <time>2023-03-03T22:58:39Z</time>
      </trkpt>
      <trkpt lat="44.48544" lon="0.97552">
        <ele>83</ele>
        <time>2023-03-03T22:58:40Z</time>
      </trkpt>
      <trkpt lat="44.48538" lon="0.97555">
        <ele>83</ele>
        <time>2023-03-03T22:58:41Z</time>
      </trkpt>
      <trkpt lat="44.4853" lon="0.97566">
        <ele>83</ele>
        <time>2023-03-03T22:58:43Z</time>
      </trkpt>
      <trkpt lat="44.48527" lon="0.97583">
        <ele>83</ele>
        <time>2023-03-03T22:58:46Z</time>
      </trkpt>
      <trkpt lat="44.48528" lon="0.97593">
        <ele>83</ele>
        <time>2023-03-03T22:58:47Z</time>
      </trkpt>
      <trkpt lat="44.48516" lon="0.97621">
        <ele>83</ele>
        <time>2023-03-03T22:58:51Z</time>
      </trkpt>
      <trkpt lat="44.48512" lon="0.97645">
        <ele>84</ele>
        <time>2023-03-03T22:58:54Z</time>
      </trkpt>
      <trkpt lat="44.48506" lon="0.97668">
        <ele>84</ele>
        <time>2023-03-03T22:58:57Z</time>
      </trkpt>
      <trkpt lat="44.48497" lon="0.97692">
        <ele>84</ele>
        <time>2023-03-03T22:59:01Z</time>
      </trkpt>
      <trkpt lat="44.48412" lon="0.97859">
        <ele>85</ele>
        <time>2023-03-03T22:59:27Z</time>
      </trkpt>
      <trkpt lat="44.48401" lon="0.97872">
        <ele>85</ele>
        <time>2023-03-03T22:59:29Z</time>
      </trkpt>
      <trkpt lat="44.48391" lon="0.97881">
        <ele>85</ele>
        <time>2023-03-03T22:59:32Z</time>
      </trkpt>
      <trkpt lat="44.48383" lon="0.97879">
        <ele>85</ele>
        <time>2023-03-03T22:59:33Z</time>
      </trkpt>
      <trkpt lat="44.48379" lon="0.9788">
        <ele>85</ele>
        <time>2023-03-03T22:59:34Z</time>
      </trkpt>
      <trkpt lat="44.48373" lon="0.97887">
        <ele>85</ele>
        <time>2023-03-03T22:59:35Z</time>
      </trkpt>
      <trkpt lat="44.48371" lon="0.97891">
        <ele>85</ele>
        <time>2023-03-03T22:59:36Z</time>
      </trkpt>
      <trkpt lat="44.4837" lon="0.97902">
        <ele>85</ele>
        <time>2023-03-03T22:59:37Z</time>
      </trkpt>
      <trkpt lat="44.48373" lon="0.97911">
        <ele>85</ele>
        <time>2023-03-03T22:59:38Z</time>
      </trkpt>
      <trkpt lat="44.48376" lon="0.97915">
        <ele>85</ele>
        <time>2023-03-03T22:59:39Z</time>
      </trkpt>
      <trkpt lat="44.48374" lon="0.97931">
        <ele>85</ele>
        <time>2023-03-03T22:59:41Z</time>
      </trkpt>
      <trkpt lat="44.4836" lon="0.97965">
        <ele>85</ele>
        <time>2023-03-03T22:59:46Z</time>
      </trkpt>
      <trkpt lat="44.48112" lon="0.98471">
        <ele>96</ele>
        <time>2023-03-03T23:01:04Z</time>
      </trkpt>
      <trkpt lat="44.48074" lon="0.98551">
        <ele>99</ele>
        <time>2023-03-03T23:01:16Z</time>
      </trkpt>
      <trkpt lat="44.48067" lon="0.98561">
        <ele>99</ele>
        <time>2023-03-03T23:01:18Z</time>
      </trkpt>
      <trkpt lat="44.48035" lon="0.98621">
        <ele>101</ele>
        <time>2023-03-03T23:01:28Z</time>
      </trkpt>
      <trkpt lat="44.48021" lon="0.98637">
        <ele>101</ele>
        <time>2023-03-03T23:01:31Z</time>
      </trkpt>
      <trkpt lat="44.48015" lon="0.98634">
        <ele>101</ele>
        <time>2023-03-03T23:01:32Z</time>
      </trkpt>
      <trkpt lat="44.48009" lon="0.98637">
        <ele>101</ele>
        <time>2023-03-03T23:01:33Z</time>
      </trkpt>
      <trkpt lat="44.48007" lon="0.98641">
        <ele>101</ele>
        <time>2023-03-03T23:01:34Z</time>
      </trkpt>
      <trkpt lat="44.48005" lon="0.98649">
        <ele>102</ele>
        <time>2023-03-03T23:01:35Z</time>
      </trkpt>
      <trkpt lat="44.48007" lon="0.98657">
        <ele>102</ele>
        <time>2023-03-03T23:01:36Z</time>
      </trkpt>
      <trkpt lat="44.48012" lon="0.98662">
        <ele>102</ele>
        <time>2023-03-03T23:01:37Z</time>
      </trkpt>
      <trkpt lat="44.48009" lon="0.9869">
        <ele>102</ele>
        <time>2023-03-03T23:01:41Z</time>
      </trkpt>
      <trkpt lat="44.47713" lon="0.99443">
        <ele>108</ele>
        <time>2023-03-03T23:03:30Z</time>
      </trkpt>
      <trkpt lat="44.47213" lon="1.00716">
        <ele>129</ele>
        <time>2023-03-03T23:06:34Z</time>
      </trkpt>
      <trkpt lat="44.47188" lon="1.00774">
        <ele>130</ele>
        <time>2023-03-03T23:06:43Z</time>
      </trkpt>
      <trkpt lat="44.47168" lon="1.00811">
        <ele>131</ele>
        <time>2023-03-03T23:06:49Z</time>
      </trkpt>
      <trkpt lat="44.47145" lon="1.00849">
        <ele>133</ele>
        <time>2023-03-03T23:06:55Z</time>
      </trkpt>
      <trkpt lat="44.47068" lon="1.00964">
        <ele>133</ele>
        <time>2023-03-03T23:07:15Z</time>
      </trkpt>
      <trkpt lat="44.46981" lon="1.01093">
        <ele>136</ele>
        <time>2023-03-03T23:07:38Z</time>
      </trkpt>
      <trkpt lat="44.46962" lon="1.01132">
        <ele>137</ele>
        <time>2023-03-03T23:07:44Z</time>
      </trkpt>
      <trkpt lat="44.46956" lon="1.01151">
        <ele>138</ele>
        <time>2023-03-03T23:07:46Z</time>
      </trkpt>
      <trkpt lat="44.46986" lon="1.01191">
        <ele>134</ele>
        <time>2023-03-03T23:07:54Z</time>
      </trkpt>
      <trkpt lat="44.46996" lon="1.01209">
        <ele>133</ele>
        <time>2023-03-03T23:07:56Z</time>
      </trkpt>
      <trkpt lat="44.47007" lon="1.01215">
        <ele>132</ele>
        <time>2023-03-03T23:07:59Z</time>
      </trkpt>
      <trkpt lat="44.47022" lon="1.01217">
        <ele>131</ele>
        <time>2023-03-03T23:08:01Z</time>
      </trkpt>
      <trkpt lat="44.47089" lon="1.01202">
        <ele>126</ele>
        <time>2023-03-03T23:08:13Z</time>
      </trkpt>
      <trkpt lat="44.4709" lon="1.01222">
        <ele>126</ele>
        <time>2023-03-03T23:08:16Z</time>
      </trkpt>
      <trkpt lat="44.47089" lon="1.0127">
        <ele>125</ele>
        <time>2023-03-03T23:08:22Z</time>
      </trkpt>
      <trkpt lat="44.47084" lon="1.01337">
        <ele>122</ele>
        <time>2023-03-03T23:08:30Z</time>
      </trkpt>
      <trkpt lat="44.47091" lon="1.0146">
        <ele>113</ele>
        <time>2023-03-03T23:08:46Z</time>
      </trkpt>
      <trkpt lat="44.47098" lon="1.01504">
        <ele>113</ele>
        <time>2023-03-03T23:08:52Z</time>
      </trkpt>
      <trkpt lat="44.47097" lon="1.01646">
        <ele>118</ele>
        <time>2023-03-03T23:09:10Z</time>
      </trkpt>
      <trkpt lat="44.47087" lon="1.01787">
        <ele>123</ele>
        <time>2023-03-03T23:09:28Z</time>
      </trkpt>
      <trkpt lat="44.47074" lon="1.0187">
        <ele>125</ele>
        <time>2023-03-03T23:09:39Z</time>
      </trkpt>
      <trkpt lat="44.4707" lon="1.01926">
        <ele>128</ele>
        <time>2023-03-03T23:09:46Z</time>
      </trkpt>
      <trkpt lat="44.47081" lon="1.02041">
        <ele>128</ele>
        <time>2023-03-03T23:10:01Z</time>
      </trkpt>
      <trkpt lat="44.47095" lon="1.0213">
        <ele>132</ele>
        <time>2023-03-03T23:10:12Z</time>
      </trkpt>
      <trkpt lat="44.47116" lon="1.02222">
        <ele>137</ele>
        <time>2023-03-03T23:10:24Z</time>
      </trkpt>
      <trkpt lat="44.47155" lon="1.0237">
        <ele>142</ele>
        <time>2023-03-03T23:10:44Z</time>
      </trkpt>
      <trkpt lat="44.47169" lon="1.02456">
        <ele>145</ele>
        <time>2023-03-03T23:10:56Z</time>
      </trkpt>
      <trkpt lat="44.47171" lon="1.02485">
        <ele>147</ele>
        <time>2023-03-03T23:10:59Z</time>
      </trkpt>
      <trkpt lat="44.47171" lon="1.02496">
        <ele>147</ele>
        <time>2023-03-03T23:11:01Z</time>
      </trkpt>
      <trkpt lat="44.47166" lon="1.0252">
        <ele>149</ele>
        <time>2023-03-03T23:11:04Z</time>
      </trkpt>
      <trkpt lat="44.47147" lon="1.02571">
        <ele>152</ele>
        <time>2023-03-03T23:11:11Z</time>
      </trkpt>
      <trkpt lat="44.47134" lon="1.02639">
        <ele>153</ele>
        <time>2023-03-03T23:11:20Z</time>
      </trkpt>
      <trkpt lat="44.47129" lon="1.02712">
        <ele>153</ele>
        <time>2023-03-03T23:11:29Z</time>
      </trkpt>
      <trkpt lat="44.47132" lon="1.02737">
        <ele>152</ele>
        <time>2023-03-03T23:11:33Z</time>
      </trkpt>
      <trkpt lat="44.47156" lon="1.02803">
        <ele>150</ele>
        <time>2023-03-03T23:11:42Z</time>
      </trkpt>
      <trkpt lat="44.47164" lon="1.02838">
        <ele>150</ele>
        <time>2023-03-03T23:11:47Z</time>
      </trkpt>
      <trkpt lat="44.47169" lon="1.02928">
        <ele>155</ele>
        <time>2023-03-03T23:11:58Z</time>
      </trkpt>
      <trkpt lat="44.47178" lon="1.02995">
        <ele>156</ele>
        <time>2023-03-03T23:12:07Z</time>
      </trkpt>
      <trkpt lat="44.47166" lon="1.03069">
        <ele>160</ele>
        <time>2023-03-03T23:12:16Z</time>
      </trkpt>
      <trkpt lat="44.4716" lon="1.03086">
        <ele>161</ele>
        <time>2023-03-03T23:12:19Z</time>
      </trkpt>
      <trkpt lat="44.47177" lon="1.03223">
        <ele>165</ele>
        <time>2023-03-03T23:12:37Z</time>
      </trkpt>
      <trkpt lat="44.4717" lon="1.03248">
        <ele>167</ele>
        <time>2023-03-03T23:12:40Z</time>
      </trkpt>
      <trkpt lat="44.4714" lon="1.0331">
        <ele>172</ele>
        <time>2023-03-03T23:12:49Z</time>
      </trkpt>
      <trkpt lat="44.47134" lon="1.03337">
        <ele>174</ele>
        <time>2023-03-03T23:12:53Z</time>
      </trkpt>
      <trkpt lat="44.47128" lon="1.03451">
        <ele>180</ele>
        <time>2023-03-03T23:13:08Z</time>
      </trkpt>
      <trkpt lat="44.47133" lon="1.03481">
        <ele>182</ele>
        <time>2023-03-03T23:13:11Z</time>
      </trkpt>
      <trkpt lat="44.47134" lon="1.03501">
        <ele>183</ele>
        <time>2023-03-03T23:13:14Z</time>
      </trkpt>
      <trkpt lat="44.47129" lon="1.03519">
        <ele>184</ele>
        <time>2023-03-03T23:13:16Z</time>
      </trkpt>
      <trkpt lat="44.46988" lon="1.03784">
        <ele>198</ele>
        <time>2023-03-03T23:13:58Z</time>
      </trkpt>
      <trkpt lat="44.46903" lon="1.03908">
        <ele>205</ele>
        <time>2023-03-03T23:14:20Z</time>
      </trkpt>
      <trkpt lat="44.46822" lon="1.0408">
        <ele>219</ele>
        <time>2023-03-03T23:14:46Z</time>
      </trkpt>
      <trkpt lat="44.46772" lon="1.04175">
        <ele>225</ele>
        <time>2023-03-03T23:15:01Z</time>
      </trkpt>
      <trkpt lat="44.46766" lon="1.04198">
        <ele>225</ele>
        <time>2023-03-03T23:15:05Z</time>
      </trkpt>
      <trkpt lat="44.46759" lon="1.04202">
        <ele>225</ele>
        <time>2023-03-03T23:15:06Z</time>
      </trkpt>
      <trkpt lat="44.46742" lon="1.04201">
        <ele>226</ele>
        <time>2023-03-03T23:15:09Z</time>
      </trkpt>
      <trkpt lat="44.46759" lon="1.04202">
        <ele>225</ele>
        <time>2023-03-03T23:15:12Z</time>
      </trkpt>
      <trkpt lat="44.46782" lon="1.04343">
        <ele>219</ele>
        <time>2023-03-03T23:15:30Z</time>
      </trkpt>
      <trkpt lat="44.46802" lon="1.04508">
        <ele>217</ele>
        <time>2023-03-03T23:15:52Z</time>
      </trkpt>
      <trkpt lat="44.46802" lon="1.04529">
        <ele>217</ele>
        <time>2023-03-03T23:15:54Z</time>
      </trkpt>
      <trkpt lat="44.46798" lon="1.04543">
        <ele>217</ele>
        <time>2023-03-03T23:15:56Z</time>
      </trkpt>
      <trkpt lat="44.46776" lon="1.04589">
        <ele>216</ele>
        <time>2023-03-03T23:16:03Z</time>
      </trkpt>
      <trkpt lat="44.46756" lon="1.04645">
        <ele>215</ele>
        <time>2023-03-03T23:16:11Z</time>
      </trkpt>
      <trkpt lat="44.46729" lon="1.04732">
        <ele>214</ele>
        <time>2023-03-03T23:16:23Z</time>
      </trkpt>
      <trkpt lat="44.46718" lon="1.04763">
        <ele>214</ele>
        <time>2023-03-03T23:16:28Z</time>
      </trkpt>
      <trkpt lat="44.46707" lon="1.04792">
        <ele>213</ele>
        <time>2023-03-03T23:16:32Z</time>
      </trkpt>
      <trkpt lat="44.46696" lon="1.04813">
        <ele>213</ele>
        <time>2023-03-03T23:16:35Z</time>
      </trkpt>
      <trkpt lat="44.46685" lon="1.04818">
        <ele>213</ele>
        <time>2023-03-03T23:16:37Z</time>
      </trkpt>
      <trkpt lat="44.4665" lon="1.04868">
        <ele>211</ele>
        <time>2023-03-03T23:16:46Z</time>
      </trkpt>
      <trkpt lat="44.46614" lon="1.04914">
        <ele>210</ele>
        <time>2023-03-03T23:16:55Z</time>
      </trkpt>
      <trkpt lat="44.46592" lon="1.04937">
        <ele>209</ele>
        <time>2023-03-03T23:17:00Z</time>
      </trkpt>
      <trkpt lat="44.46516" lon="1.05002">
        <ele>207</ele>
        <time>2023-03-03T23:17:15Z</time>
      </trkpt>
      <trkpt lat="44.46417" lon="1.05095">
        <ele>203</ele>
        <time>2023-03-03T23:17:37Z</time>
      </trkpt>
      <trkpt lat="44.46328" lon="1.05174">
        <ele>203</ele>
        <time>2023-03-03T23:17:55Z</time>
      </trkpt>
      <trkpt lat="44.46322" lon="1.05184">
        <ele>204</ele>
        <time>2023-03-03T23:17:57Z</time>
      </trkpt>
      <trkpt lat="44.46318" lon="1.05197">
        <ele>205</ele>
        <time>2023-03-03T23:17:59Z</time>
      </trkpt>
      <trkpt lat="44.46292" lon="1.053">
        <ele>209</ele>
        <time>2023-03-03T23:18:13Z</time>
      </trkpt>
      <trkpt lat="44.46258" lon="1.05398">
        <ele>211</ele>
        <time>2023-03-03T23:18:27Z</time>
      </trkpt>
      <trkpt lat="44.46177" lon="1.05581">
        <ele>213</ele>
        <time>2023-03-03T23:18:54Z</time>
      </trkpt>
      <trkpt lat="44.46239" lon="1.0569">
        <ele>210</ele>
        <time>2023-03-03T23:19:12Z</time>
      </trkpt>
      <trkpt lat="44.46279" lon="1.05838">
        <ele>211</ele>
        <time>2023-03-03T23:19:32Z</time>
      </trkpt>
      <trkpt lat="44.46343" lon="1.0616">
        <ele>226</ele>
        <time>2023-03-03T23:20:14Z</time>
      </trkpt>
      <trkpt lat="44.46344" lon="1.06171">
        <ele>226</ele>
        <time>2023-03-03T23:20:16Z</time>
      </trkpt>
      <trkpt lat="44.46355" lon="1.06231">
        <ele>229</ele>
        <time>2023-03-03T23:20:23Z</time>
      </trkpt>
      <trkpt lat="44.4636" lon="1.0627">
        <ele>230</ele>
        <time>2023-03-03T23:20:28Z</time>
      </trkpt>
      <trkpt lat="44.46356" lon="1.06313">
        <ele>231</ele>
        <time>2023-03-03T23:20:34Z</time>
      </trkpt>
      <trkpt lat="44.46333" lon="1.06411">
        <ele>235</ele>
        <time>2023-03-03T23:20:47Z</time>
      </trkpt>
      <trkpt lat="44.46331" lon="1.06466">
        <ele>235</ele>
        <time>2023-03-03T23:20:54Z</time>
      </trkpt>
      <trkpt lat="44.46336" lon="1.06512">
        <ele>236</ele>
        <time>2023-03-03T23:21:00Z</time>
      </trkpt>
      <trkpt lat="44.46356" lon="1.0658">
        <ele>236</ele>
        <time>2023-03-03T23:21:09Z</time>
      </trkpt>
      <trkpt lat="44.46439" lon="1.06828">
        <ele>235</ele>
        <time>2023-03-03T23:21:44Z</time>
      </trkpt>
      <trkpt lat="44.4647" lon="1.0693">
        <ele>234</ele>
        <time>2023-03-03T23:21:58Z</time>
      </trkpt>
      <trkpt lat="44.46476" lon="1.06907">
        <ele>235</ele>
        <time>2023-03-03T23:22:01Z</time>
      </trkpt>
      <trkpt lat="44.46501" lon="1.0685">
        <ele>237</ele>
        <time>2023-03-03T23:22:10Z</time>
      </trkpt>
      <trkpt lat="44.46505" lon="1.06831">
        <ele>237</ele>
        <time>2023-03-03T23:22:12Z</time>
      </trkpt>
      <trkpt lat="44.46549" lon="1.06781">
        <ele>233</ele>
        <time>2023-03-03T23:22:22Z</time>
      </trkpt>
      <trkpt lat="44.4661" lon="1.06748">
        <ele>226</ele>
        <time>2023-03-03T23:22:34Z</time>
      </trkpt>
      <trkpt lat="44.4666" lon="1.06732">
        <ele>221</ele>
        <time>2023-03-03T23:22:43Z</time>
      </trkpt>
      <trkpt lat="44.46702" lon="1.06743">
        <ele>218</ele>
        <time>2023-03-03T23:22:51Z</time>
      </trkpt>
      <trkpt lat="44.46718" lon="1.06752">
        <ele>217</ele>
        <time>2023-03-03T23:22:54Z</time>
      </trkpt>
      <trkpt lat="44.46732" lon="1.06765">
        <ele>216</ele>
        <time>2023-03-03T23:22:57Z</time>
      </trkpt>
      <trkpt lat="44.4674" lon="1.06787">
        <ele>215</ele>
        <time>2023-03-03T23:23:00Z</time>
      </trkpt>
      <trkpt lat="44.46742" lon="1.06811">
        <ele>215</ele>
        <time>2023-03-03T23:23:03Z</time>
      </trkpt>
      <trkpt lat="44.46733" lon="1.06879">
        <ele>217</ele>
        <time>2023-03-03T23:23:12Z</time>
      </trkpt>
      <trkpt lat="44.4673" lon="1.06917">
        <ele>217</ele>
        <time>2023-03-03T23:23:17Z</time>
      </trkpt>
      <trkpt lat="44.46732" lon="1.06938">
        <ele>216</ele>
        <time>2023-03-03T23:23:19Z</time>
      </trkpt>
      <trkpt lat="44.46743" lon="1.06993">
        <ele>212</ele>
        <time>2023-03-03T23:23:27Z</time>
      </trkpt>
      <trkpt lat="44.46746" lon="1.07028">
        <ele>209</ele>
        <time>2023-03-03T23:23:31Z</time>
      </trkpt>
      <trkpt lat="44.46744" lon="1.07103">
        <ele>205</ele>
        <time>2023-03-03T23:23:41Z</time>
      </trkpt>
      <trkpt lat="44.4674" lon="1.07167">
        <ele>204</ele>
        <time>2023-03-03T23:23:49Z</time>
      </trkpt>
      <trkpt lat="44.46744" lon="1.07187">
        <ele>204</ele>
        <time>2023-03-03T23:23:51Z</time>
      </trkpt>
      <trkpt lat="44.46748" lon="1.07198">
        <ele>204</ele>
        <time>2023-03-03T23:23:53Z</time>
      </trkpt>
      <trkpt lat="44.46756" lon="1.07214">
        <ele>204</ele>
        <time>2023-03-03T23:23:55Z</time>
      </trkpt>
      <trkpt lat="44.46766" lon="1.07219">
        <ele>205</ele>
        <time>2023-03-03T23:23:57Z</time>
      </trkpt>
      <trkpt lat="44.46775" lon="1.0722">
        <ele>205</ele>
        <time>2023-03-03T23:23:59Z</time>
      </trkpt>
      <trkpt lat="44.46805" lon="1.072">
        <ele>204</ele>
        <time>2023-03-03T23:24:05Z</time>
      </trkpt>
      <trkpt lat="44.46836" lon="1.07128">
        <ele>198</ele>
        <time>2023-03-03T23:24:15Z</time>
      </trkpt>
      <trkpt lat="44.46863" lon="1.07046">
        <ele>195</ele>
        <time>2023-03-03T23:24:27Z</time>
      </trkpt>
      <trkpt lat="44.4687" lon="1.06957">
        <ele>189</ele>
        <time>2023-03-03T23:24:38Z</time>
      </trkpt>
      <trkpt lat="44.46883" lon="1.06919">
        <ele>185</ele>
        <time>2023-03-03T23:24:44Z</time>
      </trkpt>
      <trkpt lat="44.46947" lon="1.06846">
        <ele>172</ele>
        <time>2023-03-03T23:24:58Z</time>
      </trkpt>
      <trkpt lat="44.47004" lon="1.06789">
        <ele>163</ele>
        <time>2023-03-03T23:25:11Z</time>
      </trkpt>
      <trkpt lat="44.47079" lon="1.06733">
        <ele>156</ele>
        <time>2023-03-03T23:25:26Z</time>
      </trkpt>
      <trkpt lat="44.47113" lon="1.06719">
        <ele>150</ele>
        <time>2023-03-03T23:25:32Z</time>
      </trkpt>
      <trkpt lat="44.47137" lon="1.0672">
        <ele>148</ele>
        <time>2023-03-03T23:25:36Z</time>
      </trkpt>
      <trkpt lat="44.47159" lon="1.06729">
        <ele>147</ele>
        <time>2023-03-03T23:25:41Z</time>
      </trkpt>
      <trkpt lat="44.4717" lon="1.06762">
        <ele>149</ele>
        <time>2023-03-03T23:25:45Z</time>
      </trkpt>
      <trkpt lat="44.47182" lon="1.06824">
        <ele>151</ele>
        <time>2023-03-03T23:25:53Z</time>
      </trkpt>
      <trkpt lat="44.47199" lon="1.06901">
        <ele>150</ele>
        <time>2023-03-03T23:26:04Z</time>
      </trkpt>
      <trkpt lat="44.47224" lon="1.06969">
        <ele>144</ele>
        <time>2023-03-03T23:26:13Z</time>
      </trkpt>
      <trkpt lat="44.47238" lon="1.06997">
        <ele>141</ele>
        <time>2023-03-03T23:26:18Z</time>
      </trkpt>
      <trkpt lat="44.47255" lon="1.0702">
        <ele>137</ele>
        <time>2023-03-03T23:26:22Z</time>
      </trkpt>
      <trkpt lat="44.47293" lon="1.07046">
        <ele>132</ele>
        <time>2023-03-03T23:26:29Z</time>
      </trkpt>
      <trkpt lat="44.47343" lon="1.07029">
        <ele>126</ele>
        <time>2023-03-03T23:26:39Z</time>
      </trkpt>
      <trkpt lat="44.47394" lon="1.06974">
        <ele>123</ele>
        <time>2023-03-03T23:26:50Z</time>
      </trkpt>
      <trkpt lat="44.47491" lon="1.06801">
        <ele>118</ele>
        <time>2023-03-03T23:27:18Z</time>
      </trkpt>
      <trkpt lat="44.47592" lon="1.06942">
        <ele>114</ele>
        <time>2023-03-03T23:27:43Z</time>
      </trkpt>
      <trkpt lat="44.4761" lon="1.06952">
        <ele>114</ele>
        <time>2023-03-03T23:27:47Z</time>
      </trkpt>
      <trkpt lat="44.47661" lon="1.06954">
        <ele>115</ele>
        <time>2023-03-03T23:27:56Z</time>
      </trkpt>
      <trkpt lat="44.47758" lon="1.06989">
        <ele>120</ele>
        <time>2023-03-03T23:28:14Z</time>
      </trkpt>
      <trkpt lat="44.47792" lon="1.07022">
        <ele>120</ele>
        <time>2023-03-03T23:28:21Z</time>
      </trkpt>
      <trkpt lat="44.47829" lon="1.07053">
        <ele>120</ele>
        <time>2023-03-03T23:28:29Z</time>
      </trkpt>
      <trkpt lat="44.4798" lon="1.0714">
        <ele>121</ele>
        <time>2023-03-03T23:28:58Z</time>
      </trkpt>
      <trkpt lat="44.48116" lon="1.07229">
        <ele>118</ele>
        <time>2023-03-03T23:29:24Z</time>
      </trkpt>
      <trkpt lat="44.48188" lon="1.0734">
        <ele>120</ele>
        <time>2023-03-03T23:29:43Z</time>
      </trkpt>
      <trkpt lat="44.48242" lon="1.07395">
        <ele>125</ele>
        <time>2023-03-03T23:29:55Z</time>
      </trkpt>
      <trkpt lat="44.48269" lon="1.07429">
        <ele>127</ele>
        <time>2023-03-03T23:30:02Z</time>
      </trkpt>
      <trkpt lat="44.48354" lon="1.07513">
        <ele>131</ele>
        <time>2023-03-03T23:30:20Z</time>
      </trkpt>
      <trkpt lat="44.48362" lon="1.07531">
        <ele>131</ele>
        <time>2023-03-03T23:30:23Z</time>
      </trkpt>
      <trkpt lat="44.48372" lon="1.07584">
        <ele>131</ele>
        <time>2023-03-03T23:30:30Z</time>
      </trkpt>
      <trkpt lat="44.48383" lon="1.07615">
        <ele>132</ele>
        <time>2023-03-03T23:30:34Z</time>
      </trkpt>
      <trkpt lat="44.48402" lon="1.07655">
        <ele>131</ele>
        <time>2023-03-03T23:30:40Z</time>
      </trkpt>
      <trkpt lat="44.48418" lon="1.0768">
        <ele>131</ele>
        <time>2023-03-03T23:30:45Z</time>
      </trkpt>
      <trkpt lat="44.48432" lon="1.07699">
        <ele>131</ele>
        <time>2023-03-03T23:30:48Z</time>
      </trkpt>
      <trkpt lat="44.48448" lon="1.07711">
        <ele>130</ele>
        <time>2023-03-03T23:30:51Z</time>
      </trkpt>
      <trkpt lat="44.48502" lon="1.07747">
        <ele>129</ele>
        <time>2023-03-03T23:31:02Z</time>
      </trkpt>
      <trkpt lat="44.4853" lon="1.07781">
        <ele>126</ele>
        <time>2023-03-03T23:31:09Z</time>
      </trkpt>
      <trkpt lat="44.48543" lon="1.07788">
        <ele>126</ele>
        <time>2023-03-03T23:31:11Z</time>
      </trkpt>
      <trkpt lat="44.48558" lon="1.07791">
        <ele>126</ele>
        <time>2023-03-03T23:31:14Z</time>
      </trkpt>
      <trkpt lat="44.48685" lon="1.07794">
        <ele>117</ele>
        <time>2023-03-03T23:31:36Z</time>
      </trkpt>
      <trkpt lat="44.48719" lon="1.07816">
        <ele>111</ele>
        <time>2023-03-03T23:31:43Z</time>
      </trkpt>
      <trkpt lat="44.48731" lon="1.07833">
        <ele>107</ele>
        <time>2023-03-03T23:31:46Z</time>
      </trkpt>
      <trkpt lat="44.48744" lon="1.07858">
        <ele>102</ele>
        <time>2023-03-03T23:31:50Z</time>
      </trkpt>
      <trkpt lat="44.48755" lon="1.07887">
        <ele>98</ele>
        <time>2023-03-03T23:31:54Z</time>
      </trkpt>
      <trkpt lat="44.48797" lon="1.08017">
        <ele>92</ele>
        <time>2023-03-03T23:32:12Z</time>
      </trkpt>
      <trkpt lat="44.48806" lon="1.08042">
        <ele>92</ele>
        <time>2023-03-03T23:32:16Z</time>
      </trkpt>
      <trkpt lat="44.48818" lon="1.08065">
        <ele>93</ele>
        <time>2023-03-03T23:32:19Z</time>
      </trkpt>
      <trkpt lat="44.48898" lon="1.08169">
        <ele>92</ele>
        <time>2023-03-03T23:32:39Z</time>
      </trkpt>
      <trkpt lat="44.48924" lon="1.08192">
        <ele>90</ele>
        <time>2023-03-03T23:32:44Z</time>
      </trkpt>
      <trkpt lat="44.48953" lon="1.08207">
        <ele>88</ele>
        <time>2023-03-03T23:32:50Z</time>
      </trkpt>
      <trkpt lat="44.48966" lon="1.08218">
        <ele>88</ele>
        <time>2023-03-03T23:32:53Z</time>
      </trkpt>
      <trkpt lat="44.48981" lon="1.08239">
        <ele>87</ele>
        <time>2023-03-03T23:32:56Z</time>
      </trkpt>
      <trkpt lat="44.4903" lon="1.08323">
        <ele>85</ele>
        <time>2023-03-03T23:33:10Z</time>
      </trkpt>
      <trkpt lat="44.49062" lon="1.08299">
        <ele>84</ele>
        <time>2023-03-03T23:33:17Z</time>
      </trkpt>
      <trkpt lat="44.49088" lon="1.08285">
        <ele>84</ele>
        <time>2023-03-03T23:33:22Z</time>
      </trkpt>
      <trkpt lat="44.49107" lon="1.08376">
        <ele>85</ele>
        <time>2023-03-03T23:33:34Z</time>
      </trkpt>
      <trkpt lat="44.49088" lon="1.08285">
        <ele>84</ele>
        <time>2023-03-03T23:33:46Z</time>
      </trkpt>
      <trkpt lat="44.49101" lon="1.08279">
        <ele>83</ele>
        <time>2023-03-03T23:33:48Z</time>
      </trkpt>
      <trkpt lat="44.49124" lon="1.08274">
        <ele>83</ele>
        <time>2023-03-03T23:33:52Z</time>
      </trkpt>
      <trkpt lat="44.49149" lon="1.08272">
        <ele>82</ele>
        <time>2023-03-03T23:33:57Z</time>
      </trkpt>
      <trkpt lat="44.49202" lon="1.08276">
        <ele>81</ele>
        <time>2023-03-03T23:34:06Z</time>
      </trkpt>
      <trkpt lat="44.49239" lon="1.08282">
        <ele>81</ele>
        <time>2023-03-03T23:34:13Z</time>
      </trkpt>
      <trkpt lat="44.49241" lon="1.08289">
        <ele>81</ele>
        <time>2023-03-03T23:34:14Z</time>
      </trkpt>
      <trkpt lat="44.49247" lon="1.08291">
        <ele>81</ele>
        <time>2023-03-03T23:34:15Z</time>
      </trkpt>
      <trkpt lat="44.4927" lon="1.08381">
        <ele>80</ele>
        <time>2023-03-03T23:34:27Z</time>
      </trkpt>
      <trkpt lat="44.49341" lon="1.08714">
        <ele>81</ele>
        <time>2023-03-03T23:35:11Z</time>
      </trkpt>
      <trkpt lat="44.49368" lon="1.08817">
        <ele>81</ele>
        <time>2023-03-03T23:35:25Z</time>
      </trkpt>
      <trkpt lat="44.49451" lon="1.0911">
        <ele>83</ele>
        <time>2023-03-03T23:36:05Z</time>
      </trkpt>
      <trkpt lat="44.49474" lon="1.0917">
        <ele>84</ele>
        <time>2023-03-03T23:36:14Z</time>
      </trkpt>
      <trkpt lat="44.49575" lon="1.0941">
        <ele>82</ele>
        <time>2023-03-03T23:36:49Z</time>
      </trkpt>
      <trkpt lat="44.49633" lon="1.09571">
        <ele>85</ele>
        <time>2023-03-03T23:37:12Z</time>
      </trkpt>
      <trkpt lat="44.49648" lon="1.09607">
        <ele>85</ele>
        <time>2023-03-03T23:37:17Z</time>
      </trkpt>
      <trkpt lat="44.49804" lon="1.09897">
        <ele>85</ele>
        <time>2023-03-03T23:38:03Z</time>
      </trkpt>
      <trkpt lat="44.49856" lon="1.10001">
        <ele>84</ele>
        <time>2023-03-03T23:38:19Z</time>
      </trkpt>
      <trkpt lat="44.50046" lon="1.10687">
        <ele>92</ele>
        <time>2023-03-03T23:39:53Z</time>
      </trkpt>
      <trkpt lat="44.50058" lon="1.10741">
        <ele>92</ele>
        <time>2023-03-03T23:40:00Z</time>
      </trkpt>
      <trkpt lat="44.50062" lon="1.10785">
        <ele>91</ele>
        <time>2023-03-03T23:40:06Z</time>
      </trkpt>
      <trkpt lat="44.50063" lon="1.10833">
        <ele>91</ele>
        <time>2023-03-03T23:40:12Z</time>
      </trkpt>
      <trkpt lat="44.50059" lon="1.1087">
        <ele>90</ele>
        <time>2023-03-03T23:40:16Z</time>
      </trkpt>
      <trkpt lat="44.5003" lon="1.11012">
        <ele>91</ele>
        <time>2023-03-03T23:40:35Z</time>
      </trkpt>
      <trkpt lat="44.50011" lon="1.11127">
        <ele>91</ele>
        <time>2023-03-03T23:40:50Z</time>
      </trkpt>
      <trkpt lat="44.50007" lon="1.11172">
        <ele>91</ele>
        <time>2023-03-03T23:40:56Z</time>
      </trkpt>
      <trkpt lat="44.50009" lon="1.11208">
        <ele>91</ele>
        <time>2023-03-03T23:41:00Z</time>
      </trkpt>
      <trkpt lat="44.50055" lon="1.11388">
        <ele>91</ele>
        <time>2023-03-03T23:41:25Z</time>
      </trkpt>
      <trkpt lat="44.50068" lon="1.11457">
        <ele>92</ele>
        <time>2023-03-03T23:41:34Z</time>
      </trkpt>
      <trkpt lat="44.50067" lon="1.11531">
        <ele>93</ele>
        <time>2023-03-03T23:41:43Z</time>
      </trkpt>
      <trkpt lat="44.50063" lon="1.11646">
        <ele>93</ele>
        <time>2023-03-03T23:41:58Z</time>
      </trkpt>
      <trkpt lat="44.50053" lon="1.11803">
        <ele>93</ele>
        <time>2023-03-03T23:42:18Z</time>
      </trkpt>
      <trkpt lat="44.50045" lon="1.11981">
        <ele>93</ele>
        <time>2023-03-03T23:42:40Z</time>
      </trkpt>
      <trkpt lat="44.50027" lon="1.12132">
        <ele>93</ele>
        <time>2023-03-03T23:43:00Z</time>
      </trkpt>
      <trkpt lat="44.50004" lon="1.12283">
        <ele>93</ele>
        <time>2023-03-03T23:43:19Z</time>
      </trkpt>
      <trkpt lat="44.49976" lon="1.12426">
        <ele>93</ele>
        <time>2023-03-03T23:43:38Z</time>
      </trkpt>
      <trkpt lat="44.49972" lon="1.12478">
        <ele>93</ele>
        <time>2023-03-03T23:43:45Z</time>
      </trkpt>
      <trkpt lat="44.49973" lon="1.12494">
        <ele>92</ele>
        <time>2023-03-03T23:43:47Z</time>
      </trkpt>
      <trkpt lat="44.49978" lon="1.12529">
        <ele>92</ele>
        <time>2023-03-03T23:43:51Z</time>
      </trkpt>
      <trkpt lat="44.50026" lon="1.12778">
        <ele>91</ele>
        <time>2023-03-03T23:44:24Z</time>
      </trkpt>
      <trkpt lat="44.50076" lon="1.13049">
        <ele>86</ele>
        <time>2023-03-03T23:45:00Z</time>
      </trkpt>
      <trkpt lat="44.50075" lon="1.13072">
        <ele>86</ele>
        <time>2023-03-03T23:45:03Z</time>
      </trkpt>
      <trkpt lat="44.50071" lon="1.13087">
        <ele>86</ele>
        <time>2023-03-03T23:45:05Z</time>
      </trkpt>
      <trkpt lat="44.50067" lon="1.13092">
        <ele>86</ele>
        <time>2023-03-03T23:45:06Z</time>
      </trkpt>
      <trkpt lat="44.50064" lon="1.13102">
        <ele>86</ele>
        <time>2023-03-03T23:45:07Z</time>
      </trkpt>
      <trkpt lat="44.50046" lon="1.13119">
        <ele>86</ele>
        <time>2023-03-03T23:45:11Z</time>
      </trkpt>
      <trkpt lat="44.49935" lon="1.13175">
        <ele>87</ele>
        <time>2023-03-03T23:45:32Z</time>
      </trkpt>
      <trkpt lat="44.49813" lon="1.13229">
        <ele>86</ele>
        <time>2023-03-03T23:45:55Z</time>
      </trkpt>
      <trkpt lat="44.49781" lon="1.13242">
        <ele>85</ele>
        <time>2023-03-03T23:46:01Z</time>
      </trkpt>
      <trkpt lat="44.4975" lon="1.13248">
        <ele>85</ele>
        <time>2023-03-03T23:46:06Z</time>
      </trkpt>
      <trkpt lat="44.49713" lon="1.13248">
        <ele>85</ele>
        <time>2023-03-03T23:46:13Z</time>
      </trkpt>
      <trkpt lat="44.49677" lon="1.13245">
        <ele>86</ele>
        <time>2023-03-03T23:46:19Z</time>
      </trkpt>
      <trkpt lat="44.49641" lon="1.13238">
        <ele>86</ele>
        <time>2023-03-03T23:46:26Z</time>
      </trkpt>
      <trkpt lat="44.49577" lon="1.13221">
        <ele>86</ele>
        <time>2023-03-03T23:46:37Z</time>
      </trkpt>
      <trkpt lat="44.49075" lon="1.13069">
        <ele>87</ele>
        <time>2023-03-03T23:48:09Z</time>
      </trkpt>
      <trkpt lat="44.48991" lon="1.13058">
        <ele>87</ele>
        <time>2023-03-03T23:48:24Z</time>
      </trkpt>
      <trkpt lat="44.4897" lon="1.1306">
        <ele>87</ele>
        <time>2023-03-03T23:48:27Z</time>
      </trkpt>
      <trkpt lat="44.48838" lon="1.13093">
        <ele>88</ele>
        <time>2023-03-03T23:48:51Z</time>
      </trkpt>
      <trkpt lat="44.48784" lon="1.13109">
        <ele>91</ele>
        <time>2023-03-03T23:49:01Z</time>
      </trkpt>
      <trkpt lat="44.4866" lon="1.13155">
        <ele>93</ele>
        <time>2023-03-03T23:49:24Z</time>
      </trkpt>
      <trkpt lat="44.4857" lon="1.13178">
        <ele>97</ele>
        <time>2023-03-03T23:49:40Z</time>
      </trkpt>
      <trkpt lat="44.48465" lon="1.13214">
        <ele>96</ele>
        <time>2023-03-03T23:49:59Z</time>
      </trkpt>
      <trkpt lat="44.48412" lon="1.13223">
        <ele>99</ele>
        <time>2023-03-03T23:50:09Z</time>
      </trkpt>
      <trkpt lat="44.48309" lon="1.13258">
        <ele>104</ele>
        <time>2023-03-03T23:50:28Z</time>
      </trkpt>
      <trkpt lat="44.48214" lon="1.13308">
        <ele>104</ele>
        <time>2023-03-03T23:50:46Z</time>
      </trkpt>
      <trkpt lat="44.4809" lon="1.13376">
        <ele>106</ele>
        <time>2023-03-03T23:51:09Z</time>
      </trkpt>
      <trkpt lat="44.47923" lon="1.13497">
        <ele>105</ele>
        <time>2023-03-03T23:51:43Z</time>
      </trkpt>
      <trkpt lat="44.47828" lon="1.13579">
        <ele>105</ele>
        <time>2023-03-03T23:52:03Z</time>
      </trkpt>
      <trkpt lat="44.47741" lon="1.13661">
        <ele>97</ele>
        <time>2023-03-03T23:52:21Z</time>
      </trkpt>
      <trkpt lat="44.47702" lon="1.13702">
        <ele>93</ele>
        <time>2023-03-03T23:52:30Z</time>
      </trkpt>
      <trkpt lat="44.47676" lon="1.13742">
        <ele>92</ele>
        <time>2023-03-03T23:52:37Z</time>
      </trkpt>
      <trkpt lat="44.47659" lon="1.13776">
        <ele>95</ele>
        <time>2023-03-03T23:52:42Z</time>
      </trkpt>
      <trkpt lat="44.47608" lon="1.13906">
        <ele>110</ele>
        <time>2023-03-03T23:53:01Z</time>
      </trkpt>
      <trkpt lat="44.47594" lon="1.13951">
        <ele>106</ele>
        <time>2023-03-03T23:53:07Z</time>
      </trkpt>
      <trkpt lat="44.47564" lon="1.14076">
        <ele>99</ele>
        <time>2023-03-03T23:53:24Z</time>
      </trkpt>
      <trkpt lat="44.47552" lon="1.1418">
        <ele>93</ele>
        <time>2023-03-03T23:53:37Z</time>
      </trkpt>
      <trkpt lat="44.47535" lon="1.1428">
        <ele>91</ele>
        <time>2023-03-03T23:53:50Z</time>
      </trkpt>
      <trkpt lat="44.47459" lon="1.14536">
        <ele>97</ele>
        <time>2023-03-03T23:54:26Z</time>
      </trkpt>
      <trkpt lat="44.4744" lon="1.14615">
        <ele>98</ele>
        <time>2023-03-03T23:54:36Z</time>
      </trkpt>
      <trkpt lat="44.47434" lon="1.14654">
        <ele>99</ele>
        <time>2023-03-03T23:54:41Z</time>
      </trkpt>
      <trkpt lat="44.47446" lon="1.15012">
        <ele>91</ele>
        <time>2023-03-03T23:55:27Z</time>
      </trkpt>
      <trkpt lat="44.47452" lon="1.15073">
        <ele>89</ele>
        <time>2023-03-03T23:55:35Z</time>
      </trkpt>
      <trkpt lat="44.47459" lon="1.1511">
        <ele>88</ele>
        <time>2023-03-03T23:55:39Z</time>
      </trkpt>
      <trkpt lat="44.47479" lon="1.1517">
        <ele>89</ele>
        <time>2023-03-03T23:55:48Z</time>
      </trkpt>
      <trkpt lat="44.47491" lon="1.15193">
        <ele>91</ele>
        <time>2023-03-03T23:55:51Z</time>
      </trkpt>
      <trkpt lat="44.47509" lon="1.15216">
        <ele>93</ele>
        <time>2023-03-03T23:55:56Z</time>
      </trkpt>
      <trkpt lat="44.47528" lon="1.15232">
        <ele>94</ele>
        <time>2023-03-03T23:56:00Z</time>
      </trkpt>
      <trkpt lat="44.47545" lon="1.15237">
        <ele>93</ele>
        <time>2023-03-03T23:56:03Z</time>
      </trkpt>
      <trkpt lat="44.47576" lon="1.15238">
        <ele>93</ele>
        <time>2023-03-03T23:56:08Z</time>
      </trkpt>
      <trkpt lat="44.47592" lon="1.15245">
        <ele>92</ele>
        <time>2023-03-03T23:56:11Z</time>
      </trkpt>
      <trkpt lat="44.47604" lon="1.15256">
        <ele>93</ele>
        <time>2023-03-03T23:56:14Z</time>
      </trkpt>
      <trkpt lat="44.47686" lon="1.15369">
        <ele>96</ele>
        <time>2023-03-03T23:56:34Z</time>
      </trkpt>
      <trkpt lat="44.47775" lon="1.15476">
        <ele>93</ele>
        <time>2023-03-03T23:56:55Z</time>
      </trkpt>
      <trkpt lat="44.47891" lon="1.15588">
        <ele>95</ele>
        <time>2023-03-03T23:57:20Z</time>
      </trkpt>
      <trkpt lat="44.47913" lon="1.15604">
        <ele>94</ele>
        <time>2023-03-03T23:57:25Z</time>
      </trkpt>
      <trkpt lat="44.48052" lon="1.15665">
        <ele>94</ele>
        <time>2023-03-03T23:57:51Z</time>
      </trkpt>
      <trkpt lat="44.48152" lon="1.15718">
        <ele>94</ele>
        <time>2023-03-03T23:58:10Z</time>
      </trkpt>
      <trkpt lat="44.48299" lon="1.15808">
        <ele>92</ele>
        <time>2023-03-03T23:58:38Z</time>
      </trkpt>
      <trkpt lat="44.48369" lon="1.15852">
        <ele>93</ele>
        <time>2023-03-03T23:58:52Z</time>
      </trkpt>
      <trkpt lat="44.48398" lon="1.15881">
        <ele>94</ele>
        <time>2023-03-03T23:58:58Z</time>
      </trkpt>
      <trkpt lat="44.48435" lon="1.15936">
        <ele>96</ele>
        <time>2023-03-03T23:59:08Z</time>
      </trkpt>
      <trkpt lat="44.48472" lon="1.15979">
        <ele>97</ele>
        <time>2023-03-03T23:59:16Z</time>
      </trkpt>
      <trkpt lat="44.48546" lon="1.1607">
        <ele>98</ele>
        <time>2023-03-03T23:59:34Z</time>
      </trkpt>
      <trkpt lat="44.48565" lon="1.16108">
        <ele>98</ele>
        <time>2023-03-03T23:59:40Z</time>
      </trkpt>
      <trkpt lat="44.48702" lon="1.16424">
        <ele>103</ele>
        <time>2023-03-04T00:00:27Z</time>
      </trkpt>
      <trkpt lat="44.4873" lon="1.16483">
        <ele>104</ele>
        <time>2023-03-04T00:00:36Z</time>
      </trkpt>
      <trkpt lat="44.48778" lon="1.16563">
        <ele>106</ele>
        <time>2023-03-04T00:00:49Z</time>
      </trkpt>
      <trkpt lat="44.48805" lon="1.16594">
        <ele>107</ele>
        <time>2023-03-04T00:00:55Z</time>
      </trkpt>
      <trkpt lat="44.4886" lon="1.16638">
        <ele>107</ele>
        <time>2023-03-04T00:01:06Z</time>
      </trkpt>
      <trkpt lat="44.48894" lon="1.16668">
        <ele>107</ele>
        <time>2023-03-04T00:01:14Z</time>
      </trkpt>
      <trkpt lat="44.48936" lon="1.16713">
        <ele>108</ele>
        <time>2023-03-04T00:01:23Z</time>
      </trkpt>
      <trkpt lat="44.49108" lon="1.16889">
        <ele>101</ele>
        <time>2023-03-04T00:02:01Z</time>
      </trkpt>
      <trkpt lat="44.4912" lon="1.16912">
        <ele>101</ele>
        <time>2023-03-04T00:02:04Z</time>
      </trkpt>
      <trkpt lat="44.49121" lon="1.16957">
        <ele>99</ele>
        <time>2023-03-04T00:02:10Z</time>
      </trkpt>
      <trkpt lat="44.49112" lon="1.16994">
        <ele>98</ele>
        <time>2023-03-04T00:02:15Z</time>
      </trkpt>
      <trkpt lat="44.49104" lon="1.17016">
        <ele>98</ele>
        <time>2023-03-04T00:02:18Z</time>
      </trkpt>
      <trkpt lat="44.49095" lon="1.17034">
        <ele>97</ele>
        <time>2023-03-04T00:02:21Z</time>
      </trkpt>
      <trkpt lat="44.49055" lon="1.17075">
        <ele>99</ele>
        <time>2023-03-04T00:02:30Z</time>
      </trkpt>
      <trkpt lat="44.49004" lon="1.17107">
        <ele>101</ele>
        <time>2023-03-04T00:02:40Z</time>
      </trkpt>
      <trkpt lat="44.4895" lon="1.17136">
        <ele>103</ele>
        <time>2023-03-04T00:02:50Z</time>
      </trkpt>
      <trkpt lat="44.48842" lon="1.17187">
        <ele>106</ele>
        <time>2023-03-04T00:03:10Z</time>
      </trkpt>
      <trkpt lat="44.4788" lon="1.17517">
        <ele>114</ele>
        <time>2023-03-04T00:06:07Z</time>
      </trkpt>
      <trkpt lat="44.47461" lon="1.17687">
        <ele>124</ele>
        <time>2023-03-04T00:07:24Z</time>
      </trkpt>
      <trkpt lat="44.473" lon="1.17801">
        <ele>125</ele>
        <time>2023-03-04T00:07:56Z</time>
      </trkpt>
      <trkpt lat="44.46981" lon="1.18103">
        <ele>136</ele>
        <time>2023-03-04T00:09:05Z</time>
      </trkpt>
      <trkpt lat="44.46871" lon="1.18256">
        <ele>138</ele>
        <time>2023-03-04T00:09:32Z</time>
      </trkpt>
      <trkpt lat="44.4679" lon="1.18424">
        <ele>133</ele>
        <time>2023-03-04T00:09:58Z</time>
      </trkpt>
      <trkpt lat="44.46751" lon="1.18518">
        <ele>130</ele>
        <time>2023-03-04T00:10:12Z</time>
      </trkpt>
      <trkpt lat="44.46723" lon="1.186">
        <ele>135</ele>
        <time>2023-03-04T00:10:24Z</time>
      </trkpt>
      <trkpt lat="44.46701" lon="1.18676">
        <ele>138</ele>
        <time>2023-03-04T00:10:34Z</time>
      </trkpt>
      <trkpt lat="44.46683" lon="1.18757">
        <ele>138</ele>
        <time>2023-03-04T00:10:45Z</time>
      </trkpt>
      <trkpt lat="44.46669" lon="1.18844">
        <ele>139</ele>
        <time>2023-03-04T00:10:56Z</time>
      </trkpt>
      <trkpt lat="44.46662" lon="1.18924">
        <ele>133</ele>
        <time>2023-03-04T00:11:06Z</time>
      </trkpt>
      <trkpt lat="44.46659" lon="1.19004">
        <ele>131</ele>
        <time>2023-03-04T00:11:16Z</time>
      </trkpt>
      <trkpt lat="44.46658" lon="1.19113">
        <ele>135</ele>
        <time>2023-03-04T00:11:30Z</time>
      </trkpt>
      <trkpt lat="44.46663" lon="1.19225">
        <ele>138</ele>
        <time>2023-03-04T00:11:45Z</time>
      </trkpt>
      <trkpt lat="44.46668" lon="1.19302">
        <ele>140</ele>
        <time>2023-03-04T00:11:54Z</time>
      </trkpt>
      <trkpt lat="44.46678" lon="1.1937">
        <ele>140</ele>
        <time>2023-03-04T00:12:03Z</time>
      </trkpt>
      <trkpt lat="44.46714" lon="1.1954">
        <ele>134</ele>
        <time>2023-03-04T00:12:26Z</time>
      </trkpt>
      <trkpt lat="44.46724" lon="1.1958">
        <ele>133</ele>
        <time>2023-03-04T00:12:31Z</time>
      </trkpt>
      <trkpt lat="44.46737" lon="1.19615">
        <ele>127</ele>
        <time>2023-03-04T00:12:36Z</time>
      </trkpt>
      <trkpt lat="44.46759" lon="1.19672">
        <ele>120</ele>
        <time>2023-03-04T00:12:44Z</time>
      </trkpt>
      <trkpt lat="44.46808" lon="1.19803">
        <ele>104</ele>
        <time>2023-03-04T00:13:03Z</time>
      </trkpt>
      <trkpt lat="44.46818" lon="1.19825">
        <ele>104</ele>
        <time>2023-03-04T00:13:06Z</time>
      </trkpt>
      <trkpt lat="44.46829" lon="1.19843">
        <ele>106</ele>
        <time>2023-03-04T00:13:09Z</time>
      </trkpt>
      <trkpt lat="44.46845" lon="1.19862">
        <ele>109</ele>
        <time>2023-03-04T00:13:13Z</time>
      </trkpt>
      <trkpt lat="44.46865" lon="1.19877">
        <ele>109</ele>
        <time>2023-03-04T00:13:17Z</time>
      </trkpt>
      <trkpt lat="44.46914" lon="1.1993">
        <ele>111</ele>
        <time>2023-03-04T00:13:28Z</time>
      </trkpt>
      <trkpt lat="44.46976" lon="1.20035">
        <ele>113</ele>
        <time>2023-03-04T00:13:45Z</time>
      </trkpt>
      <trkpt lat="44.47034" lon="1.20124">
        <ele>111</ele>
        <time>2023-03-04T00:14:01Z</time>
      </trkpt>
      <trkpt lat="44.47075" lon="1.20178">
        <ele>106</ele>
        <time>2023-03-04T00:14:11Z</time>
      </trkpt>
      <trkpt lat="44.47138" lon="1.20245">
        <ele>104</ele>
        <time>2023-03-04T00:14:25Z</time>
      </trkpt>
      <trkpt lat="44.47188" lon="1.20288">
        <ele>98</ele>
        <time>2023-03-04T00:14:35Z</time>
      </trkpt>
      <trkpt lat="44.47222" lon="1.20313">
        <ele>96</ele>
        <time>2023-03-04T00:14:42Z</time>
      </trkpt>
      <trkpt lat="44.47247" lon="1.20325">
        <ele>94</ele>
        <time>2023-03-04T00:14:47Z</time>
      </trkpt>
      <trkpt lat="44.4726" lon="1.2033">
        <ele>94</ele>
        <time>2023-03-04T00:14:49Z</time>
      </trkpt>
      <trkpt lat="44.47281" lon="1.20336">
        <ele>93</ele>
        <time>2023-03-04T00:14:53Z</time>
      </trkpt>
      <trkpt lat="44.47376" lon="1.20317">
        <ele>92</ele>
        <time>2023-03-04T00:15:10Z</time>
      </trkpt>
      <trkpt lat="44.47397" lon="1.20374">
        <ele>97</ele>
        <time>2023-03-04T00:15:18Z</time>
      </trkpt>
      <trkpt lat="44.47416" lon="1.20399">
        <ele>101</ele>
        <time>2023-03-04T00:15:23Z</time>
      </trkpt>
      <trkpt lat="44.47486" lon="1.20431">
        <ele>101</ele>
        <time>2023-03-04T00:15:36Z</time>
      </trkpt>
      <trkpt lat="44.47531" lon="1.20439">
        <ele>100</ele>
        <time>2023-03-04T00:15:44Z</time>
      </trkpt>
      <trkpt lat="44.47552" lon="1.20452">
        <ele>101</ele>
        <time>2023-03-04T00:15:48Z</time>
      </trkpt>
      <trkpt lat="44.47623" lon="1.20519">
        <ele>103</ele>
        <time>2023-03-04T00:16:03Z</time>
      </trkpt>
      <trkpt lat="44.47678" lon="1.2055">
        <ele>104</ele>
        <time>2023-03-04T00:16:14Z</time>
      </trkpt>
      <trkpt lat="44.47806" lon="1.20595">
        <ele>103</ele>
        <time>2023-03-04T00:16:37Z</time>
      </trkpt>
      <trkpt lat="44.48006" lon="1.20697">
        <ele>108</ele>
        <time>2023-03-04T00:17:15Z</time>
      </trkpt>
      <trkpt lat="44.48054" lon="1.20714">
        <ele>109</ele>
        <time>2023-03-04T00:17:24Z</time>
      </trkpt>
      <trkpt lat="44.48079" lon="1.20876">
        <ele>118</ele>
        <time>2023-03-04T00:17:45Z</time>
      </trkpt>
      <trkpt lat="44.48139" lon="1.21063">
        <ele>133</ele>
        <time>2023-03-04T00:18:11Z</time>
      </trkpt>
      <trkpt lat="44.48174" lon="1.21119">
        <ele>136</ele>
        <time>2023-03-04T00:18:21Z</time>
      </trkpt>
      <trkpt lat="44.48204" lon="1.21176">
        <ele>139</ele>
        <time>2023-03-04T00:18:30Z</time>
      </trkpt>
      <trkpt lat="44.48276" lon="1.21324">
        <ele>141</ele>
        <time>2023-03-04T00:18:52Z</time>
      </trkpt>
      <trkpt lat="44.48286" lon="1.21354">
        <ele>142</ele>
        <time>2023-03-04T00:18:57Z</time>
      </trkpt>
      <trkpt lat="44.483" lon="1.21437">
        <ele>147</ele>
        <time>2023-03-04T00:19:07Z</time>
      </trkpt>
      <trkpt lat="44.48394" lon="1.21661">
        <ele>143</ele>
        <time>2023-03-04T00:19:40Z</time>
      </trkpt>
      <trkpt lat="44.48423" lon="1.21799">
        <ele>141</ele>
        <time>2023-03-04T00:19:59Z</time>
      </trkpt>
      <trkpt lat="44.48447" lon="1.21929">
        <ele>139</ele>
        <time>2023-03-04T00:20:16Z</time>
      </trkpt>
      <trkpt lat="44.48454" lon="1.22044">
        <ele>135</ele>
        <time>2023-03-04T00:20:30Z</time>
      </trkpt>
      <trkpt lat="44.48432" lon="1.22126">
        <ele>131</ele>
        <time>2023-03-04T00:20:41Z</time>
      </trkpt>
      <trkpt lat="44.48391" lon="1.22211">
        <ele>133</ele>
        <time>2023-03-04T00:20:54Z</time>
      </trkpt>
      <trkpt lat="44.48378" lon="1.22247">
        <ele>133</ele>
        <time>2023-03-04T00:21:00Z</time>
      </trkpt>
      <trkpt lat="44.48338" lon="1.22303">
        <ele>134</ele>
        <time>2023-03-04T00:21:10Z</time>
      </trkpt>
      <trkpt lat="44.48318" lon="1.22351">
        <ele>135</ele>
        <time>2023-03-04T00:21:17Z</time>
      </trkpt>
      <trkpt lat="44.48293" lon="1.22437">
        <ele>132</ele>
        <time>2023-03-04T00:21:28Z</time>
      </trkpt>
      <trkpt lat="44.48293" lon="1.2251">
        <ele>130</ele>
        <time>2023-03-04T00:21:38Z</time>
      </trkpt>
      <trkpt lat="44.48261" lon="1.226">
        <ele>126</ele>
        <time>2023-03-04T00:21:51Z</time>
      </trkpt>
      <trkpt lat="44.48244" lon="1.2264">
        <ele>124</ele>
        <time>2023-03-04T00:21:56Z</time>
      </trkpt>
      <trkpt lat="44.48241" lon="1.22683">
        <ele>122</ele>
        <time>2023-03-04T00:22:02Z</time>
      </trkpt>
      <trkpt lat="44.48226" lon="1.2273">
        <ele>121</ele>
        <time>2023-03-04T00:22:08Z</time>
      </trkpt>
      <trkpt lat="44.48187" lon="1.22795">
        <ele>118</ele>
        <time>2023-03-04T00:22:19Z</time>
      </trkpt>
      <trkpt lat="44.48149" lon="1.22844">
        <ele>115</ele>
        <time>2023-03-04T00:22:28Z</time>
      </trkpt>
      <trkpt lat="44.48043" lon="1.23035">
        <ele>103</ele>
        <time>2023-03-04T00:22:59Z</time>
      </trkpt>
      <trkpt lat="44.47954" lon="1.23092">
        <ele>100</ele>
        <time>2023-03-04T00:23:17Z</time>
      </trkpt>
      <trkpt lat="44.47894" lon="1.23151">
        <ele>99</ele>
        <time>2023-03-04T00:23:30Z</time>
      </trkpt>
      <trkpt lat="44.47734" lon="1.23199">
        <ele>97</ele>
        <time>2023-03-04T00:23:59Z</time>
      </trkpt>
      <trkpt lat="44.47508" lon="1.23231">
        <ele>103</ele>
        <time>2023-03-04T00:24:39Z</time>
      </trkpt>
      <trkpt lat="44.47412" lon="1.23262">
        <ele>102</ele>
        <time>2023-03-04T00:24:57Z</time>
      </trkpt>
      <trkpt lat="44.47376" lon="1.23263">
        <ele>104</ele>
        <time>2023-03-04T00:25:03Z</time>
      </trkpt>
      <trkpt lat="44.47357" lon="1.23268">
        <ele>104</ele>
        <time>2023-03-04T00:25:07Z</time>
      </trkpt>
      <trkpt lat="44.47332" lon="1.23284">
        <ele>104</ele>
        <time>2023-03-04T00:25:11Z</time>
      </trkpt>
      <trkpt lat="44.47266" lon="1.23363">
        <ele>112</ele>
        <time>2023-03-04T00:25:27Z</time>
      </trkpt>
      <trkpt lat="44.47235" lon="1.23392">
        <ele>114</ele>
        <time>2023-03-04T00:25:33Z</time>
      </trkpt>
      <trkpt lat="44.47196" lon="1.23436">
        <ele>118</ele>
        <time>2023-03-04T00:25:42Z</time>
      </trkpt>
      <trkpt lat="44.47174" lon="1.23465">
        <ele>116</ele>
        <time>2023-03-04T00:25:48Z</time>
      </trkpt>
      <trkpt lat="44.47141" lon="1.23483">
        <ele>120</ele>
        <time>2023-03-04T00:25:54Z</time>
      </trkpt>
      <trkpt lat="44.47116" lon="1.23503">
        <ele>121</ele>
        <time>2023-03-04T00:25:59Z</time>
      </trkpt>
      <trkpt lat="44.47078" lon="1.23521">
        <ele>126</ele>
        <time>2023-03-04T00:26:06Z</time>
      </trkpt>
      <trkpt lat="44.47038" lon="1.2355">
        <ele>127</ele>
        <time>2023-03-04T00:26:14Z</time>
      </trkpt>
      <trkpt lat="44.47013" lon="1.23575">
        <ele>124</ele>
        <time>2023-03-04T00:26:20Z</time>
      </trkpt>
      <trkpt lat="44.46905" lon="1.2361">
        <ele>133</ele>
        <time>2023-03-04T00:26:40Z</time>
      </trkpt>
      <trkpt lat="44.46833" lon="1.23661">
        <ele>129</ele>
        <time>2023-03-04T00:26:54Z</time>
      </trkpt>
      <trkpt lat="44.46847" lon="1.23775">
        <ele>126</ele>
        <time>2023-03-04T00:27:09Z</time>
      </trkpt>
      <trkpt lat="44.4682" lon="1.23796">
        <ele>129</ele>
        <time>2023-03-04T00:27:14Z</time>
      </trkpt>
      <trkpt lat="44.46804" lon="1.23842">
        <ele>132</ele>
        <time>2023-03-04T00:27:21Z</time>
      </trkpt>
      <trkpt lat="44.46787" lon="1.23902">
        <ele>139</ele>
        <time>2023-03-04T00:27:29Z</time>
      </trkpt>
      <trkpt lat="44.46761" lon="1.24022">
        <ele>144</ele>
        <time>2023-03-04T00:27:45Z</time>
      </trkpt>
      <trkpt lat="44.46766" lon="1.24072">
        <ele>138</ele>
        <time>2023-03-04T00:27:51Z</time>
      </trkpt>
      <trkpt lat="44.46766" lon="1.24118">
        <ele>137</ele>
        <time>2023-03-04T00:27:57Z</time>
      </trkpt>
      <trkpt lat="44.46771" lon="1.24169">
        <ele>133</ele>
        <time>2023-03-04T00:28:03Z</time>
      </trkpt>
      <trkpt lat="44.46764" lon="1.24222">
        <ele>134</ele>
        <time>2023-03-04T00:28:10Z</time>
      </trkpt>
      <trkpt lat="44.46761" lon="1.24257">
        <ele>134</ele>
        <time>2023-03-04T00:28:15Z</time>
      </trkpt>
      <trkpt lat="44.46775" lon="1.2435">
        <ele>127</ele>
        <time>2023-03-04T00:28:27Z</time>
      </trkpt>
      <trkpt lat="44.46819" lon="1.2447">
        <ele>119</ele>
        <time>2023-03-04T00:28:44Z</time>
      </trkpt>
      <trkpt lat="44.46901" lon="1.24593">
        <ele>116</ele>
        <time>2023-03-04T00:29:05Z</time>
      </trkpt>
      <trkpt lat="44.46953" lon="1.2466">
        <ele>114</ele>
        <time>2023-03-04T00:29:18Z</time>
      </trkpt>
      <trkpt lat="44.47136" lon="1.24841">
        <ele>112</ele>
        <time>2023-03-04T00:29:58Z</time>
      </trkpt>
      <trkpt lat="44.47225" lon="1.24951">
        <ele>116</ele>
        <time>2023-03-04T00:30:19Z</time>
      </trkpt>
      <trkpt lat="44.4727" lon="1.25038">
        <ele>113</ele>
        <time>2023-03-04T00:30:33Z</time>
      </trkpt>
      <trkpt lat="44.47286" lon="1.25085">
        <ele>112</ele>
        <time>2023-03-04T00:30:39Z</time>
      </trkpt>
      <trkpt lat="44.47337" lon="1.25163">
        <ele>111</ele>
        <time>2023-03-04T00:30:53Z</time>
      </trkpt>
      <trkpt lat="44.47494" lon="1.25412">
        <ele>126</ele>
        <time>2023-03-04T00:31:35Z</time>
      </trkpt>
      <trkpt lat="44.47767" lon="1.25724">
        <ele>132</ele>
        <time>2023-03-04T00:32:37Z</time>
      </trkpt>
      <trkpt lat="44.4804" lon="1.26005">
        <ele>146</ele>
        <time>2023-03-04T00:33:38Z</time>
      </trkpt>
      <trkpt lat="44.48201" lon="1.26286">
        <ele>149</ele>
        <time>2023-03-04T00:34:23Z</time>
      </trkpt>
      <trkpt lat="44.48247" lon="1.26334">
        <ele>144</ele>
        <time>2023-03-04T00:34:34Z</time>
      </trkpt>
      <trkpt lat="44.48306" lon="1.26379">
        <ele>140</ele>
        <time>2023-03-04T00:34:46Z</time>
      </trkpt>
      <trkpt lat="44.48319" lon="1.26394">
        <ele>139</ele>
        <time>2023-03-04T00:34:49Z</time>
      </trkpt>
      <trkpt lat="44.48334" lon="1.26418">
        <ele>137</ele>
        <time>2023-03-04T00:34:53Z</time>
      </trkpt>
      <trkpt lat="44.48344" lon="1.26442">
        <ele>135</ele>
        <time>2023-03-04T00:34:56Z</time>
      </trkpt>
      <trkpt lat="44.48352" lon="1.26463">
        <ele>133</ele>
        <time>2023-03-04T00:34:59Z</time>
      </trkpt>
      <trkpt lat="44.48357" lon="1.2649">
        <ele>131</ele>
        <time>2023-03-04T00:35:03Z</time>
      </trkpt>
      <trkpt lat="44.4836" lon="1.26521">
        <ele>129</ele>
        <time>2023-03-04T00:35:07Z</time>
      </trkpt>
      <trkpt lat="44.4836" lon="1.26551">
        <ele>127</ele>
        <time>2023-03-04T00:35:11Z</time>
      </trkpt>
      <trkpt lat="44.48356" lon="1.26583">
        <ele>126</ele>
        <time>2023-03-04T00:35:15Z</time>
      </trkpt>
      <trkpt lat="44.48327" lon="1.26698">
        <ele>120</ele>
        <time>2023-03-04T00:35:30Z</time>
      </trkpt>
      <trkpt lat="44.48325" lon="1.26719">
        <ele>119</ele>
        <time>2023-03-04T00:35:33Z</time>
      </trkpt>
      <trkpt lat="44.48325" lon="1.26747">
        <ele>117</ele>
        <time>2023-03-04T00:35:36Z</time>
      </trkpt>
      <trkpt lat="44.48334" lon="1.26864">
        <ele>111</ele>
        <time>2023-03-04T00:35:51Z</time>
      </trkpt>
      <trkpt lat="44.48335" lon="1.26896">
        <ele>111</ele>
        <time>2023-03-04T00:35:55Z</time>
      </trkpt>
      <trkpt lat="44.48334" lon="1.26928">
        <ele>111</ele>
        <time>2023-03-04T00:35:59Z</time>
      </trkpt>
      <trkpt lat="44.4831" lon="1.27134">
        <ele>113</ele>
        <time>2023-03-04T00:36:26Z</time>
      </trkpt>
      <trkpt lat="44.483" lon="1.27172">
        <ele>113</ele>
        <time>2023-03-04T00:36:31Z</time>
      </trkpt>
      <trkpt lat="44.48293" lon="1.2721">
        <ele>113</ele>
        <time>2023-03-04T00:36:36Z</time>
      </trkpt>
      <trkpt lat="44.48291" lon="1.27242">
        <ele>111</ele>
        <time>2023-03-04T00:36:40Z</time>
      </trkpt>
      <trkpt lat="44.48293" lon="1.27285">
        <ele>110</ele>
        <time>2023-03-04T00:36:46Z</time>
      </trkpt>
      <trkpt lat="44.48279" lon="1.27408">
        <ele>108</ele>
        <time>2023-03-04T00:37:01Z</time>
      </trkpt>
      <trkpt lat="44.48275" lon="1.27429">
        <ele>108</ele>
        <time>2023-03-04T00:37:04Z</time>
      </trkpt>
      <trkpt lat="44.48189" lon="1.27636">
        <ele>108</ele>
        <time>2023-03-04T00:37:35Z</time>
      </trkpt>
      <trkpt lat="44.48161" lon="1.27709">
        <ele>109</ele>
        <time>2023-03-04T00:37:45Z</time>
      </trkpt>
      <trkpt lat="44.48138" lon="1.27752">
        <ele>109</ele>
        <time>2023-03-04T00:37:52Z</time>
      </trkpt>
      <trkpt lat="44.48099" lon="1.27834">
        <ele>107</ele>
        <time>2023-03-04T00:38:04Z</time>
      </trkpt>
      <trkpt lat="44.48028" lon="1.2797">
        <ele>106</ele>
        <time>2023-03-04T00:38:26Z</time>
      </trkpt>
      <trkpt lat="44.48012" lon="1.27989">
        <ele>106</ele>
        <time>2023-03-04T00:38:30Z</time>
      </trkpt>
      <trkpt lat="44.47984" lon="1.28013">
        <ele>106</ele>
        <time>2023-03-04T00:38:35Z</time>
      </trkpt>
      <trkpt lat="44.47734" lon="1.28191">
        <ele>104</ele>
        <time>2023-03-04T00:39:25Z</time>
      </trkpt>
      <trkpt lat="44.47725" lon="1.28204">
        <ele>104</ele>
        <time>2023-03-04T00:39:28Z</time>
      </trkpt>
      <trkpt lat="44.47719" lon="1.28215">
        <ele>103</ele>
        <time>2023-03-04T00:39:29Z</time>
      </trkpt>
      <trkpt lat="44.47717" lon="1.28226">
        <ele>103</ele>
        <time>2023-03-04T00:39:31Z</time>
      </trkpt>
      <trkpt lat="44.47717" lon="1.28238">
        <ele>103</ele>
        <time>2023-03-04T00:39:32Z</time>
      </trkpt>
      <trkpt lat="44.47747" lon="1.28375">
        <ele>101</ele>
        <time>2023-03-04T00:39:51Z</time>
      </trkpt>
      <trkpt lat="44.47798" lon="1.28578">
        <ele>102</ele>
        <time>2023-03-04T00:40:18Z</time>
      </trkpt>
      <trkpt lat="44.47795" lon="1.28582">
        <ele>102</ele>
        <time>2023-03-04T00:40:19Z</time>
      </trkpt>
      <trkpt lat="44.47797" lon="1.28589">
        <ele>102</ele>
        <time>2023-03-04T00:40:20Z</time>
      </trkpt>
      <trkpt lat="44.47797" lon="1.28599">
        <ele>103</ele>
        <time>2023-03-04T00:40:21Z</time>
      </trkpt>
      <trkpt lat="44.47831" lon="1.28763">
        <ele>106</ele>
        <time>2023-03-04T00:40:42Z</time>
      </trkpt>
      <trkpt lat="44.47833" lon="1.28776">
        <ele>105</ele>
        <time>2023-03-04T00:40:44Z</time>
      </trkpt>
      <trkpt lat="44.4784" lon="1.2878">
        <ele>105</ele>
        <time>2023-03-04T00:40:46Z</time>
      </trkpt>
      <trkpt lat="44.47847" lon="1.28801">
        <ele>103</ele>
        <time>2023-03-04T00:40:48Z</time>
      </trkpt>
      <trkpt lat="44.47895" lon="1.2903">
        <ele>102</ele>
        <time>2023-03-04T00:41:19Z</time>
      </trkpt>
      <trkpt lat="44.47901" lon="1.29066">
        <ele>102</ele>
        <time>2023-03-04T00:41:23Z</time>
      </trkpt>
      <trkpt lat="44.479" lon="1.29118">
        <ele>103</ele>
        <time>2023-03-04T00:41:30Z</time>
      </trkpt>
      <trkpt lat="44.47892" lon="1.29167">
        <ele>103</ele>
        <time>2023-03-04T00:41:36Z</time>
      </trkpt>
      <trkpt lat="44.47879" lon="1.29212">
        <ele>103</ele>
        <time>2023-03-04T00:41:43Z</time>
      </trkpt>
      <trkpt lat="44.47872" lon="1.2923">
        <ele>103</ele>
        <time>2023-03-04T00:41:45Z</time>
      </trkpt>
      <trkpt lat="44.47803" lon="1.29339">
        <ele>105</ele>
        <time>2023-03-04T00:42:04Z</time>
      </trkpt>
      <trkpt lat="44.478" lon="1.29335">
        <ele>105</ele>
        <time>2023-03-04T00:42:04Z</time>
      </trkpt>
      <trkpt lat="44.47796" lon="1.29333">
        <ele>105</ele>
        <time>2023-03-04T00:42:05Z</time>
      </trkpt>
      <trkpt lat="44.47791" lon="1.29335">
        <ele>105</ele>
        <time>2023-03-04T00:42:06Z</time>
      </trkpt>
      <trkpt lat="44.47787" lon="1.29342">
        <ele>105</ele>
        <time>2023-03-04T00:42:07Z</time>
      </trkpt>
      <trkpt lat="44.47788" lon="1.29352">
        <ele>105</ele>
        <time>2023-03-04T00:42:09Z</time>
      </trkpt>
      <trkpt lat="44.4779" lon="1.29356">
        <ele>106</ele>
        <time>2023-03-04T00:42:09Z</time>
      </trkpt>
      <trkpt lat="44.47785" lon="1.29362">
        <ele>106</ele>
        <time>2023-03-04T00:42:10Z</time>
      </trkpt>
      <trkpt lat="44.47766" lon="1.29408">
        <ele>107</ele>
        <time>2023-03-04T00:42:17Z</time>
      </trkpt>
      <trkpt lat="44.47724" lon="1.29473">
        <ele>111</ele>
        <time>2023-03-04T00:42:28Z</time>
      </trkpt>
      <trkpt lat="44.47676" lon="1.29518">
        <ele>112</ele>
        <time>2023-03-04T00:42:39Z</time>
      </trkpt>
      <trkpt lat="44.47619" lon="1.2956">
        <ele>115</ele>
        <time>2023-03-04T00:42:50Z</time>
      </trkpt>
      <trkpt lat="44.47556" lon="1.29599">
        <ele>115</ele>
        <time>2023-03-04T00:43:02Z</time>
      </trkpt>
      <trkpt lat="44.47524" lon="1.2963">
        <ele>115</ele>
        <time>2023-03-04T00:43:09Z</time>
      </trkpt>
      <trkpt lat="44.47512" lon="1.29652">
        <ele>117</ele>
        <time>2023-03-04T00:43:13Z</time>
      </trkpt>
      <trkpt lat="44.47505" lon="1.29678">
        <ele>119</ele>
        <time>2023-03-04T00:43:16Z</time>
      </trkpt>
      <trkpt lat="44.47502" lon="1.29733">
        <ele>123</ele>
        <time>2023-03-04T00:43:23Z</time>
      </trkpt>
      <trkpt lat="44.47501" lon="1.29789">
        <ele>126</ele>
        <time>2023-03-04T00:43:30Z</time>
      </trkpt>
      <trkpt lat="44.47503" lon="1.29807">
        <ele>128</ele>
        <time>2023-03-04T00:43:33Z</time>
      </trkpt>
      <trkpt lat="44.47508" lon="1.29823">
        <ele>129</ele>
        <time>2023-03-04T00:43:35Z</time>
      </trkpt>
      <trkpt lat="44.47515" lon="1.29838">
        <ele>129</ele>
        <time>2023-03-04T00:43:37Z</time>
      </trkpt>
      <trkpt lat="44.4756" lon="1.29896">
        <ele>132</ele>
        <time>2023-03-04T00:43:48Z</time>
      </trkpt>
      <trkpt lat="44.47567" lon="1.2991">
        <ele>133</ele>
        <time>2023-03-04T00:43:50Z</time>
      </trkpt>
      <trkpt lat="44.47579" lon="1.29943">
        <ele>134</ele>
        <time>2023-03-04T00:43:55Z</time>
      </trkpt>
      <trkpt lat="44.47583" lon="1.29971">
        <ele>135</ele>
        <time>2023-03-04T00:43:58Z</time>
      </trkpt>
      <trkpt lat="44.47585" lon="1.29992">
        <ele>135</ele>
        <time>2023-03-04T00:44:01Z</time>
      </trkpt>
      <trkpt lat="44.47583" lon="1.30016">
        <ele>136</ele>
        <time>2023-03-04T00:44:04Z</time>
      </trkpt>
      <trkpt lat="44.47574" lon="1.3005">
        <ele>138</ele>
        <time>2023-03-04T00:44:09Z</time>
      </trkpt>
      <trkpt lat="44.47561" lon="1.30081">
        <ele>139</ele>
        <time>2023-03-04T00:44:13Z</time>
      </trkpt>
      <trkpt lat="44.47557" lon="1.30101">
        <ele>140</ele>
        <time>2023-03-04T00:44:16Z</time>
      </trkpt>
      <trkpt lat="44.47558" lon="1.30127">
        <ele>142</ele>
        <time>2023-03-04T00:44:19Z</time>
      </trkpt>
      <trkpt lat="44.47562" lon="1.30141">
        <ele>143</ele>
        <time>2023-03-04T00:44:21Z</time>
      </trkpt>
      <trkpt lat="44.47567" lon="1.30153">
        <ele>143</ele>
        <time>2023-03-04T00:44:23Z</time>
      </trkpt>
      <trkpt lat="44.47574" lon="1.30161">
        <ele>144</ele>
        <time>2023-03-04T00:44:25Z</time>
      </trkpt>
      <trkpt lat="44.47637" lon="1.30218">
        <ele>146</ele>
        <time>2023-03-04T00:44:38Z</time>
      </trkpt>
      <trkpt lat="44.47691" lon="1.30264">
        <ele>143</ele>
        <time>2023-03-04T00:44:49Z</time>
      </trkpt>
      <trkpt lat="44.47727" lon="1.30308">
        <ele>140</ele>
        <time>2023-03-04T00:44:58Z</time>
      </trkpt>
      <trkpt lat="44.47743" lon="1.30335">
        <ele>138</ele>
        <time>2023-03-04T00:45:02Z</time>
      </trkpt>
      <trkpt lat="44.47755" lon="1.30359">
        <ele>137</ele>
        <time>2023-03-04T00:45:06Z</time>
      </trkpt>
      <trkpt lat="44.47772" lon="1.30403">
        <ele>137</ele>
        <time>2023-03-04T00:45:12Z</time>
      </trkpt>
      <trkpt lat="44.47785" lon="1.30457">
        <ele>136</ele>
        <time>2023-03-04T00:45:19Z</time>
      </trkpt>
      <trkpt lat="44.47791" lon="1.30501">
        <ele>135</ele>
        <time>2023-03-04T00:45:25Z</time>
      </trkpt>
      <trkpt lat="44.47792" lon="1.30698">
        <ele>134</ele>
        <time>2023-03-04T00:45:50Z</time>
      </trkpt>
      <trkpt lat="44.47787" lon="1.30754">
        <ele>133</ele>
        <time>2023-03-04T00:45:57Z</time>
      </trkpt>
      <trkpt lat="44.47744" lon="1.30895">
        <ele>136</ele>
        <time>2023-03-04T00:46:17Z</time>
      </trkpt>
      <trkpt lat="44.47737" lon="1.30936">
        <ele>137</ele>
        <time>2023-03-04T00:46:22Z</time>
      </trkpt>
      <trkpt lat="44.47731" lon="1.31098">
        <ele>140</ele>
        <time>2023-03-04T00:46:43Z</time>
      </trkpt>
      <trkpt lat="44.47726" lon="1.31123">
        <ele>140</ele>
        <time>2023-03-04T00:46:46Z</time>
      </trkpt>
      <trkpt lat="44.47714" lon="1.31174">
        <ele>141</ele>
        <time>2023-03-04T00:46:53Z</time>
      </trkpt>
      <trkpt lat="44.47699" lon="1.31219">
        <ele>140</ele>
        <time>2023-03-04T00:46:59Z</time>
      </trkpt>
      <trkpt lat="44.47673" lon="1.31293">
        <ele>139</ele>
        <time>2023-03-04T00:47:10Z</time>
      </trkpt>
      <trkpt lat="44.47643" lon="1.31384">
        <ele>140</ele>
        <time>2023-03-04T00:47:22Z</time>
      </trkpt>
      <trkpt lat="44.47626" lon="1.31481">
        <ele>139</ele>
        <time>2023-03-04T00:47:35Z</time>
      </trkpt>
      <trkpt lat="44.47623" lon="1.31537">
        <ele>140</ele>
        <time>2023-03-04T00:47:42Z</time>
      </trkpt>
      <trkpt lat="44.47642" lon="1.31783">
        <ele>135</ele>
        <time>2023-03-04T00:48:14Z</time>
      </trkpt>
      <trkpt lat="44.4766" lon="1.31893">
        <ele>134</ele>
        <time>2023-03-04T00:48:28Z</time>
      </trkpt>
      <trkpt lat="44.47698" lon="1.32138">
        <ele>134</ele>
        <time>2023-03-04T00:49:00Z</time>
      </trkpt>
      <trkpt lat="44.47703" lon="1.32176">
        <ele>135</ele>
        <time>2023-03-04T00:49:05Z</time>
      </trkpt>
      <trkpt lat="44.47705" lon="1.3221">
        <ele>137</ele>
        <time>2023-03-04T00:49:09Z</time>
      </trkpt>
      <trkpt lat="44.477" lon="1.3225">
        <ele>139</ele>
        <time>2023-03-04T00:49:14Z</time>
      </trkpt>
      <trkpt lat="44.47688" lon="1.32296">
        <ele>142</ele>
        <time>2023-03-04T00:49:20Z</time>
      </trkpt>
      <trkpt lat="44.47656" lon="1.32394">
        <ele>144</ele>
        <time>2023-03-04T00:49:34Z</time>
      </trkpt>
      <trkpt lat="44.47645" lon="1.32438">
        <ele>145</ele>
        <time>2023-03-04T00:49:40Z</time>
      </trkpt>
      <trkpt lat="44.47613" lon="1.32653">
        <ele>150</ele>
        <time>2023-03-04T00:50:08Z</time>
      </trkpt>
      <trkpt lat="44.47611" lon="1.3268">
        <ele>151</ele>
        <time>2023-03-04T00:50:11Z</time>
      </trkpt>
      <trkpt lat="44.47611" lon="1.32714">
        <ele>150</ele>
        <time>2023-03-04T00:50:16Z</time>
      </trkpt>
      <trkpt lat="44.47614" lon="1.32781">
        <ele>149</ele>
        <time>2023-03-04T00:50:24Z</time>
      </trkpt>
      <trkpt lat="44.47612" lon="1.32811">
        <ele>148</ele>
        <time>2023-03-04T00:50:28Z</time>
      </trkpt>
      <trkpt lat="44.47597" lon="1.32896">
        <ele>147</ele>
        <time>2023-03-04T00:50:39Z</time>
      </trkpt>
      <trkpt lat="44.47598" lon="1.32921">
        <ele>146</ele>
        <time>2023-03-04T00:50:42Z</time>
      </trkpt>
      <trkpt lat="44.47607" lon="1.32966">
        <ele>144</ele>
        <time>2023-03-04T00:50:48Z</time>
      </trkpt>
      <trkpt lat="44.47609" lon="1.32995">
        <ele>143</ele>
        <time>2023-03-04T00:50:52Z</time>
      </trkpt>
      <trkpt lat="44.47607" lon="1.33017">
        <ele>142</ele>
        <time>2023-03-04T00:50:55Z</time>
      </trkpt>
      <trkpt lat="44.47602" lon="1.3304">
        <ele>142</ele>
        <time>2023-03-04T00:50:58Z</time>
      </trkpt>
      <trkpt lat="44.47572" lon="1.33139">
        <ele>146</ele>
        <time>2023-03-04T00:51:11Z</time>
      </trkpt>
      <trkpt lat="44.47562" lon="1.33199">
        <ele>148</ele>
        <time>2023-03-04T00:51:19Z</time>
      </trkpt>
      <trkpt lat="44.47564" lon="1.33276">
        <ele>145</ele>
        <time>2023-03-04T00:51:29Z</time>
      </trkpt>
      <trkpt lat="44.47559" lon="1.33369">
        <ele>144</ele>
        <time>2023-03-04T00:51:41Z</time>
      </trkpt>
      <trkpt lat="44.47562" lon="1.33409">
        <ele>140</ele>
        <time>2023-03-04T00:51:46Z</time>
      </trkpt>
      <trkpt lat="44.47573" lon="1.33503">
        <ele>131</ele>
        <time>2023-03-04T00:51:58Z</time>
      </trkpt>
      <trkpt lat="44.47583" lon="1.33609">
        <ele>120</ele>
        <time>2023-03-04T00:52:12Z</time>
      </trkpt>
      <trkpt lat="44.47591" lon="1.33658">
        <ele>119</ele>
        <time>2023-03-04T00:52:18Z</time>
      </trkpt>
      <trkpt lat="44.47603" lon="1.337">
        <ele>117</ele>
        <time>2023-03-04T00:52:24Z</time>
      </trkpt>
      <trkpt lat="44.47621" lon="1.33747">
        <ele>114</ele>
        <time>2023-03-04T00:52:31Z</time>
      </trkpt>
      <trkpt lat="44.47697" lon="1.33891">
        <ele>112</ele>
        <time>2023-03-04T00:52:53Z</time>
      </trkpt>
      <trkpt lat="44.47728" lon="1.33957">
        <ele>114</ele>
        <time>2023-03-04T00:53:03Z</time>
      </trkpt>
      <trkpt lat="44.47799" lon="1.34124">
        <ele>113</ele>
        <time>2023-03-04T00:53:28Z</time>
      </trkpt>
      <trkpt lat="44.47822" lon="1.3419">
        <ele>113</ele>
        <time>2023-03-04T00:53:37Z</time>
      </trkpt>
      <trkpt lat="44.47838" lon="1.34273">
        <ele>113</ele>
        <time>2023-03-04T00:53:48Z</time>
      </trkpt>
      <trkpt lat="44.47871" lon="1.34465">
        <ele>115</ele>
        <time>2023-03-04T00:54:13Z</time>
      </trkpt>
      <trkpt lat="44.47873" lon="1.34494">
        <ele>115</ele>
        <time>2023-03-04T00:54:17Z</time>
      </trkpt>
      <trkpt lat="44.47874" lon="1.34577">
        <ele>117</ele>
        <time>2023-03-04T00:54:28Z</time>
      </trkpt>
      <trkpt lat="44.47869" lon="1.34688">
        <ele>119</ele>
        <time>2023-03-04T00:54:42Z</time>
      </trkpt>
      <trkpt lat="44.47869" lon="1.34734">
        <ele>121</ele>
        <time>2023-03-04T00:54:48Z</time>
      </trkpt>
      <trkpt lat="44.47879" lon="1.34825">
        <ele>123</ele>
        <time>2023-03-04T00:54:59Z</time>
      </trkpt>
      <trkpt lat="44.47896" lon="1.34906">
        <ele>124</ele>
        <time>2023-03-04T00:55:10Z</time>
      </trkpt>
      <trkpt lat="44.47944" lon="1.35098">
        <ele>126</ele>
        <time>2023-03-04T00:55:36Z</time>
      </trkpt>
      <trkpt lat="44.47956" lon="1.35139">
        <ele>127</ele>
        <time>2023-03-04T00:55:41Z</time>
      </trkpt>
      <trkpt lat="44.47989" lon="1.35207">
        <ele>127</ele>
        <time>2023-03-04T00:55:52Z</time>
      </trkpt>
      <trkpt lat="44.4801" lon="1.35255">
        <ele>127</ele>
        <time>2023-03-04T00:55:59Z</time>
      </trkpt>
      <trkpt lat="44.48019" lon="1.35284">
        <ele>126</ele>
        <time>2023-03-04T00:56:03Z</time>
      </trkpt>
      <trkpt lat="44.48028" lon="1.35323">
        <ele>125</ele>
        <time>2023-03-04T00:56:08Z</time>
      </trkpt>
      <trkpt lat="44.48042" lon="1.35395">
        <ele>124</ele>
        <time>2023-03-04T00:56:18Z</time>
      </trkpt>
      <trkpt lat="44.48051" lon="1.35494">
        <ele>123</ele>
        <time>2023-03-04T00:56:30Z</time>
      </trkpt>
      <trkpt lat="44.48052" lon="1.35523">
        <ele>122</ele>
        <time>2023-03-04T00:56:34Z</time>
      </trkpt>
      <trkpt lat="44.4805" lon="1.35539">
        <ele>122</ele>
        <time>2023-03-04T00:56:36Z</time>
      </trkpt>
      <trkpt lat="44.48028" lon="1.35594">
        <ele>122</ele>
        <time>2023-03-04T00:56:44Z</time>
      </trkpt>
      <trkpt lat="44.48005" lon="1.35634">
        <ele>122</ele>
        <time>2023-03-04T00:56:51Z</time>
      </trkpt>
      <trkpt lat="44.47973" lon="1.35682">
        <ele>123</ele>
        <time>2023-03-04T00:56:59Z</time>
      </trkpt>
      <trkpt lat="44.47885" lon="1.35788">
        <ele>124</ele>
        <time>2023-03-04T00:57:20Z</time>
      </trkpt>
      <trkpt lat="44.47856" lon="1.35818">
        <ele>122</ele>
        <time>2023-03-04T00:57:26Z</time>
      </trkpt>
      <trkpt lat="44.47821" lon="1.35835">
        <ele>121</ele>
        <time>2023-03-04T00:57:33Z</time>
      </trkpt>
      <trkpt lat="44.47725" lon="1.35872">
        <ele>120</ele>
        <time>2023-03-04T00:57:50Z</time>
      </trkpt>
      <trkpt lat="44.47701" lon="1.35872">
        <ele>120</ele>
        <time>2023-03-04T00:57:55Z</time>
      </trkpt>
      <trkpt lat="44.47655" lon="1.35866">
        <ele>122</ele>
        <time>2023-03-04T00:58:03Z</time>
      </trkpt>
      <trkpt lat="44.4764" lon="1.35868">
        <ele>122</ele>
        <time>2023-03-04T00:58:05Z</time>
      </trkpt>
      <trkpt lat="44.47568" lon="1.35891">
        <ele>120</ele>
        <time>2023-03-04T00:58:19Z</time>
      </trkpt>
      <trkpt lat="44.47459" lon="1.35902">
        <ele>124</ele>
        <time>2023-03-04T00:58:38Z</time>
      </trkpt>
      <trkpt lat="44.47424" lon="1.35912">
        <ele>122</ele>
        <time>2023-03-04T00:58:44Z</time>
      </trkpt>
      <trkpt lat="44.47377" lon="1.35931">
        <ele>123</ele>
        <time>2023-03-04T00:58:53Z</time>
      </trkpt>
      <trkpt lat="44.47277" lon="1.3598">
        <ele>118</ele>
        <time>2023-03-04T00:59:12Z</time>
      </trkpt>
      <trkpt lat="44.4711" lon="1.36072">
        <ele>112</ele>
        <time>2023-03-04T00:59:44Z</time>
      </trkpt>
      <trkpt lat="44.47097" lon="1.3608">
        <ele>113</ele>
        <time>2023-03-04T00:59:46Z</time>
      </trkpt>
      <trkpt lat="44.47072" lon="1.36103">
        <ele>112</ele>
        <time>2023-03-04T00:59:52Z</time>
      </trkpt>
      <trkpt lat="44.47049" lon="1.36128">
        <ele>112</ele>
        <time>2023-03-04T00:59:57Z</time>
      </trkpt>
      <trkpt lat="44.47001" lon="1.36191">
        <ele>111</ele>
        <time>2023-03-04T01:00:09Z</time>
      </trkpt>
      <trkpt lat="44.4693" lon="1.36275">
        <ele>119</ele>
        <time>2023-03-04T01:00:25Z</time>
      </trkpt>
      <trkpt lat="44.46876" lon="1.36345">
        <ele>125</ele>
        <time>2023-03-04T01:00:38Z</time>
      </trkpt>
      <trkpt lat="44.46807" lon="1.36444">
        <ele>129</ele>
        <time>2023-03-04T01:00:56Z</time>
      </trkpt>
      <trkpt lat="44.46776" lon="1.36493">
        <ele>131</ele>
        <time>2023-03-04T01:01:04Z</time>
      </trkpt>
      <trkpt lat="44.4675" lon="1.36525">
        <ele>129</ele>
        <time>2023-03-04T01:01:10Z</time>
      </trkpt>
      <trkpt lat="44.46731" lon="1.36553">
        <ele>132</ele>
        <time>2023-03-04T01:01:15Z</time>
      </trkpt>
      <trkpt lat="44.46698" lon="1.36606">
        <ele>136</ele>
        <time>2023-03-04T01:01:24Z</time>
      </trkpt>
      <trkpt lat="44.46679" lon="1.3665">
        <ele>133</ele>
        <time>2023-03-04T01:01:31Z</time>
      </trkpt>
      <trkpt lat="44.46651" lon="1.3672">
        <ele>132</ele>
        <time>2023-03-04T01:01:41Z</time>
      </trkpt>
      <trkpt lat="44.46638" lon="1.3676">
        <ele>133</ele>
        <time>2023-03-04T01:01:46Z</time>
      </trkpt>
      <trkpt lat="44.46588" lon="1.36933">
        <ele>136</ele>
        <time>2023-03-04T01:02:10Z</time>
      </trkpt>
      <trkpt lat="44.4658" lon="1.36964">
        <ele>139</ele>
        <time>2023-03-04T01:02:14Z</time>
      </trkpt>
      <trkpt lat="44.46578" lon="1.36986">
        <ele>140</ele>
        <time>2023-03-04T01:02:17Z</time>
      </trkpt>
      <trkpt lat="44.46577" lon="1.37055">
        <ele>137</ele>
        <time>2023-03-04T01:02:26Z</time>
      </trkpt>
      <trkpt lat="44.46571" lon="1.37143">
        <ele>139</ele>
        <time>2023-03-04T01:02:37Z</time>
      </trkpt>
      <trkpt lat="44.4657" lon="1.37174">
        <ele>139</ele>
        <time>2023-03-04T01:02:41Z</time>
      </trkpt>
      <trkpt lat="44.46592" lon="1.37357">
        <ele>138</ele>
        <time>2023-03-04T01:03:05Z</time>
      </trkpt>
      <trkpt lat="44.46598" lon="1.37388">
        <ele>140</ele>
        <time>2023-03-04T01:03:09Z</time>
      </trkpt>
      <trkpt lat="44.46634" lon="1.37511">
        <ele>139</ele>
        <time>2023-03-04T01:03:26Z</time>
      </trkpt>
      <trkpt lat="44.46703" lon="1.37653">
        <ele>138</ele>
        <time>2023-03-04T01:03:47Z</time>
      </trkpt>
      <trkpt lat="44.46719" lon="1.37681">
        <ele>138</ele>
        <time>2023-03-04T01:03:52Z</time>
      </trkpt>
      <trkpt lat="44.46737" lon="1.37704">
        <ele>138</ele>
        <time>2023-03-04T01:03:56Z</time>
      </trkpt>
      <trkpt lat="44.46804" lon="1.37779">
        <ele>138</ele>
        <time>2023-03-04T01:04:12Z</time>
      </trkpt>
      <trkpt lat="44.46824" lon="1.37798">
        <ele>136</ele>
        <time>2023-03-04T01:04:16Z</time>
      </trkpt>
      <trkpt lat="44.46868" lon="1.37829">
        <ele>132</ele>
        <time>2023-03-04T01:04:25Z</time>
      </trkpt>
      <trkpt lat="44.46901" lon="1.37848">
        <ele>131</ele>
        <time>2023-03-04T01:04:31Z</time>
      </trkpt>
      <trkpt lat="44.4693" lon="1.37859">
        <ele>131</ele>
        <time>2023-03-04T01:04:36Z</time>
      </trkpt>
      <trkpt lat="44.47003" lon="1.3788">
        <ele>134</ele>
        <time>2023-03-04T01:04:50Z</time>
      </trkpt>
      <trkpt lat="44.47093" lon="1.37899">
        <ele>133</ele>
        <time>2023-03-04T01:05:06Z</time>
      </trkpt>
      <trkpt lat="44.47206" lon="1.37911">
        <ele>132</ele>
        <time>2023-03-04T01:05:26Z</time>
      </trkpt>
      <trkpt lat="44.47227" lon="1.37917">
        <ele>132</ele>
        <time>2023-03-04T01:05:30Z</time>
      </trkpt>
      <trkpt lat="44.47284" lon="1.37954">
        <ele>137</ele>
        <time>2023-03-04T01:05:41Z</time>
      </trkpt>
      <trkpt lat="44.47299" lon="1.37966">
        <ele>138</ele>
        <time>2023-03-04T01:05:44Z</time>
      </trkpt>
      <trkpt lat="44.47311" lon="1.37981">
        <ele>138</ele>
        <time>2023-03-04T01:05:47Z</time>
      </trkpt>
      <trkpt lat="44.47323" lon="1.37999">
        <ele>139</ele>
        <time>2023-03-04T01:05:50Z</time>
      </trkpt>
      <trkpt lat="44.47356" lon="1.38073">
        <ele>143</ele>
        <time>2023-03-04T01:06:01Z</time>
      </trkpt>
      <trkpt lat="44.47497" lon="1.38424">
        <ele>153</ele>
        <time>2023-03-04T01:06:52Z</time>
      </trkpt>
      <trkpt lat="44.47619" lon="1.38721">
        <ele>156</ele>
        <time>2023-03-04T01:07:36Z</time>
      </trkpt>
      <trkpt lat="44.47623" lon="1.38734">
        <ele>157</ele>
        <time>2023-03-04T01:07:37Z</time>
      </trkpt>
      <trkpt lat="44.47632" lon="1.38785">
        <ele>157</ele>
        <time>2023-03-04T01:07:44Z</time>
      </trkpt>
      <trkpt lat="44.47643" lon="1.38839">
        <ele>157</ele>
        <time>2023-03-04T01:07:51Z</time>
      </trkpt>
      <trkpt lat="44.47657" lon="1.38877">
        <ele>154</ele>
        <time>2023-03-04T01:07:57Z</time>
      </trkpt>
      <trkpt lat="44.47677" lon="1.38894">
        <ele>153</ele>
        <time>2023-03-04T01:08:01Z</time>
      </trkpt>
      <trkpt lat="44.47742" lon="1.38917">
        <ele>154</ele>
        <time>2023-03-04T01:08:13Z</time>
      </trkpt>
      <trkpt lat="44.47823" lon="1.38992">
        <ele>150</ele>
        <time>2023-03-04T01:08:30Z</time>
      </trkpt>
      <trkpt lat="44.47847" lon="1.38999">
        <ele>150</ele>
        <time>2023-03-04T01:08:34Z</time>
      </trkpt>
      <trkpt lat="44.47871" lon="1.39021">
        <ele>150</ele>
        <time>2023-03-04T01:08:40Z</time>
      </trkpt>
      <trkpt lat="44.47899" lon="1.39054">
        <ele>149</ele>
        <time>2023-03-04T01:08:46Z</time>
      </trkpt>
      <trkpt lat="44.4792" lon="1.39088">
        <ele>147</ele>
        <time>2023-03-04T01:08:52Z</time>
      </trkpt>
      <trkpt lat="44.4794" lon="1.39105">
        <ele>145</ele>
        <time>2023-03-04T01:08:56Z</time>
      </trkpt>
      <trkpt lat="44.47988" lon="1.39115">
        <ele>143</ele>
        <time>2023-03-04T01:09:05Z</time>
      </trkpt>
      <trkpt lat="44.48017" lon="1.39114">
        <ele>141</ele>
        <time>2023-03-04T01:09:10Z</time>
      </trkpt>
      <trkpt lat="44.4808" lon="1.39095">
        <ele>137</ele>
        <time>2023-03-04T01:09:21Z</time>
      </trkpt>
      <trkpt lat="44.48095" lon="1.39094">
        <ele>136</ele>
        <time>2023-03-04T01:09:24Z</time>
      </trkpt>
      <trkpt lat="44.48107" lon="1.39095">
        <ele>135</ele>
        <time>2023-03-04T01:09:26Z</time>
      </trkpt>
      <trkpt lat="44.48119" lon="1.391">
        <ele>133</ele>
        <time>2023-03-04T01:09:28Z</time>
      </trkpt>
      <trkpt lat="44.48135" lon="1.39111">
        <ele>132</ele>
        <time>2023-03-04T01:09:31Z</time>
      </trkpt>
      <trkpt lat="44.48161" lon="1.39132">
        <ele>130</ele>
        <time>2023-03-04T01:09:37Z</time>
      </trkpt>
      <trkpt lat="44.48225" lon="1.39189">
        <ele>126</ele>
        <time>2023-03-04T01:09:50Z</time>
      </trkpt>
      <trkpt lat="44.48241" lon="1.39199">
        <ele>125</ele>
        <time>2023-03-04T01:09:53Z</time>
      </trkpt>
      <trkpt lat="44.48258" lon="1.39205">
        <ele>125</ele>
        <time>2023-03-04T01:09:56Z</time>
      </trkpt>
      <trkpt lat="44.4827" lon="1.39207">
        <ele>125</ele>
        <time>2023-03-04T01:09:59Z</time>
      </trkpt>
      <trkpt lat="44.48357" lon="1.39186">
        <ele>125</ele>
        <time>2023-03-04T01:10:14Z</time>
      </trkpt>
      <trkpt lat="44.48455" lon="1.3917">
        <ele>124</ele>
        <time>2023-03-04T01:10:32Z</time>
      </trkpt>
      <trkpt lat="44.48485" lon="1.39169">
        <ele>124</ele>
        <time>2023-03-04T01:10:37Z</time>
      </trkpt>
      <trkpt lat="44.48515" lon="1.39173">
        <ele>124</ele>
        <time>2023-03-04T01:10:43Z</time>
      </trkpt>
      <trkpt lat="44.48541" lon="1.39193">
        <ele>125</ele>
        <time>2023-03-04T01:10:48Z</time>
      </trkpt>
      <trkpt lat="44.48558" lon="1.39214">
        <ele>126</ele>
        <time>2023-03-04T01:10:52Z</time>
      </trkpt>
      <trkpt lat="44.48567" lon="1.39233">
        <ele>127</ele>
        <time>2023-03-04T01:10:55Z</time>
      </trkpt>
      <trkpt lat="44.48578" lon="1.39265">
        <ele>128</ele>
        <time>2023-03-04T01:10:59Z</time>
      </trkpt>
      <trkpt lat="44.48585" lon="1.39295">
        <ele>129</ele>
        <time>2023-03-04T01:11:03Z</time>
      </trkpt>
      <trkpt lat="44.48587" lon="1.39328">
        <ele>130</ele>
        <time>2023-03-04T01:11:08Z</time>
      </trkpt>
      <trkpt lat="44.48581" lon="1.39377">
        <ele>131</ele>
        <time>2023-03-04T01:11:14Z</time>
      </trkpt>
      <trkpt lat="44.48557" lon="1.39493">
        <ele>135</ele>
        <time>2023-03-04T01:11:29Z</time>
      </trkpt>
      <trkpt lat="44.4854" lon="1.39568">
        <ele>138</ele>
        <time>2023-03-04T01:11:39Z</time>
      </trkpt>
      <trkpt lat="44.48484" lon="1.39724">
        <ele>140</ele>
        <time>2023-03-04T01:12:01Z</time>
      </trkpt>
      <trkpt lat="44.4846" lon="1.39784">
        <ele>141</ele>
        <time>2023-03-04T01:12:10Z</time>
      </trkpt>
      <trkpt lat="44.4845" lon="1.39804">
        <ele>141</ele>
        <time>2023-03-04T01:12:13Z</time>
      </trkpt>
      <trkpt lat="44.48366" lon="1.39939">
        <ele>143</ele>
        <time>2023-03-04T01:12:36Z</time>
      </trkpt>
      <trkpt lat="44.48275" lon="1.40072">
        <ele>142</ele>
        <time>2023-03-04T01:12:59Z</time>
      </trkpt>
      <trkpt lat="44.48231" lon="1.4011">
        <ele>142</ele>
        <time>2023-03-04T01:13:08Z</time>
      </trkpt>
      <trkpt lat="44.48178" lon="1.40134">
        <ele>143</ele>
        <time>2023-03-04T01:13:18Z</time>
      </trkpt>
      <trkpt lat="44.48011" lon="1.40195">
        <ele>146</ele>
        <time>2023-03-04T01:13:49Z</time>
      </trkpt>
      <trkpt lat="44.4793" lon="1.40207">
        <ele>150</ele>
        <time>2023-03-04T01:14:04Z</time>
      </trkpt>
      <trkpt lat="44.47878" lon="1.40226">
        <ele>149</ele>
        <time>2023-03-04T01:14:13Z</time>
      </trkpt>
      <trkpt lat="44.47828" lon="1.40255">
        <ele>148</ele>
        <time>2023-03-04T01:14:23Z</time>
      </trkpt>
      <trkpt lat="44.47745" lon="1.40325">
        <ele>144</ele>
        <time>2023-03-04T01:14:40Z</time>
      </trkpt>
      <trkpt lat="44.47742" lon="1.40321">
        <ele>145</ele>
        <time>2023-03-04T01:14:41Z</time>
      </trkpt>
      <trkpt lat="44.47738" lon="1.4032">
        <ele>145</ele>
        <time>2023-03-04T01:14:41Z</time>
      </trkpt>
      <trkpt lat="44.47734" lon="1.40323">
        <ele>145</ele>
        <time>2023-03-04T01:14:42Z</time>
      </trkpt>
      <trkpt lat="44.47732" lon="1.40329">
        <ele>144</ele>
        <time>2023-03-04T01:14:43Z</time>
      </trkpt>
      <trkpt lat="44.47732" lon="1.40335">
        <ele>144</ele>
        <time>2023-03-04T01:14:44Z</time>
      </trkpt>
      <trkpt lat="44.47608" lon="1.40471">
        <ele>144</ele>
        <time>2023-03-04T01:15:12Z</time>
      </trkpt>
      <trkpt lat="44.47572" lon="1.40499">
        <ele>145</ele>
        <time>2023-03-04T01:15:19Z</time>
      </trkpt>
      <trkpt lat="44.47488" lon="1.40549">
        <ele>145</ele>
        <time>2023-03-04T01:15:35Z</time>
      </trkpt>
      <trkpt lat="44.47448" lon="1.40584">
        <ele>143</ele>
        <time>2023-03-04T01:15:44Z</time>
      </trkpt>
      <trkpt lat="44.47445" lon="1.40574">
        <ele>143</ele>
        <time>2023-03-04T01:15:45Z</time>
      </trkpt>
      <trkpt lat="44.47438" lon="1.40568">
        <ele>143</ele>
        <time>2023-03-04T01:15:47Z</time>
      </trkpt>
      <trkpt lat="44.4743" lon="1.40569">
        <ele>143</ele>
        <time>2023-03-04T01:15:48Z</time>
      </trkpt>
      <trkpt lat="44.47424" lon="1.40576">
        <ele>143</ele>
        <time>2023-03-04T01:15:49Z</time>
      </trkpt>
      <trkpt lat="44.47422" lon="1.40581">
        <ele>142</ele>
        <time>2023-03-04T01:15:50Z</time>
      </trkpt>
      <trkpt lat="44.47422" lon="1.40593">
        <ele>142</ele>
        <time>2023-03-04T01:15:52Z</time>
      </trkpt>
      <trkpt lat="44.47388" lon="1.40617">
        <ele>141</ele>
        <time>2023-03-04T01:15:59Z</time>
      </trkpt>
      <trkpt lat="44.47377" lon="1.40629">
        <ele>140</ele>
        <time>2023-03-04T01:16:01Z</time>
      </trkpt>
      <trkpt lat="44.47349" lon="1.40677">
        <ele>137</ele>
        <time>2023-03-04T01:16:09Z</time>
      </trkpt>
      <trkpt lat="44.47302" lon="1.40741">
        <ele>137</ele>
        <time>2023-03-04T01:16:21Z</time>
      </trkpt>
      <trkpt lat="44.47252" lon="1.40793">
        <ele>138</ele>
        <time>2023-03-04T01:16:32Z</time>
      </trkpt>
      <trkpt lat="44.47239" lon="1.40794">
        <ele>139</ele>
        <time>2023-03-04T01:16:34Z</time>
      </trkpt>
      <trkpt lat="44.47224" lon="1.40783">
        <ele>139</ele>
        <time>2023-03-04T01:16:37Z</time>
      </trkpt>
      <trkpt lat="44.47213" lon="1.4078">
        <ele>139</ele>
        <time>2023-03-04T01:16:39Z</time>
      </trkpt>
      <trkpt lat="44.47203" lon="1.40792">
        <ele>141</ele>
        <time>2023-03-04T01:16:41Z</time>
      </trkpt>
      <trkpt lat="44.47201" lon="1.40807">
        <ele>142</ele>
        <time>2023-03-04T01:16:43Z</time>
      </trkpt>
      <trkpt lat="44.47205" lon="1.40848">
        <ele>144</ele>
        <time>2023-03-04T01:16:48Z</time>
      </trkpt>
      <trkpt lat="44.47203" lon="1.40871">
        <ele>145</ele>
        <time>2023-03-04T01:16:51Z</time>
      </trkpt>
      <trkpt lat="44.47191" lon="1.40907">
        <ele>146</ele>
        <time>2023-03-04T01:16:56Z</time>
      </trkpt>
      <trkpt lat="44.47007" lon="1.41134">
        <ele>146</ele>
        <time>2023-03-04T01:17:40Z</time>
      </trkpt>
      <trkpt lat="44.46996" lon="1.41138">
        <ele>146</ele>
        <time>2023-03-04T01:17:42Z</time>
      </trkpt>
      <trkpt lat="44.46971" lon="1.41134">
        <ele>147</ele>
        <time>2023-03-04T01:17:47Z</time>
      </trkpt>
      <trkpt lat="44.46944" lon="1.41134">
        <ele>147</ele>
        <time>2023-03-04T01:17:51Z</time>
      </trkpt>
      <trkpt lat="44.46928" lon="1.41136">
        <ele>148</ele>
        <time>2023-03-04T01:17:54Z</time>
      </trkpt>
      <trkpt lat="44.46815" lon="1.41169">
        <ele>150</ele>
        <time>2023-03-04T01:18:15Z</time>
      </trkpt>
      <trkpt lat="44.46802" lon="1.41178">
        <ele>150</ele>
        <time>2023-03-04T01:18:17Z</time>
      </trkpt>
      <trkpt lat="44.46789" lon="1.41195">
        <ele>150</ele>
        <time>2023-03-04T01:18:21Z</time>
      </trkpt>
      <trkpt lat="44.46766" lon="1.41267">
        <ele>150</ele>
        <time>2023-03-04T01:18:31Z</time>
      </trkpt>
      <trkpt lat="44.46747" lon="1.4131">
        <ele>150</ele>
        <time>2023-03-04T01:18:37Z</time>
      </trkpt>
      <trkpt lat="44.46737" lon="1.41326">
        <ele>150</ele>
        <time>2023-03-04T01:18:40Z</time>
      </trkpt>
      <trkpt lat="44.46733" lon="1.4134">
        <ele>150</ele>
        <time>2023-03-04T01:18:42Z</time>
      </trkpt>
      <trkpt lat="44.46714" lon="1.41369">
        <ele>149</ele>
        <time>2023-03-04T01:18:47Z</time>
      </trkpt>
      <trkpt lat="44.46706" lon="1.41378">
        <ele>149</ele>
        <time>2023-03-04T01:18:48Z</time>
      </trkpt>
      <trkpt lat="44.4668" lon="1.41392">
        <ele>148</ele>
        <time>2023-03-04T01:18:53Z</time>
      </trkpt>
      <trkpt lat="44.46585" lon="1.41427">
        <ele>146</ele>
        <time>2023-03-04T01:19:11Z</time>
      </trkpt>
      <trkpt lat="44.46537" lon="1.41432">
        <ele>144</ele>
        <time>2023-03-04T01:19:19Z</time>
      </trkpt>
      <trkpt lat="44.46496" lon="1.41427">
        <ele>142</ele>
        <time>2023-03-04T01:19:27Z</time>
      </trkpt>
      <trkpt lat="44.46362" lon="1.41408">
        <ele>131</ele>
        <time>2023-03-04T01:19:51Z</time>
      </trkpt>
      <trkpt lat="44.46343" lon="1.41394">
        <ele>131</ele>
        <time>2023-03-04T01:19:54Z</time>
      </trkpt>
      <trkpt lat="44.46338" lon="1.41384">
        <ele>131</ele>
        <time>2023-03-04T01:19:56Z</time>
      </trkpt>
      <trkpt lat="44.46331" lon="1.4138">
        <ele>131</ele>
        <time>2023-03-04T01:19:57Z</time>
      </trkpt>
      <trkpt lat="44.46324" lon="1.41382">
        <ele>131</ele>
        <time>2023-03-04T01:19:59Z</time>
      </trkpt>
      <trkpt lat="44.46321" lon="1.41386">
        <ele>131</ele>
        <time>2023-03-04T01:19:59Z</time>
      </trkpt>
      <trkpt lat="44.46317" lon="1.41396">
        <ele>130</ele>
        <time>2023-03-04T01:20:01Z</time>
      </trkpt>
      <trkpt lat="44.46319" lon="1.41407">
        <ele>130</ele>
        <time>2023-03-04T01:20:02Z</time>
      </trkpt>
      <trkpt lat="44.46317" lon="1.41423">
        <ele>129</ele>
        <time>2023-03-04T01:20:04Z</time>
      </trkpt>
      <trkpt lat="44.46317" lon="1.41459">
        <ele>130</ele>
        <time>2023-03-04T01:20:09Z</time>
      </trkpt>
      <trkpt lat="44.46305" lon="1.4171">
        <ele>132</ele>
        <time>2023-03-04T01:20:41Z</time>
      </trkpt>
      <trkpt lat="44.46306" lon="1.41786">
        <ele>130</ele>
        <time>2023-03-04T01:20:51Z</time>
      </trkpt>
      <trkpt lat="44.46308" lon="1.41862">
        <ele>127</ele>
        <time>2023-03-04T01:21:00Z</time>
      </trkpt>
      <trkpt lat="44.46306" lon="1.41878">
        <ele>127</ele>
        <time>2023-03-04T01:21:02Z</time>
      </trkpt>
      <trkpt lat="44.46301" lon="1.41885">
        <ele>127</ele>
        <time>2023-03-04T01:21:04Z</time>
      </trkpt>
      <trkpt lat="44.463" lon="1.41896">
        <ele>127</ele>
        <time>2023-03-04T01:21:05Z</time>
      </trkpt>
      <trkpt lat="44.46301" lon="1.41902">
        <ele>127</ele>
        <time>2023-03-04T01:21:06Z</time>
      </trkpt>
      <trkpt lat="44.46308" lon="1.41911">
        <ele>127</ele>
        <time>2023-03-04T01:21:07Z</time>
      </trkpt>
      <trkpt lat="44.46312" lon="1.41924">
        <ele>127</ele>
        <time>2023-03-04T01:21:09Z</time>
      </trkpt>
      <trkpt lat="44.46315" lon="1.41944">
        <ele>127</ele>
        <time>2023-03-04T01:21:12Z</time>
      </trkpt>
      <trkpt lat="44.46317" lon="1.41987">
        <ele>127</ele>
        <time>2023-03-04T01:21:17Z</time>
      </trkpt>
      <trkpt lat="44.46315" lon="1.42031">
        <ele>126</ele>
        <time>2023-03-04T01:21:23Z</time>
      </trkpt>
      <trkpt lat="44.4631" lon="1.42052">
        <ele>126</ele>
        <time>2023-03-04T01:21:26Z</time>
      </trkpt>
      <trkpt lat="44.46304" lon="1.42073">
        <ele>125</ele>
        <time>2023-03-04T01:21:29Z</time>
      </trkpt>
      <trkpt lat="44.46296" lon="1.42077">
        <ele>125</ele>
        <time>2023-03-04T01:21:30Z</time>
      </trkpt>
      <trkpt lat="44.46293" lon="1.42082">
        <ele>125</ele>
        <time>2023-03-04T01:21:31Z</time>
      </trkpt>
      <trkpt lat="44.46291" lon="1.42094">
        <ele>124</ele>
        <time>2023-03-04T01:21:32Z</time>
      </trkpt>
      <trkpt lat="44.46293" lon="1.421">
        <ele>123</ele>
        <time>2023-03-04T01:21:33Z</time>
      </trkpt>
      <trkpt lat="44.46285" lon="1.42116">
        <ele>122</ele>
        <time>2023-03-04T01:21:36Z</time>
      </trkpt>
      <trkpt lat="44.46258" lon="1.42148">
        <ele>119</ele>
        <time>2023-03-04T01:21:42Z</time>
      </trkpt>
      <trkpt lat="44.46232" lon="1.42171">
        <ele>118</ele>
        <time>2023-03-04T01:21:48Z</time>
      </trkpt>
      <trkpt lat="44.46221" lon="1.42168">
        <ele>118</ele>
        <time>2023-03-04T01:21:50Z</time>
      </trkpt>
      <trkpt lat="44.46217" lon="1.4217">
        <ele>118</ele>
        <time>2023-03-04T01:21:50Z</time>
      </trkpt>
      <trkpt lat="44.4621" lon="1.42178">
        <ele>118</ele>
        <time>2023-03-04T01:21:52Z</time>
      </trkpt>
      <trkpt lat="44.46208" lon="1.42191">
        <ele>118</ele>
        <time>2023-03-04T01:21:54Z</time>
      </trkpt>
      <trkpt lat="44.46203" lon="1.422">
        <ele>118</ele>
        <time>2023-03-04T01:21:55Z</time>
      </trkpt>
      <trkpt lat="44.46019" lon="1.42359">
        <ele>116</ele>
        <time>2023-03-04T01:22:33Z</time>
      </trkpt>
      <trkpt lat="44.46004" lon="1.42363">
        <ele>116</ele>
        <time>2023-03-04T01:22:36Z</time>
      </trkpt>
      <trkpt lat="44.45997" lon="1.4236">
        <ele>116</ele>
        <time>2023-03-04T01:22:38Z</time>
      </trkpt>
      <trkpt lat="44.45988" lon="1.42364">
        <ele>116</ele>
        <time>2023-03-04T01:22:39Z</time>
      </trkpt>
      <trkpt lat="44.45983" lon="1.42374">
        <ele>116</ele>
        <time>2023-03-04T01:22:41Z</time>
      </trkpt>
      <trkpt lat="44.45982" lon="1.42383">
        <ele>116</ele>
        <time>2023-03-04T01:22:42Z</time>
      </trkpt>
      <trkpt lat="44.45968" lon="1.42399">
        <ele>117</ele>
        <time>2023-03-04T01:22:45Z</time>
      </trkpt>
      <trkpt lat="44.45932" lon="1.42421">
        <ele>118</ele>
        <time>2023-03-04T01:22:52Z</time>
      </trkpt>
      <trkpt lat="44.45879" lon="1.42476">
        <ele>118</ele>
        <time>2023-03-04T01:23:04Z</time>
      </trkpt>
      <trkpt lat="44.45817" lon="1.42532">
        <ele>118</ele>
        <time>2023-03-04T01:23:17Z</time>
      </trkpt>
      <trkpt lat="44.45775" lon="1.42558">
        <ele>118</ele>
        <time>2023-03-04T01:23:25Z</time>
      </trkpt>
      <trkpt lat="44.45768" lon="1.42562">
        <ele>118</ele>
        <time>2023-03-04T01:23:26Z</time>
      </trkpt>
      <trkpt lat="44.45724" lon="1.42574">
        <ele>119</ele>
        <time>2023-03-04T01:23:34Z</time>
      </trkpt>
      <trkpt lat="44.45653" lon="1.42586">
        <ele>121</ele>
        <time>2023-03-04T01:23:47Z</time>
      </trkpt>
      <trkpt lat="44.45612" lon="1.42603">
        <ele>123</ele>
        <time>2023-03-04T01:23:55Z</time>
      </trkpt>
      <trkpt lat="44.45433" lon="1.4269">
        <ele>124</ele>
        <time>2023-03-04T01:24:28Z</time>
      </trkpt>
      <trkpt lat="44.4537" lon="1.42724">
        <ele>124</ele>
        <time>2023-03-04T01:24:41Z</time>
      </trkpt>
      <trkpt lat="44.45343" lon="1.42736">
        <ele>124</ele>
        <time>2023-03-04T01:24:46Z</time>
      </trkpt>
      <trkpt lat="44.45338" lon="1.42735">
        <ele>124</ele>
        <time>2023-03-04T01:24:46Z</time>
      </trkpt>
      <trkpt lat="44.45312" lon="1.42752">
        <ele>123</ele>
        <time>2023-03-04T01:24:52Z</time>
      </trkpt>
      <trkpt lat="44.45199" lon="1.42782">
        <ele>126</ele>
        <time>2023-03-04T01:25:12Z</time>
      </trkpt>
      <trkpt lat="44.45141" lon="1.42794">
        <ele>128</ele>
        <time>2023-03-04T01:25:22Z</time>
      </trkpt>
      <trkpt lat="44.45002" lon="1.42846">
        <ele>127</ele>
        <time>2023-03-04T01:25:48Z</time>
      </trkpt>
      <trkpt lat="44.44778" lon="1.42945">
        <ele>125</ele>
        <time>2023-03-04T01:26:30Z</time>
      </trkpt>
      <trkpt lat="44.44698" lon="1.42977">
        <ele>124</ele>
        <time>2023-03-04T01:26:45Z</time>
      </trkpt>
      <trkpt lat="44.44674" lon="1.42988">
        <ele>123</ele>
        <time>2023-03-04T01:26:49Z</time>
      </trkpt>
      <trkpt lat="44.44645" lon="1.43005">
        <ele>119</ele>
        <time>2023-03-04T01:26:55Z</time>
      </trkpt>
      <trkpt lat="44.44633" lon="1.43005">
        <ele>119</ele>
        <time>2023-03-04T01:26:57Z</time>
      </trkpt>
      <trkpt lat="44.44625" lon="1.43002">
        <ele>119</ele>
        <time>2023-03-04T01:26:58Z</time>
      </trkpt>
      <trkpt lat="44.44617" lon="1.43021">
        <ele>117</ele>
        <time>2023-03-04T01:27:01Z</time>
      </trkpt>
      <trkpt lat="44.44611" lon="1.43027">
        <ele>116</ele>
        <time>2023-03-04T01:27:02Z</time>
      </trkpt>
      <trkpt lat="44.44601" lon="1.43032">
        <ele>115</ele>
        <time>2023-03-04T01:27:04Z</time>
      </trkpt>
      <trkpt lat="44.44476" lon="1.43062">
        <ele>135</ele>
        <time>2023-03-04T01:27:27Z</time>
      </trkpt>
      <trkpt lat="44.44463" lon="1.43067">
        <ele>140</ele>
        <time>2023-03-04T01:27:29Z</time>
      </trkpt>
      <trkpt lat="44.44428" lon="1.43084">
        <ele>154</ele>
        <time>2023-03-04T01:27:36Z</time>
      </trkpt>
      <trkpt lat="44.44327" lon="1.43175">
        <ele>131</ele>
        <time>2023-03-04T01:27:57Z</time>
      </trkpt>
      <trkpt lat="44.443" lon="1.43195">
        <ele>134</ele>
        <time>2023-03-04T01:28:03Z</time>
      </trkpt>
      <trkpt lat="44.44243" lon="1.43238">
        <ele>133</ele>
        <time>2023-03-04T01:28:14Z</time>
      </trkpt>
      <trkpt lat="44.44209" lon="1.43276">
        <ele>139</ele>
        <time>2023-03-04T01:28:22Z</time>
      </trkpt>
      <trkpt lat="44.4415" lon="1.43328">
        <ele>142</ele>
        <time>2023-03-04T01:28:34Z</time>
      </trkpt>
      <trkpt lat="44.44086" lon="1.43378">
        <ele>131</ele>
        <time>2023-03-04T01:28:47Z</time>
      </trkpt>
      <trkpt lat="44.44046" lon="1.43419">
        <ele>131</ele>
        <time>2023-03-04T01:28:56Z</time>
      </trkpt>
      <trkpt lat="44.44036" lon="1.43442">
        <ele>131</ele>
        <time>2023-03-04T01:29:00Z</time>
      </trkpt>
      <trkpt lat="44.44019" lon="1.43567">
        <ele>117</ele>
        <time>2023-03-04T01:29:16Z</time>
      </trkpt>
      <trkpt lat="44.44009" lon="1.43656">
        <ele>115</ele>
        <time>2023-03-04T01:29:27Z</time>
      </trkpt>
      <trkpt lat="44.43998" lon="1.43739">
        <ele>117</ele>
        <time>2023-03-04T01:29:38Z</time>
      </trkpt>
      <trkpt lat="44.43993" lon="1.43817">
        <ele>116</ele>
        <time>2023-03-04T01:29:48Z</time>
      </trkpt>
      <trkpt lat="44.43989" lon="1.4394">
        <ele>115</ele>
        <time>2023-03-04T01:30:04Z</time>
      </trkpt>
      <trkpt lat="44.43989" lon="1.43949">
        <ele>115</ele>
        <time>2023-03-04T01:30:05Z</time>
      </trkpt>
      <trkpt lat="44.43989" lon="1.43963">
        <ele>116</ele>
        <time>2023-03-04T01:30:06Z</time>
      </trkpt>
      <trkpt lat="44.43991" lon="1.44002">
        <ele>116</ele>
        <time>2023-03-04T01:30:11Z</time>
      </trkpt>
      <trkpt lat="44.43997" lon="1.44033">
        <ele>116</ele>
        <time>2023-03-04T01:30:16Z</time>
      </trkpt>
      <trkpt lat="44.44013" lon="1.44152">
        <ele>117</ele>
        <time>2023-03-04T01:30:31Z</time>
      </trkpt>
      <trkpt lat="44.44011" lon="1.44168">
        <ele>118</ele>
        <time>2023-03-04T01:30:33Z</time>
      </trkpt>
      <trkpt lat="44.44006" lon="1.44173">
        <ele>118</ele>
        <time>2023-03-04T01:30:34Z</time>
      </trkpt>
      <trkpt lat="44.44012" lon="1.44193">
        <ele>118</ele>
        <time>2023-03-04T01:30:37Z</time>
      </trkpt>
      <trkpt lat="44.44028" lon="1.44215">
        <ele>119</ele>
        <time>2023-03-04T01:30:41Z</time>
      </trkpt>
      <trkpt lat="44.44059" lon="1.44279">
        <ele>121</ele>
        <time>2023-03-04T01:30:51Z</time>
      </trkpt>
      <trkpt lat="44.44079" lon="1.443">
        <ele>121</ele>
        <time>2023-03-04T01:30:55Z</time>
      </trkpt>
      <trkpt lat="44.44079" lon="1.44318">
        <ele>122</ele>
        <time>2023-03-04T01:30:57Z</time>
      </trkpt>
      <trkpt lat="44.44083" lon="1.44333">
        <ele>123</ele>
        <time>2023-03-04T01:30:59Z</time>
      </trkpt>
      <trkpt lat="44.44137" lon="1.44451">
        <ele>132</ele>
        <time>2023-03-04T01:31:17Z</time>
      </trkpt>
      <trkpt lat="44.44156" lon="1.44481">
        <ele>131</ele>
        <time>2023-03-04T01:31:22Z</time>
      </trkpt>
      <trkpt lat="44.4417" lon="1.445">
        <ele>129</ele>
        <time>2023-03-04T01:31:26Z</time>
      </trkpt>
      <trkpt lat="44.44282" lon="1.44624">
        <ele>137</ele>
        <time>2023-03-04T01:31:51Z</time>
      </trkpt>
      <trkpt lat="44.44329" lon="1.44697">
        <ele>136</ele>
        <time>2023-03-04T01:32:04Z</time>
      </trkpt>
      <trkpt lat="44.44353" lon="1.44727">
        <ele>137</ele>
        <time>2023-03-04T01:32:09Z</time>
      </trkpt>
      <trkpt lat="44.44371" lon="1.44745">
        <ele>135</ele>
        <time>2023-03-04T01:32:13Z</time>
      </trkpt>
      <trkpt lat="44.44393" lon="1.44763">
        <ele>134</ele>
        <time>2023-03-04T01:32:18Z</time>
      </trkpt>
      <trkpt lat="44.44448" lon="1.44801">
        <ele>136</ele>
        <time>2023-03-04T01:32:29Z</time>
      </trkpt>
      <trkpt lat="44.44477" lon="1.44818">
        <ele>136</ele>
        <time>2023-03-04T01:32:34Z</time>
      </trkpt>
      <trkpt lat="44.44483" lon="1.44817">
        <ele>135</ele>
        <time>2023-03-04T01:32:35Z</time>
      </trkpt>
      <trkpt lat="44.44513" lon="1.44823">
        <ele>133</ele>
        <time>2023-03-04T01:32:41Z</time>
      </trkpt>
      <trkpt lat="44.44555" lon="1.4482">
        <ele>129</ele>
        <time>2023-03-04T01:32:48Z</time>
      </trkpt>
      <trkpt lat="44.44564" lon="1.44815">
        <ele>127</ele>
        <time>2023-03-04T01:32:50Z</time>
      </trkpt>
      <trkpt lat="44.44569" lon="1.4481">
        <ele>126</ele>
        <time>2023-03-04T01:32:51Z</time>
      </trkpt>
      <trkpt lat="44.44576" lon="1.44787">
        <ele>122</ele>
        <time>2023-03-04T01:32:54Z</time>
      </trkpt>
      <trkpt lat="44.44597" lon="1.4476">
        <ele>119</ele>
        <time>2023-03-04T01:32:59Z</time>
      </trkpt>
      <trkpt lat="44.44817" lon="1.44578">
        <ele>119</ele>
        <time>2023-03-04T01:33:45Z</time>
      </trkpt>
      <trkpt lat="44.44838" lon="1.44562">
        <ele>119</ele>
        <time>2023-03-04T01:33:49Z</time>
      </trkpt>
      <trkpt lat="44.44898" lon="1.44534">
        <ele>118</ele>
        <time>2023-03-04T01:34:00Z</time>
      </trkpt>
      <trkpt lat="44.44913" lon="1.44517">
        <ele>118</ele>
        <time>2023-03-04T01:34:04Z</time>
      </trkpt>
      <trkpt lat="44.44912" lon="1.44512">
        <ele>118</ele>
        <time>2023-03-04T01:34:04Z</time>
      </trkpt>
      <trkpt lat="44.4492" lon="1.44499">
        <ele>117</ele>
        <time>2023-03-04T01:34:07Z</time>
      </trkpt>
      <trkpt lat="44.44946" lon="1.44476">
        <ele>117</ele>
        <time>2023-03-04T01:34:12Z</time>
      </trkpt>
      <trkpt lat="44.44987" lon="1.44468">
        <ele>118</ele>
        <time>2023-03-04T01:34:19Z</time>
      </trkpt>
      <trkpt lat="44.44998" lon="1.44462">
        <ele>118</ele>
        <time>2023-03-04T01:34:22Z</time>
      </trkpt>
      <trkpt lat="44.45012" lon="1.44452">
        <ele>118</ele>
        <time>2023-03-04T01:34:24Z</time>
      </trkpt>
      <trkpt lat="44.45121" lon="1.44403">
        <ele>119</ele>
        <time>2023-03-04T01:34:45Z</time>
      </trkpt>
      <trkpt lat="44.45144" lon="1.44397">
        <ele>119</ele>
        <time>2023-03-04T01:34:49Z</time>
      </trkpt>
      <trkpt lat="44.45161" lon="1.44388">
        <ele>119</ele>
        <time>2023-03-04T01:34:52Z</time>
      </trkpt>
      <trkpt lat="44.45207" lon="1.44356">
        <ele>118</ele>
        <time>2023-03-04T01:35:01Z</time>
      </trkpt>
      <trkpt lat="44.45221" lon="1.44342">
        <ele>118</ele>
        <time>2023-03-04T01:35:04Z</time>
      </trkpt>
      <trkpt lat="44.45231" lon="1.44336">
        <ele>117</ele>
        <time>2023-03-04T01:35:06Z</time>
      </trkpt>
      <trkpt lat="44.45252" lon="1.44329">
        <ele>117</ele>
        <time>2023-03-04T01:35:10Z</time>
      </trkpt>
      <trkpt lat="44.45301" lon="1.44332">
        <ele>117</ele>
        <time>2023-03-04T01:35:19Z</time>
      </trkpt>
      <trkpt lat="44.45331" lon="1.44329">
        <ele>117</ele>
        <time>2023-03-04T01:35:24Z</time>
      </trkpt>
      <trkpt lat="44.45364" lon="1.44322">
        <ele>117</ele>
        <time>2023-03-04T01:35:30Z</time>
      </trkpt>
      <trkpt lat="44.45426" lon="1.44315">
        <ele>118</ele>
        <time>2023-03-04T01:35:41Z</time>
      </trkpt>
      <trkpt lat="44.45452" lon="1.44318">
        <ele>118</ele>
        <time>2023-03-04T01:35:46Z</time>
      </trkpt>
      <trkpt lat="44.45495" lon="1.44332">
        <ele>118</ele>
        <time>2023-03-04T01:35:54Z</time>
      </trkpt>
      <trkpt lat="44.45528" lon="1.44343">
        <ele>118</ele>
        <time>2023-03-04T01:36:00Z</time>
      </trkpt>
      <trkpt lat="44.45536" lon="1.44349">
        <ele>118</ele>
        <time>2023-03-04T01:36:01Z</time>
      </trkpt>
      <trkpt lat="44.45539" lon="1.44353">
        <ele>118</ele>
        <time>2023-03-04T01:36:02Z</time>
      </trkpt>
      <trkpt lat="44.45556" lon="1.44348">
        <ele>117</ele>
        <time>2023-03-04T01:36:05Z</time>
      </trkpt>
      <trkpt lat="44.45582" lon="1.44337">
        <ele>117</ele>
        <time>2023-03-04T01:36:10Z</time>
      </trkpt>
      <trkpt lat="44.456" lon="1.44331">
        <ele>117</ele>
        <time>2023-03-04T01:36:13Z</time>
      </trkpt>
      <trkpt lat="44.45628" lon="1.44589">
        <ele>119</ele>
        <time>2023-03-04T01:36:46Z</time>
      </trkpt>
      <trkpt lat="44.45637" lon="1.44686">
        <ele>121</ele>
        <time>2023-03-04T01:36:59Z</time>
      </trkpt>
      <trkpt lat="44.45636" lon="1.44701">
        <ele>122</ele>
        <time>2023-03-04T01:37:01Z</time>
      </trkpt>
      <trkpt lat="44.45695" lon="1.44701">
        <ele>123</ele>
        <time>2023-03-04T01:37:11Z</time>
      </trkpt>
      <trkpt lat="44.45745" lon="1.44694">
        <ele>122</ele>
        <time>2023-03-04T01:37:20Z</time>
      </trkpt>
      <trkpt lat="44.45764" lon="1.44696">
        <ele>123</ele>
        <time>2023-03-04T01:37:24Z</time>
      </trkpt>
      <trkpt lat="44.45787" lon="1.44705">
        <ele>125</ele>
        <time>2023-03-04T01:37:28Z</time>
      </trkpt>
      <trkpt lat="44.45799" lon="1.44706">
        <ele>125</ele>
        <time>2023-03-04T01:37:30Z</time>
      </trkpt>
      <trkpt lat="44.45802" lon="1.44703">
        <ele>125</ele>
        <time>2023-03-04T01:37:31Z</time>
      </trkpt>
      <trkpt lat="44.45878" lon="1.44681">
        <ele>125</ele>
        <time>2023-03-04T01:37:44Z</time>
      </trkpt>
      <trkpt lat="44.45901" lon="1.44672">
        <ele>125</ele>
        <time>2023-03-04T01:37:49Z</time>
      </trkpt>
      <trkpt lat="44.45994" lon="1.44653">
        <ele>126</ele>
        <time>2023-03-04T01:38:05Z</time>
      </trkpt>
      <trkpt lat="44.46001" lon="1.44645">
        <ele>126</ele>
        <time>2023-03-04T01:38:07Z</time>
      </trkpt>
      <trkpt lat="44.46008" lon="1.44611">
        <ele>124</ele>
        <time>2023-03-04T01:38:12Z</time>
      </trkpt>
      <trkpt lat="44.46015" lon="1.44603">
        <ele>123</ele>
        <time>2023-03-04T01:38:13Z</time>
      </trkpt>
      <trkpt lat="44.4607" lon="1.4461">
        <ele>122</ele>
        <time>2023-03-04T01:38:23Z</time>
      </trkpt>
      <trkpt lat="44.46132" lon="1.44632">
        <ele>123</ele>
        <time>2023-03-04T01:38:34Z</time>
      </trkpt>
      <trkpt lat="44.46215" lon="1.44653">
        <ele>123</ele>
        <time>2023-03-04T01:38:49Z</time>
      </trkpt>
      <trkpt lat="44.46224" lon="1.44653">
        <ele>123</ele>
        <time>2023-03-04T01:38:51Z</time>
      </trkpt>
      <trkpt lat="44.4625" lon="1.44663">
        <ele>124</ele>
        <time>2023-03-04T01:38:56Z</time>
      </trkpt>
      <trkpt lat="44.46285" lon="1.44665">
        <ele>123</ele>
        <time>2023-03-04T01:39:02Z</time>
      </trkpt>
      <trkpt lat="44.46313" lon="1.4467">
        <ele>124</ele>
        <time>2023-03-04T01:39:07Z</time>
      </trkpt>
      <trkpt lat="44.4635" lon="1.44677">
        <ele>124</ele>
        <time>2023-03-04T01:39:14Z</time>
      </trkpt>
      <trkpt lat="44.46382" lon="1.44681">
        <ele>125</ele>
        <time>2023-03-04T01:39:19Z</time>
      </trkpt>
      <trkpt lat="44.46449" lon="1.44696">
        <ele>125</ele>
        <time>2023-03-04T01:39:31Z</time>
      </trkpt>
      <trkpt lat="44.4649" lon="1.44713">
        <ele>124</ele>
        <time>2023-03-04T01:39:39Z</time>
      </trkpt>
      <trkpt lat="44.46532" lon="1.44733">
        <ele>123</ele>
        <time>2023-03-04T01:39:47Z</time>
      </trkpt>
      <trkpt lat="44.4659" lon="1.44777">
        <ele>123</ele>
        <time>2023-03-04T01:39:59Z</time>
      </trkpt>
      <trkpt lat="44.46611" lon="1.44796">
        <ele>125</ele>
        <time>2023-03-04T01:40:03Z</time>
      </trkpt>
      <trkpt lat="44.46614" lon="1.44805">
        <ele>126</ele>
        <time>2023-03-04T01:40:04Z</time>
      </trkpt>
      <trkpt lat="44.4661" lon="1.44816">
        <ele>128</ele>
        <time>2023-03-04T01:40:06Z</time>
      </trkpt>
      <trkpt lat="44.46605" lon="1.44825">
        <ele>129</ele>
        <time>2023-03-04T01:40:07Z</time>
      </trkpt>
      <trkpt lat="44.46598" lon="1.44826">
        <ele>129</ele>
        <time>2023-03-04T01:40:09Z</time>
      </trkpt>
      <trkpt lat="44.46591" lon="1.44819">
        <ele>129</ele>
        <time>2023-03-04T01:40:10Z</time>
      </trkpt>
      <trkpt lat="44.46579" lon="1.44798">
        <ele>127</ele>
        <time>2023-03-04T01:40:14Z</time>
      </trkpt>
      <trkpt lat="44.46545" lon="1.44774">
        <ele>126</ele>
        <time>2023-03-04T01:40:20Z</time>
      </trkpt>
      <trkpt lat="44.46537" lon="1.44775">
        <ele>126</ele>
        <time>2023-03-04T01:40:22Z</time>
      </trkpt>
      <trkpt lat="44.46534" lon="1.44781">
        <ele>127</ele>
        <time>2023-03-04T01:40:23Z</time>
      </trkpt>
      <trkpt lat="44.4654" lon="1.4479">
        <ele>128</ele>
        <time>2023-03-04T01:40:24Z</time>
      </trkpt>
      <trkpt lat="44.4654" lon="1.44798">
        <ele>129</ele>
        <time>2023-03-04T01:40:25Z</time>
      </trkpt>
      <trkpt lat="44.46528" lon="1.44841">
        <ele>135</ele>
        <time>2023-03-04T01:40:31Z</time>
      </trkpt>
      <trkpt lat="44.46498" lon="1.44932">
        <ele>142</ele>
        <time>2023-03-04T01:40:44Z</time>
      </trkpt>
      <trkpt lat="44.46482" lon="1.4499">
        <ele>144</ele>
        <time>2023-03-04T01:40:52Z</time>
      </trkpt>
      <trkpt lat="44.46492" lon="1.44994">
        <ele>144</ele>
        <time>2023-03-04T01:40:54Z</time>
      </trkpt>
      <trkpt lat="44.46501" lon="1.45">
        <ele>144</ele>
        <time>2023-03-04T01:40:55Z</time>
      </trkpt>
      <trkpt lat="44.46538" lon="1.45033">
        <ele>145</ele>
        <time>2023-03-04T01:41:03Z</time>
      </trkpt>
      <trkpt lat="44.46564" lon="1.4506">
        <ele>146</ele>
        <time>2023-03-04T01:41:09Z</time>
      </trkpt>
      <trkpt lat="44.466" lon="1.45105">
        <ele>147</ele>
        <time>2023-03-04T01:41:18Z</time>
      </trkpt>
      <trkpt lat="44.46704" lon="1.45224">
        <ele>145</ele>
        <time>2023-03-04T01:41:41Z</time>
      </trkpt>
      <trkpt lat="44.46749" lon="1.45278">
        <ele>147</ele>
        <time>2023-03-04T01:41:52Z</time>
      </trkpt>
      <trkpt lat="44.46836" lon="1.45439">
        <ele>142</ele>
        <time>2023-03-04T01:42:18Z</time>
      </trkpt>
      <trkpt lat="44.46866" lon="1.45501">
        <ele>137</ele>
        <time>2023-03-04T01:42:27Z</time>
      </trkpt>
      <trkpt lat="44.46891" lon="1.45607">
        <ele>135</ele>
        <time>2023-03-04T01:42:41Z</time>
      </trkpt>
      <trkpt lat="44.46898" lon="1.45627">
        <ele>135</ele>
        <time>2023-03-04T01:42:44Z</time>
      </trkpt>
      <trkpt lat="44.4692" lon="1.45685">
        <ele>137</ele>
        <time>2023-03-04T01:42:52Z</time>
      </trkpt>
      <trkpt lat="44.46979" lon="1.45963">
        <ele>128</ele>
        <time>2023-03-04T01:43:29Z</time>
      </trkpt>
      <trkpt lat="44.46996" lon="1.46051">
        <ele>125</ele>
        <time>2023-03-04T01:43:41Z</time>
      </trkpt>
      <trkpt lat="44.47002" lon="1.46139">
        <ele>125</ele>
        <time>2023-03-04T01:43:52Z</time>
      </trkpt>
      <trkpt lat="44.47012" lon="1.46227">
        <ele>131</ele>
        <time>2023-03-04T01:44:03Z</time>
      </trkpt>
      <trkpt lat="44.4701" lon="1.46267">
        <ele>134</ele>
        <time>2023-03-04T01:44:09Z</time>
      </trkpt>
      <trkpt lat="44.46998" lon="1.46484">
        <ele>139</ele>
        <time>2023-03-04T01:44:36Z</time>
      </trkpt>
      <trkpt lat="44.46986" lon="1.46557">
        <ele>139</ele>
        <time>2023-03-04T01:44:46Z</time>
      </trkpt>
      <trkpt lat="44.46969" lon="1.46623">
        <ele>140</ele>
        <time>2023-03-04T01:44:55Z</time>
      </trkpt>
      <trkpt lat="44.46944" lon="1.46699">
        <ele>145</ele>
        <time>2023-03-04T01:45:05Z</time>
      </trkpt>
      <trkpt lat="44.46937" lon="1.46706">
        <ele>146</ele>
        <time>2023-03-04T01:45:07Z</time>
      </trkpt>
      <trkpt lat="44.46912" lon="1.4684">
        <ele>151</ele>
        <time>2023-03-04T01:45:24Z</time>
      </trkpt>
      <trkpt lat="44.46899" lon="1.46889">
        <ele>150</ele>
        <time>2023-03-04T01:45:31Z</time>
      </trkpt>
      <trkpt lat="44.46892" lon="1.46943">
        <ele>148</ele>
        <time>2023-03-04T01:45:38Z</time>
      </trkpt>
      <trkpt lat="44.4688" lon="1.46995">
        <ele>147</ele>
        <time>2023-03-04T01:45:45Z</time>
      </trkpt>
      <trkpt lat="44.46854" lon="1.47094">
        <ele>146</ele>
        <time>2023-03-04T01:45:58Z</time>
      </trkpt>
      <trkpt lat="44.46816" lon="1.47204">
        <ele>145</ele>
        <time>2023-03-04T01:46:14Z</time>
      </trkpt>
      <trkpt lat="44.46799" lon="1.47254">
        <ele>144</ele>
        <time>2023-03-04T01:46:21Z</time>
      </trkpt>
      <trkpt lat="44.46757" lon="1.47344">
        <ele>144</ele>
        <time>2023-03-04T01:46:34Z</time>
      </trkpt>
      <trkpt lat="44.46732" lon="1.47434">
        <ele>143</ele>
        <time>2023-03-04T01:46:47Z</time>
      </trkpt>
      <trkpt lat="44.46732" lon="1.47488">
        <ele>142</ele>
        <time>2023-03-04T01:46:54Z</time>
      </trkpt>
      <trkpt lat="44.46723" lon="1.47529">
        <ele>141</ele>
        <time>2023-03-04T01:46:59Z</time>
      </trkpt>
      <trkpt lat="44.46679" lon="1.47657">
        <ele>141</ele>
        <time>2023-03-04T01:47:17Z</time>
      </trkpt>
      <trkpt lat="44.46673" lon="1.47679">
        <ele>141</ele>
        <time>2023-03-04T01:47:20Z</time>
      </trkpt>
      <trkpt lat="44.46658" lon="1.47711">
        <ele>140</ele>
        <time>2023-03-04T01:47:25Z</time>
      </trkpt>
      <trkpt lat="44.4665" lon="1.47713">
        <ele>141</ele>
        <time>2023-03-04T01:47:26Z</time>
      </trkpt>
      <trkpt lat="44.46641" lon="1.47713">
        <ele>141</ele>
        <time>2023-03-04T01:47:28Z</time>
      </trkpt>
      <trkpt lat="44.46626" lon="1.47704">
        <ele>142</ele>
        <time>2023-03-04T01:47:31Z</time>
      </trkpt>
      <trkpt lat="44.46583" lon="1.47651">
        <ele>146</ele>
        <time>2023-03-04T01:47:41Z</time>
      </trkpt>
      <trkpt lat="44.46556" lon="1.47634">
        <ele>147</ele>
        <time>2023-03-04T01:47:46Z</time>
      </trkpt>
      <trkpt lat="44.46463" lon="1.47579">
        <ele>153</ele>
        <time>2023-03-04T01:48:04Z</time>
      </trkpt>
      <trkpt lat="44.46436" lon="1.4757">
        <ele>153</ele>
        <time>2023-03-04T01:48:09Z</time>
      </trkpt>
      <trkpt lat="44.46424" lon="1.47562">
        <ele>153</ele>
        <time>2023-03-04T01:48:12Z</time>
      </trkpt>
      <trkpt lat="44.46375" lon="1.47541">
        <ele>155</ele>
        <time>2023-03-04T01:48:21Z</time>
      </trkpt>
      <trkpt lat="44.4633" lon="1.47529">
        <ele>155</ele>
        <time>2023-03-04T01:48:29Z</time>
      </trkpt>
      <trkpt lat="44.46342" lon="1.47972">
        <ele>154</ele>
        <time>2023-03-04T01:49:25Z</time>
      </trkpt>
      <trkpt lat="44.46334" lon="1.48024">
        <ele>152</ele>
        <time>2023-03-04T01:49:32Z</time>
      </trkpt>
      <trkpt lat="44.46326" lon="1.48051">
        <ele>150</ele>
        <time>2023-03-04T01:49:36Z</time>
      </trkpt>
      <trkpt lat="44.4631" lon="1.4808">
        <ele>150</ele>
        <time>2023-03-04T01:49:40Z</time>
      </trkpt>
      <trkpt lat="44.46232" lon="1.48181">
        <ele>147</ele>
        <time>2023-03-04T01:49:59Z</time>
      </trkpt>
      <trkpt lat="44.46201" lon="1.48206">
        <ele>145</ele>
        <time>2023-03-04T01:50:06Z</time>
      </trkpt>
      <trkpt lat="44.46128" lon="1.48242">
        <ele>141</ele>
        <time>2023-03-04T01:50:19Z</time>
      </trkpt>
      <trkpt lat="44.4611" lon="1.48254">
        <ele>139</ele>
        <time>2023-03-04T01:50:23Z</time>
      </trkpt>
      <trkpt lat="44.46093" lon="1.48275">
        <ele>137</ele>
        <time>2023-03-04T01:50:27Z</time>
      </trkpt>
      <trkpt lat="44.46085" lon="1.48288">
        <ele>135</ele>
        <time>2023-03-04T01:50:29Z</time>
      </trkpt>
      <trkpt lat="44.46055" lon="1.48363">
        <ele>130</ele>
        <time>2023-03-04T01:50:40Z</time>
      </trkpt>
      <trkpt lat="44.45968" lon="1.48491">
        <ele>138</ele>
        <time>2023-03-04T01:51:02Z</time>
      </trkpt>
      <trkpt lat="44.45903" lon="1.4864">
        <ele>139</ele>
        <time>2023-03-04T01:51:25Z</time>
      </trkpt>
      <trkpt lat="44.45847" lon="1.4879">
        <ele>150</ele>
        <time>2023-03-04T01:51:46Z</time>
      </trkpt>
      <trkpt lat="44.45793" lon="1.48957">
        <ele>150</ele>
        <time>2023-03-04T01:52:09Z</time>
      </trkpt>
      <trkpt lat="44.45771" lon="1.48999">
        <ele>149</ele>
        <time>2023-03-04T01:52:16Z</time>
      </trkpt>
      <trkpt lat="44.45727" lon="1.49054">
        <ele>149</ele>
        <time>2023-03-04T01:52:26Z</time>
      </trkpt>
      <trkpt lat="44.45677" lon="1.4914">
        <ele>145</ele>
        <time>2023-03-04T01:52:41Z</time>
      </trkpt>
      <trkpt lat="44.45655" lon="1.4919">
        <ele>137</ele>
        <time>2023-03-04T01:52:48Z</time>
      </trkpt>
      <trkpt lat="44.45644" lon="1.49225">
        <ele>136</ele>
        <time>2023-03-04T01:52:53Z</time>
      </trkpt>
      <trkpt lat="44.45636" lon="1.49259">
        <ele>136</ele>
        <time>2023-03-04T01:52:57Z</time>
      </trkpt>
      <trkpt lat="44.45629" lon="1.49305">
        <ele>139</ele>
        <time>2023-03-04T01:53:03Z</time>
      </trkpt>
      <trkpt lat="44.45616" lon="1.4944">
        <ele>148</ele>
        <time>2023-03-04T01:53:21Z</time>
      </trkpt>
      <trkpt lat="44.45619" lon="1.49551">
        <ele>140</ele>
        <time>2023-03-04T01:53:35Z</time>
      </trkpt>
      <trkpt lat="44.45624" lon="1.49663">
        <ele>137</ele>
        <time>2023-03-04T01:53:49Z</time>
      </trkpt>
      <trkpt lat="44.45632" lon="1.49764">
        <ele>134</ele>
        <time>2023-03-04T01:54:02Z</time>
      </trkpt>
      <trkpt lat="44.45636" lon="1.49799">
        <ele>133</ele>
        <time>2023-03-04T01:54:06Z</time>
      </trkpt>
      <trkpt lat="44.45657" lon="1.49918">
        <ele>134</ele>
        <time>2023-03-04T01:54:22Z</time>
      </trkpt>
      <trkpt lat="44.45663" lon="1.50003">
        <ele>132</ele>
        <time>2023-03-04T01:54:33Z</time>
      </trkpt>
      <trkpt lat="44.45666" lon="1.50306">
        <ele>128</ele>
        <time>2023-03-04T01:55:11Z</time>
      </trkpt>
      <trkpt lat="44.45671" lon="1.50589">
        <ele>122</ele>
        <time>2023-03-04T01:55:47Z</time>
      </trkpt>
      <trkpt lat="44.45673" lon="1.5064">
        <ele>122</ele>
        <time>2023-03-04T01:55:54Z</time>
      </trkpt>
      <trkpt lat="44.45676" lon="1.5068">
        <ele>122</ele>
        <time>2023-03-04T01:55:59Z</time>
      </trkpt>
      <trkpt lat="44.45729" lon="1.50667">
        <ele>121</ele>
        <time>2023-03-04T01:56:09Z</time>
      </trkpt>
      <trkpt lat="44.45735" lon="1.50687">
        <ele>122</ele>
        <time>2023-03-04T01:56:11Z</time>
      </trkpt>
      <trkpt lat="44.4574" lon="1.50714">
        <ele>122</ele>
        <time>2023-03-04T01:56:15Z</time>
      </trkpt>
      <trkpt lat="44.45755" lon="1.50793">
        <ele>123</ele>
        <time>2023-03-04T01:56:25Z</time>
      </trkpt>
      <trkpt lat="44.45807" lon="1.51114">
        <ele>124</ele>
        <time>2023-03-04T01:57:07Z</time>
      </trkpt>
      <trkpt lat="44.45823" lon="1.51201">
        <ele>123</ele>
        <time>2023-03-04T01:57:18Z</time>
      </trkpt>
      <trkpt lat="44.45835" lon="1.51337">
        <ele>123</ele>
        <time>2023-03-04T01:57:36Z</time>
      </trkpt>
      <trkpt lat="44.45845" lon="1.51414">
        <ele>123</ele>
        <time>2023-03-04T01:57:46Z</time>
      </trkpt>
      <trkpt lat="44.45878" lon="1.51554">
        <ele>124</ele>
        <time>2023-03-04T01:58:04Z</time>
      </trkpt>
      <trkpt lat="44.45889" lon="1.51586">
        <ele>125</ele>
        <time>2023-03-04T01:58:09Z</time>
      </trkpt>
      <trkpt lat="44.45922" lon="1.51655">
        <ele>127</ele>
        <time>2023-03-04T01:58:20Z</time>
      </trkpt>
      <trkpt lat="44.45948" lon="1.517">
        <ele>129</ele>
        <time>2023-03-04T01:58:27Z</time>
      </trkpt>
      <trkpt lat="44.45941" lon="1.51707">
        <ele>130</ele>
        <time>2023-03-04T01:58:28Z</time>
      </trkpt>
      <trkpt lat="44.45935" lon="1.51716">
        <ele>132</ele>
        <time>2023-03-04T01:58:30Z</time>
      </trkpt>
      <trkpt lat="44.45925" lon="1.51724">
        <ele>134</ele>
        <time>2023-03-04T01:58:32Z</time>
      </trkpt>
      <trkpt lat="44.4592" lon="1.51725">
        <ele>135</ele>
        <time>2023-03-04T01:58:33Z</time>
      </trkpt>
      <trkpt lat="44.45915" lon="1.51722">
        <ele>135</ele>
        <time>2023-03-04T01:58:34Z</time>
      </trkpt>
      <trkpt lat="44.45862" lon="1.51616">
        <ele>130</ele>
        <time>2023-03-04T01:58:50Z</time>
      </trkpt>
      <trkpt lat="44.45837" lon="1.51598">
        <ele>131</ele>
        <time>2023-03-04T01:58:55Z</time>
      </trkpt>
      <trkpt lat="44.45814" lon="1.51591">
        <ele>129</ele>
        <time>2023-03-04T01:59:00Z</time>
      </trkpt>
      <trkpt lat="44.45773" lon="1.51588">
        <ele>128</ele>
        <time>2023-03-04T01:59:07Z</time>
      </trkpt>
      <trkpt lat="44.45747" lon="1.5158">
        <ele>127</ele>
        <time>2023-03-04T01:59:12Z</time>
      </trkpt>
      <trkpt lat="44.45724" lon="1.5159">
        <ele>126</ele>
        <time>2023-03-04T01:59:16Z</time>
      </trkpt>
      <trkpt lat="44.45724" lon="1.51626">
        <ele>127</ele>
        <time>2023-03-04T01:59:20Z</time>
      </trkpt>
      <trkpt lat="44.45729" lon="1.51682">
        <ele>129</ele>
        <time>2023-03-04T01:59:28Z</time>
      </trkpt>
      <trkpt lat="44.45737" lon="1.51718">
        <ele>130</ele>
        <time>2023-03-04T01:59:32Z</time>
      </trkpt>
      <trkpt lat="44.4574" lon="1.5174">
        <ele>130</ele>
        <time>2023-03-04T01:59:35Z</time>
      </trkpt>
      <trkpt lat="44.45723" lon="1.51916">
        <ele>137</ele>
        <time>2023-03-04T01:59:58Z</time>
      </trkpt>
      <trkpt lat="44.45733" lon="1.51975">
        <ele>140</ele>
        <time>2023-03-04T02:00:05Z</time>
      </trkpt>
      <trkpt lat="44.45757" lon="1.52023">
        <ele>142</ele>
        <time>2023-03-04T02:00:13Z</time>
      </trkpt>
      <trkpt lat="44.45765" lon="1.52051">
        <ele>143</ele>
        <time>2023-03-04T02:00:17Z</time>
      </trkpt>
      <trkpt lat="44.45766" lon="1.52072">
        <ele>144</ele>
        <time>2023-03-04T02:00:19Z</time>
      </trkpt>
      <trkpt lat="44.4576" lon="1.52236">
        <ele>152</ele>
        <time>2023-03-04T02:00:40Z</time>
      </trkpt>
      <trkpt lat="44.45776" lon="1.5223">
        <ele>152</ele>
        <time>2023-03-04T02:00:43Z</time>
      </trkpt>
      <trkpt lat="44.4579" lon="1.52221">
        <ele>153</ele>
        <time>2023-03-04T02:00:46Z</time>
      </trkpt>
      <trkpt lat="44.45841" lon="1.52171">
        <ele>154</ele>
        <time>2023-03-04T02:00:57Z</time>
      </trkpt>
      <trkpt lat="44.45867" lon="1.52157">
        <ele>153</ele>
        <time>2023-03-04T02:01:02Z</time>
      </trkpt>
      <trkpt lat="44.45916" lon="1.52134">
        <ele>153</ele>
        <time>2023-03-04T02:01:11Z</time>
      </trkpt>
      <trkpt lat="44.45961" lon="1.5209">
        <ele>151</ele>
        <time>2023-03-04T02:01:21Z</time>
      </trkpt>
      <trkpt lat="44.4597" lon="1.52087">
        <ele>150</ele>
        <time>2023-03-04T02:01:23Z</time>
      </trkpt>
      <trkpt lat="44.4598" lon="1.52088">
        <ele>150</ele>
        <time>2023-03-04T02:01:24Z</time>
      </trkpt>
      <trkpt lat="44.45983" lon="1.5209">
        <ele>150</ele>
        <time>2023-03-04T02:01:25Z</time>
      </trkpt>
      <trkpt lat="44.45988" lon="1.52098">
        <ele>149</ele>
        <time>2023-03-04T02:01:26Z</time>
      </trkpt>
      <trkpt lat="44.46041" lon="1.52282">
        <ele>144</ele>
        <time>2023-03-04T02:01:52Z</time>
      </trkpt>
      <trkpt lat="44.46042" lon="1.52296">
        <ele>144</ele>
        <time>2023-03-04T02:01:53Z</time>
      </trkpt>
      <trkpt lat="44.4604" lon="1.52303">
        <ele>145</ele>
        <time>2023-03-04T02:01:54Z</time>
      </trkpt>
      <trkpt lat="44.46016" lon="1.52359">
        <ele>151</ele>
        <time>2023-03-04T02:02:03Z</time>
      </trkpt>
      <trkpt lat="44.46012" lon="1.52376">
        <ele>152</ele>
        <time>2023-03-04T02:02:05Z</time>
      </trkpt>
      <trkpt lat="44.46011" lon="1.52395">
        <ele>152</ele>
        <time>2023-03-04T02:02:07Z</time>
      </trkpt>
      <trkpt lat="44.46015" lon="1.52411">
        <ele>153</ele>
        <time>2023-03-04T02:02:09Z</time>
      </trkpt>
      <trkpt lat="44.46018" lon="1.52417">
        <ele>153</ele>
        <time>2023-03-04T02:02:10Z</time>
      </trkpt>
      <trkpt lat="44.46026" lon="1.52425">
        <ele>153</ele>
        <time>2023-03-04T02:02:12Z</time>
      </trkpt>
      <trkpt lat="44.46051" lon="1.52426">
        <ele>152</ele>
        <time>2023-03-04T02:02:17Z</time>
      </trkpt>
      <trkpt lat="44.46061" lon="1.52428">
        <ele>151</ele>
        <time>2023-03-04T02:02:18Z</time>
      </trkpt>
      <trkpt lat="44.46092" lon="1.52462">
        <ele>155</ele>
        <time>2023-03-04T02:02:25Z</time>
      </trkpt>
      <trkpt lat="44.46146" lon="1.52487">
        <ele>154</ele>
        <time>2023-03-04T02:02:35Z</time>
      </trkpt>
      <trkpt lat="44.46155" lon="1.52493">
        <ele>155</ele>
        <time>2023-03-04T02:02:37Z</time>
      </trkpt>
      <trkpt lat="44.46161" lon="1.52499">
        <ele>155</ele>
        <time>2023-03-04T02:02:39Z</time>
      </trkpt>
      <trkpt lat="44.46226" lon="1.52607">
        <ele>161</ele>
        <time>2023-03-04T02:02:56Z</time>
      </trkpt>
      <trkpt lat="44.46261" lon="1.52641">
        <ele>157</ele>
        <time>2023-03-04T02:03:04Z</time>
      </trkpt>
      <trkpt lat="44.46292" lon="1.52676">
        <ele>155</ele>
        <time>2023-03-04T02:03:11Z</time>
      </trkpt>
      <trkpt lat="44.46321" lon="1.52724">
        <ele>156</ele>
        <time>2023-03-04T02:03:19Z</time>
      </trkpt>
      <trkpt lat="44.46328" lon="1.52731">
        <ele>156</ele>
        <time>2023-03-04T02:03:21Z</time>
      </trkpt>
      <trkpt lat="44.46334" lon="1.52734">
        <ele>155</ele>
        <time>2023-03-04T02:03:22Z</time>
      </trkpt>
      <trkpt lat="44.46387" lon="1.52751">
        <ele>148</ele>
        <time>2023-03-04T02:03:31Z</time>
      </trkpt>
      <trkpt lat="44.46395" lon="1.52758">
        <ele>147</ele>
        <time>2023-03-04T02:03:33Z</time>
      </trkpt>
      <trkpt lat="44.46452" lon="1.52826">
        <ele>146</ele>
        <time>2023-03-04T02:03:46Z</time>
      </trkpt>
      <trkpt lat="44.46499" lon="1.52864">
        <ele>143</ele>
        <time>2023-03-04T02:03:56Z</time>
      </trkpt>
      <trkpt lat="44.46514" lon="1.52874">
        <ele>142</ele>
        <time>2023-03-04T02:03:59Z</time>
      </trkpt>
      <trkpt lat="44.46536" lon="1.52881">
        <ele>139</ele>
        <time>2023-03-04T02:04:03Z</time>
      </trkpt>
      <trkpt lat="44.46543" lon="1.52884">
        <ele>138</ele>
        <time>2023-03-04T02:04:04Z</time>
      </trkpt>
      <trkpt lat="44.46556" lon="1.52898">
        <ele>138</ele>
        <time>2023-03-04T02:04:07Z</time>
      </trkpt>
      <trkpt lat="44.46579" lon="1.52925">
        <ele>137</ele>
        <time>2023-03-04T02:04:13Z</time>
      </trkpt>
      <trkpt lat="44.46593" lon="1.5295">
        <ele>137</ele>
        <time>2023-03-04T02:04:17Z</time>
      </trkpt>
      <trkpt lat="44.46608" lon="1.52979">
        <ele>137</ele>
        <time>2023-03-04T02:04:21Z</time>
      </trkpt>
      <trkpt lat="44.46621" lon="1.53007">
        <ele>137</ele>
        <time>2023-03-04T02:04:25Z</time>
      </trkpt>
      <trkpt lat="44.46654" lon="1.53095">
        <ele>134</ele>
        <time>2023-03-04T02:04:38Z</time>
      </trkpt>
      <trkpt lat="44.46705" lon="1.53201">
        <ele>136</ele>
        <time>2023-03-04T02:04:54Z</time>
      </trkpt>
      <trkpt lat="44.46711" lon="1.53218">
        <ele>137</ele>
        <time>2023-03-04T02:04:57Z</time>
      </trkpt>
      <trkpt lat="44.46714" lon="1.53234">
        <ele>138</ele>
        <time>2023-03-04T02:04:59Z</time>
      </trkpt>
      <trkpt lat="44.46715" lon="1.53254">
        <ele>139</ele>
        <time>2023-03-04T02:05:01Z</time>
      </trkpt>
      <trkpt lat="44.46713" lon="1.53283">
        <ele>139</ele>
        <time>2023-03-04T02:05:05Z</time>
      </trkpt>
      <trkpt lat="44.46721" lon="1.53323">
        <ele>139</ele>
        <time>2023-03-04T02:05:10Z</time>
      </trkpt>
      <trkpt lat="44.46721" lon="1.5334">
        <ele>139</ele>
        <time>2023-03-04T02:05:13Z</time>
      </trkpt>
      <trkpt lat="44.46705" lon="1.53409">
        <ele>143</ele>
        <time>2023-03-04T02:05:22Z</time>
      </trkpt>
      <trkpt lat="44.46703" lon="1.53426">
        <ele>144</ele>
        <time>2023-03-04T02:05:24Z</time>
      </trkpt>
      <trkpt lat="44.4669" lon="1.53459">
        <ele>146</ele>
        <time>2023-03-04T02:05:29Z</time>
      </trkpt>
      <trkpt lat="44.46681" lon="1.53474">
        <ele>148</ele>
        <time>2023-03-04T02:05:31Z</time>
      </trkpt>
      <trkpt lat="44.4667" lon="1.5349">
        <ele>151</ele>
        <time>2023-03-04T02:05:34Z</time>
      </trkpt>
      <trkpt lat="44.46648" lon="1.53511">
        <ele>155</ele>
        <time>2023-03-04T02:05:39Z</time>
      </trkpt>
      <trkpt lat="44.46609" lon="1.53579">
        <ele>166</ele>
        <time>2023-03-04T02:05:50Z</time>
      </trkpt>
      <trkpt lat="44.466" lon="1.53607">
        <ele>170</ele>
        <time>2023-03-04T02:05:54Z</time>
      </trkpt>
      <trkpt lat="44.46598" lon="1.53641">
        <ele>172</ele>
        <time>2023-03-04T02:05:58Z</time>
      </trkpt>
      <trkpt lat="44.46601" lon="1.53683">
        <ele>173</ele>
        <time>2023-03-04T02:06:03Z</time>
      </trkpt>
      <trkpt lat="44.46607" lon="1.53726">
        <ele>173</ele>
        <time>2023-03-04T02:06:09Z</time>
      </trkpt>
      <trkpt lat="44.4662" lon="1.53843">
        <ele>172</ele>
        <time>2023-03-04T02:06:24Z</time>
      </trkpt>
      <trkpt lat="44.46626" lon="1.53942">
        <ele>171</ele>
        <time>2023-03-04T02:06:37Z</time>
      </trkpt>
      <trkpt lat="44.46624" lon="1.53967">
        <ele>170</ele>
        <time>2023-03-04T02:06:40Z</time>
      </trkpt>
      <trkpt lat="44.46618" lon="1.54011">
        <ele>170</ele>
        <time>2023-03-04T02:06:46Z</time>
      </trkpt>
      <trkpt lat="44.46614" lon="1.54024">
        <ele>170</ele>
        <time>2023-03-04T02:06:47Z</time>
      </trkpt>
      <trkpt lat="44.46606" lon="1.54037">
        <ele>173</ele>
        <time>2023-03-04T02:06:49Z</time>
      </trkpt>
      <trkpt lat="44.46593" lon="1.54051">
        <ele>178</ele>
        <time>2023-03-04T02:06:52Z</time>
      </trkpt>
      <trkpt lat="44.46549" lon="1.54077">
        <ele>190</ele>
        <time>2023-03-04T02:07:01Z</time>
      </trkpt>
      <trkpt lat="44.4653" lon="1.54091">
        <ele>195</ele>
        <time>2023-03-04T02:07:05Z</time>
      </trkpt>
      <trkpt lat="44.4652" lon="1.54103">
        <ele>198</ele>
        <time>2023-03-04T02:07:07Z</time>
      </trkpt>
      <trkpt lat="44.46516" lon="1.54114">
        <ele>199</ele>
        <time>2023-03-04T02:07:09Z</time>
      </trkpt>
      <trkpt lat="44.46516" lon="1.54123">
        <ele>199</ele>
        <time>2023-03-04T02:07:10Z</time>
      </trkpt>
      <trkpt lat="44.46521" lon="1.5413">
        <ele>197</ele>
        <time>2023-03-04T02:07:11Z</time>
      </trkpt>
      <trkpt lat="44.46541" lon="1.54149">
        <ele>187</ele>
        <time>2023-03-04T02:07:15Z</time>
      </trkpt>
      <trkpt lat="44.46546" lon="1.54157">
        <ele>185</ele>
        <time>2023-03-04T02:07:17Z</time>
      </trkpt>
      <trkpt lat="44.46546" lon="1.54166">
        <ele>184</ele>
        <time>2023-03-04T02:07:18Z</time>
      </trkpt>
      <trkpt lat="44.46542" lon="1.54176">
        <ele>184</ele>
        <time>2023-03-04T02:07:19Z</time>
      </trkpt>
      <trkpt lat="44.46523" lon="1.54202">
        <ele>191</ele>
        <time>2023-03-04T02:07:24Z</time>
      </trkpt>
      <trkpt lat="44.46513" lon="1.54211">
        <ele>197</ele>
        <time>2023-03-04T02:07:26Z</time>
      </trkpt>
      <trkpt lat="44.46506" lon="1.54221">
        <ele>200</ele>
        <time>2023-03-04T02:07:28Z</time>
      </trkpt>
      <trkpt lat="44.46502" lon="1.54234">
        <ele>202</ele>
        <time>2023-03-04T02:07:30Z</time>
      </trkpt>
      <trkpt lat="44.46493" lon="1.54284">
        <ele>200</ele>
        <time>2023-03-04T02:07:36Z</time>
      </trkpt>
      <trkpt lat="44.46489" lon="1.54294">
        <ele>201</ele>
        <time>2023-03-04T02:07:38Z</time>
      </trkpt>
      <trkpt lat="44.46485" lon="1.54302">
        <ele>202</ele>
        <time>2023-03-04T02:07:39Z</time>
      </trkpt>
      <trkpt lat="44.46468" lon="1.5432">
        <ele>210</ele>
        <time>2023-03-04T02:07:43Z</time>
      </trkpt>
      <trkpt lat="44.46463" lon="1.5433">
        <ele>213</ele>
        <time>2023-03-04T02:07:44Z</time>
      </trkpt>
      <trkpt lat="44.4646" lon="1.54345">
        <ele>214</ele>
        <time>2023-03-04T02:07:46Z</time>
      </trkpt>
      <trkpt lat="44.46457" lon="1.54397">
        <ele>214</ele>
        <time>2023-03-04T02:07:53Z</time>
      </trkpt>
      <trkpt lat="44.46459" lon="1.54418">
        <ele>211</ele>
        <time>2023-03-04T02:07:56Z</time>
      </trkpt>
      <trkpt lat="44.46465" lon="1.54446">
        <ele>202</ele>
        <time>2023-03-04T02:07:59Z</time>
      </trkpt>
      <trkpt lat="44.46465" lon="1.5446">
        <ele>200</ele>
        <time>2023-03-04T02:08:01Z</time>
      </trkpt>
      <trkpt lat="44.46457" lon="1.54494">
        <ele>202</ele>
        <time>2023-03-04T02:08:06Z</time>
      </trkpt>
      <trkpt lat="44.46444" lon="1.54585">
        <ele>208</ele>
        <time>2023-03-04T02:08:17Z</time>
      </trkpt>
      <trkpt lat="44.46441" lon="1.54621">
        <ele>210</ele>
        <time>2023-03-04T02:08:22Z</time>
      </trkpt>
      <trkpt lat="44.46433" lon="1.54682">
        <ele>215</ele>
        <time>2023-03-04T02:08:30Z</time>
      </trkpt>
      <trkpt lat="44.46434" lon="1.54706">
        <ele>216</ele>
        <time>2023-03-04T02:08:33Z</time>
      </trkpt>
      <trkpt lat="44.46437" lon="1.54725">
        <ele>215</ele>
        <time>2023-03-04T02:08:35Z</time>
      </trkpt>
      <trkpt lat="44.46442" lon="1.54738">
        <ele>213</ele>
        <time>2023-03-04T02:08:37Z</time>
      </trkpt>
      <trkpt lat="44.46478" lon="1.54807">
        <ele>205</ele>
        <time>2023-03-04T02:08:48Z</time>
      </trkpt>
      <trkpt lat="44.46509" lon="1.54854">
        <ele>197</ele>
        <time>2023-03-04T02:08:56Z</time>
      </trkpt>
      <trkpt lat="44.46525" lon="1.54886">
        <ele>190</ele>
        <time>2023-03-04T02:09:01Z</time>
      </trkpt>
      <trkpt lat="44.46531" lon="1.54902">
        <ele>187</ele>
        <time>2023-03-04T02:09:04Z</time>
      </trkpt>
      <trkpt lat="44.46537" lon="1.54927">
        <ele>185</ele>
        <time>2023-03-04T02:09:07Z</time>
      </trkpt>
      <trkpt lat="44.46537" lon="1.54937">
        <ele>185</ele>
        <time>2023-03-04T02:09:08Z</time>
      </trkpt>
      <trkpt lat="44.46534" lon="1.54949">
        <ele>187</ele>
        <time>2023-03-04T02:09:10Z</time>
      </trkpt>
      <trkpt lat="44.46509" lon="1.55004">
        <ele>196</ele>
        <time>2023-03-04T02:09:18Z</time>
      </trkpt>
      <trkpt lat="44.46478" lon="1.55083">
        <ele>193</ele>
        <time>2023-03-04T02:09:29Z</time>
      </trkpt>
      <trkpt lat="44.46468" lon="1.55101">
        <ele>193</ele>
        <time>2023-03-04T02:09:32Z</time>
      </trkpt>
      <trkpt lat="44.4645" lon="1.55123">
        <ele>193</ele>
        <time>2023-03-04T02:09:37Z</time>
      </trkpt>
      <trkpt lat="44.46426" lon="1.55138">
        <ele>194</ele>
        <time>2023-03-04T02:09:41Z</time>
      </trkpt>
      <trkpt lat="44.46415" lon="1.55149">
        <ele>194</ele>
        <time>2023-03-04T02:09:44Z</time>
      </trkpt>
      <trkpt lat="44.46406" lon="1.55164">
        <ele>192</ele>
        <time>2023-03-04T02:09:46Z</time>
      </trkpt>
      <trkpt lat="44.46398" lon="1.55195">
        <ele>194</ele>
        <time>2023-03-04T02:09:50Z</time>
      </trkpt>
      <trkpt lat="44.46407" lon="1.55199">
        <ele>193</ele>
        <time>2023-03-04T02:09:52Z</time>
      </trkpt>
      <trkpt lat="44.4642" lon="1.55213">
        <ele>193</ele>
        <time>2023-03-04T02:09:55Z</time>
      </trkpt>
      <trkpt lat="44.46437" lon="1.55246">
        <ele>194</ele>
        <time>2023-03-04T02:10:00Z</time>
      </trkpt>
      <trkpt lat="44.46438" lon="1.55281">
        <ele>196</ele>
        <time>2023-03-04T02:10:05Z</time>
      </trkpt>
      <trkpt lat="44.46437" lon="1.55295">
        <ele>196</ele>
        <time>2023-03-04T02:10:06Z</time>
      </trkpt>
      <trkpt lat="44.46439" lon="1.55301">
        <ele>197</ele>
        <time>2023-03-04T02:10:07Z</time>
      </trkpt>
      <trkpt lat="44.46445" lon="1.55307">
        <ele>198</ele>
        <time>2023-03-04T02:10:09Z</time>
      </trkpt>
      <trkpt lat="44.46452" lon="1.55309">
        <ele>198</ele>
        <time>2023-03-04T02:10:10Z</time>
      </trkpt>
      <trkpt lat="44.4646" lon="1.55307">
        <ele>198</ele>
        <time>2023-03-04T02:10:11Z</time>
      </trkpt>
      <trkpt lat="44.46484" lon="1.55276">
        <ele>196</ele>
        <time>2023-03-04T02:10:17Z</time>
      </trkpt>
      <trkpt lat="44.46511" lon="1.55227">
        <ele>193</ele>
        <time>2023-03-04T02:10:25Z</time>
      </trkpt>
      <trkpt lat="44.46524" lon="1.55205">
        <ele>192</ele>
        <time>2023-03-04T02:10:29Z</time>
      </trkpt>
      <trkpt lat="44.46579" lon="1.5513">
        <ele>188</ele>
        <time>2023-03-04T02:10:42Z</time>
      </trkpt>
      <trkpt lat="44.46594" lon="1.55113">
        <ele>186</ele>
        <time>2023-03-04T02:10:46Z</time>
      </trkpt>
      <trkpt lat="44.46613" lon="1.55096">
        <ele>182</ele>
        <time>2023-03-04T02:10:50Z</time>
      </trkpt>
      <trkpt lat="44.4663" lon="1.55088">
        <ele>180</ele>
        <time>2023-03-04T02:10:53Z</time>
      </trkpt>
      <trkpt lat="44.46644" lon="1.55086">
        <ele>179</ele>
        <time>2023-03-04T02:10:55Z</time>
      </trkpt>
      <trkpt lat="44.46656" lon="1.55087">
        <ele>179</ele>
        <time>2023-03-04T02:10:57Z</time>
      </trkpt>
      <trkpt lat="44.46665" lon="1.55092">
        <ele>181</ele>
        <time>2023-03-04T02:10:59Z</time>
      </trkpt>
      <trkpt lat="44.46684" lon="1.55114">
        <ele>182</ele>
        <time>2023-03-04T02:11:04Z</time>
      </trkpt>
      <trkpt lat="44.46746" lon="1.55178">
        <ele>185</ele>
        <time>2023-03-04T02:11:17Z</time>
      </trkpt>
      <trkpt lat="44.46789" lon="1.55241">
        <ele>193</ele>
        <time>2023-03-04T02:11:28Z</time>
      </trkpt>
      <trkpt lat="44.46803" lon="1.55254">
        <ele>194</ele>
        <time>2023-03-04T02:11:31Z</time>
      </trkpt>
      <trkpt lat="44.46827" lon="1.55268">
        <ele>192</ele>
        <time>2023-03-04T02:11:36Z</time>
      </trkpt>
      <trkpt lat="44.46943" lon="1.55321">
        <ele>188</ele>
        <time>2023-03-04T02:11:58Z</time>
      </trkpt>
      <trkpt lat="44.47015" lon="1.55358">
        <ele>188</ele>
        <time>2023-03-04T02:12:11Z</time>
      </trkpt>
      <trkpt lat="44.47048" lon="1.55385">
        <ele>190</ele>
        <time>2023-03-04T02:12:18Z</time>
      </trkpt>
      <trkpt lat="44.47058" lon="1.55396">
        <ele>191</ele>
        <time>2023-03-04T02:12:20Z</time>
      </trkpt>
      <trkpt lat="44.47071" lon="1.55423">
        <ele>196</ele>
        <time>2023-03-04T02:12:25Z</time>
      </trkpt>
      <trkpt lat="44.47077" lon="1.5543">
        <ele>196</ele>
        <time>2023-03-04T02:12:26Z</time>
      </trkpt>
      <trkpt lat="44.47102" lon="1.55435">
        <ele>196</ele>
        <time>2023-03-04T02:12:30Z</time>
      </trkpt>
      <trkpt lat="44.47133" lon="1.55436">
        <ele>195</ele>
        <time>2023-03-04T02:12:36Z</time>
      </trkpt>
      <trkpt lat="44.47153" lon="1.55433">
        <ele>194</ele>
        <time>2023-03-04T02:12:39Z</time>
      </trkpt>
      <trkpt lat="44.47168" lon="1.55428">
        <ele>192</ele>
        <time>2023-03-04T02:12:42Z</time>
      </trkpt>
      <trkpt lat="44.47177" lon="1.55422">
        <ele>191</ele>
        <time>2023-03-04T02:12:44Z</time>
      </trkpt>
      <trkpt lat="44.47198" lon="1.55399">
        <ele>185</ele>
        <time>2023-03-04T02:12:49Z</time>
      </trkpt>
      <trkpt lat="44.47206" lon="1.55393">
        <ele>183</ele>
        <time>2023-03-04T02:12:50Z</time>
      </trkpt>
      <trkpt lat="44.47219" lon="1.5539">
        <ele>183</ele>
        <time>2023-03-04T02:12:53Z</time>
      </trkpt>
      <trkpt lat="44.4724" lon="1.55394">
        <ele>185</ele>
        <time>2023-03-04T02:12:56Z</time>
      </trkpt>
      <trkpt lat="44.47271" lon="1.55392">
        <ele>183</ele>
        <time>2023-03-04T02:13:02Z</time>
      </trkpt>
      <trkpt lat="44.47282" lon="1.55393">
        <ele>183</ele>
        <time>2023-03-04T02:13:04Z</time>
      </trkpt>
      <trkpt lat="44.47321" lon="1.5541">
        <ele>189</ele>
        <time>2023-03-04T02:13:11Z</time>
      </trkpt>
      <trkpt lat="44.47353" lon="1.55416">
        <ele>190</ele>
        <time>2023-03-04T02:13:17Z</time>
      </trkpt>
      <trkpt lat="44.47364" lon="1.55417">
        <ele>190</ele>
        <time>2023-03-04T02:13:19Z</time>
      </trkpt>
      <trkpt lat="44.47393" lon="1.55414">
        <ele>185</ele>
        <time>2023-03-04T02:13:24Z</time>
      </trkpt>
      <trkpt lat="44.47422" lon="1.55415">
        <ele>182</ele>
        <time>2023-03-04T02:13:29Z</time>
      </trkpt>
      <trkpt lat="44.47449" lon="1.55419">
        <ele>176</ele>
        <time>2023-03-04T02:13:34Z</time>
      </trkpt>
      <trkpt lat="44.47471" lon="1.55425">
        <ele>172</ele>
        <time>2023-03-04T02:13:38Z</time>
      </trkpt>
      <trkpt lat="44.47493" lon="1.55438">
        <ele>171</ele>
        <time>2023-03-04T02:13:42Z</time>
      </trkpt>
      <trkpt lat="44.47527" lon="1.55461">
        <ele>171</ele>
        <time>2023-03-04T02:13:49Z</time>
      </trkpt>
      <trkpt lat="44.47577" lon="1.55507">
        <ele>169</ele>
        <time>2023-03-04T02:14:00Z</time>
      </trkpt>
      <trkpt lat="44.47588" lon="1.55526">
        <ele>168</ele>
        <time>2023-03-04T02:14:03Z</time>
      </trkpt>
      <trkpt lat="44.47601" lon="1.55559">
        <ele>168</ele>
        <time>2023-03-04T02:14:08Z</time>
      </trkpt>
      <trkpt lat="44.47624" lon="1.55624">
        <ele>165</ele>
        <time>2023-03-04T02:14:17Z</time>
      </trkpt>
      <trkpt lat="44.47629" lon="1.55644">
        <ele>165</ele>
        <time>2023-03-04T02:14:19Z</time>
      </trkpt>
      <trkpt lat="44.4764" lon="1.55662">
        <ele>162</ele>
        <time>2023-03-04T02:14:23Z</time>
      </trkpt>
      <trkpt lat="44.47656" lon="1.55683">
        <ele>157</ele>
        <time>2023-03-04T02:14:26Z</time>
      </trkpt>
      <trkpt lat="44.47699" lon="1.557">
        <ele>152</ele>
        <time>2023-03-04T02:14:34Z</time>
      </trkpt>
      <trkpt lat="44.47721" lon="1.55701">
        <ele>152</ele>
        <time>2023-03-04T02:14:38Z</time>
      </trkpt>
      <trkpt lat="44.4773" lon="1.55698">
        <ele>151</ele>
        <time>2023-03-04T02:14:40Z</time>
      </trkpt>
      <trkpt lat="44.47762" lon="1.55665">
        <ele>151</ele>
        <time>2023-03-04T02:14:47Z</time>
      </trkpt>
      <trkpt lat="44.47791" lon="1.55648">
        <ele>151</ele>
        <time>2023-03-04T02:14:53Z</time>
      </trkpt>
      <trkpt lat="44.47836" lon="1.55628">
        <ele>152</ele>
        <time>2023-03-04T02:15:01Z</time>
      </trkpt>
      <trkpt lat="44.47852" lon="1.55624">
        <ele>152</ele>
        <time>2023-03-04T02:15:04Z</time>
      </trkpt>
      <trkpt lat="44.47896" lon="1.55617">
        <ele>153</ele>
        <time>2023-03-04T02:15:12Z</time>
      </trkpt>
      <trkpt lat="44.47906" lon="1.55613">
        <ele>153</ele>
        <time>2023-03-04T02:15:14Z</time>
      </trkpt>
      <trkpt lat="44.47916" lon="1.55605">
        <ele>152</ele>
        <time>2023-03-04T02:15:16Z</time>
      </trkpt>
      <trkpt lat="44.47944" lon="1.55554">
        <ele>150</ele>
        <time>2023-03-04T02:15:24Z</time>
      </trkpt>
      <trkpt lat="44.47956" lon="1.55538">
        <ele>148</ele>
        <time>2023-03-04T02:15:27Z</time>
      </trkpt>
      <trkpt lat="44.47991" lon="1.55504">
        <ele>145</ele>
        <time>2023-03-04T02:15:34Z</time>
      </trkpt>
      <trkpt lat="44.48018" lon="1.55487">
        <ele>142</ele>
        <time>2023-03-04T02:15:40Z</time>
      </trkpt>
      <trkpt lat="44.48047" lon="1.55481">
        <ele>140</ele>
        <time>2023-03-04T02:15:45Z</time>
      </trkpt>
      <trkpt lat="44.4807" lon="1.55483">
        <ele>140</ele>
        <time>2023-03-04T02:15:49Z</time>
      </trkpt>
      <trkpt lat="44.48089" lon="1.55494">
        <ele>141</ele>
        <time>2023-03-04T02:15:53Z</time>
      </trkpt>
      <trkpt lat="44.48108" lon="1.55516">
        <ele>143</ele>
        <time>2023-03-04T02:15:57Z</time>
      </trkpt>
      <trkpt lat="44.48118" lon="1.55522">
        <ele>142</ele>
        <time>2023-03-04T02:15:59Z</time>
      </trkpt>
      <trkpt lat="44.48125" lon="1.55522">
        <ele>141</ele>
        <time>2023-03-04T02:16:00Z</time>
      </trkpt>
      <trkpt lat="44.48133" lon="1.55519">
        <ele>139</ele>
        <time>2023-03-04T02:16:02Z</time>
      </trkpt>
      <trkpt lat="44.48142" lon="1.55511">
        <ele>136</ele>
        <time>2023-03-04T02:16:04Z</time>
      </trkpt>
      <trkpt lat="44.48231" lon="1.55341">
        <ele>123</ele>
        <time>2023-03-04T02:16:30Z</time>
      </trkpt>
      <trkpt lat="44.48315" lon="1.55184">
        <ele>131</ele>
        <time>2023-03-04T02:16:55Z</time>
      </trkpt>
      <trkpt lat="44.48335" lon="1.55159">
        <ele>141</ele>
        <time>2023-03-04T02:17:00Z</time>
      </trkpt>
      <trkpt lat="44.48314" lon="1.5516">
        <ele>137</ele>
        <time>2023-03-04T02:17:04Z</time>
      </trkpt>
      <trkpt lat="44.48302" lon="1.55156">
        <ele>138</ele>
        <time>2023-03-04T02:17:06Z</time>
      </trkpt>
      <trkpt lat="44.48194" lon="1.55102">
        <ele>150</ele>
        <time>2023-03-04T02:17:26Z</time>
      </trkpt>
      <trkpt lat="44.48146" lon="1.55086">
        <ele>145</ele>
        <time>2023-03-04T02:17:35Z</time>
      </trkpt>
      <trkpt lat="44.48042" lon="1.55054">
        <ele>145</ele>
        <time>2023-03-04T02:17:54Z</time>
      </trkpt>
      <trkpt lat="44.47984" lon="1.55029">
        <ele>144</ele>
        <time>2023-03-04T02:18:05Z</time>
      </trkpt>
      <trkpt lat="44.47916" lon="1.54986">
        <ele>138</ele>
        <time>2023-03-04T02:18:18Z</time>
      </trkpt>
      <trkpt lat="44.47871" lon="1.54947">
        <ele>137</ele>
        <time>2023-03-04T02:18:28Z</time>
      </trkpt>
      <trkpt lat="44.47769" lon="1.54842">
        <ele>135</ele>
        <time>2023-03-04T02:18:50Z</time>
      </trkpt>
      <trkpt lat="44.47759" lon="1.54834">
        <ele>134</ele>
        <time>2023-03-04T02:18:52Z</time>
      </trkpt>
      <trkpt lat="44.47744" lon="1.54833">
        <ele>133</ele>
        <time>2023-03-04T02:18:55Z</time>
      </trkpt>
      <trkpt lat="44.47723" lon="1.54836">
        <ele>131</ele>
        <time>2023-03-04T02:18:59Z</time>
      </trkpt>
      <trkpt lat="44.47709" lon="1.54829">
        <ele>131</ele>
        <time>2023-03-04T02:19:01Z</time>
      </trkpt>
      <trkpt lat="44.47667" lon="1.54795">
        <ele>134</ele>
        <time>2023-03-04T02:19:10Z</time>
      </trkpt>
      <trkpt lat="44.47637" lon="1.54779">
        <ele>136</ele>
        <time>2023-03-04T02:19:15Z</time>
      </trkpt>
      <trkpt lat="44.476" lon="1.54768">
        <ele>137</ele>
        <time>2023-03-04T02:19:22Z</time>
      </trkpt>
      <trkpt lat="44.47566" lon="1.54766">
        <ele>138</ele>
        <time>2023-03-04T02:19:28Z</time>
      </trkpt>
      <trkpt lat="44.47531" lon="1.54773">
        <ele>137</ele>
        <time>2023-03-04T02:19:35Z</time>
      </trkpt>
      <trkpt lat="44.47108" lon="1.5489">
        <ele>136</ele>
        <time>2023-03-04T02:20:51Z</time>
      </trkpt>
      <trkpt lat="44.47073" lon="1.54895">
        <ele>136</ele>
        <time>2023-03-04T02:20:58Z</time>
      </trkpt>
      <trkpt lat="44.47047" lon="1.54896">
        <ele>135</ele>
        <time>2023-03-04T02:21:02Z</time>
      </trkpt>
      <trkpt lat="44.47011" lon="1.54891">
        <ele>135</ele>
        <time>2023-03-04T02:21:09Z</time>
      </trkpt>
      <trkpt lat="44.46966" lon="1.54875">
        <ele>136</ele>
        <time>2023-03-04T02:21:17Z</time>
      </trkpt>
      <trkpt lat="44.46853" lon="1.54809">
        <ele>132</ele>
        <time>2023-03-04T02:21:39Z</time>
      </trkpt>
      <trkpt lat="44.46838" lon="1.54798">
        <ele>131</ele>
        <time>2023-03-04T02:21:42Z</time>
      </trkpt>
      <trkpt lat="44.4681" lon="1.54778">
        <ele>131</ele>
        <time>2023-03-04T02:21:47Z</time>
      </trkpt>
      <trkpt lat="44.46777" lon="1.5475">
        <ele>130</ele>
        <time>2023-03-04T02:21:54Z</time>
      </trkpt>
      <trkpt lat="44.46768" lon="1.54736">
        <ele>129</ele>
        <time>2023-03-04T02:21:57Z</time>
      </trkpt>
      <trkpt lat="44.4676" lon="1.54718">
        <ele>128</ele>
        <time>2023-03-04T02:21:59Z</time>
      </trkpt>
      <trkpt lat="44.46758" lon="1.54695">
        <ele>128</ele>
        <time>2023-03-04T02:22:02Z</time>
      </trkpt>
      <trkpt lat="44.46758" lon="1.54667">
        <ele>128</ele>
        <time>2023-03-04T02:22:06Z</time>
      </trkpt>
      <trkpt lat="44.46763" lon="1.54605">
        <ele>129</ele>
        <time>2023-03-04T02:22:14Z</time>
      </trkpt>
      <trkpt lat="44.46769" lon="1.54555">
        <ele>130</ele>
        <time>2023-03-04T02:22:20Z</time>
      </trkpt>
      <trkpt lat="44.46774" lon="1.54533">
        <ele>130</ele>
        <time>2023-03-04T02:22:23Z</time>
      </trkpt>
      <trkpt lat="44.46792" lon="1.54486">
        <ele>131</ele>
        <time>2023-03-04T02:22:30Z</time>
      </trkpt>
      <trkpt lat="44.46798" lon="1.5449">
        <ele>132</ele>
        <time>2023-03-04T02:22:31Z</time>
      </trkpt>
      <trkpt lat="44.46807" lon="1.54508">
        <ele>134</ele>
        <time>2023-03-04T02:22:34Z</time>
      </trkpt>
      <trkpt lat="44.46808" lon="1.54572">
        <ele>136</ele>
        <time>2023-03-04T02:22:42Z</time>
      </trkpt>
      <trkpt lat="44.46812" lon="1.54589">
        <ele>137</ele>
        <time>2023-03-04T02:22:44Z</time>
      </trkpt>
      <trkpt lat="44.46816" lon="1.54594">
        <ele>138</ele>
        <time>2023-03-04T02:22:45Z</time>
      </trkpt>
      <trkpt lat="44.46869" lon="1.54612">
        <ele>148</ele>
        <time>2023-03-04T02:22:55Z</time>
      </trkpt>
      <trkpt lat="44.46929" lon="1.54621">
        <ele>158</ele>
        <time>2023-03-04T02:23:06Z</time>
      </trkpt>
      <trkpt lat="44.46973" lon="1.54633">
        <ele>162</ele>
        <time>2023-03-04T02:23:14Z</time>
      </trkpt>
      <trkpt lat="44.46997" lon="1.54633">
        <ele>164</ele>
        <time>2023-03-04T02:23:18Z</time>
      </trkpt>
      <trkpt lat="44.47057" lon="1.54615">
        <ele>169</ele>
        <time>2023-03-04T02:23:29Z</time>
      </trkpt>
      <trkpt lat="44.47096" lon="1.54598">
        <ele>173</ele>
        <time>2023-03-04T02:23:36Z</time>
      </trkpt>
      <trkpt lat="44.47104" lon="1.54596">
        <ele>173</ele>
        <time>2023-03-04T02:23:37Z</time>
      </trkpt>
      <trkpt lat="44.47124" lon="1.54597">
        <ele>175</ele>
        <time>2023-03-04T02:23:41Z</time>
      </trkpt>
      <trkpt lat="44.47142" lon="1.5459">
        <ele>176</ele>
        <time>2023-03-04T02:23:44Z</time>
      </trkpt>
      <trkpt lat="44.47155" lon="1.54589">
        <ele>177</ele>
        <time>2023-03-04T02:23:47Z</time>
      </trkpt>
      <trkpt lat="44.47172" lon="1.54589">
        <ele>178</ele>
        <time>2023-03-04T02:23:50Z</time>
      </trkpt>
      <trkpt lat="44.47196" lon="1.54585">
        <ele>181</ele>
        <time>2023-03-04T02:23:54Z</time>
      </trkpt>
      <trkpt lat="44.47231" lon="1.54575">
        <ele>184</ele>
        <time>2023-03-04T02:24:00Z</time>
      </trkpt>
      <trkpt lat="44.47235" lon="1.54578">
        <ele>185</ele>
        <time>2023-03-04T02:24:01Z</time>
      </trkpt>
      <trkpt lat="44.47252" lon="1.54598">
        <ele>185</ele>
        <time>2023-03-04T02:24:05Z</time>
      </trkpt>
    </trkseg>
  </trk>
</gpx>